GFSMA_sfc_wetblb_000.txt.gz
Wetbulb
54.85 54.85 55.37 54.82 54.98 54.44 54.18 53.48 51.58 50.34 49.82 50.56 51.83 52.85 53.13 53.94 54.81 55.73 56.01 58.08 58.36 57.96 59.00 61.47 64.21 64.63 64.82 65.54 65.56 65.95 66.36 66.63 66.82 66.85 66.30 66.11 65.92 65.82 65.98 65.89 65.49 65.40 65.31
55.51 54.65 54.89 54.60 53.84 53.68 52.19 49.99 47.97 47.17 46.80 47.93 49.25 48.93 48.96 49.83 52.19 52.56 51.50 51.55 55.32 56.04 57.04 58.63 60.15 62.35 64.65 64.58 64.86 65.39 65.52 65.85 66.32 66.54 66.20 65.65 65.35 65.24 65.36 65.49 65.29 65.14 65.22
55.35 54.91 54.35 54.14 53.64 52.13 49.31 48.62 46.80 46.03 44.81 45.79 44.99 45.94 46.46 47.40 50.35 48.67 46.95 48.42 49.76 53.08 55.40 57.86 59.42 60.34 61.54 62.83 64.04 64.62 65.03 64.95 65.37 65.68 65.97 65.65 65.21 65.09 64.98 65.05 65.11 64.98 65.11
52.78 51.23 51.26 51.66 52.23 49.66 48.76 48.04 42.24 42.09 42.48 42.54 42.72 42.95 43.55 44.04 44.77 44.60 45.37 45.71 47.15 49.59 53.43 57.80 59.67 60.58 61.21 61.34 61.94 62.02 63.53 64.53 64.63 65.11 65.42 65.24 65.31 64.88 64.75 64.63 64.58 64.72 64.65
51.61 48.90 48.23 48.61 48.68 45.91 45.29 45.73 41.82 42.29 41.47 41.33 41.77 42.01 42.08 42.14 43.07 44.38 44.05 44.63 46.27 47.93 51.47 54.57 56.23 58.90 59.61 59.30 59.60 60.21 61.25 62.77 64.02 64.58 64.52 64.18 64.74 64.98 64.53 64.38 64.32 64.23 64.25
50.90 49.34 48.23 47.94 46.82 44.76 43.73 42.35 42.18 42.01 42.04 41.51 43.16 42.61 41.20 42.14 42.09 42.22 43.02 44.69 45.09 46.76 47.31 48.90 51.87 53.06 54.67 56.52 57.46 59.61 60.78 61.11 62.95 63.63 63.98 64.21 64.36 63.34 63.57 64.14 64.26 64.23 63.97
50.47 49.95 48.52 47.39 47.16 45.49 45.50 43.25 42.32 41.79 40.91 41.12 40.21 39.41 39.93 40.97 40.99 41.59 42.68 43.52 44.76 45.85 46.74 48.23 48.68 49.27 50.96 53.75 54.97 58.55 60.47 59.71 58.44 60.05 59.58 60.20 61.82 62.12 62.66 62.56 63.88 63.91 64.23
48.72 49.76 48.82 47.37 46.66 46.85 44.19 43.30 42.12 40.71 40.72 40.33 38.87 37.23 35.37 37.56 38.88 41.36 42.01 41.76 43.11 44.20 45.37 46.10 46.35 47.69 49.72 49.55 51.79 53.87 54.14 57.74 58.18 56.48 56.57 56.68 58.22 59.40 61.24 62.13 63.06 63.76 63.57
46.94 48.66 49.24 48.42 46.79 46.69 46.37 45.06 43.50 41.32 41.35 39.50 39.86 38.08 34.62 33.32 35.54 38.03 39.07 40.29 40.27 41.03 42.63 42.71 45.06 46.09 46.34 47.19 49.50 49.63 51.58 53.12 57.87 54.52 54.34 54.07 54.78 57.91 58.76 60.14 61.68 62.15 63.63
44.56 46.11 48.54 48.17 46.78 46.20 45.90 45.02 44.56 42.76 39.75 38.10 38.73 41.38 38.85 37.55 31.59 30.95 36.27 39.41 38.69 39.29 39.72 41.39 42.36 43.52 45.15 46.00 47.26 48.37 49.47 50.35 52.47 54.67 53.92 54.00 54.52 56.02 56.28 57.46 57.07 61.61 62.74
43.05 43.47 44.58 45.57 45.50 44.16 43.34 43.21 41.44 40.47 40.01 38.05 36.72 36.38 35.60 36.76 36.46 33.08 30.30 33.37 36.50 38.27 39.33 40.19 40.98 42.42 42.90 43.99 45.36 47.10 48.53 48.15 49.76 53.10 54.45 53.50 53.61 54.66 55.30 55.43 55.88 57.59 61.23
40.51 39.93 41.49 41.44 40.21 39.36 38.32 38.11 39.25 38.24 36.94 38.52 37.57 37.40 36.63 34.34 33.01 32.24 31.38 31.62 32.52 35.93 38.19 38.95 39.76 40.47 41.83 43.04 45.45 47.51 47.76 47.44 48.64 51.44 54.35 52.26 51.25 52.54 53.51 54.47 54.17 55.01 60.58
35.97 36.00 37.07 38.07 38.47 38.98 39.68 40.75 39.76 39.77 39.90 39.57 39.11 38.65 38.98 38.62 38.51 36.68 34.43 32.29 31.39 33.23 35.27 38.07 39.17 39.53 41.33 41.46 42.90 46.45 48.48 45.97 47.38 50.05 51.71 52.93 53.02 52.04 51.91 51.86 52.71 54.21 55.80
35.86 38.02 38.84 39.41 39.63 39.85 40.55 40.69 40.45 40.63 40.93 40.17 39.27 39.14 37.75 37.67 38.03 37.19 35.87 32.02 30.45 31.60 33.03 33.83 36.92 38.64 40.09 41.11 42.53 45.50 45.90 45.31 44.97 46.37 46.69 50.11 50.65 51.04 51.11 50.57 49.32 51.74 53.32
38.63 38.55 38.86 39.05 39.77 41.32 42.11 41.41 40.18 39.15 38.97 38.48 37.77 37.91 37.44 37.55 37.48 37.39 37.11 35.57 32.62 28.78 29.27 32.26 33.02 38.44 39.17 40.70 41.73 43.10 44.12 44.02 44.94 44.75 44.54 47.11 47.69 48.51 48.96 49.16 49.54 50.33 50.95
38.35 38.47 38.86 38.63 39.16 38.34 38.74 39.87 39.45 39.56 38.48 38.04 37.77 36.61 35.88 36.21 35.96 36.04 35.75 35.45 34.89 33.10 29.18 32.63 33.49 35.87 38.10 39.57 41.70 40.79 40.43 44.90 43.82 43.29 42.42 43.47 43.38 44.18 46.00 47.21 47.34 47.83 48.54
37.16 36.68 37.72 37.31 37.52 38.31 38.10 37.31 36.99 36.52 35.71 35.46 35.09 34.14 33.02 33.43 32.66 32.91 32.88 33.11 32.99 32.95 30.67 32.46 33.77 35.53 36.66 37.78 38.49 39.57 41.10 40.90 42.74 42.42 42.10 42.75 42.45 42.65 42.80 43.22 43.64 44.54 46.40
36.05 36.01 36.96 36.90 36.93 35.81 35.16 34.95 34.24 33.87 32.79 31.79 31.69 31.18 31.18 33.13 31.64 31.94 31.74 31.12 31.52 32.00 31.23 29.36 31.30 32.72 33.87 36.58 37.72 37.56 38.93 40.35 40.04 40.89 41.47 41.41 41.75 42.30 42.62 42.07 41.98 43.01 43.24
36.80 36.50 36.43 36.71 36.41 35.70 34.43 33.04 31.92 31.23 30.56 30.35 29.70 29.33 29.35 29.33 28.17 28.86 28.96 28.70 29.03 30.96 30.25 29.71 28.97 31.52 32.62 34.04 34.68 35.91 36.74 37.83 38.56 40.57 39.91 39.35 40.55 41.54 42.61 42.24 41.98 42.03 42.55
37.21 37.12 36.96 35.66 34.25 32.35 31.82 31.60 30.75 28.65 27.95 28.27 28.36 27.75 27.20 26.97 26.63 26.60 27.08 27.14 27.94 27.49 28.00 27.79 28.14 28.44 29.83 31.60 32.20 31.17 31.28 34.13 34.37 36.53 38.34 38.40 39.90 40.86 41.69 41.88 41.91 41.88 41.75
37.87 37.98 36.84 32.66 31.41 30.91 30.97 29.37 28.64 27.85 27.04 26.54 27.31 27.42 27.69 28.53 30.84 29.93 28.52 27.57 27.23 26.84 27.65 27.47 26.99 27.17 27.00 26.99 27.62 29.43 29.12 30.51 32.05 34.00 34.14 35.24 37.72 38.59 39.82 40.54 41.74 41.61 41.35
36.91 36.98 31.90 28.62 28.32 29.86 33.02 31.60 31.16 27.96 27.63 26.96 25.81 26.33 26.36 28.52 28.44 29.54 30.04 30.52 29.57 26.80 25.99 25.64 25.68 24.63 25.08 25.13 26.63 26.58 26.79 26.68 25.49 32.49 32.11 32.84 36.23 35.62 36.93 38.16 38.74 39.29 39.91
29.19 27.66 27.37 27.57 27.86 28.12 31.55 31.70 31.11 28.01 27.10 26.23 25.25 25.42 26.14 27.15 28.11 27.53 28.51 29.13 29.13 29.76 28.41 28.19 26.94 27.01 26.26 27.49 27.14 26.50 27.04 26.79 26.49 29.83 32.52 30.62 32.27 33.30 35.23 36.39 37.90 38.67 38.49
26.45 25.95 26.21 27.16 26.58 26.67 29.69 29.51 29.16 25.97 24.51 24.62 24.85 25.19 25.24 25.75 26.88 27.25 27.26 26.88 27.41 27.69 27.94 27.83 27.53 27.69 28.87 29.20 28.38 28.28 27.94 28.34 28.99 29.54 31.60 27.53 29.97 29.11 31.40 33.07 35.98 37.32 38.05
25.12 25.49 27.00 25.79 24.29 24.55 27.67 28.04 27.34 22.77 22.06 22.41 24.83 25.62 25.59 25.88 27.48 29.07 27.10 26.47 26.39 27.51 30.01 31.10 31.84 31.05 30.82 31.46 30.67 28.42 26.76 26.33 25.14 26.55 28.48 28.27 28.69 27.05 27.45 30.70 33.07 35.36 36.56
25.44 25.57 24.27 23.93 24.26 21.80 25.46 27.30 26.50 23.32 21.20 23.71 23.94 26.02 27.02 26.81 28.23 29.04 27.46 26.69 25.40 26.59 28.16 28.58 28.61 29.77 31.55 31.43 31.70 30.57 29.54 26.55 26.01 24.95 27.10 27.11 27.61 27.03 26.82 27.29 28.65 31.46 33.48

GFSMA_sfc_wetblb_003.txt.gz
Wetbulb
63.52 62.75 62.16 62.23 62.27 62.66 62.08 61.90 60.12 56.36 55.41 55.18 57.07 56.56 56.02 56.51 57.65 56.78 56.38 55.61 56.39 56.52 57.61 59.30 60.57 62.00 64.17 65.21 65.21 65.07 65.37 66.11 66.50 66.55 66.27 65.65 65.60 65.59 65.75 65.89 65.83 65.60 65.58
63.48 62.58 62.45 62.37 62.29 62.11 62.11 60.54 56.30 54.69 54.43 54.69 55.11 54.25 54.22 55.47 56.23 55.46 54.57 54.84 53.79 54.79 57.30 59.14 60.13 60.75 61.66 62.53 63.87 64.53 64.89 65.10 65.17 65.89 66.05 65.45 65.14 64.94 64.82 64.85 65.29 65.38 65.52
62.56 62.41 62.33 62.29 62.35 62.33 61.28 57.44 54.99 54.37 53.63 52.86 52.81 53.27 54.07 54.00 54.67 53.68 54.12 53.97 54.68 54.48 55.93 58.16 58.63 60.70 60.75 60.91 61.83 62.59 63.30 64.73 64.83 64.53 65.24 65.38 65.25 64.78 64.66 64.52 64.65 65.07 65.45
60.84 61.24 61.00 61.01 61.65 61.48 60.24 57.50 55.61 52.89 51.39 52.07 52.32 52.40 52.45 52.54 52.67 52.79 53.38 53.50 53.52 54.36 55.32 54.82 56.58 57.32 57.42 58.25 59.16 59.79 61.06 62.36 63.93 64.30 64.12 64.76 64.83 64.90 64.61 64.32 64.25 64.45 64.79
59.73 59.75 59.32 59.25 59.68 58.88 58.15 56.56 54.59 52.43 50.89 51.37 50.99 51.56 51.76 51.19 51.74 51.11 51.48 52.39 53.06 53.95 53.92 54.03 54.86 54.78 54.81 56.48 56.69 58.03 59.40 60.59 61.21 62.09 63.67 63.62 64.15 64.17 64.37 64.41 64.34 64.32 64.39
58.38 58.60 58.23 57.79 57.72 56.15 55.77 54.37 52.92 52.24 51.05 51.33 49.27 49.48 51.42 51.46 51.39 51.44 51.39 50.31 52.87 52.59 53.28 53.98 54.55 54.14 53.24 53.74 53.67 55.17 57.57 60.26 60.36 59.37 61.05 61.63 62.67 63.02 63.72 63.52 63.39 64.34 64.47
55.27 56.25 56.47 56.85 56.60 55.02 55.37 54.88 52.99 51.13 50.25 50.77 49.36 49.70 49.98 50.95 50.89 50.81 51.27 51.26 50.73 52.15 53.03 53.59 51.99 51.42 51.48 52.43 51.58 53.20 54.79 55.79 58.05 58.55 58.16 57.96 58.28 58.88 61.17 61.70 62.97 61.92 63.80
53.31 53.21 54.18 54.53 55.27 54.51 54.96 55.03 52.98 51.68 50.32 51.04 48.44 48.31 45.49 47.99 48.55 49.44 49.97 50.58 50.57 51.26 50.82 49.51 49.33 48.78 48.77 50.04 51.69 51.73 52.81 53.71 54.95 56.40 56.45 55.01 56.19 57.50 59.35 60.35 61.58 62.72 62.32
52.75 52.67 52.59 52.65 53.63 54.10 52.88 54.47 54.06 52.47 50.44 50.96 50.06 48.48 44.88 43.16 46.92 48.36 48.23 48.16 49.83 48.66 48.40 47.92 48.00 46.78 48.23 50.30 50.20 50.62 50.56 50.44 54.19 54.72 57.17 54.82 54.05 55.50 58.16 59.73 59.86 60.85 62.82
51.60 51.16 50.73 50.74 51.41 52.36 52.63 52.89 53.74 53.36 52.10 49.83 48.39 47.58 48.05 46.58 44.02 43.47 45.58 46.44 47.07 45.75 45.89 47.81 47.26 47.09 47.43 46.57 48.72 48.93 48.50 48.80 50.25 52.55 53.55 54.82 54.41 55.21 56.62 56.55 57.83 57.18 58.97
50.17 48.90 48.37 48.68 48.97 49.39 50.37 50.82 50.98 50.80 50.45 49.61 48.23 46.89 44.82 44.13 44.19 41.18 40.22 43.00 43.16 44.33 45.46 45.86 45.30 46.92 45.69 46.84 48.14 48.26 47.43 47.78 49.28 52.03 53.03 54.62 54.62 54.37 55.04 55.66 54.84 56.28 56.39
47.37 46.23 46.47 46.84 46.37 46.26 46.34 46.50 46.22 46.11 45.97 45.71 45.10 44.38 43.77 41.17 41.30 40.21 38.65 39.00 39.83 42.76 43.50 43.76 44.48 45.17 46.61 46.37 46.50 45.93 47.42 46.71 47.55 50.41 53.19 54.38 53.60 52.94 53.65 54.12 53.60 53.31 54.09
45.56 44.88 45.11 45.80 45.68 45.97 46.04 46.06 45.45 44.94 44.49 43.74 42.94 40.97 41.94 39.87 39.69 38.66 37.02 38.05 38.73 41.64 41.50 43.57 43.81 44.94 44.61 45.46 47.29 45.08 46.73 44.35 44.76 48.00 49.04 51.67 52.37 52.60 52.39 51.57 51.07 51.96 52.30
43.85 44.74 45.34 45.84 46.29 46.36 45.87 46.08 46.11 45.06 43.17 42.12 39.92 39.62 39.13 38.60 38.64 38.50 37.65 37.14 35.63 37.78 39.85 39.85 43.03 43.43 43.80 44.36 44.78 44.74 46.76 43.05 43.76 46.06 46.41 48.45 49.66 49.34 50.24 50.04 48.69 48.57 49.81
44.13 44.34 45.00 44.57 44.69 44.65 44.49 44.24 43.29 42.51 41.67 40.89 40.28 39.79 39.40 40.15 40.07 40.00 39.34 38.55 35.50 32.42 34.77 39.22 38.98 42.61 43.24 43.49 44.16 45.35 46.77 43.89 44.30 44.44 43.49 44.80 45.21 45.51 46.20 47.31 48.41 49.29 48.47
43.65 43.25 42.21 42.13 41.96 42.00 41.85 41.19 41.04 41.49 41.01 41.07 40.59 40.40 40.33 40.03 39.82 39.63 39.16 38.86 38.16 35.49 32.22 37.46 38.21 40.19 41.75 41.08 42.60 43.77 43.93 43.80 43.80 43.25 42.32 43.28 44.08 44.32 44.71 44.78 44.67 46.93 47.42
41.70 41.18 40.87 40.89 40.48 40.00 38.95 39.20 39.39 39.01 38.59 38.71 39.14 38.71 37.67 38.32 37.53 37.82 38.26 37.70 36.62 36.27 33.25 35.82 38.30 39.81 39.65 39.93 40.62 42.13 43.03 43.09 43.49 42.81 41.89 42.18 42.25 42.31 42.71 43.34 43.26 43.24 45.25
40.98 40.64 40.26 39.89 39.44 39.02 40.21 38.76 37.36 37.06 36.30 35.77 35.98 36.12 35.58 35.63 35.97 36.49 36.31 35.75 36.09 36.66 34.87 32.93 36.18 37.28 37.97 39.72 40.59 40.82 40.91 41.86 43.04 42.07 41.74 41.96 41.85 41.58 41.68 42.40 42.44 41.86 42.30
41.57 41.23 40.33 39.54 39.37 37.98 37.36 36.59 35.78 35.36 35.37 35.21 34.80 33.90 33.48 33.36 32.83 33.60 33.52 33.41 33.78 34.24 34.64 33.25 32.92 35.72 36.55 37.49 37.31 38.29 38.81 39.82 40.38 41.04 40.77 40.43 40.55 41.20 41.54 42.58 43.03 42.43 42.27
40.33 38.96 39.81 39.91 38.27 36.31 35.37 35.33 34.85 33.99 33.30 32.69 32.55 32.50 32.12 31.65 31.19 31.51 31.47 31.60 31.82 32.01 32.28 31.65 31.65 32.39 33.78 35.37 35.54 34.40 34.85 37.41 37.26 38.07 39.03 38.15 38.90 40.21 41.40 41.98 41.91 42.42 42.83
40.18 39.65 38.86 37.40 34.91 34.17 33.77 34.40 33.21 32.40 32.03 31.63 32.20 31.71 31.60 31.35 30.93 31.17 30.97 31.61 31.92 31.08 30.74 29.87 29.20 29.99 30.52 30.84 30.60 33.62 33.20 34.94 36.15 37.68 37.16 38.73 39.30 40.07 40.60 41.39 41.29 42.19 42.11
34.74 34.26 33.37 32.59 32.56 32.69 33.45 31.93 32.60 32.60 31.77 30.91 30.09 30.45 30.55 30.27 30.34 29.68 29.94 30.17 30.81 29.85 28.55 28.45 28.50 28.03 29.75 30.57 31.33 31.31 31.38 30.73 29.24 36.93 35.14 35.52 37.81 37.57 38.96 40.60 39.13 40.18 41.42
33.08 32.31 31.96 31.97 32.08 32.30 30.71 30.93 30.35 31.01 30.26 29.61 28.81 28.54 28.45 29.20 29.70 30.23 29.68 29.42 29.18 29.50 28.78 29.21 27.87 28.58 29.04 30.64 31.07 29.81 30.81 30.61 30.32 33.77 34.25 32.11 36.58 36.32 39.00 39.07 38.95 39.05 39.34
31.16 30.87 30.96 31.02 30.26 29.88 28.61 28.70 28.57 29.61 28.99 28.47 28.30 28.33 28.37 28.81 29.52 28.62 27.89 28.21 29.12 29.92 30.25 30.04 30.10 30.20 31.48 32.05 31.75 31.51 31.46 31.57 32.52 33.20 34.38 29.32 34.84 34.36 37.65 39.54 38.23 38.56 38.78
30.23 29.98 29.53 28.99 28.39 28.36 27.46 27.24 27.54 28.34 27.65 27.22 28.04 28.73 28.64 28.22 28.54 29.09 28.13 27.77 28.51 29.38 31.09 31.67 31.89 32.08 32.00 32.00 31.96 31.62 29.66 28.52 27.83 29.20 33.05 30.79 32.34 33.57 34.35 36.66 38.82 36.75 37.01
29.16 28.79 27.58 28.22 27.29 27.18 26.68 26.60 27.04 27.47 26.20 26.24 27.51 28.35 28.10 28.26 28.14 28.61 29.13 28.20 26.85 28.01 29.23 31.58 31.37 32.00 32.22 32.71 31.77 32.02 31.48 28.05 27.37 26.91 31.62 30.06 30.07 31.07 29.84 36.41 36.47 38.45 38.38

GFSMA_sfc_wetblb_006.txt.gz
Wetbulb
65.39 64.70 63.86 63.07 62.78 62.95 62.70 62.61 62.16 60.22 57.68 56.61 57.29 57.34 56.90 57.56 58.35 58.23 59.00 54.31 54.87 56.12 57.86 58.75 59.63 60.59 61.81 62.71 63.80 64.44 64.20 64.76 65.66 66.23 66.47 65.89 65.52 65.65 65.63 65.99 66.02 66.13 66.07
64.55 63.09 62.00 61.29 61.26 61.37 61.74 61.87 61.01 59.10 57.40 56.73 56.28 57.06 56.50 56.74 57.18 57.42 57.12 56.83 53.58 55.70 57.34 58.19 59.50 60.57 61.03 61.54 62.54 62.92 63.21 64.06 64.65 64.81 65.63 65.33 65.22 65.30 64.93 65.06 65.38 65.73 65.82
63.03 62.76 61.27 60.99 61.00 61.42 62.03 62.12 61.39 59.59 57.76 56.11 55.53 56.17 56.10 56.54 55.94 55.84 55.80 56.24 55.56 55.24 55.56 56.48 57.79 58.19 58.33 58.83 59.59 60.23 61.52 62.57 63.35 64.16 64.25 64.73 64.93 64.76 64.56 64.40 64.80 65.07 65.36
62.98 62.52 60.93 60.69 61.28 61.42 60.75 60.36 59.86 58.49 57.41 55.94 55.16 55.40 55.44 55.67 55.42 55.35 55.54 55.47 55.48 55.54 55.03 55.74 55.96 55.72 56.45 57.34 57.30 58.15 58.91 60.00 60.93 62.02 63.77 64.03 64.52 64.60 64.60 64.32 64.25 64.56 64.63
61.39 61.55 60.50 60.58 61.45 60.54 59.89 59.54 58.99 58.54 56.98 55.78 54.91 55.14 55.61 55.14 55.11 54.26 54.67 55.26 55.42 54.97 55.18 53.93 54.31 53.85 53.83 53.82 53.85 55.46 57.40 59.58 60.31 61.10 61.55 63.01 63.48 63.93 63.92 64.36 64.38 64.39 64.24
59.07 59.34 59.44 60.04 60.48 59.78 59.21 58.73 58.46 58.28 57.13 56.04 53.96 53.60 54.48 55.27 55.34 54.71 54.38 54.28 54.34 55.20 55.24 55.12 55.62 55.00 53.09 51.31 51.19 52.09 54.77 56.30 57.31 60.43 59.12 60.78 60.89 63.13 63.47 63.55 63.87 64.05 64.36
57.49 57.61 57.33 57.91 58.36 57.77 58.02 58.61 58.00 57.43 56.66 56.85 54.24 53.58 53.95 55.23 54.95 54.32 54.61 54.23 53.78 54.35 55.11 55.03 54.44 54.42 54.11 51.20 50.12 51.94 53.11 54.47 55.44 55.89 57.74 57.70 57.61 58.58 59.95 62.57 62.82 63.57 63.08
55.44 55.13 55.78 55.64 56.03 55.61 56.27 56.68 56.84 55.96 56.38 56.95 53.24 52.45 49.37 51.74 53.75 54.02 54.17 53.42 54.03 53.78 53.85 53.86 52.61 51.92 52.03 52.23 52.62 50.31 51.09 51.96 53.43 55.61 55.79 57.75 55.89 56.68 57.38 58.93 60.89 61.69 62.33
54.06 54.26 54.50 54.54 54.68 54.69 53.60 54.68 55.07 54.64 53.21 55.40 56.55 52.28 48.86 47.73 50.80 53.48 53.24 53.01 53.31 52.82 53.28 52.29 50.94 50.30 50.41 51.46 50.85 51.54 49.67 49.58 50.88 53.42 54.15 56.75 55.94 55.50 55.58 57.59 59.37 60.67 61.37
53.15 53.27 53.14 53.63 53.73 53.51 53.08 52.97 52.98 53.52 53.31 51.96 53.93 54.63 54.56 53.15 48.72 46.83 51.21 51.98 52.47 51.66 52.01 51.08 50.17 50.20 50.15 49.78 49.42 48.77 48.53 48.11 49.34 52.81 53.51 53.32 55.75 55.50 55.69 56.66 57.40 57.60 58.92
52.59 52.24 52.28 52.36 52.41 52.27 52.22 52.19 52.33 52.38 52.58 51.87 51.50 51.52 50.58 51.50 51.09 47.50 46.74 47.10 49.95 50.68 50.09 49.61 50.05 49.78 49.98 49.49 49.45 49.52 47.83 47.41 48.10 50.37 53.65 53.20 54.08 55.26 55.25 55.61 56.18 55.72 56.39
50.78 51.33 51.11 51.43 51.46 50.74 50.38 50.34 50.50 49.88 49.66 49.24 48.46 47.35 46.66 42.04 43.31 45.01 45.00 46.87 47.44 47.73 48.50 48.93 48.50 48.67 49.73 49.52 49.05 45.43 46.37 45.96 45.73 48.33 51.44 54.01 54.65 54.87 53.69 53.85 54.78 54.78 54.12
48.70 49.88 49.86 49.95 49.80 49.58 49.31 50.19 50.03 48.19 45.26 44.09 43.22 41.66 40.80 39.75 39.64 39.75 41.24 41.49 41.46 45.93 46.55 47.75 47.85 48.34 48.16 49.29 48.27 45.86 46.52 43.52 44.23 46.93 48.24 50.10 51.59 52.16 52.87 53.07 53.05 53.11 53.15
48.33 49.26 48.85 49.14 49.22 49.11 48.95 48.87 46.38 44.60 45.04 45.28 43.90 42.26 41.44 42.38 40.95 38.50 37.18 37.01 36.05 39.40 42.33 43.77 47.91 47.56 47.50 47.50 47.10 44.44 46.00 42.54 43.30 45.44 46.56 48.88 47.32 48.45 48.17 48.35 49.75 49.98 49.52
47.64 47.81 48.32 47.38 45.83 45.98 45.73 45.02 43.44 41.93 42.10 41.98 42.98 42.82 42.96 42.29 41.01 40.27 39.81 39.04 36.41 34.82 35.30 41.39 42.56 47.05 46.52 46.47 46.26 46.38 46.68 45.09 43.04 44.82 44.29 45.25 45.25 44.82 44.99 45.23 46.34 47.22 49.22
47.62 46.32 45.18 44.74 44.34 44.51 44.44 43.61 42.43 41.12 40.48 40.55 39.72 39.36 40.56 41.71 41.91 41.73 40.62 40.02 39.32 37.32 34.31 39.20 40.69 42.78 43.91 43.17 44.54 44.41 44.51 44.10 42.99 43.45 43.99 43.60 43.97 44.21 44.03 43.95 44.14 44.86 45.50
45.07 44.48 44.10 43.90 43.24 41.62 41.10 40.64 40.26 40.64 40.34 39.83 39.94 39.85 39.22 40.19 39.62 39.78 40.31 40.12 39.02 38.80 35.54 37.89 40.42 41.86 41.85 42.28 42.69 43.69 43.75 43.89 44.39 42.18 42.50 42.36 42.25 42.37 42.53 42.55 42.93 43.72 44.17
44.50 44.01 43.01 41.74 41.73 41.25 40.84 39.70 39.58 40.07 39.19 38.41 38.59 38.69 38.03 37.84 37.99 38.42 38.45 37.79 38.10 38.78 37.01 35.26 38.31 39.19 40.03 41.52 42.20 41.98 42.03 42.66 43.53 42.52 42.44 42.14 41.79 41.43 41.54 40.95 41.12 42.34 42.75
42.05 41.85 41.69 41.07 40.49 40.18 40.49 40.06 39.26 38.75 38.82 38.67 38.10 37.22 36.68 36.70 36.20 36.74 36.87 36.43 36.88 36.73 37.13 35.58 35.28 38.28 38.93 39.94 39.73 40.69 40.87 41.80 41.83 41.60 40.55 40.80 40.96 41.58 41.44 41.04 41.52 41.78 42.56
41.09 40.71 40.23 39.64 39.41 38.51 38.06 38.10 37.70 37.26 36.87 36.55 36.47 36.16 35.80 35.19 34.67 34.80 34.59 34.56 34.54 34.66 35.01 34.32 34.35 35.12 36.34 37.99 38.24 36.91 37.00 39.37 39.26 40.47 40.01 38.49 39.01 39.93 40.70 40.57 40.41 41.26 42.04
38.87 38.54 37.75 37.65 37.57 37.10 36.54 35.82 35.79 36.13 35.88 35.59 35.55 35.22 35.40 34.75 32.56 32.38 32.23 32.53 33.04 33.07 33.65 33.85 33.59 34.31 34.53 34.86 34.64 36.68 35.46 36.61 38.22 39.63 39.21 40.22 40.66 40.92 41.36 39.24 39.28 40.37 40.47
37.48 37.18 36.60 36.36 35.98 35.83 32.13 31.61 32.41 33.96 34.28 34.00 33.74 34.55 34.63 33.63 33.33 32.33 31.30 30.83 31.18 31.11 31.18 30.91 30.47 30.25 32.22 32.78 34.51 33.36 33.44 32.35 30.52 38.69 37.72 37.31 39.15 38.49 40.53 41.64 39.34 39.43 39.96
36.72 35.93 35.72 35.49 34.96 35.12 29.95 29.86 29.53 31.73 32.11 32.44 32.74 32.67 32.28 32.68 32.22 32.79 31.75 31.56 30.89 30.40 29.00 29.66 28.11 29.12 29.71 31.64 32.21 31.74 32.12 31.74 31.44 35.33 36.07 34.35 37.75 36.38 39.17 39.91 38.36 38.59 39.20
35.45 35.09 34.73 34.13 33.71 33.53 30.19 28.76 27.98 30.55 31.64 31.84 32.03 32.17 31.66 32.00 32.19 30.80 29.82 29.17 29.94 31.06 32.01 31.81 31.04 31.08 31.99 32.46 33.40 33.53 33.23 33.03 33.79 34.43 35.59 30.87 35.56 35.15 38.03 38.48 38.12 38.58 39.00
34.69 34.26 33.57 32.92 32.27 32.12 30.11 28.00 27.77 29.35 29.43 29.63 30.76 31.44 30.31 29.28 29.73 29.84 29.39 29.27 29.47 30.39 32.38 32.57 32.26 32.01 32.07 32.34 32.65 32.59 31.44 30.35 30.47 30.96 34.45 32.74 33.66 34.19 35.86 37.46 39.83 37.26 37.12
33.92 33.29 32.08 32.20 30.60 30.28 28.92 27.34 27.40 28.21 27.05 27.29 28.49 29.00 29.46 30.08 29.65 29.26 29.50 29.37 27.50 28.36 30.09 31.49 32.19 32.70 32.59 32.88 31.79 32.80 32.77 29.28 29.67 29.12 33.14 31.31 31.26 31.88 30.51 37.68 38.15 39.69 40.11

GFSMA_sfc_wetblb_009.txt.gz
Wetbulb
64.48 63.58 62.95 62.14 61.80 61.59 61.56 61.37 61.40 61.02 60.05 58.97 58.01 57.90 57.56 57.84 58.31 58.21 58.49 56.45 54.95 56.10 57.62 58.27 59.39 60.56 61.35 62.00 62.57 63.46 63.95 63.73 64.64 65.63 66.24 66.03 66.06 65.96 65.52 65.43 65.24 65.42 65.67
63.79 62.50 61.79 61.14 60.96 61.01 61.06 60.97 60.99 60.79 59.70 58.52 57.76 57.50 57.52 57.10 57.45 58.18 57.23 56.29 55.86 56.67 57.19 57.60 59.13 59.99 60.50 60.92 61.41 61.97 62.50 63.45 63.69 64.04 64.98 65.40 65.36 65.38 65.18 64.99 65.02 65.38 65.69
63.07 62.84 61.70 61.37 61.03 61.99 62.83 61.48 60.99 60.56 59.83 59.02 57.76 57.09 57.06 57.43 57.05 57.20 57.03 56.42 55.73 56.04 56.72 56.99 57.58 57.65 57.71 58.33 58.58 59.13 59.84 61.01 62.31 63.69 64.01 64.19 64.65 64.96 64.79 64.63 64.74 65.07 65.38
62.28 62.13 60.86 60.85 62.11 62.24 61.12 60.72 59.72 59.07 58.87 58.43 58.30 56.99 56.92 56.90 56.79 56.68 56.42 56.32 56.09 56.23 55.96 57.22 56.72 56.65 57.00 56.46 56.36 56.91 58.40 58.84 60.22 61.11 62.87 63.41 63.89 64.23 64.41 64.37 64.48 64.59 64.96
60.71 60.67 60.00 60.73 62.76 61.15 61.70 61.09 60.24 60.17 58.54 58.51 57.98 58.60 57.66 56.52 57.43 55.95 55.78 56.81 57.12 55.98 56.08 57.09 56.52 55.90 55.34 54.24 52.88 53.60 55.35 56.82 59.32 60.42 60.84 62.17 63.17 63.55 63.63 63.75 64.08 64.37 64.21
59.68 59.38 58.94 60.11 60.46 58.69 59.42 60.00 60.57 59.50 59.90 59.21 57.06 57.24 58.59 58.24 57.57 57.63 56.42 55.73 55.88 56.86 56.22 55.80 54.84 54.12 55.06 53.74 52.19 51.74 53.01 55.15 56.18 57.51 59.79 60.10 60.09 61.51 63.36 63.31 63.40 63.99 64.40
57.41 57.22 56.32 56.81 57.47 56.58 57.66 58.59 58.41 57.94 58.06 59.14 57.78 57.52 57.98 58.38 58.08 56.98 57.80 56.58 56.07 56.14 56.75 56.37 55.97 55.04 53.54 54.51 52.27 51.97 51.99 52.88 54.40 55.66 56.68 57.75 57.84 58.68 59.37 61.23 62.92 62.68 63.37
56.39 55.50 55.24 54.78 55.10 54.30 56.51 56.93 57.16 55.70 56.38 57.90 55.23 55.21 52.02 54.45 56.92 57.33 56.76 56.52 56.77 56.31 55.69 56.24 56.17 55.38 54.30 53.27 53.12 52.19 50.71 50.56 51.45 53.28 55.68 56.14 58.45 57.14 56.75 57.50 58.58 61.14 62.20
55.07 54.51 54.31 54.13 54.83 55.00 53.90 55.54 55.26 54.23 52.60 54.90 56.54 53.59 49.22 48.35 52.97 56.01 56.97 56.10 56.33 56.12 55.80 55.69 55.77 53.85 53.15 52.66 51.84 51.93 51.49 49.23 48.74 51.60 53.90 55.31 56.00 57.07 56.48 55.79 56.99 58.79 60.24
53.61 53.09 53.22 53.41 53.48 53.64 53.52 53.37 52.62 53.29 52.86 50.41 53.04 52.83 54.45 53.84 48.67 47.80 53.78 54.42 54.56 53.19 55.83 55.59 54.93 52.70 52.23 51.54 53.36 48.68 47.98 47.64 48.26 50.88 53.62 54.41 54.60 57.35 56.44 55.93 56.69 57.62 57.93
52.89 52.31 52.31 53.04 52.39 52.19 52.27 52.39 51.83 50.81 50.60 49.48 49.23 49.80 50.05 49.63 49.49 44.48 43.56 49.11 51.69 53.32 51.82 52.31 54.39 52.58 51.44 51.41 51.25 50.84 48.20 46.69 47.47 48.00 51.62 54.32 54.09 54.33 56.31 56.09 56.27 56.80 56.42
50.69 51.30 50.84 51.46 51.44 51.29 50.78 50.17 50.68 49.88 47.97 47.81 47.38 46.27 44.33 42.43 41.96 40.77 40.44 44.09 46.68 48.19 50.60 51.30 50.25 50.81 51.12 50.84 51.07 47.37 46.35 45.95 45.45 46.79 49.61 52.54 54.26 53.56 55.01 55.71 55.52 55.39 55.67
48.70 49.66 50.08 50.16 49.82 50.21 50.28 49.95 48.20 45.36 45.11 42.50 43.73 44.32 44.20 41.78 41.45 40.03 37.76 37.52 38.68 42.85 45.19 47.71 47.97 48.25 48.94 50.44 50.13 47.54 46.79 44.69 44.00 46.18 47.11 49.52 51.79 53.30 54.74 54.09 53.75 54.08 54.54
48.22 49.26 49.32 49.53 49.38 48.39 47.98 47.40 46.02 45.76 44.45 44.47 42.31 41.66 42.64 42.66 42.15 40.99 38.20 37.65 36.21 37.63 39.88 40.96 45.52 47.43 47.17 47.88 47.20 45.02 46.86 44.81 43.87 44.52 46.45 48.64 48.03 49.29 49.46 50.90 50.39 49.87 49.82
47.70 48.49 48.54 47.33 47.17 46.17 45.29 44.56 43.51 42.46 43.00 43.16 42.56 42.81 42.05 42.54 42.56 42.07 41.48 40.30 36.51 33.22 35.43 40.03 40.50 45.70 46.41 46.45 47.04 47.32 46.88 45.92 44.90 44.47 44.81 45.85 46.64 45.79 45.20 45.39 45.68 45.58 46.37
47.10 46.81 46.10 45.19 44.64 43.28 42.87 42.34 42.73 42.97 42.10 42.09 41.64 41.20 40.60 41.29 40.94 41.66 41.08 41.48 40.35 37.27 33.97 39.16 39.63 42.32 44.06 43.69 45.65 45.63 45.55 44.73 43.55 42.52 43.55 45.00 45.44 45.11 44.55 44.53 44.22 44.46 44.87
45.06 44.47 44.20 43.66 43.09 42.39 42.66 42.49 41.59 41.44 40.84 41.01 41.22 40.82 40.05 40.69 39.92 39.64 40.62 40.32 39.40 38.80 36.12 38.53 40.41 42.43 42.82 43.11 43.19 44.83 44.67 44.79 44.98 41.94 41.50 42.75 43.37 43.55 43.21 42.72 42.68 43.13 44.12
44.92 44.36 43.77 42.85 42.14 41.96 41.56 40.92 40.25 40.36 39.50 38.85 39.06 39.08 38.72 38.96 38.64 38.91 38.44 37.69 37.75 38.76 37.22 35.45 38.25 39.48 40.50 42.35 43.13 43.27 42.28 42.86 43.79 42.74 41.97 41.85 42.39 42.02 41.44 41.36 41.47 41.71 41.88
42.73 42.47 42.20 41.28 40.24 40.39 39.78 39.23 38.82 38.77 38.52 38.28 37.96 37.57 36.89 36.83 36.11 37.01 36.86 36.80 36.77 36.93 37.40 36.19 35.71 38.67 39.56 40.50 40.39 41.41 41.95 42.81 42.33 42.66 41.84 41.36 41.72 41.90 41.65 41.34 41.68 41.45 41.39
40.43 39.73 39.49 39.04 38.95 38.49 38.21 38.20 37.82 37.02 36.77 37.07 37.39 37.10 36.47 35.99 35.54 35.23 35.00 35.03 34.80 34.34 34.68 34.61 34.93 35.56 36.91 38.52 39.04 37.90 37.97 40.66 40.38 40.73 40.64 39.13 40.15 40.97 40.70 40.41 40.64 41.09 40.98
39.36 39.06 38.52 38.24 38.23 37.74 36.92 35.82 35.52 34.67 34.27 34.74 36.08 36.25 36.98 36.76 34.80 34.17 33.06 32.50 32.05 31.55 32.27 32.46 33.18 34.27 35.47 36.19 35.63 37.99 37.08 38.47 39.80 40.95 40.45 41.27 42.09 42.10 41.36 39.21 39.75 40.23 40.05
38.35 38.30 37.64 37.19 36.68 36.43 31.75 30.82 31.05 32.33 31.97 32.21 32.53 34.05 34.89 35.36 35.26 34.33 33.80 33.24 32.04 29.67 29.21 30.59 30.98 31.25 32.53 34.05 35.48 34.91 35.02 33.78 32.17 38.82 37.18 37.43 40.23 39.34 40.83 41.58 39.89 39.16 39.17
37.71 36.96 36.63 36.43 35.58 35.61 30.50 30.35 29.73 31.25 30.51 31.03 31.91 32.71 32.90 33.98 33.87 33.83 33.20 32.94 32.02 32.07 29.88 29.90 27.67 28.34 29.52 31.99 33.15 32.64 32.92 33.06 32.82 35.52 36.08 34.50 38.41 37.81 39.63 39.25 38.83 38.75 38.40
36.75 36.00 35.70 35.49 34.77 34.32 32.06 29.90 28.87 30.12 30.15 30.62 31.19 31.64 31.79 32.14 33.05 32.04 31.27 30.77 31.08 31.21 31.64 32.10 31.31 31.49 32.84 33.34 33.34 32.81 32.48 33.09 34.61 35.26 36.42 31.57 37.08 36.48 38.26 39.23 38.45 38.42 38.34
36.16 35.51 35.13 34.14 32.61 32.41 31.65 29.76 28.87 28.58 28.08 28.15 29.34 30.21 30.70 30.26 30.66 30.63 29.49 28.83 29.25 30.36 32.77 33.24 33.08 32.94 32.75 32.79 33.11 32.81 30.87 30.43 30.17 31.37 35.24 33.14 34.17 34.48 36.35 37.26 39.01 37.65 37.47
35.65 35.16 33.85 33.00 31.53 31.15 31.57 29.57 28.94 28.54 26.54 27.32 28.50 28.97 29.66 30.02 30.19 30.27 30.14 29.58 28.17 28.64 29.29 30.17 31.63 32.08 33.29 34.12 32.33 32.43 31.50 28.73 29.28 29.24 33.88 32.20 32.53 32.99 31.05 36.57 37.44 38.17 38.63

GFSMA_sfc_wetblb_012.txt.gz
Wetbulb
62.12 61.72 60.60 59.84 59.42 59.12 58.29 57.68 57.62 57.95 57.73 56.97 56.51 55.12 54.63 54.91 55.10 54.68 54.03 56.52 56.95 56.66 56.98 58.98 60.49 61.42 62.30 62.83 63.00 63.44 64.22 64.39 64.80 65.60 65.56 65.31 65.75 65.93 66.08 65.63 65.23 65.10 65.35
61.09 60.65 59.60 59.39 58.95 58.75 58.51 57.45 56.73 57.32 57.20 56.85 55.78 55.72 54.48 54.36 53.97 54.05 53.85 52.54 56.02 57.74 58.54 58.96 59.70 60.77 61.59 62.12 62.29 62.56 63.00 64.01 64.20 64.56 65.49 65.39 65.58 65.56 65.43 65.23 65.20 65.09 65.46
60.33 60.15 59.30 58.94 58.94 59.37 58.95 58.06 57.55 56.68 56.31 57.02 55.82 55.71 54.79 54.17 54.18 53.97 54.22 53.82 52.18 56.79 58.09 59.20 59.42 60.16 60.13 60.33 60.10 60.07 60.64 61.38 62.77 63.99 64.30 64.72 64.03 64.79 64.99 64.85 64.94 64.96 65.23
59.88 59.13 58.54 58.55 59.50 59.27 58.38 57.48 56.74 55.82 55.19 54.85 54.44 54.82 54.02 53.71 53.74 54.11 54.02 53.42 52.64 52.96 55.83 58.32 59.47 58.99 58.84 59.12 58.64 58.38 58.80 59.55 60.39 61.45 63.03 63.77 64.08 63.97 64.05 64.35 64.02 64.10 64.68
59.37 57.96 57.14 57.86 58.45 57.25 56.80 56.43 55.37 55.52 54.39 54.36 54.86 54.45 53.96 53.58 52.85 54.57 52.74 52.82 52.59 52.90 52.16 56.04 58.14 57.98 58.73 58.54 57.42 57.11 57.14 57.23 58.47 59.87 61.19 61.68 63.29 63.32 62.95 63.04 63.90 63.99 64.34
57.04 56.07 54.96 55.72 56.72 54.37 53.78 53.96 53.72 53.49 53.30 53.55 55.37 55.03 54.72 54.92 54.96 53.26 52.31 54.14 52.38 52.88 52.55 53.00 54.45 53.90 56.39 57.39 56.36 55.72 56.02 56.68 56.97 57.53 57.85 60.44 60.83 62.22 62.79 61.71 62.76 63.50 63.86
55.56 54.47 53.54 52.74 52.85 52.06 52.15 52.11 51.28 50.10 50.68 51.79 51.38 51.33 52.35 53.62 54.11 54.61 54.47 52.49 52.35 52.75 52.77 52.47 52.12 51.24 52.12 56.31 56.34 54.97 55.07 55.61 56.11 56.39 56.54 57.57 59.66 60.05 60.02 61.58 62.87 63.09 62.83
54.49 53.38 52.86 52.15 51.68 50.78 50.32 50.50 50.84 49.46 48.82 49.60 48.29 48.19 45.13 47.89 50.67 52.41 53.98 54.21 52.44 53.42 52.76 52.60 52.67 52.49 51.25 51.10 50.94 55.32 54.78 54.78 54.64 54.47 54.85 55.99 56.86 59.24 58.30 58.17 59.07 60.64 62.59
53.98 52.84 51.86 51.82 50.97 50.23 48.74 48.90 49.07 48.25 46.85 47.67 48.13 46.26 42.66 41.56 45.57 49.02 50.00 51.39 51.33 53.13 53.45 53.54 52.62 52.87 51.74 49.82 51.51 52.72 53.15 52.81 52.84 52.40 53.02 54.19 56.01 56.58 57.89 56.96 56.27 57.85 59.07
52.41 51.04 50.57 50.53 49.95 49.85 48.48 48.79 49.27 47.89 47.02 44.83 46.37 48.54 46.10 44.31 41.27 41.29 45.80 47.58 49.28 50.45 51.86 53.10 52.38 51.93 51.59 49.07 50.80 50.53 50.08 49.15 50.35 51.01 52.48 53.36 54.46 55.27 57.59 57.10 56.11 56.72 57.69
50.20 49.96 49.35 48.49 48.55 48.24 48.35 48.30 47.13 47.01 46.42 43.91 42.97 42.35 41.93 41.80 42.06 38.94 38.08 39.49 42.81 45.25 47.18 50.05 50.67 51.78 50.52 49.41 48.43 47.71 48.01 47.15 48.06 49.16 50.43 53.21 54.08 54.67 55.65 57.32 56.53 56.32 57.00
47.54 48.01 48.66 48.16 48.29 48.07 47.52 47.06 46.70 44.52 43.11 43.26 43.12 42.52 40.92 40.25 39.20 37.93 36.69 36.66 36.83 40.53 42.25 44.17 48.32 48.07 48.44 48.56 49.75 48.50 47.43 46.19 45.63 47.22 48.27 50.89 53.73 54.42 54.33 55.10 56.52 56.29 56.41
45.56 45.69 47.08 47.04 46.76 46.51 46.86 46.34 45.86 44.82 43.76 42.23 41.12 40.85 41.45 41.25 40.88 39.07 37.47 36.36 36.29 37.81 39.10 42.40 45.17 46.64 48.56 48.27 47.56 47.33 46.67 44.61 43.96 45.56 47.61 48.42 51.77 53.11 54.71 54.50 55.95 56.03 55.22
45.09 46.06 46.11 46.17 45.44 44.71 44.29 43.82 43.63 42.69 41.70 42.10 40.08 41.35 39.75 39.81 40.45 39.47 37.61 35.93 32.96 34.54 37.13 37.36 43.03 44.71 45.28 46.76 45.96 45.39 45.52 44.44 43.86 43.79 45.27 47.14 49.23 49.47 50.56 53.48 54.26 54.12 52.63
45.37 44.56 44.51 43.88 43.83 42.92 43.17 42.50 41.07 40.81 41.47 40.68 39.97 39.76 39.30 40.11 40.63 40.83 40.52 39.68 36.20 31.84 31.34 35.34 37.42 43.69 43.77 45.18 45.06 45.14 44.90 44.86 43.87 43.46 43.98 45.13 47.00 47.23 47.36 48.29 49.17 48.94 48.63
44.08 43.52 43.54 43.40 43.06 42.45 42.20 41.56 40.75 40.79 40.15 40.32 39.85 39.77 39.29 39.41 39.20 38.73 38.55 39.05 38.77 36.39 33.20 36.39 37.16 39.03 42.84 43.28 44.17 43.57 43.81 44.89 43.68 42.41 42.92 43.11 44.00 45.71 45.21 44.77 45.02 45.38 45.11
43.29 43.22 42.67 42.09 41.64 41.23 40.80 40.10 39.97 40.27 39.06 38.21 38.60 38.92 38.36 38.68 38.01 37.79 37.06 36.44 34.43 35.05 32.85 34.10 36.93 37.24 37.92 38.91 40.28 41.13 41.47 40.78 41.08 42.03 41.50 41.95 42.60 43.60 44.17 43.26 42.46 42.61 43.18
42.28 41.40 41.00 40.23 40.00 39.43 38.99 38.58 37.88 37.89 37.61 36.90 36.78 36.45 36.67 38.14 36.01 35.34 35.44 34.25 34.24 34.47 32.52 30.61 33.00 34.39 34.04 36.02 36.66 37.88 40.76 41.68 39.49 42.34 42.00 41.50 41.49 41.78 42.23 41.76 41.32 41.41 41.51
40.65 39.34 38.25 37.25 36.90 36.78 36.00 35.61 35.26 35.14 33.93 33.49 33.48 33.41 34.21 33.78 31.92 32.12 32.53 32.65 33.11 34.40 32.48 30.85 29.90 31.94 32.62 33.76 33.79 35.03 35.77 36.83 40.25 42.46 41.32 40.91 41.31 41.82 41.76 41.19 41.11 41.22 41.27
38.31 37.53 37.44 37.24 36.98 36.24 36.01 35.09 34.58 33.06 32.26 32.17 32.12 32.06 32.22 32.70 32.33 32.31 32.43 30.64 31.14 29.17 29.15 28.60 28.86 29.65 30.98 32.64 32.83 31.45 31.23 33.99 34.54 39.21 39.66 38.52 40.09 41.19 41.60 41.17 40.71 40.79 41.10
37.77 37.28 36.33 36.07 35.88 35.68 34.19 31.77 31.57 30.46 29.86 29.75 30.00 30.99 31.83 33.56 35.74 33.91 32.18 30.21 28.54 26.95 26.79 26.92 26.98 28.15 29.17 29.81 29.60 32.70 32.00 32.47 33.28 35.72 34.84 34.34 35.03 36.67 38.01 40.48 40.29 40.59 40.40
36.76 35.91 35.24 34.96 34.14 35.29 31.99 31.43 30.14 27.75 29.10 28.58 27.42 28.73 30.04 32.89 32.96 34.43 34.37 34.18 31.43 26.85 25.95 25.24 25.61 25.10 26.10 27.93 29.63 29.23 28.07 27.24 25.92 33.05 31.46 29.74 33.65 33.12 35.41 36.60 39.22 39.01 38.39
35.22 34.49 34.30 34.10 33.19 32.82 32.34 31.49 30.22 28.01 27.20 26.79 26.79 27.44 28.47 31.31 31.27 31.03 31.60 31.86 31.81 32.57 29.72 27.66 25.46 26.10 25.89 27.11 27.92 27.21 26.39 26.38 26.61 30.15 30.15 25.98 27.76 29.73 33.82 37.56 38.04 38.69 38.15
34.21 33.54 33.59 33.04 31.78 32.18 33.12 32.63 30.47 26.73 26.04 25.91 26.32 26.18 26.18 27.03 28.78 29.77 28.77 27.51 27.83 28.98 29.70 30.00 29.26 28.85 29.57 30.09 30.22 30.08 29.96 29.83 29.04 29.71 30.98 27.85 26.36 29.06 28.46 31.88 37.81 38.52 38.13
33.28 33.13 33.42 31.84 30.19 29.89 32.55 32.30 30.19 26.14 26.19 25.23 25.96 26.56 27.11 26.58 28.91 30.47 27.83 26.44 26.65 27.85 31.84 33.10 33.13 33.20 33.18 33.13 32.88 30.30 27.18 26.73 25.21 27.39 29.00 28.58 26.83 28.05 28.11 29.37 31.07 37.76 37.61
33.93 32.69 31.50 30.78 31.96 29.03 32.29 31.37 28.95 25.45 23.21 24.41 25.77 26.61 28.09 28.70 29.15 28.34 27.62 27.46 25.98 27.53 27.06 26.46 26.70 27.91 29.37 29.61 32.00 31.77 30.34 25.65 24.64 23.61 28.22 28.44 27.64 27.12 26.96 27.84 30.80 31.44 28.17

GFSMA_sfc_wetblb_015.txt.gz
Wetbulb
56.50 56.57 56.63 56.06 55.31 55.46 54.61 54.11 53.96 54.66 55.28 55.43 55.09 54.00 52.77 52.00 52.38 52.30 51.43 57.07 57.61 59.07 58.26 58.85 59.72 60.68 61.74 63.09 64.35 63.94 64.51 64.77 65.31 66.07 66.61 66.14 65.54 65.64 65.57 65.64 65.56 65.12 65.21
56.10 56.37 55.60 56.14 55.14 55.32 55.59 54.82 54.21 54.26 54.66 55.02 54.79 54.37 53.61 51.93 51.76 51.89 51.70 51.74 56.61 57.85 59.22 59.23 60.08 60.63 61.41 61.87 63.43 63.34 63.68 63.86 64.72 65.25 65.91 65.81 63.55 63.43 64.83 65.29 65.34 64.98 65.19
55.88 55.83 55.22 55.47 55.61 56.62 55.42 55.16 54.87 54.38 53.74 54.40 53.59 53.86 53.59 53.00 51.96 51.92 51.60 51.51 52.10 56.50 57.96 60.24 60.38 59.97 60.72 61.64 62.06 61.93 62.41 62.77 63.43 64.42 64.67 64.99 64.37 64.26 65.03 64.88 65.14 65.07 65.16
55.22 53.87 53.61 53.59 54.86 55.04 54.36 53.93 53.77 53.21 52.73 52.39 51.96 52.38 52.55 52.69 51.79 51.73 52.14 51.51 50.87 51.84 55.49 58.11 59.86 60.72 61.29 60.39 60.40 60.81 60.70 61.11 61.63 62.24 63.83 63.95 63.79 64.29 64.52 64.22 64.36 64.99 64.98
54.12 52.15 51.28 51.14 52.55 52.01 51.34 51.54 51.30 50.64 49.72 50.10 51.43 51.58 51.10 50.91 51.53 53.95 51.29 51.55 50.58 50.89 50.57 55.05 57.68 58.91 59.99 60.29 59.72 59.79 59.67 59.90 60.46 61.22 61.91 62.88 63.77 63.87 63.77 63.92 63.86 64.37 64.48
52.65 51.07 50.39 50.45 50.05 49.80 49.11 48.92 47.81 48.63 48.15 48.46 51.34 51.32 50.01 50.97 51.82 51.88 52.61 53.59 50.65 51.11 50.65 50.31 53.39 54.62 57.39 59.41 59.96 58.82 58.77 58.83 59.14 59.98 60.44 61.79 61.83 63.60 63.55 63.15 62.98 63.38 63.69
52.27 50.44 49.77 49.36 48.98 48.42 47.58 47.62 47.40 47.55 47.17 47.76 46.08 46.64 46.74 48.16 48.16 49.28 50.84 50.63 50.85 51.16 51.06 50.61 51.27 52.34 53.58 57.69 58.83 58.10 58.12 58.10 57.99 58.17 58.72 59.20 61.70 61.19 61.87 62.74 62.59 62.03 62.55
50.55 51.01 47.96 47.87 47.56 47.62 46.74 45.92 45.58 45.41 45.36 45.94 44.02 43.47 41.19 43.53 44.72 47.08 47.43 49.00 48.51 50.86 51.77 53.39 52.28 52.27 50.77 52.02 53.36 57.70 57.55 57.66 57.19 57.20 57.41 57.73 58.54 60.12 59.90 59.37 60.35 61.74 62.50
48.96 47.75 47.20 46.68 46.38 46.90 45.47 44.74 45.36 44.62 43.20 44.14 44.27 42.74 39.38 37.66 39.88 43.87 44.24 45.73 44.26 46.56 47.04 49.95 51.39 53.13 51.69 50.87 51.84 53.64 54.52 54.53 56.93 56.32 55.64 55.38 56.67 57.43 58.94 58.17 57.41 57.80 58.77
47.16 47.65 46.83 46.07 45.93 45.72 44.69 44.87 47.36 44.26 43.69 41.65 42.91 44.99 41.69 41.09 37.52 35.55 40.78 41.73 41.84 42.20 43.63 46.16 47.30 49.96 52.09 51.17 50.64 50.27 49.88 50.30 52.95 54.44 52.90 53.07 53.69 55.77 56.77 58.30 57.44 56.49 57.28
46.02 46.48 46.52 45.38 45.07 45.43 44.73 43.92 43.05 42.36 42.53 41.78 41.51 42.34 41.62 39.07 37.79 35.02 33.66 35.82 38.77 39.80 41.36 42.31 44.94 46.62 48.85 49.63 49.96 49.57 48.81 48.24 49.13 51.54 51.45 51.72 53.20 54.02 54.96 56.91 57.61 56.82 56.73
44.30 44.21 45.25 44.07 44.55 43.92 43.10 43.32 43.40 42.51 43.30 42.83 42.49 41.74 40.72 39.58 39.10 37.66 34.36 35.38 36.00 36.63 39.03 39.99 42.66 44.24 46.62 48.52 49.19 47.89 47.69 46.18 47.35 49.65 49.46 49.91 50.83 52.97 54.66 54.92 57.01 57.06 56.51
41.84 42.27 42.74 42.73 42.23 42.15 41.95 41.49 41.43 42.48 42.12 41.00 40.86 39.06 38.69 37.94 39.07 38.22 37.57 35.64 32.89 34.72 35.75 39.12 40.68 42.74 45.65 46.37 46.05 46.89 46.73 45.94 44.66 46.04 48.34 48.48 50.61 50.95 52.24 54.53 54.76 56.35 56.45
41.25 41.33 41.48 41.74 41.90 41.51 40.98 40.51 41.42 39.67 40.33 39.45 38.80 38.19 38.61 38.61 39.18 39.52 38.01 36.32 33.34 34.25 33.71 34.23 39.03 40.57 41.94 44.47 45.07 44.63 46.14 45.10 44.55 44.22 44.82 46.72 48.45 48.51 48.84 50.74 53.27 55.66 56.18
42.05 40.77 40.93 41.07 40.89 40.74 40.73 40.01 38.47 38.76 39.10 38.60 38.58 39.75 39.12 39.15 40.32 39.93 39.64 39.06 36.21 30.44 30.40 32.60 34.77 39.53 42.23 42.43 43.39 44.58 44.11 44.27 44.17 44.41 43.36 44.62 46.54 46.93 46.53 47.34 48.39 49.48 50.25
40.15 40.28 40.21 39.80 39.15 39.40 39.76 39.26 37.88 37.95 37.84 37.73 38.87 38.28 38.14 39.45 39.99 39.37 38.07 36.18 36.12 34.79 30.75 33.50 34.67 36.68 39.01 42.75 43.40 42.33 43.04 42.38 42.19 42.86 42.10 42.56 43.54 44.82 44.77 44.52 44.71 45.24 45.64
39.16 39.64 39.32 38.60 37.51 37.37 37.06 36.93 36.65 37.35 37.23 36.06 35.59 34.51 34.21 35.78 36.69 36.94 37.17 35.92 35.02 34.17 29.93 30.84 32.62 33.95 33.99 34.88 37.43 41.11 42.18 41.80 41.93 41.78 41.52 41.79 42.08 42.69 43.44 43.24 42.63 42.60 42.78
38.95 38.54 36.97 35.39 35.30 34.46 33.96 32.91 32.35 32.64 31.74 30.84 30.88 30.56 31.00 33.27 31.25 32.13 32.60 32.02 32.12 31.57 30.96 26.51 28.57 30.09 30.91 33.24 33.22 33.57 37.93 41.04 40.08 41.62 42.13 41.66 41.85 41.39 41.96 42.09 41.90 41.74 41.77
36.38 35.23 34.86 34.38 34.30 34.27 33.42 32.68 32.08 31.46 30.78 30.27 29.89 29.28 29.20 29.20 28.42 29.84 30.83 29.68 29.65 31.83 28.11 26.50 25.79 28.78 29.13 30.60 31.93 31.62 33.23 35.16 38.05 41.29 40.29 40.54 41.19 41.59 41.51 41.79 41.92 41.36 41.26
35.09 34.13 34.41 34.53 34.41 33.83 33.04 31.83 31.04 29.23 28.42 29.14 29.52 29.04 28.76 28.59 28.21 28.75 30.37 29.47 30.07 27.68 27.17 25.31 25.20 26.06 27.22 29.70 29.66 28.43 28.74 31.10 32.16 36.89 38.33 37.44 39.34 40.62 41.26 41.38 40.97 41.32 41.24
35.13 34.91 33.84 33.57 33.29 32.98 31.72 29.14 28.72 27.18 26.55 26.84 27.46 28.05 28.29 29.74 32.13 32.39 31.09 30.12 28.64 26.30 25.02 24.58 23.96 24.43 24.38 24.96 25.88 27.42 26.66 28.25 29.84 32.58 32.36 32.32 32.95 34.17 35.90 38.31 40.26 40.68 40.75
34.18 33.49 32.29 32.45 31.07 32.51 31.97 31.25 29.35 26.03 26.61 25.97 24.70 25.17 26.25 28.67 29.26 30.48 32.04 31.86 31.09 28.15 24.72 23.13 23.34 22.13 22.96 23.60 25.98 24.47 24.38 24.12 24.25 31.56 30.25 28.54 31.28 30.95 33.40 34.87 38.01 38.80 38.72
32.10 32.58 31.05 30.93 30.19 29.63 32.91 32.75 31.04 27.30 25.56 24.43 23.79 24.44 25.12 27.23 27.23 27.55 29.39 30.29 29.86 30.62 29.77 28.67 26.67 24.65 24.32 25.48 25.38 24.19 23.89 23.76 24.01 27.61 28.09 24.42 24.39 27.61 30.70 35.48 37.89 38.41 38.48
32.01 29.87 29.32 29.45 29.01 30.59 32.88 33.20 31.90 26.98 25.04 25.22 24.90 25.00 24.38 24.96 26.42 27.11 26.23 26.14 26.28 26.97 27.76 28.40 28.03 27.68 27.09 27.94 27.98 28.36 28.02 30.01 27.28 28.11 28.95 25.22 23.66 25.53 26.56 29.11 36.31 38.25 38.43
29.50 29.35 29.83 29.14 28.36 28.07 31.79 31.08 28.95 25.26 25.43 24.87 25.78 25.65 25.40 24.81 27.27 29.63 26.95 26.10 26.14 27.13 30.38 31.68 31.99 31.73 32.04 32.38 32.71 31.12 27.54 26.71 24.64 24.87 26.36 24.09 23.42 22.54 23.85 25.96 29.17 35.98 37.43
30.28 29.62 29.27 28.73 29.94 26.91 30.42 29.64 28.83 25.82 22.44 23.28 23.99 24.72 25.97 25.91 28.52 29.09 26.16 24.14 22.85 23.58 25.42 25.71 25.40 26.08 27.37 27.56 29.15 27.86 27.33 25.39 26.23 19.93 24.99 25.32 24.82 23.64 20.38 23.65 28.51 28.70 28.43

GFSMA_sfc_wetblb_018.txt.gz
Wetbulb
54.42 55.36 54.47 54.90 54.05 54.33 53.52 53.34 53.19 53.25 53.63 54.22 54.31 54.01 53.30 51.85 51.22 50.85 50.65 57.76 59.35 60.12 60.18 60.53 60.58 60.53 61.15 62.68 63.74 64.00 63.87 64.44 65.17 65.43 66.20 65.57 65.25 65.42 65.47 65.11 65.87 65.58 65.28
54.86 54.64 54.12 54.14 54.03 54.36 54.30 53.21 52.84 52.91 52.98 52.87 53.16 53.89 53.51 52.66 51.50 50.67 50.61 50.66 57.78 58.77 60.03 60.56 60.65 60.86 61.14 61.39 62.82 63.54 63.30 63.68 64.21 64.79 65.44 65.23 64.56 64.61 64.88 65.21 65.36 65.45 65.24
54.51 53.20 51.89 51.32 51.94 52.75 52.46 52.17 51.98 51.77 50.90 51.67 50.66 51.75 52.13 52.43 51.98 51.35 50.89 50.19 51.07 57.00 57.96 60.08 61.36 61.83 61.17 60.80 62.20 63.05 62.58 63.01 63.15 63.91 64.80 65.21 64.57 63.91 63.55 64.15 64.97 65.19 65.14
52.95 50.85 49.82 49.54 50.99 50.44 50.33 49.82 49.66 48.86 48.25 47.98 48.00 48.72 49.50 50.64 51.01 51.11 50.76 50.24 50.20 51.68 54.20 57.87 59.51 60.99 61.55 61.17 60.68 61.24 61.33 61.20 61.80 62.30 63.45 64.66 64.54 64.30 63.69 64.10 64.54 64.83 65.03
51.96 49.90 49.04 48.85 49.09 48.74 48.44 48.11 47.24 46.63 46.23 46.70 47.75 47.76 47.78 48.20 49.30 52.39 51.39 51.18 50.13 50.76 50.51 53.41 57.38 58.39 59.66 60.69 60.91 60.43 60.72 60.58 60.42 60.90 61.85 63.28 64.02 63.99 63.85 63.95 64.16 64.16 64.19
50.65 48.99 48.85 49.05 48.75 47.73 46.79 46.20 45.36 45.95 45.32 45.42 48.09 47.54 46.25 47.14 47.56 47.45 48.15 50.60 50.28 50.19 49.57 49.42 49.40 53.72 56.66 59.26 60.79 60.16 60.51 60.55 60.13 59.91 60.43 61.48 62.82 63.09 63.67 63.73 63.68 63.65 63.68
49.59 48.80 48.00 47.06 46.86 46.55 45.47 45.48 44.87 44.15 44.72 45.16 43.31 44.31 43.96 45.20 44.85 44.51 45.87 46.18 47.05 48.62 47.13 48.29 50.23 50.23 51.18 56.71 59.32 59.42 59.90 60.32 59.81 59.31 59.28 60.47 60.84 61.81 62.77 63.15 63.15 62.85 62.96
47.73 47.45 45.42 45.12 45.42 44.97 44.21 43.52 43.25 43.41 44.02 44.47 42.06 41.48 39.00 41.46 41.79 42.96 42.53 44.46 42.34 44.74 44.39 46.48 47.64 49.02 51.41 50.95 53.63 58.04 58.95 59.53 59.57 59.21 59.63 59.44 59.84 60.23 61.16 61.10 61.66 62.37 62.59
47.00 45.67 45.09 44.61 44.38 44.20 43.36 43.03 43.44 42.74 41.70 42.73 42.83 41.10 37.39 35.88 38.42 40.29 40.52 40.26 40.00 40.02 41.47 44.41 44.56 47.72 50.72 50.21 50.13 50.87 53.52 55.04 57.52 59.33 59.42 58.93 58.52 57.91 58.96 59.67 59.00 59.11 60.03
45.05 45.05 45.00 43.85 43.61 44.01 43.28 43.47 44.00 42.08 41.59 40.11 41.99 43.65 42.90 41.80 37.14 35.19 37.44 39.31 39.07 39.40 39.02 40.98 41.15 46.06 48.14 50.14 50.64 49.64 48.82 49.07 51.68 55.76 58.19 58.14 56.16 55.66 56.61 57.70 58.90 57.74 57.24
44.22 44.36 43.99 42.97 42.76 42.93 41.92 42.11 41.19 40.48 40.74 39.73 40.30 39.91 38.14 38.03 39.90 36.74 33.32 35.27 36.88 37.93 38.23 38.91 39.16 42.44 45.47 47.59 49.40 48.18 47.71 47.30 47.59 50.25 53.57 54.08 53.61 54.22 54.52 55.69 56.95 58.13 57.04
42.16 42.04 42.64 41.47 41.12 40.75 39.91 40.13 39.91 39.71 39.32 39.15 39.19 39.03 38.30 36.46 36.10 35.14 34.91 34.39 34.45 34.96 36.81 38.03 38.72 40.75 43.37 44.36 47.15 46.80 47.48 46.40 46.41 46.63 48.47 51.06 52.28 53.35 54.29 54.99 55.11 57.24 57.27
40.59 39.60 40.29 40.31 40.32 40.32 40.30 39.79 39.68 40.69 40.42 39.57 38.22 38.22 37.73 37.26 38.40 37.27 37.18 35.16 35.12 34.91 36.39 36.84 37.97 39.88 42.34 42.06 42.96 44.71 46.14 45.06 45.67 45.50 45.35 46.75 49.72 51.76 52.00 52.57 54.37 54.93 56.81
39.46 39.43 40.13 40.53 40.55 40.25 39.83 39.17 38.37 38.19 38.87 37.22 36.68 37.07 37.56 38.29 38.67 39.13 37.73 36.09 33.48 34.47 32.89 32.84 35.71 38.06 38.97 40.33 42.42 44.52 43.88 44.04 43.71 44.18 43.86 44.30 45.99 48.98 48.91 50.02 51.79 53.06 54.66
40.52 39.46 39.43 39.04 39.21 38.60 38.83 38.45 36.92 36.43 36.04 35.94 36.57 37.23 37.17 38.04 39.25 38.75 38.01 35.99 33.21 30.35 30.89 31.88 32.15 36.62 37.26 39.24 41.60 41.96 41.90 43.10 41.86 41.83 43.77 44.35 44.57 47.22 46.69 47.86 48.43 49.23 50.69
39.10 38.39 37.82 37.47 36.86 36.11 36.25 35.82 35.01 35.28 35.06 34.32 34.09 32.46 31.52 32.12 33.90 34.91 36.89 37.27 35.64 33.20 28.75 31.84 31.79 33.03 33.94 36.83 38.54 40.31 40.88 41.95 41.58 41.51 41.71 42.71 43.37 45.68 44.92 45.14 45.66 46.44 46.92
38.72 39.43 38.16 35.93 34.73 33.77 33.43 32.07 31.89 32.33 30.97 30.09 30.04 29.78 29.73 30.49 29.85 29.69 30.56 31.84 33.07 33.56 29.66 29.61 31.84 31.46 31.04 31.34 33.14 34.23 39.07 41.58 41.85 41.60 41.56 41.77 42.14 42.31 43.40 43.36 43.26 43.33 43.43
39.72 38.78 37.57 35.52 34.58 33.40 32.36 31.20 30.88 30.69 29.77 28.77 28.71 28.23 28.10 30.14 27.37 27.69 28.33 28.85 28.94 29.87 28.39 26.10 27.32 28.04 28.82 30.68 31.11 30.54 34.12 36.57 37.60 40.96 41.61 41.48 41.56 41.70 41.74 42.00 42.03 42.02 42.02
37.50 37.01 34.02 34.98 34.09 33.41 32.05 31.07 29.97 29.10 28.09 27.76 27.62 27.23 27.11 27.00 25.75 26.25 26.83 27.60 28.17 30.41 28.70 26.84 25.02 26.90 27.53 29.06 28.87 30.32 30.40 31.48 35.37 38.48 39.19 40.08 41.15 41.81 42.01 41.54 42.19 42.13 41.61
38.45 37.12 35.30 34.70 33.89 32.75 31.42 30.06 29.30 27.35 27.00 27.34 27.96 27.39 26.46 25.55 25.11 25.50 26.74 27.20 28.28 26.54 26.90 26.26 25.04 24.85 25.58 27.61 28.16 27.23 26.52 28.66 28.55 33.08 36.68 36.52 38.19 40.09 40.82 41.12 41.12 41.66 41.62
38.42 35.01 34.19 32.61 32.02 31.02 30.72 28.31 28.12 27.38 26.33 26.04 26.47 26.54 26.13 27.12 29.28 28.15 28.05 27.00 28.68 26.71 26.65 25.24 24.30 23.76 23.76 23.41 23.91 26.00 24.64 25.09 26.32 29.06 30.29 30.60 32.01 33.42 35.05 37.73 39.45 40.77 40.92
34.75 33.70 32.57 31.97 30.18 31.39 32.29 32.06 30.87 26.40 26.66 25.89 24.52 25.22 25.00 27.22 26.74 28.31 28.70 29.49 29.19 27.84 26.23 26.96 24.64 23.59 22.35 22.76 23.61 23.38 22.88 21.97 21.68 27.69 27.41 26.62 29.75 29.56 32.07 33.80 37.11 38.07 38.82
33.04 31.27 30.97 30.82 28.49 29.27 32.73 33.63 32.32 28.34 26.42 25.02 24.10 24.17 24.89 26.18 26.36 25.61 27.28 28.50 28.17 29.28 28.03 27.63 25.73 25.21 23.86 24.30 24.33 23.22 22.48 22.61 22.73 26.71 26.12 23.33 24.62 26.95 29.22 32.93 36.18 38.07 38.13
32.58 30.32 29.69 28.38 27.99 29.01 32.16 31.11 30.25 26.25 24.87 25.03 24.93 24.37 23.91 23.55 24.84 25.24 26.19 27.31 26.82 27.48 27.16 27.23 26.33 26.35 26.54 26.58 26.07 26.42 26.28 25.96 28.21 29.11 27.43 23.73 22.61 22.70 26.59 27.07 34.14 37.12 37.72
28.94 28.92 28.65 27.92 26.93 26.51 29.76 29.15 27.41 23.06 23.77 22.97 24.07 24.12 23.96 23.72 26.04 28.48 25.61 26.01 24.46 25.36 28.04 29.21 30.28 30.48 30.15 31.14 31.36 29.46 26.68 26.61 24.43 25.33 25.95 24.03 24.01 21.67 22.28 24.19 27.77 34.38 37.00
29.65 28.92 28.05 26.77 27.61 24.07 27.16 27.64 26.18 21.87 18.31 21.52 22.59 23.34 24.61 24.93 26.33 27.55 26.18 25.25 23.08 23.43 23.88 24.36 24.99 25.70 26.38 26.20 27.68 26.38 24.75 21.95 22.53 19.81 24.91 24.04 24.44 22.17 18.85 22.21 25.50 26.03 25.52

GFSMA_sfc_wetblb_021.txt.gz
Wetbulb
53.56 53.74 53.40 53.20 52.83 53.16 52.78 51.83 51.80 52.04 51.64 51.94 52.01 52.21 52.21 52.07 51.42 50.41 49.64 55.67 57.13 59.23 61.54 62.33 62.33 62.20 62.84 63.02 63.35 63.74 63.13 63.61 63.92 64.47 65.46 65.63 65.61 65.45 65.04 64.87 64.80 65.89 65.64
54.01 53.20 51.77 50.98 50.58 51.22 50.88 50.43 50.36 49.55 48.78 49.54 49.35 50.11 50.23 50.97 51.23 51.08 50.18 49.89 55.05 57.07 59.04 60.43 61.43 62.16 62.23 63.26 62.95 63.23 63.33 63.21 63.06 63.55 64.28 65.01 65.14 64.50 64.11 64.55 64.38 64.69 65.76
52.38 50.91 49.05 48.63 49.57 49.29 48.99 48.67 48.14 47.52 46.98 48.02 47.39 48.37 49.06 49.58 49.62 49.71 49.69 50.03 50.35 53.73 55.93 57.69 59.06 60.32 61.87 62.82 62.93 62.82 63.05 63.46 62.74 62.69 62.89 64.23 64.79 64.67 64.06 63.44 64.19 64.11 64.39
50.50 48.63 47.84 47.92 48.28 48.14 47.69 47.03 46.29 45.87 45.23 44.86 44.81 45.47 46.39 47.19 47.84 48.59 49.52 49.29 49.10 50.27 51.56 53.99 55.54 56.85 58.94 61.43 62.48 62.71 62.86 62.63 62.16 61.64 62.17 63.22 63.93 64.41 64.14 63.55 63.61 63.88 63.87
49.89 47.97 47.60 47.56 48.12 47.05 46.31 45.86 45.01 44.59 43.38 43.64 45.55 45.44 45.12 45.28 46.35 48.59 47.01 47.78 48.27 48.21 47.73 50.30 51.48 52.82 54.45 56.80 59.26 60.57 61.62 62.87 62.52 61.11 60.98 61.85 62.72 63.14 63.57 63.72 63.42 63.40 63.38
48.64 48.63 46.83 46.18 46.72 45.55 44.62 44.31 42.95 43.70 43.08 43.43 46.34 45.34 43.85 44.72 44.32 43.62 44.18 46.12 46.08 45.63 44.29 45.83 46.00 47.44 51.54 54.68 56.14 58.26 60.13 61.08 61.76 61.90 60.79 60.46 61.60 62.28 62.50 62.98 63.32 63.00 63.62
48.00 45.59 45.06 44.76 44.76 43.63 42.71 43.18 42.69 42.39 42.94 43.76 41.78 42.90 42.43 42.40 42.33 41.80 42.28 42.88 42.87 44.09 42.83 43.99 44.18 44.82 46.01 51.93 53.62 55.95 58.52 60.18 60.56 61.59 61.75 61.24 60.77 61.00 61.30 62.23 62.53 62.81 62.60
46.20 45.63 43.70 43.31 43.47 43.46 43.27 42.70 42.41 42.00 42.22 42.68 40.62 39.84 37.09 39.13 40.82 42.13 40.37 41.50 39.41 41.01 41.63 42.17 43.24 42.36 43.94 47.65 50.12 53.28 54.26 55.75 58.64 59.80 60.90 60.29 60.26 60.61 59.88 60.84 60.82 61.28 61.77
44.72 44.36 43.84 43.29 43.23 43.18 42.07 41.71 41.14 40.68 39.56 40.83 40.60 38.91 35.45 33.56 37.70 38.66 40.24 38.55 38.74 38.45 39.17 39.80 41.79 41.26 44.47 45.99 48.64 49.72 49.63 49.83 52.55 54.73 57.58 58.91 59.72 59.45 59.02 58.42 59.80 59.88 59.28
43.62 44.66 43.54 44.02 42.41 41.76 40.93 41.19 41.92 39.53 39.19 37.66 39.35 41.93 39.00 38.12 33.38 32.79 36.47 38.46 37.53 38.51 37.67 38.06 39.04 39.99 43.25 45.44 47.62 48.98 48.45 47.38 48.55 52.04 53.96 55.67 57.43 58.97 57.15 56.88 57.61 58.90 58.83
43.11 44.78 43.89 41.64 40.14 40.14 39.11 39.21 39.25 38.70 38.76 37.54 37.30 37.52 36.60 35.82 35.94 33.75 32.16 33.10 36.66 37.05 37.09 37.50 37.70 38.65 41.77 44.66 44.78 47.00 47.75 47.11 47.14 48.84 51.05 53.28 55.94 56.63 54.78 54.66 55.61 57.10 58.21
43.27 41.14 41.42 40.15 39.95 39.34 38.86 38.65 38.20 37.78 37.33 37.24 36.76 36.69 37.75 36.66 36.04 35.97 33.04 33.62 34.10 36.93 36.54 36.65 36.82 37.94 39.66 40.98 44.79 45.57 45.71 45.62 46.38 47.20 47.60 49.30 51.20 52.09 52.67 54.03 54.80 55.47 56.30
39.31 38.25 39.58 39.60 39.34 39.33 39.28 38.76 37.86 37.32 36.84 35.80 34.82 35.39 35.57 34.83 37.67 36.50 35.82 34.06 34.26 36.26 36.41 38.54 36.13 36.97 39.42 38.96 40.26 43.79 45.03 44.30 43.97 45.17 46.22 46.09 46.46 48.67 51.15 52.22 53.34 55.36 55.40
38.19 38.55 39.05 39.65 39.57 39.39 38.75 38.44 37.53 36.41 36.61 34.77 33.42 33.66 33.96 34.79 35.98 37.75 34.45 32.70 30.58 31.75 35.61 35.41 37.43 36.22 36.32 37.01 40.37 43.89 41.50 43.60 42.75 42.57 42.99 44.74 45.15 45.45 47.00 48.77 51.22 52.69 54.56
39.37 38.62 38.27 38.89 39.56 38.71 37.78 38.50 35.55 34.09 34.03 33.69 32.96 32.13 30.78 31.13 30.80 33.23 33.44 35.09 32.70 27.44 27.66 30.90 30.17 35.21 35.87 37.13 37.63 35.96 40.15 42.94 41.96 41.87 41.69 42.41 44.39 44.42 45.28 45.39 47.26 49.58 52.18
38.65 38.52 39.46 38.25 36.99 36.65 35.03 33.30 32.14 32.98 33.41 30.47 31.01 28.86 28.38 29.46 29.46 29.47 28.85 29.91 31.43 31.21 27.45 30.66 31.54 32.39 32.88 34.73 35.61 33.30 34.57 41.54 41.95 40.94 40.95 41.13 41.24 42.78 44.06 44.07 44.36 45.68 49.05
39.71 39.90 39.51 37.91 35.07 33.79 32.86 31.99 31.35 31.78 30.39 28.76 28.48 27.97 28.06 28.44 27.20 26.92 27.34 27.56 27.71 28.51 26.25 28.52 30.57 31.11 29.61 29.86 31.12 32.26 32.84 32.66 37.48 41.64 40.86 40.17 40.14 41.35 41.81 42.77 43.35 43.31 44.19
37.05 36.82 36.76 36.33 34.69 33.93 33.42 30.95 30.93 30.51 28.46 27.25 27.59 27.21 27.18 28.98 25.76 25.59 25.66 25.50 25.94 27.22 26.38 24.80 27.01 26.98 27.52 29.64 29.36 28.95 32.38 34.62 32.52 37.54 39.08 40.68 40.04 40.45 40.89 41.13 41.79 42.29 42.37
36.44 36.66 37.63 34.37 33.99 33.31 31.89 30.75 29.28 28.11 27.41 27.27 27.08 26.59 26.49 25.81 24.06 23.90 24.49 24.72 25.60 27.92 27.02 26.07 26.16 26.17 26.35 26.79 26.83 27.55 28.74 28.98 32.30 34.88 35.84 37.95 40.62 40.77 40.53 41.13 41.37 41.91 41.82
37.43 37.74 35.85 34.35 33.68 32.73 31.98 29.70 28.26 27.50 27.04 27.13 27.37 27.06 26.32 25.54 23.79 23.72 24.28 23.97 26.94 26.30 26.75 26.80 26.10 25.54 25.66 26.43 26.05 25.25 25.17 26.68 26.54 30.59 32.05 35.64 36.26 38.55 41.06 40.93 40.69 41.11 41.85
38.80 36.89 34.08 32.40 31.99 32.05 30.44 28.39 28.19 27.47 26.60 26.08 26.86 26.83 26.59 27.35 29.76 28.03 25.47 23.99 23.59 23.90 26.09 26.80 26.11 25.95 25.76 23.92 22.96 24.53 23.96 23.95 24.54 26.00 27.02 30.17 31.42 33.09 34.55 36.68 39.61 41.33 41.26
35.36 34.05 32.35 30.93 30.42 30.93 32.49 32.90 32.25 28.31 27.42 26.76 25.65 25.91 25.65 26.94 26.69 27.59 27.50 28.01 27.31 24.73 23.93 24.09 24.07 24.37 25.43 22.97 22.96 22.95 22.69 21.34 20.80 25.76 25.56 24.83 28.84 29.38 31.74 32.89 36.32 37.79 39.41
35.01 29.83 29.58 29.39 28.36 27.62 32.59 32.17 30.78 27.93 26.01 25.06 24.41 24.13 23.84 25.19 25.19 24.57 26.06 27.05 27.08 28.52 27.59 25.86 24.12 24.37 24.69 25.61 24.35 23.01 22.11 21.96 21.63 24.47 24.80 22.06 22.98 26.57 29.98 31.53 34.19 35.91 37.73
30.15 27.80 27.74 28.05 27.04 28.66 29.85 29.17 28.80 24.19 23.05 23.41 22.88 22.76 22.72 22.96 24.17 24.96 25.64 26.39 24.90 26.88 27.01 27.29 27.63 26.52 25.95 26.60 25.93 26.02 24.73 24.87 24.48 25.56 26.11 24.97 20.59 22.23 24.84 27.86 33.06 35.35 36.97
27.61 27.73 27.87 26.90 24.88 24.14 27.87 27.75 26.37 22.96 22.58 21.83 23.01 22.91 23.50 23.32 25.63 28.17 26.77 25.03 24.49 25.78 27.93 28.57 28.60 28.79 29.61 29.69 30.35 28.10 26.24 25.29 23.32 24.17 24.93 23.61 21.58 20.83 21.92 23.40 27.37 34.25 35.77
28.92 27.74 26.75 25.71 26.62 23.02 25.54 26.30 25.26 20.34 15.74 21.11 21.88 22.60 24.15 24.73 26.75 26.73 25.17 23.84 22.41 23.57 24.78 24.52 24.26 25.82 26.60 25.89 27.01 26.03 24.22 22.90 21.89 18.13 23.61 23.43 24.44 21.62 16.92 20.30 21.82 24.50 24.54

GFSMA_sfc_wetblb_024.txt.gz
Wetbulb
53.18 52.83 52.23 51.08 50.96 50.95 50.15 49.68 49.32 48.53 48.25 49.00 48.98 49.17 49.52 50.43 50.99 51.14 50.65 54.84 56.23 57.82 59.50 60.73 61.50 61.86 62.13 63.79 63.93 63.75 63.56 62.60 62.44 62.73 64.02 64.61 65.15 65.39 65.04 64.79 64.85 65.04 65.22
52.95 51.34 49.13 48.84 48.95 48.47 48.52 48.35 47.32 46.57 46.11 46.95 46.70 47.47 48.31 48.87 48.98 49.11 49.92 50.00 54.04 55.39 56.42 58.11 59.25 60.06 60.87 61.37 62.27 63.63 63.75 63.53 63.20 62.15 63.25 63.81 64.09 64.63 64.58 64.15 64.46 64.61 64.90
49.67 47.96 47.56 47.73 47.66 47.71 47.15 46.87 46.38 46.11 44.87 45.62 45.01 46.29 47.37 47.32 47.44 48.21 48.96 49.32 49.61 51.72 53.19 54.24 54.82 56.38 57.67 58.79 59.40 60.64 62.58 63.31 63.40 62.39 62.90 63.11 63.51 63.93 64.27 64.07 63.82 64.04 64.69
48.63 47.70 47.05 46.70 47.33 47.28 46.21 45.64 44.87 44.04 43.23 43.02 43.42 44.82 45.23 46.13 46.47 47.71 47.41 48.12 48.11 46.92 47.39 50.61 51.04 51.84 52.80 55.19 58.49 59.21 60.21 61.47 63.24 63.26 62.86 62.76 62.94 63.08 63.46 63.72 63.59 63.55 63.84
48.85 46.73 47.47 46.74 48.16 45.28 44.43 44.23 43.21 43.23 42.42 43.12 45.25 45.03 44.34 44.07 45.10 45.95 45.74 46.15 46.22 45.15 44.54 46.90 48.17 48.29 49.47 51.17 53.84 57.03 59.22 59.78 60.69 62.48 62.93 62.53 62.43 62.29 62.77 63.11 63.17 63.31 63.22
48.46 48.37 47.08 45.22 44.40 43.38 43.13 42.89 42.36 43.02 42.63 43.18 45.09 44.51 43.34 43.52 44.02 42.42 42.87 44.55 44.12 44.19 43.43 44.07 43.32 44.50 46.52 48.34 51.05 53.45 57.07 59.05 59.75 60.69 62.20 62.31 62.04 61.78 62.01 62.44 62.70 62.95 62.94
45.78 43.92 43.42 43.38 43.54 42.90 42.39 42.98 42.39 41.86 42.49 42.49 41.09 40.82 41.88 42.43 41.46 41.47 41.81 42.26 41.50 42.50 43.00 42.48 42.34 43.48 42.24 46.74 49.11 51.34 54.25 56.21 57.50 58.32 60.16 60.99 61.16 61.06 61.25 61.37 61.78 61.61 62.17
44.22 44.22 42.72 42.71 43.00 42.59 42.07 41.72 40.72 40.48 40.87 41.38 39.29 38.34 35.34 37.62 39.81 40.70 40.38 40.73 39.51 40.55 41.40 41.83 41.44 42.34 41.69 44.41 46.16 50.11 51.51 52.36 53.74 55.13 56.29 56.78 58.86 60.13 60.20 60.70 60.32 60.57 60.87
43.75 43.35 43.15 42.88 42.65 42.29 41.24 40.35 39.64 38.82 37.84 39.15 39.42 38.21 33.64 31.89 35.51 37.74 38.96 38.78 38.43 38.68 39.32 40.08 40.84 41.22 41.34 43.37 46.34 47.52 48.33 49.03 50.18 52.26 53.73 55.28 56.00 57.50 59.09 59.93 59.39 58.68 59.84
43.53 43.90 42.84 43.50 41.35 40.68 39.83 39.90 40.72 38.67 38.19 36.47 38.38 40.32 38.09 37.02 33.94 32.17 37.01 37.88 38.32 38.34 38.64 38.46 39.50 40.06 40.93 42.96 45.55 45.78 46.71 46.94 47.34 49.37 51.15 53.06 54.79 55.75 56.94 58.57 58.56 57.61 58.17
43.93 43.03 42.21 40.31 39.23 39.08 38.36 38.10 37.86 37.34 37.73 36.67 35.83 35.98 35.61 36.04 35.88 34.70 31.05 33.37 36.82 38.87 38.42 38.31 38.51 38.85 39.85 41.18 42.24 44.39 45.50 45.83 45.95 47.52 49.24 50.27 52.37 54.27 56.33 56.98 56.83 56.31 56.61
41.63 40.38 40.42 39.32 39.05 38.59 37.88 37.55 37.37 36.79 36.53 36.16 35.57 35.02 35.02 34.64 33.26 32.57 31.17 31.99 32.98 35.82 37.22 39.38 37.90 38.48 39.32 39.85 41.02 42.98 44.35 45.10 44.51 45.26 46.67 48.45 49.01 50.55 52.65 53.18 54.36 55.01 55.50
39.16 37.77 38.80 38.68 38.40 38.38 38.75 38.18 37.12 36.47 35.66 35.52 34.01 33.56 34.16 33.64 34.40 34.03 32.93 30.48 30.61 32.68 35.55 37.95 38.80 39.34 38.42 38.05 39.30 41.82 44.18 43.56 43.90 43.57 44.04 45.50 46.96 47.17 48.66 49.85 51.65 53.14 54.96
38.01 37.48 37.99 38.84 38.90 39.05 38.49 38.02 37.69 36.73 35.62 34.57 33.44 33.18 32.63 32.44 31.28 32.67 32.67 29.96 26.77 29.48 30.65 33.28 36.34 37.76 38.65 38.47 38.65 39.60 38.94 42.14 43.25 42.45 42.42 43.02 44.73 45.43 45.66 46.79 48.09 50.55 52.40
38.81 37.68 38.47 39.79 40.11 38.95 37.77 36.63 35.90 34.23 33.81 32.74 32.52 31.55 29.12 29.76 30.02 30.34 30.19 30.11 27.90 22.44 23.79 28.50 31.32 35.53 36.54 37.69 37.73 36.99 35.68 38.81 42.23 42.25 41.61 41.80 42.26 43.13 44.29 45.10 45.88 45.92 47.49
37.56 40.04 39.32 38.14 37.41 36.22 35.64 33.96 33.36 32.39 32.52 31.51 30.78 28.97 28.30 28.68 28.70 28.78 27.73 27.86 27.99 25.77 22.38 28.50 30.15 32.43 34.45 35.83 36.57 36.85 34.26 37.24 37.18 40.12 41.31 40.91 40.63 41.59 42.17 42.61 43.80 44.72 45.15
38.53 37.86 37.38 36.64 35.68 35.19 34.28 32.50 32.06 31.32 30.42 29.26 28.68 27.99 27.97 27.93 27.29 26.84 26.67 26.19 25.52 25.74 22.87 25.50 28.88 30.80 31.18 31.65 32.94 33.49 34.10 33.70 34.74 36.71 39.14 41.18 39.75 40.29 40.66 40.91 41.51 42.44 42.98
36.61 36.23 35.18 36.83 37.54 35.54 32.19 32.18 30.17 31.03 29.29 27.93 27.46 27.38 27.08 28.75 26.30 25.83 25.27 24.56 24.63 25.40 24.43 23.00 26.53 27.52 28.66 30.90 30.72 30.22 32.08 33.57 33.33 35.88 36.24 37.29 40.15 39.88 39.85 39.86 40.92 41.41 42.12
34.79 35.35 38.39 37.70 34.12 32.88 31.66 30.26 29.86 29.15 27.88 27.26 27.11 26.78 26.62 26.48 25.30 24.76 24.27 23.95 24.68 25.65 25.88 26.66 25.37 28.47 28.64 28.95 29.03 29.29 29.28 30.72 32.46 34.22 34.18 35.06 36.93 39.07 40.39 39.75 39.73 41.09 41.73
35.62 37.58 37.90 36.47 32.98 31.65 31.26 29.85 28.84 27.82 27.31 27.49 27.59 27.23 26.91 26.31 25.31 24.85 24.82 25.03 24.52 24.02 24.36 23.70 23.89 26.22 27.34 28.57 27.79 27.37 26.77 28.69 28.57 30.87 31.76 32.63 35.54 36.39 39.13 40.62 40.03 40.82 41.04
36.88 35.88 33.73 32.69 31.27 30.80 30.34 28.61 28.75 28.47 27.61 26.90 27.40 27.51 27.34 27.79 29.29 28.05 25.87 24.90 24.17 23.48 24.08 24.08 23.10 24.72 25.38 26.40 25.93 27.58 26.64 26.43 26.93 27.91 28.19 29.82 31.61 31.99 34.76 36.26 40.51 41.03 40.28
35.75 35.91 32.52 29.87 28.10 30.19 32.95 33.11 30.34 27.91 27.03 25.86 24.37 24.42 24.78 25.49 25.55 26.83 26.61 26.91 26.54 24.33 23.92 24.09 23.23 22.48 23.39 25.41 26.83 26.39 25.40 23.70 22.91 27.71 28.01 26.91 29.88 30.51 32.04 33.52 34.74 36.02 38.76
35.26 30.33 27.98 27.70 26.81 28.68 31.17 29.96 29.78 26.50 23.94 23.17 22.60 22.20 22.53 24.20 24.49 24.02 25.31 26.51 26.84 27.88 27.18 25.64 25.03 24.00 24.87 25.89 26.63 25.51 25.17 24.18 23.66 26.53 26.96 25.65 27.19 28.61 31.64 31.89 33.71 34.87 36.08
29.93 27.27 27.10 27.07 26.60 27.06 28.62 28.16 27.71 24.28 22.93 22.91 22.60 22.32 22.24 22.39 23.97 25.00 26.00 25.79 25.45 26.27 26.54 27.13 26.67 26.19 27.32 28.08 28.01 27.02 26.32 26.30 26.40 26.86 27.62 24.53 27.32 27.67 29.29 30.00 32.45 34.42 35.85
29.31 28.22 27.57 25.95 23.91 23.77 27.13 26.97 25.75 22.43 22.33 21.85 22.81 23.10 23.38 23.30 25.19 27.92 25.54 24.50 24.36 25.30 27.96 29.29 29.19 29.01 28.90 28.78 29.12 28.59 25.74 25.38 23.51 25.25 27.07 26.59 25.59 26.45 26.86 28.55 30.69 32.67 34.95
28.18 27.57 26.51 25.30 26.00 22.86 25.19 26.18 25.53 20.70 16.41 20.88 22.47 22.95 23.82 23.98 25.75 26.14 24.88 23.18 22.19 23.60 24.38 25.96 26.88 26.88 27.33 27.09 27.34 26.25 25.59 23.49 25.00 21.62 25.70 25.44 25.37 25.31 23.68 25.76 26.92 28.64 30.70

GFSMA_sfc_wetblb_027.txt.gz
Wetbulb
60.10 59.08 57.44 56.82 56.53 56.84 56.44 55.56 55.04 54.27 53.85 53.74 53.38 53.20 53.40 53.94 54.27 54.44 55.12 54.82 55.41 57.19 58.84 59.66 59.98 60.38 60.49 60.68 60.94 61.71 62.62 64.47 63.55 63.06 63.44 63.91 64.49 64.89 64.93 64.84 64.47 64.62 64.85
58.92 56.52 56.01 55.45 55.61 55.56 55.38 55.06 54.34 53.60 52.78 52.47 52.01 52.63 52.83 53.28 53.57 54.06 54.08 55.14 52.55 52.75 54.03 55.38 55.93 56.38 57.09 57.65 58.73 59.86 60.38 61.52 63.94 63.67 63.41 63.47 63.87 63.87 64.17 64.41 64.24 64.22 64.73
56.16 55.98 55.57 55.11 54.80 54.65 54.39 53.78 52.99 52.57 51.54 51.03 51.49 52.12 52.20 52.80 52.32 52.98 53.76 54.06 53.42 50.70 50.20 51.83 52.25 52.75 53.33 54.12 55.11 56.67 58.94 59.92 60.75 62.99 63.65 63.56 63.30 63.41 63.76 64.10 63.95 63.94 63.78
55.99 54.75 52.63 53.24 53.09 51.50 50.89 51.55 50.87 50.53 50.54 50.81 50.84 51.20 51.63 51.30 51.83 51.98 52.20 51.97 51.51 50.79 50.52 49.46 49.95 50.40 50.76 51.74 52.83 54.10 55.91 57.90 59.59 60.41 62.03 63.38 63.19 63.01 63.06 63.27 63.61 63.56 63.47
53.45 52.07 50.50 51.16 51.75 50.88 51.33 50.71 50.37 50.14 49.05 48.99 48.25 49.68 49.30 49.71 52.19 50.78 49.95 49.67 49.91 49.90 49.66 48.95 48.52 48.47 48.81 49.64 50.90 52.59 54.00 55.18 57.62 59.37 60.15 61.90 62.52 62.20 62.27 62.66 63.25 63.12 63.21
52.22 51.97 51.12 51.23 51.66 50.63 49.80 49.35 48.55 48.57 48.64 47.77 46.29 47.24 47.40 49.83 51.70 49.63 48.16 48.45 48.35 48.35 48.32 48.14 48.05 47.50 47.25 47.93 49.09 51.03 52.70 54.34 55.61 56.45 57.86 58.93 60.84 61.55 61.50 61.45 62.16 62.49 62.23
50.80 51.22 50.85 50.78 50.53 49.06 48.28 48.08 47.34 46.52 46.06 47.50 45.17 44.68 45.99 49.64 48.61 48.12 47.40 47.19 46.94 46.93 47.19 47.17 46.62 46.45 46.61 46.88 47.45 49.82 52.24 52.99 53.64 54.43 55.21 56.28 57.45 58.48 60.51 61.25 61.58 61.68 61.49
50.75 50.06 50.21 49.48 49.03 47.98 47.53 47.07 46.71 45.01 45.48 46.69 43.15 42.63 40.04 42.47 46.85 45.40 45.61 45.10 45.57 46.20 45.17 45.81 45.86 45.80 46.34 46.51 46.82 48.25 49.45 50.36 51.67 51.87 52.93 53.89 55.47 56.56 57.88 60.04 60.93 60.86 60.47
49.41 49.68 49.38 49.28 48.70 48.30 46.26 46.33 46.04 44.82 42.44 44.67 45.28 41.92 38.06 36.73 39.40 42.82 43.02 43.93 43.76 43.67 44.29 44.22 44.66 44.63 45.71 45.91 46.19 47.06 46.25 46.94 47.85 49.23 50.84 52.11 53.41 55.23 56.26 57.76 59.14 60.43 59.63
48.67 48.88 48.69 48.36 48.00 47.80 45.96 45.67 45.80 45.12 43.66 40.71 42.39 43.46 42.22 40.45 35.05 34.15 39.85 40.52 41.69 40.97 42.36 43.30 43.78 44.63 45.30 45.11 44.59 44.28 44.66 45.54 46.33 47.50 48.75 50.64 51.79 53.12 55.26 56.55 57.62 59.18 59.14
48.83 48.47 48.09 47.40 47.34 47.02 46.22 45.20 44.99 43.81 43.61 41.55 40.60 39.84 39.12 39.13 39.26 35.82 32.31 35.33 38.33 39.93 41.28 40.68 42.93 43.78 44.48 44.02 43.98 43.96 44.11 44.91 45.47 46.00 46.65 47.72 49.72 50.89 52.74 55.00 57.01 57.88 58.29
49.30 48.33 46.55 46.73 46.75 45.72 44.82 44.38 44.35 43.43 42.59 42.04 41.32 39.98 37.62 35.91 35.05 34.82 32.78 33.13 33.53 36.07 38.21 39.98 40.22 42.48 43.16 42.73 41.92 41.38 41.66 43.60 44.30 44.87 45.22 45.63 47.09 48.76 49.75 51.88 53.33 55.63 56.68
47.68 47.00 46.04 45.92 45.63 45.34 45.20 44.79 44.24 43.72 42.82 40.91 40.06 38.81 39.49 38.12 38.28 35.84 34.18 32.67 31.95 34.30 35.22 37.97 38.49 40.63 40.24 42.91 42.32 41.54 41.35 40.52 42.40 44.06 43.75 44.12 44.73 46.26 47.54 48.69 50.22 51.93 53.83
46.74 46.53 45.38 45.52 45.48 45.35 44.78 44.51 43.91 43.09 42.89 40.68 39.70 38.94 38.68 38.21 37.88 36.24 34.31 32.53 29.66 31.22 33.24 33.87 37.20 37.74 39.32 41.09 41.26 40.87 41.50 39.76 40.31 41.62 42.84 42.67 43.19 43.90 44.75 46.15 47.32 47.80 48.87
45.33 45.54 45.12 44.56 44.83 44.70 43.96 43.55 42.27 41.16 40.66 40.09 39.52 39.26 37.92 37.41 37.09 36.47 35.79 34.40 31.09 26.67 27.91 32.12 32.15 36.63 37.61 38.98 39.53 39.86 40.87 40.54 39.54 38.90 39.86 41.72 42.08 42.37 43.31 44.17 44.86 45.66 46.25
45.62 45.34 45.43 44.73 43.44 42.49 41.58 40.95 39.73 39.80 38.70 39.13 38.28 37.39 36.69 36.28 35.72 35.63 34.74 33.75 32.50 29.32 26.15 30.94 31.72 33.49 34.98 35.45 36.94 37.58 38.82 39.69 38.61 37.77 38.20 39.26 41.55 41.18 41.78 42.55 42.73 43.59 44.45
44.53 43.99 43.43 42.87 41.77 39.29 40.53 41.22 39.28 38.29 37.06 37.36 37.05 35.52 34.71 35.11 34.22 34.11 33.79 32.65 31.08 30.49 26.61 29.41 31.56 32.74 32.73 33.56 34.80 36.55 37.98 39.36 39.65 37.61 38.00 38.03 38.88 40.90 40.80 41.16 41.27 41.87 42.50
42.54 41.92 41.85 41.09 41.35 41.61 40.83 39.88 37.53 37.38 36.07 35.35 34.65 34.10 33.72 33.49 32.93 33.25 32.26 31.07 30.35 30.34 27.53 25.67 29.15 29.75 31.00 32.85 33.75 34.51 35.93 37.31 38.47 37.66 36.31 35.97 35.87 37.92 40.40 40.43 40.43 41.08 41.25
41.80 41.99 40.93 41.22 40.30 39.51 37.50 37.06 36.01 34.88 34.01 33.80 33.94 33.34 32.80 32.35 31.09 31.12 30.50 29.61 29.22 28.33 27.74 26.40 26.30 29.53 30.14 31.77 31.82 33.73 34.61 35.80 37.01 36.58 35.66 35.36 34.86 35.57 37.55 40.22 40.38 40.39 40.73
41.32 41.65 41.04 39.08 38.36 36.66 36.12 35.03 33.95 34.18 34.24 33.67 33.01 32.14 31.12 30.09 29.25 28.89 28.07 27.58 27.58 27.08 26.28 25.29 25.60 26.25 28.09 30.08 31.16 30.34 30.61 34.13 34.28 35.70 35.25 34.10 33.73 34.96 36.19 37.29 40.24 40.28 40.88
40.83 39.05 36.08 35.47 35.67 35.41 34.53 35.09 34.63 33.43 32.50 31.04 30.40 29.32 29.09 28.35 27.93 27.75 27.34 26.88 26.17 24.95 25.18 25.47 25.20 25.32 25.76 26.72 26.23 29.24 28.89 30.81 33.01 34.84 34.31 34.95 35.55 36.45 38.23 38.19 40.02 40.73 40.62
39.44 38.79 35.77 35.06 33.85 34.16 32.63 31.27 31.48 31.53 30.01 28.43 27.36 27.56 27.51 26.77 27.19 26.64 26.51 26.97 27.16 26.16 25.98 24.97 24.83 25.48 25.58 27.63 28.23 27.71 27.91 27.46 26.30 35.07 32.82 32.63 35.60 34.26 36.12 38.14 34.87 35.35 37.70
37.92 36.72 34.83 33.83 33.18 32.97 29.93 29.49 28.82 30.18 28.10 27.39 26.55 26.23 26.00 26.71 26.54 26.79 26.81 27.56 28.22 27.74 27.16 27.13 25.05 26.04 25.59 27.81 27.94 27.40 28.09 27.55 27.15 30.19 31.54 29.73 33.65 32.59 35.52 35.82 34.55 34.71 35.97
36.84 36.26 33.80 32.70 32.37 30.21 28.35 27.78 27.33 28.46 27.61 26.79 26.50 26.34 26.00 25.74 26.35 25.74 27.29 26.66 26.72 27.20 27.54 28.27 28.67 28.72 29.09 29.51 29.14 28.68 29.04 29.16 29.75 31.26 31.63 26.45 32.08 31.74 34.61 35.90 33.26 33.51 34.70
36.74 34.56 33.16 31.42 29.97 29.45 26.83 26.87 27.42 27.90 26.72 26.15 26.55 26.76 25.96 25.18 25.37 26.81 25.64 24.96 24.80 25.55 28.00 28.05 28.52 29.30 29.44 29.64 29.76 28.65 27.03 26.77 26.48 28.13 30.87 28.64 29.87 30.79 32.79 33.75 35.62 33.09 33.57
34.44 33.45 31.22 30.52 27.56 28.47 25.44 26.24 27.22 28.14 26.13 25.76 26.03 25.81 24.29 24.32 25.17 25.29 24.47 24.20 22.77 24.19 25.11 26.08 27.25 28.42 29.21 29.65 28.68 29.25 28.00 25.10 26.05 26.30 30.62 28.72 28.77 30.18 27.90 33.39 34.31 35.74 36.01

GFSMA_sfc_wetblb_030.txt.gz
Wetbulb
65.45 64.31 63.08 62.64 62.39 62.38 60.80 60.11 59.09 57.97 57.46 57.04 56.84 56.53 56.13 56.40 56.60 56.43 56.54 55.12 54.52 55.35 56.59 57.15 57.44 57.15 57.03 57.02 57.26 58.87 60.46 61.27 61.92 63.24 64.06 63.62 64.14 64.54 64.23 64.41 64.74 64.70 64.70
64.46 62.20 61.09 60.87 61.54 60.50 59.35 58.14 57.27 56.69 56.45 56.40 56.25 56.16 56.07 56.08 56.06 55.80 55.64 57.01 52.43 51.68 53.06 54.10 54.76 54.83 54.71 54.78 54.65 55.10 56.89 58.60 60.35 61.32 62.11 63.99 63.49 63.86 63.91 64.19 64.37 64.39 64.50
60.64 60.78 61.21 59.98 57.21 56.80 56.38 55.75 55.83 56.47 56.31 56.13 55.61 55.44 55.19 55.30 54.38 54.45 54.61 55.02 55.80 51.22 50.39 51.03 51.78 52.08 52.31 52.84 53.08 53.65 54.44 55.35 56.94 59.83 60.65 61.95 63.27 63.24 63.40 63.55 63.81 63.73 63.82
58.65 57.84 57.16 55.32 55.62 56.23 56.24 55.77 55.46 54.78 54.19 53.77 52.95 52.16 52.58 52.57 52.39 53.83 53.80 54.13 53.68 53.13 53.25 50.85 50.01 50.42 50.01 50.70 51.68 52.42 53.35 53.80 54.75 56.55 58.74 59.90 61.48 62.21 62.80 63.01 63.07 63.44 63.25
55.22 55.75 56.25 55.72 56.19 55.80 55.54 54.29 53.15 52.03 50.75 51.04 50.33 49.74 50.83 50.44 50.43 51.65 52.03 52.51 52.20 51.85 51.65 51.89 50.70 50.00 48.59 48.91 50.02 51.03 52.10 53.06 54.01 54.99 56.33 57.08 58.70 60.05 61.41 62.02 62.48 62.98 62.87
56.18 56.37 55.76 55.71 55.43 54.50 52.70 51.65 50.88 51.09 50.08 49.57 48.36 48.02 49.66 49.93 50.79 51.93 51.28 50.26 50.99 50.84 50.76 49.93 49.94 49.70 49.21 48.48 48.91 49.60 51.29 52.61 53.10 53.54 54.15 55.16 55.85 57.23 58.55 59.89 61.95 62.24 62.65
55.25 55.94 56.29 54.98 53.94 52.09 51.18 51.14 50.15 49.32 48.65 49.74 47.96 47.28 48.06 49.63 51.23 51.17 50.39 49.52 49.33 48.75 49.24 48.89 48.61 48.40 48.36 48.38 48.52 49.07 50.28 51.15 51.58 51.79 51.93 52.42 53.85 54.73 56.18 57.97 59.62 60.70 61.96
55.14 54.83 54.01 53.65 52.30 51.51 51.28 50.30 49.25 47.31 47.33 48.29 45.49 44.97 42.19 45.17 47.55 49.61 47.82 47.91 47.85 48.10 47.16 47.38 47.17 47.53 47.84 47.71 48.37 47.45 48.22 49.08 49.29 49.54 50.16 50.47 51.58 53.09 54.35 56.31 57.96 59.88 60.74
54.51 54.35 53.58 52.81 52.43 51.11 49.31 49.53 48.80 47.00 44.70 46.48 47.02 44.00 40.46 38.97 41.96 44.93 45.34 45.71 45.94 45.13 45.54 45.80 45.94 45.88 47.15 47.69 47.43 47.30 45.90 45.29 46.87 47.88 48.64 49.21 50.04 51.44 52.77 54.82 56.66 58.15 59.62
53.65 53.03 52.14 52.15 51.64 51.07 50.03 48.85 47.78 47.23 46.11 43.53 44.98 45.18 44.70 42.74 37.92 36.76 41.83 42.47 43.78 43.22 43.61 43.50 44.34 44.22 45.42 45.26 45.34 45.54 43.50 44.13 45.76 46.61 47.27 47.90 48.43 49.68 51.41 53.39 55.05 56.61 58.04
53.17 52.40 52.06 51.83 51.31 50.82 49.98 48.84 47.64 47.41 46.17 44.11 43.25 42.63 42.06 41.49 41.21 37.72 34.77 37.93 40.89 41.80 42.31 42.35 42.05 42.77 43.69 44.14 45.56 45.10 41.83 41.85 42.00 45.14 46.02 46.55 47.06 48.03 50.16 51.01 53.07 54.66 56.95
52.06 52.22 52.24 51.90 51.44 50.50 49.35 48.26 47.85 46.93 45.31 44.24 43.09 41.23 39.80 38.55 37.98 37.37 35.55 35.92 36.05 38.73 40.48 41.14 41.17 41.65 41.97 42.38 42.75 43.84 43.42 42.95 40.90 41.39 43.76 45.15 45.92 46.44 47.19 49.60 50.72 52.65 54.15
50.30 50.32 51.10 51.03 50.48 50.10 48.77 47.81 47.10 46.36 44.97 43.06 41.82 40.90 41.25 40.30 40.18 38.68 36.86 35.53 34.56 37.18 38.06 40.14 40.68 41.20 40.85 41.60 41.84 42.65 42.22 41.11 41.57 40.59 40.90 42.75 44.01 44.74 45.31 46.16 48.13 49.92 51.04
48.58 49.91 50.08 49.48 48.99 48.88 48.21 47.41 46.37 45.43 45.25 43.13 41.19 41.27 40.62 40.20 40.05 39.19 36.50 35.08 32.61 33.84 35.92 36.35 39.74 39.93 40.13 40.38 40.80 40.43 41.19 41.03 41.23 40.56 40.02 40.05 41.65 43.05 43.77 44.04 44.93 47.21 48.53
46.94 47.01 47.61 47.21 47.27 47.14 47.05 46.58 45.13 44.56 43.36 42.21 41.23 40.96 39.27 39.46 39.01 38.02 38.63 36.72 33.08 29.34 30.75 34.97 34.94 38.79 38.92 39.18 38.87 39.23 39.40 39.54 39.55 40.26 39.45 38.60 39.12 40.71 42.48 42.44 43.02 43.98 45.26
46.07 45.68 45.42 45.29 45.82 46.09 46.03 45.12 43.72 43.86 41.87 42.13 41.22 39.81 39.38 38.85 38.31 39.00 38.20 37.27 35.87 33.03 30.93 34.38 35.17 36.85 37.67 37.33 37.97 37.99 38.42 38.35 37.80 38.19 38.97 38.14 38.54 39.44 41.51 42.01 42.08 42.68 43.70
45.06 44.27 44.37 44.35 44.33 44.52 44.79 43.90 43.62 42.56 40.91 39.82 39.81 38.68 38.74 39.28 38.17 37.80 37.57 36.50 34.94 34.23 30.42 32.97 34.75 36.01 35.40 35.30 36.03 36.87 37.13 38.35 39.31 39.02 38.88 38.00 37.69 37.38 38.06 40.53 41.24 41.57 42.10
44.49 43.90 44.17 43.79 43.48 42.85 43.34 42.21 40.70 39.86 38.88 38.38 38.71 38.47 37.74 37.49 37.00 36.95 36.11 34.87 33.91 33.41 30.42 28.45 31.78 32.01 32.40 33.84 34.20 34.48 35.42 36.57 37.70 38.34 37.44 36.39 36.18 36.59 36.87 38.12 40.11 40.91 41.28
43.37 43.99 43.68 42.33 41.21 41.65 42.09 40.66 39.36 38.62 38.58 38.30 38.10 37.47 36.57 35.98 34.55 34.65 34.14 33.12 31.86 31.16 31.28 29.74 28.78 30.77 31.59 33.15 32.38 33.65 33.85 34.78 36.64 38.01 37.17 36.51 36.82 36.09 35.70 36.77 37.86 39.95 41.01
42.81 42.87 42.45 41.06 40.48 40.32 39.57 39.05 38.65 38.03 38.39 37.83 37.28 36.18 34.64 33.37 32.54 31.87 31.25 31.45 30.43 29.33 29.72 28.56 28.04 27.65 29.23 31.06 32.24 30.83 30.66 33.66 34.09 36.51 37.35 35.86 35.95 36.95 36.03 36.51 37.91 38.81 40.77
42.54 42.53 41.17 40.64 39.92 39.38 38.55 38.70 38.32 37.72 36.81 35.80 35.07 33.94 33.48 31.16 28.54 28.71 28.93 28.94 28.13 27.27 26.88 26.67 27.12 27.75 27.98 29.01 28.18 30.87 29.57 31.47 33.02 34.90 34.98 36.63 36.84 37.40 38.68 36.13 37.56 39.00 38.80
41.84 41.56 40.24 39.08 38.74 38.08 31.27 30.57 31.31 35.54 35.27 33.64 32.40 32.56 32.67 30.65 30.40 28.02 28.06 27.76 28.01 27.06 26.91 26.73 26.68 25.76 27.16 28.51 29.91 29.26 29.09 28.35 26.94 34.93 34.00 34.41 36.44 35.83 36.41 38.33 34.61 34.92 35.59
41.19 40.14 39.36 39.39 38.22 37.81 29.77 28.97 28.61 33.77 33.13 32.53 31.84 31.43 30.80 30.87 30.00 29.36 28.01 27.97 29.09 28.60 28.14 28.55 26.06 26.67 28.02 29.42 29.68 28.84 28.90 28.82 28.73 32.56 32.51 30.22 34.81 33.90 35.76 36.91 35.18 34.07 34.88
39.93 39.46 38.92 38.61 37.89 35.65 28.44 27.76 27.87 33.08 32.78 32.10 31.48 31.17 30.81 30.18 29.84 27.32 26.69 26.89 28.53 28.99 29.40 28.81 28.84 29.05 29.44 30.37 30.32 30.56 30.03 29.80 30.95 32.23 32.93 27.98 32.82 32.57 35.42 36.13 35.49 34.09 34.44
39.19 38.38 38.85 37.99 36.88 35.26 28.01 27.03 27.99 32.10 31.72 31.09 31.08 31.19 29.48 28.46 26.62 26.17 25.73 25.42 26.74 28.10 29.51 28.48 28.47 28.61 28.89 29.51 30.37 30.25 28.03 27.23 26.94 28.29 32.71 30.71 31.72 31.30 32.78 35.04 36.68 34.80 34.11
37.88 38.18 37.57 37.35 32.53 34.18 27.57 26.49 27.85 31.63 30.18 30.02 30.69 30.15 27.27 25.81 24.09 24.94 24.61 24.51 23.93 25.66 26.09 26.78 27.78 29.64 30.55 31.16 29.96 30.87 29.77 26.52 26.15 26.61 31.48 29.89 30.32 30.23 29.24 34.81 36.11 37.31 37.32

GFSMA_sfc_wetblb_033.txt.gz
Wetbulb
66.58 64.82 63.60 62.48 61.94 61.45 61.13 60.84 59.70 58.81 58.90 58.58 58.39 57.91 57.40 57.36 57.22 56.93 56.77 55.82 55.15 55.15 55.32 56.16 56.36 56.34 56.02 55.63 55.42 55.90 56.58 57.73 58.90 60.60 61.40 62.04 63.66 64.03 64.17 64.22 64.16 64.36 64.56
64.18 63.57 63.15 61.39 61.37 60.45 59.37 57.56 56.93 57.31 57.83 57.86 57.29 57.30 56.33 55.72 55.96 56.00 55.38 55.82 54.45 53.80 53.04 52.90 53.63 54.18 54.27 54.14 53.96 54.22 54.78 55.40 56.17 57.31 59.32 60.92 61.62 62.77 63.39 63.67 63.74 63.96 64.29
61.91 62.72 61.10 57.13 57.07 57.73 57.56 57.93 57.55 57.60 56.79 55.97 54.84 54.64 53.89 53.46 53.56 53.11 54.19 54.68 54.74 52.78 52.05 51.79 51.39 51.96 51.97 51.92 52.08 52.63 53.23 53.82 54.73 55.38 56.55 58.23 59.27 60.41 61.73 62.84 62.93 63.48 63.68
58.89 57.13 57.10 58.21 57.15 57.24 56.85 56.66 55.71 54.02 53.50 53.11 52.79 52.85 51.43 51.36 52.25 52.22 51.94 53.66 53.51 52.87 52.63 51.37 51.00 50.83 50.66 50.51 50.98 51.71 52.12 52.55 53.62 54.62 55.30 56.40 56.85 57.86 59.17 60.54 62.08 62.65 63.06
57.40 57.64 57.08 57.80 57.88 57.32 56.58 54.71 53.53 52.92 51.52 51.19 50.20 50.43 51.16 50.18 51.07 50.60 51.44 52.72 52.74 51.88 51.57 52.42 52.80 52.10 49.14 49.79 50.27 51.20 51.62 51.98 52.94 53.26 53.97 54.47 55.03 55.86 56.43 57.68 59.31 60.95 62.67
58.26 58.45 57.77 57.89 56.63 55.60 54.56 53.45 52.60 51.71 50.28 49.17 48.30 48.85 50.30 50.29 50.56 51.15 52.25 51.99 51.29 51.27 50.59 50.07 49.81 49.31 51.09 49.53 49.42 50.27 51.01 51.73 51.88 51.95 52.12 52.40 52.79 53.40 54.54 55.37 56.85 58.65 60.28
57.52 58.06 57.74 56.51 55.57 54.07 53.03 53.01 51.10 49.37 48.41 49.22 47.00 46.95 47.81 50.45 51.30 50.97 50.88 50.47 49.25 49.36 49.52 48.57 48.28 48.03 48.01 50.22 49.25 49.42 50.00 50.49 50.63 50.36 50.53 50.44 50.66 51.08 52.28 53.77 54.97 56.58 58.46
57.13 56.70 55.44 54.64 54.19 52.65 52.03 51.25 50.37 48.33 47.75 48.26 44.64 44.58 41.56 43.78 47.03 48.34 48.28 47.88 48.31 47.75 47.21 46.94 46.81 46.60 46.67 47.06 48.16 48.08 48.47 48.07 48.58 48.56 48.71 49.04 49.49 49.92 50.78 52.22 53.26 54.78 56.79
56.16 55.12 54.41 53.56 52.76 51.79 49.99 50.58 49.92 47.99 45.27 46.54 47.12 43.67 39.53 38.28 41.42 44.63 45.38 45.47 46.60 45.28 45.64 45.37 45.09 44.76 45.10 45.01 46.49 46.18 44.87 43.47 44.60 47.13 48.30 48.14 48.72 48.71 49.33 50.74 52.18 53.46 55.30
54.91 54.03 53.33 52.99 52.42 51.69 50.67 50.16 49.44 48.37 47.05 44.05 45.23 45.29 45.23 43.36 38.11 36.54 42.06 43.11 44.00 43.56 45.03 43.89 43.60 43.68 43.32 44.53 45.17 45.10 42.97 41.43 41.77 43.44 45.31 47.48 47.90 47.85 48.07 49.28 51.08 52.06 53.49
54.97 53.55 53.18 52.93 52.00 51.32 50.88 50.29 49.40 48.06 47.04 44.99 43.88 42.95 42.62 41.95 41.31 37.92 35.05 38.04 41.28 41.80 42.21 42.72 42.66 42.89 42.90 42.88 43.06 43.94 42.83 42.69 42.11 42.76 43.52 44.46 45.97 47.12 47.26 47.58 48.93 50.86 52.01
52.14 52.62 52.15 51.99 51.69 50.65 50.32 49.74 49.38 47.57 46.77 45.59 44.58 43.00 40.78 38.57 37.50 37.30 35.88 36.43 37.11 39.86 41.44 42.35 42.74 42.73 43.37 43.11 43.35 43.72 43.28 42.86 41.89 41.71 42.18 43.02 43.77 44.18 45.20 46.30 46.79 48.04 49.90
49.82 49.84 50.31 49.94 49.54 49.28 48.98 48.64 47.72 46.76 46.59 45.19 44.22 42.79 42.29 40.79 40.52 38.97 37.12 35.74 35.39 37.61 39.32 41.32 41.94 42.49 41.52 42.96 42.34 42.37 40.91 40.70 41.60 42.30 41.64 42.03 41.96 42.80 43.28 43.72 45.13 45.59 47.10
48.78 49.42 48.38 48.21 48.05 47.95 47.75 48.07 47.18 46.85 46.53 45.31 44.39 42.90 41.89 41.19 40.76 39.56 37.19 35.22 33.08 34.74 36.45 36.30 40.51 41.29 41.70 41.47 41.46 41.22 39.78 40.04 39.96 40.51 39.99 40.01 40.90 41.08 41.21 41.87 42.96 43.83 44.47
47.17 47.11 47.11 46.34 46.25 45.96 46.27 46.58 46.06 45.49 45.49 44.90 43.75 43.09 41.93 41.55 41.30 40.34 39.18 37.72 34.73 30.75 31.50 35.77 36.34 39.76 40.55 40.58 40.55 40.54 40.13 39.39 39.25 39.20 38.81 38.95 38.96 40.26 40.09 40.68 41.39 42.45 43.21
46.79 46.34 45.68 45.35 45.35 45.44 45.44 45.25 44.79 45.05 44.00 44.02 43.10 41.81 41.22 40.40 39.79 39.77 38.97 38.79 37.44 34.53 30.98 35.61 36.63 37.96 38.63 37.63 38.76 39.05 38.81 39.26 38.47 38.31 38.76 38.52 39.13 39.67 39.39 39.50 40.37 41.28 42.13
45.97 44.84 44.60 44.64 44.53 44.25 44.55 44.19 43.81 43.60 42.33 41.37 41.54 40.76 39.54 39.87 38.61 38.98 39.01 38.28 37.16 36.23 32.77 35.16 36.24 36.70 35.79 35.55 36.33 37.34 37.75 37.88 38.24 38.15 37.92 39.13 39.39 39.12 38.22 37.91 38.31 39.08 40.37
45.52 44.43 44.33 44.10 43.98 43.83 43.39 42.75 42.04 40.78 40.36 39.31 39.01 38.67 37.83 38.25 37.46 37.39 37.04 35.34 35.39 35.15 33.55 30.30 32.57 32.85 33.09 34.32 35.19 34.60 35.68 35.79 36.88 37.58 38.00 38.01 38.10 38.08 37.94 37.67 37.35 38.11 39.23
44.31 44.13 43.98 43.44 42.71 42.16 41.07 40.98 40.42 39.40 39.25 38.77 38.63 37.95 37.23 36.52 35.08 34.95 34.37 33.37 33.28 33.08 32.92 30.38 29.46 31.87 32.46 33.49 32.87 33.77 34.07 34.93 35.63 36.96 37.38 37.54 37.59 37.90 38.21 37.49 37.03 36.87 38.72
43.42 43.47 43.55 43.24 42.20 41.36 40.33 39.78 39.36 39.08 38.65 38.41 38.11 37.27 36.05 34.94 33.70 32.29 30.89 30.98 31.09 29.94 29.44 28.36 28.21 28.89 30.59 32.23 31.91 31.06 30.71 33.75 33.21 34.98 35.95 36.10 37.32 37.44 37.55 37.21 37.17 37.26 37.77
43.31 43.35 42.73 42.13 41.01 40.19 39.43 38.69 38.90 38.26 36.99 36.54 36.77 36.02 35.48 33.07 30.66 30.22 29.54 29.13 28.34 27.28 26.90 26.61 26.51 27.71 28.14 28.67 28.70 30.54 29.79 31.09 32.50 34.35 34.12 35.17 36.15 37.27 38.05 37.64 37.22 37.64 36.09
42.63 42.47 42.00 41.07 40.33 39.28 31.71 31.44 31.37 35.60 35.69 35.10 34.26 34.47 34.54 34.08 33.12 30.95 30.45 28.88 28.69 26.44 26.33 27.02 26.21 25.80 26.31 28.00 29.84 29.26 29.46 28.54 26.70 34.78 32.32 32.48 35.04 35.19 36.85 37.54 36.10 35.62 35.15
42.10 41.53 41.28 40.39 39.76 39.53 31.56 30.09 29.18 33.47 34.35 34.59 34.09 33.26 32.76 33.05 31.93 31.51 30.19 29.18 28.84 29.74 28.64 28.70 26.93 27.10 27.13 28.46 29.20 27.91 28.19 28.18 28.27 31.50 31.54 29.75 33.94 33.15 35.59 36.51 36.27 35.48 34.61
41.13 40.37 40.17 39.94 39.41 37.32 30.97 29.43 28.66 32.42 34.57 34.43 33.86 33.21 32.29 31.84 30.48 27.29 27.10 27.15 28.07 28.96 29.78 29.77 28.99 28.13 28.41 29.03 28.78 28.85 28.87 29.42 30.54 31.54 32.68 27.73 32.99 32.37 35.26 36.29 36.66 36.49 35.37
40.11 39.71 39.87 39.62 38.39 36.36 30.51 29.60 28.28 32.73 33.11 32.93 33.23 32.94 31.86 30.40 27.54 26.00 25.11 24.67 25.50 27.27 30.17 30.12 28.95 29.16 29.85 30.37 30.47 30.05 28.26 27.48 27.04 28.10 31.90 29.83 31.61 31.96 33.80 34.73 36.71 36.58 35.64
39.23 39.17 38.47 38.96 34.62 36.99 30.16 29.52 28.56 32.13 31.33 31.21 32.37 32.02 29.15 26.83 24.89 24.70 24.17 23.66 22.75 25.44 25.70 25.80 26.70 28.73 30.19 30.85 30.82 30.73 30.32 27.71 27.32 26.87 30.98 28.75 30.09 30.52 28.53 34.66 35.53 36.95 36.91

GFSMA_sfc_wetblb_036.txt.gz
Wetbulb
64.01 62.91 61.48 60.81 59.67 58.53 56.04 54.84 54.83 54.71 55.79 55.86 55.74 55.08 53.93 52.65 52.06 52.65 52.19 56.50 56.58 55.48 55.70 55.80 55.48 55.47 55.21 54.85 54.43 54.93 55.34 55.70 56.38 56.77 57.42 58.77 60.72 61.65 62.50 63.82 63.66 63.60 63.77
62.39 62.28 58.20 56.61 56.28 55.21 55.44 54.42 55.11 55.23 54.16 53.95 52.23 52.65 52.69 51.14 49.53 51.00 50.36 51.59 55.64 55.29 54.18 53.99 53.62 53.44 53.41 52.73 52.44 52.79 53.43 53.99 54.68 55.42 56.15 56.76 57.75 58.97 60.08 61.19 62.89 63.55 63.64
59.58 58.32 56.55 55.48 54.81 54.89 55.61 55.29 54.50 53.16 51.59 51.78 50.49 50.43 50.30 48.24 48.29 49.72 48.79 48.90 52.03 54.43 53.57 51.80 51.80 52.17 52.79 51.67 51.95 51.96 52.58 52.56 53.39 54.23 54.62 55.42 56.33 56.66 57.38 58.13 59.64 61.10 63.00
57.72 56.84 55.51 55.35 54.69 55.29 54.17 53.55 51.59 50.16 49.42 48.64 47.23 47.10 47.34 47.79 47.87 48.54 48.04 49.09 49.35 49.95 52.40 52.58 52.62 51.66 51.69 50.54 51.54 51.78 52.22 52.35 52.52 53.11 53.20 53.87 54.32 54.57 54.98 55.69 56.67 58.38 59.88
56.96 55.71 55.20 55.37 55.52 54.65 53.24 51.68 50.32 49.12 46.50 45.72 45.57 44.81 45.93 46.04 47.00 48.68 48.23 48.68 48.72 48.47 47.73 51.85 53.07 52.15 50.62 50.74 51.18 51.69 52.09 51.90 51.89 52.44 52.59 52.17 52.07 52.14 52.69 53.31 54.71 55.69 57.14
57.27 56.69 55.71 54.91 54.19 52.65 51.59 50.51 48.74 47.61 46.00 45.21 46.98 45.66 44.76 45.60 45.86 46.25 46.77 49.65 48.84 48.34 46.63 46.41 44.62 45.58 50.26 49.61 49.76 50.95 52.00 52.40 51.85 51.56 50.79 50.87 50.91 50.87 51.05 51.90 52.77 54.09 55.31
56.43 55.39 55.01 53.94 52.53 51.28 49.95 49.34 47.23 45.68 44.78 45.12 42.24 42.08 42.72 43.93 43.23 44.22 43.82 43.95 45.06 46.48 44.70 44.66 43.55 42.58 43.17 47.87 47.85 49.30 50.27 50.04 50.19 49.90 49.57 49.33 49.61 49.85 50.01 50.43 51.48 52.75 53.59
55.84 55.25 52.75 52.04 51.47 49.79 48.57 47.85 46.55 44.84 43.74 44.26 40.63 39.72 36.67 39.20 41.57 42.89 42.02 42.94 42.04 43.27 43.09 43.20 42.39 42.51 41.05 40.64 42.10 46.70 47.28 47.07 47.68 47.79 47.72 47.85 48.69 49.60 49.45 49.65 50.07 51.33 52.38
55.22 53.22 52.40 50.91 49.92 48.81 46.83 46.84 46.07 44.71 41.36 42.42 43.17 39.34 35.50 33.22 37.42 39.70 39.72 40.44 40.30 40.11 40.80 41.11 40.75 41.99 40.78 39.43 40.75 43.09 44.99 43.42 44.48 45.59 46.15 46.00 46.59 48.02 49.04 49.19 49.29 50.07 51.53
53.64 53.06 51.89 50.49 49.50 49.09 47.58 46.87 46.60 44.99 43.01 40.66 41.38 43.50 40.52 38.51 33.81 32.13 36.34 37.76 38.99 39.21 38.33 38.45 38.71 39.63 39.74 38.72 42.10 44.62 44.08 42.82 42.36 43.50 44.49 45.23 45.56 46.19 47.13 48.11 48.62 48.16 49.66
53.73 52.90 51.50 50.37 49.12 48.79 47.94 47.42 46.56 45.67 44.60 41.74 39.98 39.18 38.66 37.97 36.67 32.96 30.81 33.00 36.85 37.55 37.61 37.43 37.55 37.78 39.21 39.52 38.52 40.75 43.93 43.51 43.15 42.67 43.17 44.04 44.63 45.05 45.63 46.13 46.74 47.39 47.47
49.91 50.34 49.62 48.40 47.85 47.23 46.55 45.96 45.64 44.81 43.01 42.09 41.77 40.10 38.75 36.93 35.25 34.07 31.46 32.03 32.85 35.04 36.28 36.58 36.79 36.96 37.55 37.50 41.70 43.97 42.11 41.63 41.60 40.97 41.66 42.69 43.45 44.16 44.44 45.22 45.90 46.07 46.79
47.09 46.98 47.06 46.14 45.53 45.41 45.38 45.01 44.22 44.34 43.06 41.65 40.23 40.15 40.03 40.01 39.14 36.52 33.61 31.92 30.73 33.95 34.41 35.25 35.63 36.10 38.54 36.92 37.52 42.62 42.05 41.11 41.21 40.82 40.50 40.78 41.13 41.79 43.01 43.68 44.36 45.23 45.53
46.07 46.57 45.14 45.01 44.69 44.54 43.66 43.58 43.21 43.13 43.68 41.38 40.23 40.32 39.84 39.71 38.10 36.66 34.80 32.47 30.11 30.96 32.37 32.48 34.80 35.10 35.36 36.15 38.48 41.51 36.61 40.03 40.63 40.56 40.33 39.58 39.73 40.12 40.26 41.20 42.49 42.78 43.65
45.80 45.05 44.25 43.68 43.48 43.25 43.02 42.43 41.38 41.48 41.98 40.45 39.88 40.24 39.56 39.87 37.74 36.65 36.03 35.01 32.35 27.23 27.93 31.33 31.72 34.19 34.73 34.23 35.77 35.36 34.76 38.56 39.37 39.34 39.12 39.35 39.29 39.62 40.00 40.21 40.82 41.46 41.87
44.52 43.98 43.43 42.72 42.59 42.57 42.53 41.73 41.00 40.85 40.33 39.96 40.28 38.33 37.78 37.21 36.54 36.49 35.05 34.96 34.17 31.55 27.21 31.14 31.72 32.01 32.80 34.97 35.86 34.49 34.30 37.77 37.44 37.93 38.25 38.38 39.31 39.81 39.76 40.15 39.87 40.52 40.36
43.98 43.42 42.67 42.15 41.94 41.67 41.75 40.12 39.92 40.29 38.95 38.33 37.98 37.43 36.55 36.74 35.63 35.15 34.34 33.65 31.37 30.41 27.15 29.39 31.39 31.57 30.67 30.48 32.23 33.02 34.03 33.00 33.67 37.11 37.77 37.66 38.17 38.42 39.27 40.26 39.84 39.22 38.79
43.85 42.69 42.33 41.92 42.20 41.46 40.20 38.94 38.62 39.39 37.53 36.44 36.09 35.50 35.13 37.36 33.68 32.39 30.93 29.46 29.18 29.25 27.45 25.71 28.11 28.48 28.32 29.98 30.58 30.31 32.58 34.21 32.94 36.09 36.95 37.69 37.77 37.66 38.45 38.81 38.52 38.39 38.09
42.69 42.12 42.04 41.53 41.22 40.06 38.98 38.89 38.19 37.56 36.95 36.14 35.49 35.09 34.35 32.67 29.77 29.30 28.09 26.91 27.42 29.55 27.53 25.48 24.84 27.37 27.74 28.73 28.97 30.21 30.50 31.15 33.63 36.10 36.16 36.79 37.28 37.60 37.73 38.12 38.42 38.43 38.21
42.27 41.69 41.84 42.01 41.67 40.17 39.34 38.94 38.52 37.02 35.73 35.28 35.36 34.41 32.58 31.43 28.61 26.75 27.02 25.37 26.54 24.93 25.00 24.37 24.32 24.88 26.09 27.95 28.25 26.51 26.66 28.94 28.69 33.03 34.65 34.80 36.11 36.91 37.34 37.89 38.11 38.31 37.79
41.98 42.03 41.54 41.13 39.98 38.93 38.88 36.83 35.91 33.74 32.96 32.13 32.62 33.32 32.05 31.65 32.97 30.12 27.09 25.00 24.53 23.83 23.48 22.87 22.88 24.08 24.28 24.03 23.60 26.55 26.37 27.33 27.81 29.78 30.04 29.91 32.40 33.10 34.04 36.29 37.50 37.92 37.84
41.55 41.29 40.19 40.22 38.45 38.88 33.40 32.75 32.27 30.42 31.87 31.34 29.72 30.24 30.71 33.05 32.21 32.11 31.18 30.23 27.73 23.39 22.55 22.67 23.07 22.60 23.42 25.44 26.78 24.49 24.27 23.59 21.89 28.74 28.31 27.14 30.92 30.39 33.41 35.64 35.87 35.99 36.02
40.11 39.57 39.44 39.05 37.65 36.37 33.39 31.91 30.03 29.63 29.22 29.60 29.35 29.21 29.81 31.99 28.88 26.44 27.77 27.89 27.24 28.86 27.85 25.72 24.06 25.03 25.54 23.90 24.08 23.08 22.96 22.99 23.07 26.57 26.87 24.74 27.60 27.38 32.19 34.80 36.05 35.50 36.68
39.29 38.31 37.59 38.02 37.85 37.50 33.24 31.96 30.23 27.64 28.43 29.61 29.82 29.26 28.04 27.52 24.60 24.89 23.94 22.67 23.85 24.61 25.47 27.07 24.21 23.27 24.44 25.60 25.48 25.66 25.10 25.16 26.30 27.31 28.72 23.38 24.50 26.78 29.73 30.76 35.88 36.82 36.78
38.33 37.65 37.55 37.14 36.99 33.18 32.56 31.43 28.91 27.65 28.58 28.71 30.25 29.87 29.24 27.15 26.15 26.66 23.31 22.18 22.11 23.03 27.91 28.27 27.41 28.20 29.10 30.42 30.39 28.19 25.40 24.25 22.61 24.61 28.43 25.57 24.32 26.04 28.85 28.67 29.67 35.80 36.09
38.15 37.68 36.76 36.40 34.55 33.42 31.95 31.00 28.92 27.61 27.03 27.58 28.22 28.30 28.03 25.75 25.79 25.45 21.28 20.61 19.03 21.41 21.94 21.85 23.54 26.01 27.56 28.37 30.09 29.37 27.16 24.89 24.73 23.85 27.69 26.74 26.16 27.51 25.70 28.46 28.63 30.55 29.86

GFSMA_sfc_wetblb_039.txt.gz
Wetbulb
60.14 58.57 56.75 55.31 54.21 53.94 52.37 51.84 52.63 53.04 51.98 51.83 50.64 50.63 50.93 49.23 47.20 47.24 49.63 57.05 57.55 56.62 56.19 55.94 54.99 54.30 54.04 53.27 52.92 53.16 53.99 54.30 54.76 55.65 55.87 56.43 57.00 57.73 58.12 58.96 59.86 61.07 62.17
57.83 55.43 54.34 53.54 52.69 52.15 52.66 52.51 51.37 50.26 49.26 49.69 49.09 49.30 48.50 46.48 46.16 45.80 46.60 49.33 56.41 56.15 54.94 53.84 53.27 53.49 53.63 52.40 52.22 52.21 52.65 53.16 53.25 53.86 54.35 54.54 55.53 55.95 56.12 56.31 57.09 58.00 59.58
56.05 54.49 53.17 51.61 51.62 52.39 51.92 51.13 49.37 48.77 47.79 48.53 46.86 45.99 46.37 46.05 46.05 46.58 46.12 45.87 52.69 54.95 54.69 52.73 52.33 52.37 52.23 52.14 51.92 51.80 52.16 52.14 52.40 52.73 53.53 53.46 53.43 53.62 53.86 53.90 54.59 55.83 57.18
54.58 53.15 52.48 51.51 51.92 52.24 51.15 49.33 48.03 47.02 45.32 44.03 42.66 42.00 43.66 44.67 45.56 45.22 45.51 45.36 47.62 49.69 53.46 54.58 51.24 51.48 51.09 50.89 51.70 51.81 52.17 52.45 52.07 52.29 52.87 52.39 52.14 52.22 52.18 52.55 53.00 53.76 55.10
54.08 52.29 51.83 51.73 51.66 50.74 49.12 48.90 46.89 45.11 42.87 42.49 43.57 42.37 42.32 42.50 42.92 45.88 45.15 45.49 45.45 45.33 46.08 51.39 50.97 50.36 49.53 49.55 49.81 50.65 51.25 51.30 52.05 52.29 51.34 50.83 50.85 50.86 50.95 51.21 51.64 52.39 53.33
54.20 52.89 52.24 51.20 50.80 49.05 47.68 47.02 45.35 44.55 42.99 42.02 44.51 42.82 40.80 41.77 41.99 41.31 41.28 43.70 42.92 43.21 43.98 44.16 42.01 43.13 48.90 47.65 47.84 48.33 49.18 50.33 50.86 50.74 50.17 49.91 49.61 49.62 50.38 50.87 50.69 51.09 51.74
53.35 52.39 51.77 50.66 48.77 47.56 45.97 45.99 44.11 42.84 42.05 42.00 39.19 39.16 39.64 40.01 40.64 39.80 40.34 40.05 41.62 41.96 41.91 43.35 41.96 41.08 40.72 45.61 45.54 46.87 47.65 48.38 48.21 48.33 48.17 47.76 47.78 48.07 48.74 49.98 50.57 50.63 50.73
52.75 51.33 49.12 48.07 47.39 45.80 45.25 44.44 43.37 42.18 41.29 40.83 38.10 36.83 33.91 36.42 38.30 40.13 38.47 39.10 37.85 39.28 40.39 41.70 40.68 40.97 39.06 38.09 40.46 44.63 45.41 45.46 45.91 46.37 46.05 46.01 46.54 46.72 47.20 48.15 49.73 50.14 50.17
51.78 50.30 49.38 47.55 46.77 45.72 43.95 43.45 42.84 41.92 39.21 40.09 40.34 37.33 33.17 30.82 33.68 36.44 37.10 36.78 36.46 36.23 36.39 37.48 38.41 38.89 38.38 37.25 39.41 40.22 45.01 44.46 44.83 45.13 44.75 44.86 45.19 45.76 46.33 46.49 47.97 48.78 49.66
50.59 50.43 49.01 47.72 46.64 45.99 44.42 43.98 44.80 42.50 40.74 38.49 39.17 41.68 37.86 35.87 31.62 30.62 33.84 35.22 36.05 36.86 35.18 35.04 35.65 37.11 37.61 36.78 40.48 42.44 44.77 44.76 42.46 43.24 43.76 44.24 44.50 44.88 45.26 46.01 46.26 47.64 48.07
50.20 50.13 47.99 46.45 45.16 45.03 43.99 43.43 42.83 43.25 42.31 39.72 38.03 37.73 36.69 35.74 34.57 31.04 28.67 30.77 33.88 35.13 34.99 34.57 34.57 35.11 36.42 36.82 35.83 38.62 43.91 43.30 43.46 42.13 42.11 42.82 43.38 44.03 44.48 45.09 45.47 46.22 47.41
46.26 45.63 45.60 43.76 43.40 42.62 41.86 41.39 41.05 41.22 40.66 39.95 39.17 38.40 37.13 35.01 33.70 32.69 30.47 29.82 30.08 32.14 33.92 34.42 34.25 34.43 35.05 35.15 39.56 43.11 43.16 42.21 42.11 41.04 41.15 41.76 42.44 42.75 43.02 43.49 44.34 45.35 45.74
44.42 42.66 43.20 42.33 41.30 41.28 41.26 40.82 40.10 39.68 40.20 39.56 38.58 38.27 38.82 38.09 37.91 36.33 34.42 32.46 28.83 30.80 31.58 33.00 33.68 34.24 36.57 34.69 35.07 40.48 40.24 39.97 40.35 39.89 40.13 40.42 40.97 41.22 41.67 42.15 42.61 43.51 44.44
44.51 43.43 42.66 41.95 40.77 40.54 40.29 40.22 38.91 38.74 39.11 38.76 38.98 40.48 39.21 38.94 39.84 37.41 36.82 33.55 29.06 28.41 28.77 29.47 32.69 32.99 33.33 32.74 35.50 39.08 34.06 38.54 39.18 39.47 38.92 38.93 39.23 39.72 40.05 40.53 40.86 41.60 42.42
44.45 42.43 41.63 41.76 40.69 40.11 40.60 39.45 38.31 38.06 38.54 38.00 37.76 39.04 39.08 37.89 37.44 36.52 35.47 34.84 33.02 28.49 27.70 29.39 27.82 31.48 31.44 31.71 33.58 32.49 32.22 36.00 38.11 38.29 37.69 37.96 37.99 38.32 38.85 39.27 39.89 40.51 41.48
43.30 41.95 41.66 39.85 39.56 39.93 39.51 38.88 37.67 37.96 37.98 37.42 37.23 35.77 35.63 36.06 35.53 36.11 34.85 34.14 33.10 30.42 24.64 26.93 27.23 28.50 29.75 32.53 33.69 31.95 31.83 36.08 36.05 36.64 36.95 37.87 38.15 37.79 37.77 38.36 38.87 39.33 39.96
43.12 41.03 41.50 39.63 39.41 39.34 39.04 37.34 37.41 38.01 36.75 35.18 34.91 34.87 34.99 35.39 34.52 32.61 30.97 29.33 27.11 26.02 22.84 25.07 27.05 27.58 26.78 27.49 29.64 30.45 31.70 31.21 31.68 35.57 36.42 37.10 37.51 37.48 38.15 38.24 38.29 38.53 39.69
42.63 41.71 40.16 39.69 40.23 39.37 37.71 37.14 36.85 36.13 34.94 34.16 34.02 33.54 33.38 35.02 29.32 28.63 26.93 25.09 24.52 24.64 23.34 22.20 23.64 25.06 24.98 26.49 27.68 27.22 30.62 32.78 31.45 34.26 36.14 36.39 36.72 36.83 36.76 37.18 37.58 38.14 38.50
40.43 40.22 39.83 39.30 39.24 38.73 37.52 37.18 36.00 35.74 35.50 34.56 34.11 33.56 32.56 30.07 26.93 25.84 25.12 24.22 24.12 26.64 23.15 21.88 22.47 24.87 25.04 25.85 26.30 27.87 27.52 28.12 31.30 33.86 34.37 34.76 35.71 36.22 36.39 36.82 37.58 38.05 38.09
39.85 40.25 39.69 39.93 39.61 38.84 38.54 37.94 37.01 34.43 33.08 32.08 31.95 30.96 30.86 28.57 26.44 25.21 25.57 23.63 24.56 22.58 22.60 21.88 22.29 22.44 23.64 25.49 25.23 23.61 25.14 26.83 26.90 30.34 31.87 32.82 34.42 34.99 35.16 35.71 36.53 36.84 37.59
40.57 40.01 39.62 39.39 38.84 37.91 37.86 36.42 35.09 32.49 31.20 31.34 31.10 31.40 30.17 31.80 34.51 29.00 25.97 23.34 23.08 22.05 21.80 21.56 21.24 22.10 22.49 22.77 23.00 26.20 23.27 23.79 24.75 25.83 26.69 27.96 28.80 29.81 31.15 34.07 35.33 35.46 36.64
39.66 39.16 39.10 38.95 38.02 37.43 35.04 35.06 32.83 29.83 30.61 29.55 27.78 28.71 28.76 31.41 30.71 31.55 29.85 28.95 26.88 22.24 20.78 20.26 21.67 21.03 21.96 24.19 26.26 22.05 21.77 20.46 19.41 25.01 24.51 24.71 27.53 27.03 29.00 30.90 35.15 34.10 35.21
38.67 38.09 37.84 38.24 37.37 34.91 34.66 34.17 32.89 29.29 28.82 28.07 27.50 27.28 28.07 29.95 27.31 25.05 25.98 26.12 25.44 26.46 25.81 22.35 20.72 22.00 20.83 22.31 22.13 21.95 22.11 21.80 21.60 24.87 24.80 23.47 26.56 24.96 28.24 31.91 34.25 35.53 35.80
37.50 37.16 36.56 36.65 36.41 35.46 34.29 33.83 31.55 27.27 27.07 27.72 27.48 27.29 26.38 25.19 24.86 24.48 23.21 22.21 22.25 22.75 23.60 24.37 22.34 21.28 22.17 23.43 24.10 25.06 24.52 24.88 25.33 26.13 27.41 23.63 26.44 24.98 27.36 27.94 32.90 34.54 36.16
36.71 36.34 36.62 35.73 34.88 33.61 34.04 32.94 29.74 27.46 27.65 27.54 28.58 28.15 27.84 24.72 26.82 26.61 23.18 21.79 21.03 21.84 25.41 26.96 26.51 27.33 28.08 28.95 29.04 27.87 24.85 23.53 21.24 23.22 25.57 25.46 24.24 23.11 23.87 24.30 28.06 34.08 34.78
36.52 36.12 35.39 34.80 34.19 31.75 33.52 32.86 30.40 25.99 26.41 26.75 27.00 26.76 28.36 24.93 26.04 25.73 21.44 19.77 17.99 19.92 21.58 21.52 22.29 23.55 25.77 26.28 28.68 26.45 23.92 22.49 22.83 22.24 26.28 26.82 26.22 23.99 21.14 24.31 27.94 28.50 27.73

GFSMA_sfc_wetblb_042.txt.gz
Wetbulb
58.64 57.30 55.04 53.86 52.48 51.78 51.37 51.37 50.12 49.29 48.97 48.47 48.08 47.11 46.70 45.17 44.79 44.69 45.24 54.96 57.13 56.89 56.59 55.50 54.35 53.92 53.84 53.15 52.82 52.98 53.20 53.55 53.70 54.05 54.04 54.32 54.65 54.89 54.55 54.63 55.21 55.92 57.08
55.60 53.86 52.26 51.59 51.42 51.98 51.43 49.77 48.29 47.44 46.51 46.52 45.49 44.81 45.10 44.26 44.46 44.77 44.35 43.86 55.80 56.87 55.42 53.71 53.08 53.15 52.94 52.43 52.19 52.20 52.39 52.48 52.33 53.17 53.93 53.78 53.45 53.34 53.22 53.23 53.60 54.26 55.09
54.50 52.75 51.06 50.51 50.97 51.00 49.48 48.29 47.18 45.99 44.46 45.14 43.29 43.53 43.78 43.44 44.04 43.84 43.93 44.23 51.64 55.39 55.14 52.55 52.13 52.20 52.03 51.80 51.89 51.62 51.74 52.05 52.60 53.66 52.99 52.64 52.43 52.10 52.00 52.09 52.37 52.72 53.54
53.44 51.77 50.80 50.68 51.13 50.35 48.24 47.09 45.79 43.99 42.94 42.22 40.50 40.65 41.42 42.35 42.56 42.82 43.11 43.63 45.98 48.24 51.73 51.45 51.10 49.90 49.89 50.02 50.21 50.50 51.01 50.87 51.43 50.80 51.62 51.31 51.34 50.92 50.97 51.16 51.62 51.89 52.17
52.84 51.25 51.16 50.63 50.29 48.41 47.57 47.38 44.70 43.46 41.34 41.18 41.67 40.60 40.24 40.04 40.60 43.07 41.34 41.91 42.50 43.68 43.49 48.47 48.66 49.18 47.82 47.74 48.18 48.69 49.19 49.31 49.84 50.54 50.25 49.99 49.54 49.60 49.78 49.68 50.84 51.38 51.73
52.86 52.44 50.81 49.76 48.98 47.43 45.97 45.49 43.52 43.03 41.67 41.00 43.13 41.46 39.50 39.20 38.70 38.79 39.12 41.62 40.64 40.23 40.56 40.66 39.98 41.97 48.10 46.68 46.48 46.84 47.94 48.67 48.90 48.73 48.56 48.05 48.51 47.84 47.81 48.63 49.04 50.29 50.99
53.21 51.25 49.96 48.08 47.05 45.28 44.68 44.79 42.90 41.32 40.58 40.15 37.93 38.27 38.27 38.38 38.46 37.51 38.35 37.73 38.55 39.00 39.02 38.61 38.91 38.68 39.31 44.43 44.54 46.09 46.69 47.16 46.97 46.82 46.82 46.77 46.55 46.62 47.03 47.38 47.84 48.19 49.75
51.00 49.44 47.84 46.58 45.64 44.52 43.87 43.11 42.08 40.85 40.30 39.62 37.48 35.38 33.25 35.24 36.89 38.30 36.53 37.69 35.57 36.91 37.85 37.92 37.21 37.35 36.44 36.05 39.43 45.25 45.74 45.28 45.62 45.66 45.73 45.35 45.17 45.45 45.84 46.39 46.96 47.20 48.02
50.76 49.23 47.75 46.35 45.18 44.55 43.10 42.17 41.52 40.86 38.74 39.11 38.99 36.99 32.67 30.60 32.66 35.14 35.84 35.04 34.67 34.96 34.55 35.67 36.48 36.88 36.57 35.53 37.59 39.43 43.57 44.46 44.41 44.32 44.20 44.69 44.65 45.07 45.61 45.93 45.99 46.62 47.07
49.77 49.38 47.88 46.27 45.15 44.65 43.46 43.15 43.53 41.39 39.66 37.97 38.45 40.17 36.83 35.73 31.90 30.24 32.95 34.19 35.00 35.86 33.83 33.77 34.20 35.32 36.05 35.16 38.62 40.82 43.63 43.11 42.81 42.77 43.15 43.74 44.02 44.44 44.85 45.21 45.57 45.80 46.52
48.62 48.09 46.67 45.12 44.00 43.35 42.41 41.92 41.74 40.20 40.36 38.76 37.48 36.68 36.02 34.96 33.78 31.31 28.06 30.17 32.88 34.38 34.26 34.00 33.75 34.11 34.93 34.92 34.22 37.03 43.88 42.30 41.73 41.47 42.22 42.72 43.10 43.60 44.20 44.54 44.66 44.81 45.23
44.68 44.54 44.07 43.41 42.50 41.23 40.75 40.03 38.76 38.25 38.31 38.53 38.19 37.44 36.40 34.71 33.31 32.42 30.87 30.80 29.50 31.57 32.91 33.91 33.32 33.43 34.10 33.99 38.22 40.36 41.19 40.15 39.17 39.63 40.57 41.37 42.22 42.68 43.08 43.59 44.06 44.34 44.56
42.95 42.51 42.67 42.98 42.49 41.75 40.05 39.29 38.04 37.13 36.96 37.09 36.88 37.09 37.72 37.48 39.13 37.06 32.93 31.00 30.05 30.18 31.14 31.76 32.65 33.08 35.12 32.75 33.43 38.56 38.59 38.83 38.01 38.36 38.83 39.48 40.14 40.73 41.32 41.75 42.42 43.08 43.58
43.60 43.25 42.66 42.64 41.11 40.99 39.76 38.15 38.87 38.12 37.31 37.03 36.28 36.74 37.24 37.80 37.57 36.57 36.87 34.82 30.32 28.24 28.68 28.77 31.22 31.17 30.66 31.21 33.82 37.30 32.33 35.76 36.31 36.76 37.40 37.78 38.11 38.44 39.05 39.75 40.34 40.96 41.66
43.37 42.93 42.22 41.46 41.30 40.62 39.90 39.28 38.10 36.55 36.52 36.47 36.51 36.13 36.29 36.32 35.96 35.88 36.57 36.38 34.21 27.98 25.74 26.80 25.84 29.16 29.38 29.87 31.33 31.06 30.06 34.22 35.68 35.93 35.87 36.37 36.94 37.52 37.89 38.38 39.00 39.41 40.17
43.25 42.65 41.45 40.84 40.61 39.77 38.85 37.34 36.31 36.88 35.86 35.00 34.97 34.03 34.27 34.65 34.79 35.52 34.00 32.84 31.29 28.56 22.87 24.53 24.86 25.98 27.70 30.11 31.14 30.06 29.55 34.10 33.91 34.61 35.76 35.35 35.90 36.65 37.11 37.37 37.66 38.17 38.74
42.93 42.41 41.68 39.53 39.45 37.83 38.38 36.84 36.25 36.93 35.46 34.60 34.10 34.18 34.18 33.92 31.55 29.56 29.09 27.55 25.37 24.72 21.70 23.24 24.78 24.95 24.06 24.62 27.24 28.19 29.59 28.99 30.01 33.64 34.34 34.84 35.57 36.27 36.40 36.36 36.27 36.78 37.61
43.26 41.33 39.59 39.07 39.06 38.96 37.29 36.28 35.47 35.40 34.60 33.74 33.70 33.13 33.09 34.30 29.13 28.54 26.72 24.90 24.06 23.73 22.98 20.93 21.93 22.50 23.05 24.77 25.56 25.16 28.61 30.80 28.76 32.38 33.14 33.48 33.74 34.34 35.40 36.19 36.46 36.50 37.12
40.52 39.43 39.08 38.84 38.91 38.25 36.91 36.63 35.99 35.54 34.85 34.14 33.05 31.02 31.36 30.49 27.94 27.17 26.12 24.57 23.42 26.15 22.77 21.45 21.74 22.81 22.65 23.65 24.26 25.71 26.08 25.92 29.72 31.66 31.24 31.52 32.33 33.17 34.67 34.78 35.15 35.52 36.20
38.41 38.64 38.84 38.74 38.91 38.06 37.68 37.71 36.59 35.33 34.21 32.51 31.97 31.00 30.60 29.37 27.29 25.95 25.38 23.70 23.80 22.33 22.33 21.57 21.89 22.21 22.15 24.11 23.96 22.75 23.94 25.33 24.74 27.64 28.93 29.43 31.07 32.56 32.89 33.08 33.86 34.50 35.52
39.63 38.61 38.12 39.08 38.95 38.40 37.95 37.16 36.01 33.23 31.57 31.13 30.94 30.65 30.24 30.29 33.27 29.91 25.26 23.12 22.87 21.63 21.06 20.82 20.53 21.17 21.69 21.53 21.63 23.71 23.61 22.65 23.26 24.49 24.32 25.34 26.70 27.04 28.07 31.05 32.34 33.52 34.56
39.45 38.36 38.70 38.70 37.94 37.78 36.60 36.88 34.82 31.45 31.63 29.81 28.49 28.35 28.43 31.09 31.27 32.14 30.77 29.11 25.90 21.17 19.79 18.73 19.99 19.12 19.69 20.90 21.93 21.19 20.93 20.14 19.75 24.06 24.36 23.97 26.19 25.68 27.47 28.48 31.48 33.16 34.64
37.94 37.62 37.27 37.16 37.07 37.11 35.82 36.32 34.79 30.47 29.50 28.81 27.56 27.88 28.08 29.42 28.69 26.02 27.84 27.02 25.35 25.97 24.23 20.52 18.83 19.28 19.03 20.42 20.86 20.84 21.68 22.01 21.87 24.96 24.68 23.48 25.53 24.40 27.52 29.70 32.10 33.28 34.22
37.17 36.47 36.46 36.62 35.88 36.08 35.43 35.56 33.70 28.64 27.68 27.98 28.40 28.23 26.54 25.77 25.40 24.82 23.41 22.53 22.69 22.57 22.77 23.31 21.56 20.60 20.94 23.03 24.59 25.59 25.71 26.33 25.47 24.91 24.78 22.35 25.23 24.56 27.25 27.17 31.44 33.66 34.28
35.56 34.80 35.50 35.02 34.17 33.79 35.37 34.50 31.86 27.72 27.20 27.23 29.02 28.91 27.32 25.92 26.81 28.64 23.73 22.60 21.74 21.79 24.93 26.34 26.56 27.07 27.23 27.62 27.95 25.92 22.73 21.50 19.84 21.80 25.43 24.05 23.89 24.56 26.32 26.97 27.88 32.94 34.60
34.57 34.25 33.92 33.99 34.47 32.52 34.33 34.64 31.93 27.93 27.14 26.87 26.89 27.46 29.73 26.24 27.72 27.25 22.12 20.74 17.94 20.34 21.17 21.81 22.21 22.88 24.31 24.42 26.77 25.11 23.42 21.26 21.14 19.86 24.61 24.25 24.49 26.49 22.08 22.96 24.51 27.45 26.65

GFSMA_sfc_wetblb_045.txt.gz
Wetbulb
56.65 55.59 54.40 52.90 51.00 51.00 50.15 48.68 48.01 47.44 46.20 45.26 45.15 44.61 43.57 43.27 43.06 42.96 42.56 50.68 55.36 56.21 56.42 55.06 53.92 54.75 53.08 52.84 52.80 52.93 53.08 53.07 53.54 54.25 53.93 53.37 53.05 53.16 53.09 53.09 53.27 53.64 54.14
55.67 53.29 51.16 50.83 50.76 50.44 49.06 48.74 46.69 44.96 43.86 43.62 43.26 43.23 42.51 42.50 42.34 42.16 42.33 42.79 54.68 57.16 54.97 53.72 53.26 53.59 52.42 52.18 51.89 52.06 52.49 52.16 52.34 53.47 52.93 52.49 52.39 52.02 51.78 51.88 52.39 52.78 53.21
53.25 51.57 50.54 50.14 50.43 48.92 47.67 46.55 44.58 43.79 43.07 43.02 41.34 41.81 41.70 42.10 41.62 41.53 41.92 46.12 49.29 53.99 53.98 52.01 52.20 52.04 50.94 51.21 50.96 51.15 51.15 51.16 51.48 51.33 51.33 51.74 51.35 51.24 50.68 51.02 50.93 51.79 52.56
52.57 50.42 49.74 49.66 49.78 48.31 47.08 45.70 43.87 42.36 41.67 41.14 39.62 39.81 39.91 40.76 41.09 40.51 40.92 41.99 43.63 47.12 48.60 50.95 49.45 48.48 48.30 48.70 49.19 49.71 50.23 49.72 49.65 50.56 50.59 50.17 49.99 49.68 49.68 49.18 49.82 50.29 51.12
52.07 50.52 50.43 50.67 49.32 47.57 46.30 45.71 43.29 41.88 40.40 40.02 40.17 39.57 38.96 38.77 39.28 41.01 40.12 39.82 40.20 40.66 40.60 45.61 47.78 48.42 47.55 47.44 47.45 47.99 48.71 49.30 49.30 49.78 49.44 49.09 49.14 48.56 48.42 48.29 48.35 48.98 49.35
51.75 51.05 49.85 48.60 47.75 46.32 45.25 43.86 42.32 41.77 40.49 39.80 42.08 40.66 38.36 37.84 37.48 37.28 37.72 39.84 38.17 38.46 38.52 38.56 38.24 41.61 46.50 44.99 45.33 46.52 47.66 48.08 48.40 48.28 47.80 47.39 47.61 47.57 47.00 47.37 47.90 48.15 48.60
52.19 50.15 48.34 47.73 46.07 44.71 44.20 42.91 41.64 40.37 39.56 38.79 37.30 37.64 36.87 37.14 36.83 36.45 36.48 36.28 37.12 36.86 36.82 36.84 36.92 36.42 36.85 43.18 43.94 45.22 46.01 46.95 47.27 47.52 46.91 46.39 46.44 45.96 45.91 46.19 46.79 47.18 47.58
51.30 49.93 47.34 46.10 44.66 44.12 43.02 42.30 41.22 40.05 39.76 38.72 36.72 34.56 33.21 35.15 35.93 36.80 35.13 36.58 34.30 35.47 36.28 36.49 35.57 35.88 34.94 34.44 38.25 43.43 43.83 44.30 44.99 45.73 45.82 45.71 45.43 45.50 45.71 45.99 46.46 46.85 46.92
50.28 48.77 47.08 45.41 44.24 43.34 42.04 41.18 40.60 40.19 38.38 38.44 39.39 37.85 32.58 30.44 32.06 34.67 34.65 34.17 33.74 33.76 34.00 34.53 35.45 35.65 35.64 34.37 36.60 38.47 42.45 43.07 42.91 43.98 44.46 44.58 44.62 44.98 45.27 45.49 45.97 46.40 46.47
48.97 47.93 46.69 45.29 44.02 43.49 42.53 42.54 42.46 40.37 39.16 38.11 37.73 39.31 36.56 35.24 31.87 30.46 32.36 33.14 33.76 34.97 33.54 33.36 33.86 34.20 34.92 34.00 37.44 39.83 41.43 43.45 43.62 42.24 42.95 43.61 43.95 44.32 44.61 44.68 45.17 45.71 45.76
47.59 47.10 45.70 44.56 43.91 43.37 40.82 40.42 40.51 39.29 39.86 38.54 37.34 35.84 35.11 34.17 33.07 31.94 28.88 30.85 32.26 34.13 34.12 33.58 33.28 32.98 33.88 33.72 33.16 35.86 41.34 40.72 40.30 41.08 41.77 42.42 43.10 43.56 43.87 44.17 44.27 44.71 45.34
43.99 43.97 43.63 42.21 41.66 41.09 40.25 39.04 38.93 38.56 37.70 37.18 37.42 36.12 35.67 34.41 33.04 31.27 29.01 29.66 29.71 31.53 32.65 32.88 32.49 32.40 32.60 32.15 36.39 39.54 39.36 38.61 38.44 39.13 39.81 40.62 41.54 42.28 43.02 43.37 43.58 43.82 44.17
41.13 41.55 42.07 41.13 42.04 41.73 40.90 39.30 38.87 38.37 37.55 37.65 36.53 36.33 36.35 36.11 36.21 34.96 32.69 30.10 33.23 31.95 30.48 31.33 31.88 31.33 32.58 30.99 32.06 36.88 37.56 36.72 36.66 37.31 38.22 38.87 39.55 40.22 40.67 41.11 41.68 42.40 43.22
42.61 42.13 42.64 42.46 42.21 41.74 40.80 40.18 39.61 38.56 38.11 36.61 35.97 36.34 36.25 36.41 36.67 35.89 34.48 35.18 32.09 31.77 28.41 28.89 30.54 29.12 29.11 29.34 32.15 35.37 30.80 34.38 34.89 35.44 36.43 36.91 37.45 37.79 38.27 38.93 39.64 40.61 41.41
43.28 42.99 42.52 41.32 41.43 40.93 41.29 40.35 37.77 36.95 35.75 35.30 35.18 35.52 35.83 35.94 36.00 35.83 35.16 36.25 34.37 27.99 24.91 26.94 25.41 27.83 27.94 28.04 28.98 29.00 27.99 32.39 33.77 34.20 34.53 35.42 36.28 36.80 37.18 37.77 38.34 39.13 39.71
43.46 42.28 41.56 41.42 41.49 41.30 39.92 38.17 35.64 35.74 34.92 35.08 34.38 34.27 34.37 34.15 33.90 33.65 33.06 33.17 33.76 28.91 22.84 24.92 24.41 25.00 25.79 28.47 28.55 27.41 27.31 32.52 32.43 33.39 33.73 34.11 34.90 35.64 36.04 36.73 37.09 37.51 38.09
42.05 42.63 42.80 41.92 40.57 38.70 37.96 36.47 35.82 36.65 36.10 34.90 34.50 34.33 33.93 33.66 32.35 30.84 29.74 28.17 26.17 24.98 22.29 23.29 24.20 24.05 23.25 23.35 25.00 25.32 27.26 26.71 27.77 32.16 32.91 33.34 33.46 33.93 34.16 34.82 35.31 36.13 36.71
43.96 43.02 42.01 39.92 39.24 38.40 37.23 36.69 36.26 36.30 34.42 32.99 33.32 32.42 32.68 34.39 30.22 29.25 27.76 26.27 24.94 24.41 23.24 21.39 21.98 22.10 22.37 23.37 23.45 23.47 26.60 28.95 27.34 30.64 32.07 32.13 31.97 32.18 32.75 33.53 34.26 35.78 36.20
39.73 38.65 38.11 39.03 38.83 37.80 37.59 36.07 35.41 34.59 34.02 33.65 33.42 32.52 31.79 30.86 27.92 27.08 26.18 25.14 24.03 25.69 23.12 21.18 21.26 22.42 22.04 22.33 23.08 24.04 24.74 25.35 27.83 30.73 30.13 30.47 31.37 31.72 32.40 33.04 34.11 33.87 34.19
38.86 39.02 39.50 39.38 39.26 38.67 37.24 36.25 35.30 33.97 34.01 33.57 32.36 30.90 30.26 29.36 28.47 26.81 25.81 24.48 24.07 22.28 21.91 21.05 20.98 21.39 21.19 22.86 22.76 21.81 22.39 24.63 24.16 26.53 28.20 28.84 30.34 31.31 32.14 32.41 32.73 33.50 34.04
39.47 39.46 39.19 38.97 38.78 38.12 37.83 36.70 35.79 33.86 32.74 31.09 31.10 31.04 29.69 30.41 32.20 28.90 26.00 23.44 22.37 21.45 20.72 20.01 19.50 19.62 20.15 19.63 19.96 21.44 20.70 21.40 22.69 24.22 23.97 24.87 26.25 26.71 27.23 29.69 30.85 32.25 33.05
38.88 38.99 38.94 38.51 37.72 37.48 36.60 37.20 35.80 32.30 31.57 30.35 29.13 28.75 30.09 31.90 32.15 33.69 32.81 29.80 25.57 21.58 20.06 18.24 18.29 17.81 18.03 19.04 19.52 19.30 19.60 19.82 19.47 23.71 23.65 23.92 26.15 25.28 26.89 27.77 30.46 32.13 33.23
39.65 38.70 37.64 37.01 35.94 35.34 36.69 37.13 36.55 31.58 29.97 28.44 27.93 27.36 27.55 29.18 30.38 28.42 31.00 29.84 27.95 27.28 24.37 19.88 17.54 18.25 18.25 19.61 19.96 20.56 21.12 22.16 22.09 24.60 24.27 21.88 24.70 23.89 26.77 28.52 31.33 32.49 33.50
36.92 34.65 34.14 33.79 33.53 34.56 35.91 36.27 35.38 30.04 27.95 28.00 27.96 28.70 26.45 27.44 27.39 26.03 24.04 23.20 23.06 23.39 23.49 22.69 20.52 20.51 20.88 21.82 22.36 24.06 24.85 24.33 23.96 23.66 23.37 20.27 24.20 23.88 26.29 27.35 31.04 32.26 33.16
34.11 32.58 33.18 32.76 32.35 32.26 34.90 35.44 33.61 28.08 26.99 27.04 28.19 27.74 28.40 26.80 28.61 30.44 24.28 23.17 22.58 23.05 25.70 26.50 26.74 27.11 27.28 27.05 26.12 21.44 20.19 20.28 18.34 20.45 23.56 23.05 22.57 23.46 25.27 25.82 27.80 31.31 32.88
33.05 32.53 31.87 31.64 32.49 31.07 33.57 35.09 34.04 27.55 26.90 27.52 26.74 27.80 31.47 28.51 29.01 29.41 23.97 21.62 19.33 21.69 21.30 21.29 22.06 23.14 24.05 23.81 25.73 23.06 21.41 19.19 19.12 17.77 23.37 20.29 22.28 24.37 22.60 22.64 23.62 27.81 27.09

GFSMA_sfc_wetblb_048.txt.gz
Wetbulb
54.67 54.85 54.37 51.81 50.67 50.12 48.68 47.20 46.14 45.02 44.24 44.43 43.55 43.31 42.81 42.52 42.58 43.02 42.90 50.97 56.09 56.20 56.88 55.00 54.41 54.25 53.51 53.07 52.98 53.04 53.32 52.98 53.32 53.26 52.70 52.29 52.35 52.38 52.03 52.26 52.39 52.51 53.25
55.32 54.28 52.16 50.19 49.96 48.85 47.62 46.62 46.60 43.79 42.36 43.03 42.30 42.44 42.35 41.64 41.62 42.53 44.22 48.76 56.28 57.20 55.31 54.05 53.17 53.31 52.87 52.42 51.86 51.93 51.84 51.83 52.01 51.88 51.79 51.88 51.61 50.81 51.02 50.54 50.71 51.30 52.08
55.10 51.62 50.02 49.72 48.95 47.33 46.22 45.21 45.03 43.18 42.26 42.54 41.36 41.16 41.71 41.37 41.09 41.52 43.21 46.92 48.57 53.11 53.87 52.79 52.57 51.46 50.79 51.11 50.57 50.40 50.89 50.62 50.37 50.61 51.16 50.72 50.29 49.73 49.87 49.49 49.48 49.78 50.55
53.55 50.06 49.91 50.31 48.13 47.53 45.91 44.15 43.05 42.05 41.14 40.81 39.75 39.67 39.75 40.85 40.55 40.60 40.73 42.61 45.26 44.08 47.45 49.61 49.35 48.37 47.85 48.41 48.97 49.34 49.29 49.77 49.71 49.63 50.07 49.70 49.21 49.14 48.45 48.43 48.78 49.04 49.10
51.05 50.67 51.84 50.78 48.57 47.02 45.75 44.93 42.84 42.00 40.42 39.79 40.20 39.66 39.00 38.94 39.20 40.95 39.83 39.80 41.19 41.24 40.81 46.46 48.58 48.24 47.50 47.05 47.14 47.66 48.45 48.89 48.84 48.94 48.61 48.01 47.74 47.71 48.08 47.64 47.81 48.27 48.58
51.20 50.09 49.93 49.23 47.50 45.94 44.29 43.26 42.25 41.40 40.56 39.64 41.59 40.37 38.64 38.25 38.18 37.85 38.75 39.52 38.95 39.20 39.13 40.10 40.74 41.88 45.65 45.07 45.50 46.58 47.63 48.57 48.74 48.46 48.14 47.84 47.40 46.89 46.77 46.37 46.49 47.07 47.75
51.08 49.83 48.90 47.36 46.40 44.89 43.76 42.42 41.34 40.67 40.01 39.09 37.88 38.33 37.17 37.70 37.89 37.28 37.61 37.06 37.83 38.15 38.41 38.72 38.59 37.60 37.73 42.87 43.85 45.33 46.44 46.95 47.06 47.10 46.83 46.91 46.85 46.48 46.32 46.23 46.54 46.77 47.10
50.56 49.19 47.51 45.93 44.50 43.66 42.95 41.98 41.20 40.06 39.45 38.41 37.22 35.35 33.86 36.03 36.92 37.88 36.28 37.29 36.16 36.84 37.46 37.83 37.52 38.03 37.35 36.55 38.80 43.79 44.23 44.37 45.17 45.47 45.39 45.41 45.53 45.49 45.68 46.00 46.17 46.30 46.86
50.61 48.72 46.82 44.87 43.74 43.01 41.60 40.69 40.55 40.23 38.49 38.89 38.74 37.56 33.06 31.55 33.46 36.53 35.93 35.69 35.58 35.59 35.92 36.11 37.12 37.34 37.37 36.41 37.31 38.73 42.03 42.83 43.22 44.21 44.47 44.41 44.38 44.81 45.17 45.49 45.64 45.87 46.02
49.57 48.20 46.07 44.22 43.28 42.58 41.92 41.72 41.86 40.19 39.99 38.14 38.40 39.69 38.64 37.72 33.05 32.11 34.71 34.38 34.70 35.48 35.21 35.21 35.99 36.04 35.98 35.88 37.43 38.94 40.54 42.32 42.07 42.48 43.25 43.71 43.75 44.07 44.28 44.64 45.00 45.47 45.51
47.18 46.39 44.93 43.73 42.89 41.83 40.92 40.88 40.18 39.74 41.35 38.54 39.07 38.45 35.86 34.81 34.15 32.82 30.59 32.80 34.09 35.24 35.57 35.72 34.92 34.60 34.84 34.56 34.60 37.45 40.21 39.55 39.34 40.54 41.54 42.33 42.81 43.07 43.48 43.86 44.32 44.65 45.02
44.79 44.11 43.58 42.12 41.22 41.08 39.22 40.23 40.35 39.36 38.83 38.51 38.82 36.50 36.01 35.06 34.40 32.19 30.06 30.31 30.78 33.61 34.21 34.79 34.19 33.79 33.45 33.03 35.51 37.82 38.15 37.82 37.82 38.60 39.59 40.42 41.31 42.17 42.54 42.92 43.22 43.78 44.01
41.21 41.20 41.54 41.04 40.53 41.78 41.65 41.06 39.37 39.08 39.42 38.21 37.17 36.30 36.66 36.89 36.82 35.37 33.78 31.84 31.07 34.36 33.87 33.53 33.41 32.57 33.28 32.17 32.58 35.69 35.94 34.86 35.40 36.42 37.26 38.17 38.77 39.42 40.17 40.63 41.16 41.93 42.43
42.11 42.70 41.30 43.09 43.44 42.47 40.85 40.67 40.22 38.95 37.86 37.73 35.61 36.19 36.52 36.71 37.59 37.14 35.32 35.43 32.60 33.40 31.68 31.99 32.39 30.47 30.51 30.77 32.28 34.13 30.62 32.93 33.53 34.30 35.14 36.23 36.59 37.15 37.64 38.72 39.60 40.28 40.84
42.53 43.00 44.45 43.63 41.16 41.24 41.91 41.11 39.38 39.18 36.61 35.10 35.37 35.44 35.33 36.19 36.37 36.71 36.81 36.11 34.33 28.48 27.05 29.41 29.44 29.85 29.49 30.04 29.83 30.64 28.70 31.12 32.85 33.53 33.78 34.55 35.40 35.90 36.48 37.21 38.19 38.61 39.43
42.88 43.77 43.40 40.52 41.61 42.39 41.46 40.07 38.28 37.22 35.10 34.81 35.10 34.17 34.53 34.67 34.30 34.71 34.45 34.75 35.74 32.27 26.87 28.74 27.51 28.13 28.50 29.29 29.20 29.46 27.99 31.80 31.42 32.17 32.94 33.48 34.01 34.71 35.09 35.42 36.01 36.64 37.44
44.24 42.77 41.61 41.92 41.61 40.35 39.52 38.26 35.64 36.44 35.92 34.53 34.79 33.86 33.44 33.94 33.04 32.31 31.72 30.82 30.24 28.94 25.40 26.09 26.51 26.74 25.62 25.69 26.74 26.74 27.59 27.31 28.20 31.36 31.96 32.67 32.76 32.85 33.13 33.33 33.83 34.67 35.67
42.71 42.75 43.53 41.85 40.32 39.08 37.99 36.54 37.05 35.96 35.48 34.52 33.39 33.04 32.77 33.90 31.07 29.75 28.54 27.58 26.44 25.99 24.47 22.29 23.67 23.95 24.10 25.27 25.03 24.63 26.39 28.09 28.22 29.95 31.51 31.76 31.51 31.98 32.52 32.86 33.03 33.32 34.16
42.53 41.75 41.07 40.14 39.28 37.96 38.23 38.03 37.06 35.94 34.99 33.99 33.60 32.34 32.01 31.59 29.80 27.69 27.33 26.43 25.54 26.51 24.38 22.78 22.30 23.82 24.15 24.20 24.07 25.17 25.38 26.53 27.56 30.01 29.77 30.08 30.75 31.72 32.29 32.63 33.20 33.49 33.88
40.29 40.04 39.97 39.42 39.42 39.46 38.69 37.19 36.10 34.76 33.93 33.44 33.07 32.18 31.44 29.56 28.57 28.00 27.40 25.90 25.30 23.66 22.96 22.04 22.15 22.36 22.35 23.49 23.68 22.04 22.45 24.30 24.06 26.41 27.95 28.71 30.00 30.91 31.40 31.56 31.96 32.75 33.53
39.08 39.44 39.51 40.51 39.59 38.78 37.95 36.72 35.56 33.60 32.32 32.04 31.89 31.03 29.92 30.64 32.94 30.72 27.14 26.08 24.34 22.55 22.16 21.87 21.00 20.86 20.71 19.91 19.45 22.12 20.55 21.85 23.50 25.25 25.37 26.33 27.71 28.03 28.56 29.85 30.59 31.52 32.15
39.87 41.25 40.46 40.07 39.40 38.54 36.95 37.18 35.63 32.56 32.45 31.14 30.25 29.67 29.40 33.17 33.69 34.71 34.31 32.19 27.31 23.34 22.17 20.32 20.11 19.38 19.12 19.23 21.27 20.23 20.01 20.17 19.18 26.36 24.95 24.84 27.40 26.14 27.71 28.88 30.14 31.39 32.36
40.74 39.99 39.89 38.34 35.75 35.18 36.04 36.91 36.51 33.31 31.86 30.87 30.10 29.07 28.61 29.61 31.20 28.52 30.99 33.15 30.97 29.23 24.68 22.58 20.05 19.62 18.82 20.81 21.38 20.34 21.61 21.90 21.95 25.02 24.96 22.30 25.61 24.49 27.71 28.64 30.38 31.53 32.53
39.53 38.57 35.72 34.27 33.02 33.35 35.31 35.92 35.51 32.83 30.92 29.84 28.86 28.22 27.88 27.95 28.02 27.90 27.04 26.26 25.57 25.10 25.22 24.72 22.73 21.34 21.47 23.00 22.65 23.43 23.08 22.85 23.53 24.25 25.16 19.80 24.76 24.30 26.89 27.96 30.63 31.96 32.85
36.06 33.67 32.72 32.25 31.46 31.55 34.19 34.69 34.06 30.98 29.66 28.68 28.95 28.30 28.87 28.22 29.58 31.97 26.11 24.23 23.88 24.12 27.10 28.48 27.84 26.72 27.23 27.56 27.09 23.72 20.42 19.72 17.94 19.69 23.64 21.98 24.28 23.21 25.71 27.20 29.70 31.25 32.81
32.36 31.95 30.91 30.95 31.74 30.58 33.02 34.40 34.06 29.52 28.24 28.64 27.59 27.78 31.42 29.33 30.64 30.94 28.26 24.25 21.73 23.18 23.60 22.56 22.34 23.96 25.76 24.53 25.85 24.20 22.18 18.70 18.48 16.98 23.92 21.18 22.09 23.27 22.00 27.32 27.94 29.90 30.55

GFSMA_sfc_wetblb_051.txt.gz
Wetbulb
59.99 58.73 58.56 56.46 55.64 55.27 54.84 53.52 52.86 52.17 51.59 51.01 50.82 50.48 49.83 50.30 51.31 52.41 53.54 56.57 57.45 56.77 57.29 55.25 56.30 54.31 53.79 52.94 52.85 52.65 52.49 52.79 52.84 52.59 52.49 52.42 51.76 51.29 50.89 51.01 51.02 51.41 52.01
59.65 59.01 56.82 56.00 55.53 55.17 54.54 53.67 52.34 51.72 50.69 50.65 49.83 49.81 49.42 50.00 51.55 53.51 55.34 55.96 56.73 57.75 55.89 54.61 54.02 53.62 53.00 52.38 51.41 51.49 51.80 51.62 51.31 51.43 51.58 51.72 51.11 50.65 50.40 50.06 50.09 50.12 50.56
59.49 58.74 56.66 56.41 55.43 54.60 53.36 52.36 50.84 51.35 50.36 49.51 49.01 49.48 49.40 49.44 49.95 52.23 54.33 54.25 54.67 54.30 54.74 53.44 52.58 50.90 50.77 50.77 50.04 50.09 50.34 50.18 50.50 50.73 50.66 50.73 50.18 49.29 49.62 49.09 49.08 49.25 49.69
60.03 58.49 56.46 55.85 53.61 51.27 51.52 50.61 51.46 50.36 50.06 49.83 49.34 49.23 49.09 48.83 48.66 49.28 53.06 53.57 52.30 53.08 50.84 49.35 49.03 48.33 47.74 48.29 48.66 49.04 49.27 49.77 49.73 49.62 49.60 49.13 48.39 48.32 48.32 48.70 48.26 48.30 48.54
59.11 58.19 57.04 54.27 52.27 51.17 51.35 51.72 51.08 51.66 49.71 49.29 48.88 49.40 49.06 48.43 48.02 47.49 47.53 48.75 49.40 50.72 50.35 48.52 48.62 48.01 47.51 46.96 47.21 47.42 48.16 49.00 49.41 49.61 49.39 48.94 48.66 48.39 47.71 47.56 47.15 47.23 47.76
57.66 57.26 56.48 53.86 52.95 53.00 52.21 51.74 51.14 50.37 49.98 49.47 47.73 48.06 49.24 47.92 47.95 48.47 47.49 46.86 48.38 48.08 47.90 48.10 49.23 48.31 46.00 45.57 45.51 46.16 47.07 48.43 48.84 48.84 48.39 48.22 48.13 47.89 47.66 47.27 47.25 47.25 47.48
56.55 56.70 56.01 54.36 54.17 53.08 52.07 51.61 50.02 49.89 49.24 49.20 48.53 47.48 47.31 46.89 46.19 47.02 46.78 46.48 46.58 46.82 46.77 47.46 47.50 47.03 46.03 42.23 42.87 44.65 46.81 47.63 47.39 47.48 46.98 46.93 46.74 46.72 46.61 46.63 47.12 47.10 47.23
55.97 55.68 55.51 53.95 53.49 52.48 50.99 50.57 50.53 49.09 49.14 48.48 47.87 46.02 44.26 44.46 45.38 46.12 46.19 45.24 45.58 45.99 44.79 44.62 44.77 44.46 45.00 44.97 43.34 43.01 44.17 44.99 45.47 46.19 46.05 45.92 45.97 45.93 46.12 46.24 46.53 46.72 46.81
54.83 54.94 55.04 53.73 52.77 52.44 50.44 50.25 50.37 49.65 47.64 47.30 47.17 44.28 41.97 40.48 42.71 45.68 45.36 45.08 45.14 44.92 45.35 45.16 44.42 43.91 43.88 43.95 42.73 42.71 41.65 42.28 43.91 44.87 44.95 45.05 45.14 45.30 45.43 45.70 45.87 46.19 46.27
53.59 52.59 53.88 52.79 51.84 51.24 50.12 50.09 49.61 49.09 47.22 45.65 46.29 45.64 46.18 45.05 39.82 38.94 44.47 44.80 44.79 43.72 45.01 45.77 44.54 44.29 43.21 43.38 40.82 39.64 41.36 40.65 40.89 42.25 43.40 43.65 44.17 44.64 44.86 45.04 45.24 45.42 45.71
52.79 52.04 52.63 51.45 50.80 50.81 50.58 49.54 48.39 47.42 46.52 44.83 44.68 45.23 44.79 44.25 44.01 40.89 37.80 40.75 43.70 44.73 45.20 44.80 44.05 43.21 42.13 42.10 43.61 41.24 38.82 38.67 38.83 39.85 41.27 42.23 43.01 43.66 44.02 44.18 44.38 44.73 44.95
53.17 52.57 51.15 50.94 50.73 49.49 48.15 45.29 44.14 45.15 43.97 42.46 44.75 44.33 42.93 41.52 40.82 40.38 38.85 39.78 39.85 42.06 43.27 42.94 42.87 42.61 41.84 41.62 38.06 36.79 36.99 36.50 36.12 37.27 38.51 39.65 40.48 41.47 42.10 42.46 43.01 43.33 43.62
51.24 50.35 50.20 48.78 46.82 44.56 44.35 43.74 45.97 43.32 41.43 44.32 44.40 44.30 44.68 43.58 43.28 41.87 40.38 39.10 38.20 40.19 40.25 41.95 42.49 41.91 39.77 39.89 38.82 35.75 36.38 34.36 34.54 35.19 36.00 37.07 38.10 38.90 39.73 40.26 40.94 41.70 42.23
51.06 49.40 48.57 45.19 44.36 45.00 46.39 44.21 44.15 42.97 43.47 44.09 44.78 44.39 43.81 43.21 43.08 42.34 40.72 39.04 36.43 37.32 37.82 37.99 41.34 41.04 39.88 38.90 36.53 35.11 36.28 33.86 33.23 33.64 34.84 35.80 36.31 36.94 37.59 38.41 39.10 39.73 40.37
47.68 46.97 46.27 45.28 45.64 44.56 44.22 43.25 42.36 43.27 42.84 43.42 44.37 43.85 42.91 43.16 43.23 42.88 42.80 41.62 38.48 33.42 33.55 37.13 36.84 39.80 39.43 38.44 36.85 36.31 35.80 34.17 32.59 33.21 33.56 33.93 35.07 35.63 36.18 36.55 37.18 37.83 38.65
46.24 46.02 46.67 46.44 43.91 43.79 44.26 42.69 42.23 42.44 42.10 43.85 42.99 42.58 42.39 42.41 42.42 42.45 42.01 41.48 40.12 36.81 32.72 37.02 37.03 37.70 37.40 36.00 35.49 35.11 34.85 32.75 32.24 31.85 32.19 32.88 33.65 34.50 34.98 35.19 35.38 35.98 36.27
45.49 45.76 45.86 44.11 42.37 43.10 42.44 41.66 41.11 41.33 42.29 42.46 42.12 41.78 41.63 42.05 41.29 41.29 41.15 40.43 38.74 38.20 34.26 36.06 36.22 36.37 34.91 34.48 34.68 34.73 33.64 32.82 33.23 31.90 31.52 32.11 32.50 33.16 33.25 33.21 33.82 34.35 34.89
46.50 45.66 43.33 42.75 43.72 42.01 41.37 40.13 41.51 42.45 42.13 41.35 41.56 41.14 40.60 40.37 40.18 40.48 39.69 38.42 37.50 37.56 34.62 31.97 34.60 33.68 32.86 33.95 33.59 32.17 31.44 31.78 32.60 31.72 31.14 31.50 31.81 31.74 32.13 32.81 33.50 33.74 34.22
44.28 43.52 43.50 42.52 42.57 42.70 41.61 42.83 42.96 43.00 42.73 41.52 41.59 41.02 40.43 40.45 39.44 39.47 38.66 37.50 37.02 35.27 34.90 32.48 31.83 33.69 32.44 32.93 31.69 31.71 30.85 31.55 31.54 30.83 30.59 30.54 30.84 31.52 32.03 32.49 32.85 33.17 33.60
45.25 45.19 44.81 42.61 42.68 41.50 42.56 42.90 43.32 42.17 41.70 41.22 41.51 41.20 40.78 39.93 39.52 39.42 38.10 36.84 35.71 34.37 33.67 31.91 31.54 31.38 31.69 32.02 30.52 28.15 28.20 30.63 29.78 30.86 30.95 30.41 30.53 31.29 31.61 31.84 31.95 32.53 33.17
44.42 41.37 42.23 41.58 42.13 41.91 40.97 41.94 42.74 41.96 41.39 41.06 41.12 40.33 40.32 39.90 38.25 38.05 36.76 36.87 35.09 33.78 32.43 31.17 30.50 30.61 29.75 29.54 27.93 28.19 26.96 28.18 29.57 31.11 30.80 31.47 31.74 32.14 32.95 32.18 32.39 32.50 32.41
43.43 42.77 42.02 42.22 41.29 40.91 39.20 38.44 38.50 41.04 40.85 39.90 39.74 40.75 40.13 37.36 36.59 35.06 34.75 33.64 33.62 33.31 31.64 31.08 30.27 29.08 29.05 29.25 28.48 27.03 26.39 25.29 23.96 31.70 29.46 28.64 31.37 30.32 32.15 33.49 31.85 31.34 32.09
42.88 41.70 41.48 41.27 41.51 42.49 37.60 36.84 36.44 39.49 40.08 40.35 39.95 39.54 38.84 36.96 35.21 36.33 34.12 33.87 33.89 32.30 29.88 32.67 29.99 29.91 28.83 29.21 27.61 26.33 26.70 26.06 25.71 28.78 28.06 26.05 30.04 28.98 32.16 32.37 31.54 31.65 32.50
41.36 41.28 41.65 42.27 41.00 39.58 35.69 35.67 35.23 39.00 39.25 39.16 39.25 39.04 38.46 38.26 37.39 35.51 34.61 34.23 33.95 34.90 33.02 30.71 31.51 31.30 31.04 29.79 28.37 28.09 27.52 27.14 27.95 28.93 29.23 23.52 28.91 28.40 30.88 31.76 31.64 32.20 32.80
41.70 40.80 39.58 38.75 38.45 38.62 35.32 34.67 34.67 38.24 37.90 37.90 38.31 38.30 37.55 37.11 35.46 33.38 33.54 32.25 32.31 32.69 31.54 30.49 29.80 29.22 28.31 27.01 28.43 29.00 26.38 25.32 23.94 25.59 28.76 26.33 27.47 26.91 28.96 30.10 33.19 31.96 31.75
37.56 37.40 36.83 37.49 36.13 36.84 35.43 34.39 34.75 37.14 36.15 36.60 37.61 37.09 33.21 34.92 33.04 32.01 33.62 32.42 30.97 31.45 31.29 30.08 30.18 29.72 28.87 29.35 27.68 28.40 27.71 24.44 24.12 23.15 28.72 24.44 25.06 25.63 23.39 29.49 31.19 31.97 33.30

GFSMA_sfc_wetblb_054.txt.gz
Wetbulb
62.45 62.31 62.45 61.90 61.16 60.42 59.54 57.93 56.60 56.16 55.85 55.58 54.90 53.80 53.33 53.80 54.20 55.20 56.87 57.39 56.94 58.01 57.29 56.46 55.73 54.88 53.88 53.04 52.51 52.40 52.09 52.14 51.92 52.05 52.11 52.24 51.72 51.44 51.00 50.79 50.59 50.90 51.31
63.13 61.87 61.57 60.96 59.70 59.30 59.34 58.63 58.06 57.14 56.59 55.64 54.20 53.46 52.94 53.21 53.98 55.66 56.81 56.75 57.08 58.19 56.35 55.03 54.79 54.00 53.32 52.59 51.39 51.09 50.97 51.01 50.90 51.17 51.23 51.22 51.07 50.02 50.08 49.69 49.73 49.69 50.18
63.42 62.68 60.78 58.78 59.20 59.63 59.28 58.28 57.27 57.07 55.85 54.83 53.27 53.12 53.05 52.72 53.40 54.48 56.10 57.52 56.03 54.01 55.20 54.29 52.91 51.35 51.11 51.30 50.57 50.62 50.35 50.20 50.25 50.14 50.09 50.25 49.18 48.84 49.03 48.96 49.26 48.61 49.08
63.09 62.45 60.92 60.84 61.01 59.83 57.88 54.02 56.28 57.07 55.96 55.20 53.65 54.23 53.95 53.69 52.91 53.50 56.11 56.35 56.91 55.46 51.48 49.82 49.09 48.59 48.33 48.99 49.61 49.87 49.63 49.71 49.98 50.19 50.17 49.93 49.18 49.20 48.90 48.43 48.30 47.87 48.19
64.79 62.94 61.92 61.69 60.05 55.15 54.47 54.34 57.08 57.09 54.95 54.72 53.47 55.06 54.82 53.73 51.91 50.98 52.43 53.55 53.55 52.94 51.32 49.72 48.45 47.95 47.81 47.56 47.87 48.14 48.84 49.39 50.02 49.98 49.87 49.70 49.29 49.07 48.79 48.56 48.17 48.17 48.12
65.08 63.63 62.82 61.45 57.97 57.06 54.51 54.96 55.18 55.88 55.90 55.18 51.80 53.02 54.76 52.92 51.96 51.27 50.56 50.12 50.87 51.00 50.49 49.72 50.35 49.93 46.83 46.07 46.47 46.82 47.77 48.99 49.77 49.64 49.08 48.55 48.21 48.03 47.94 47.82 47.77 47.94 48.03
63.88 63.64 62.48 60.20 58.16 56.09 55.50 55.44 55.36 54.65 53.47 54.50 53.67 53.67 53.10 52.20 50.84 50.37 50.61 50.04 49.73 50.12 49.79 49.41 49.43 49.23 48.70 45.41 44.00 44.72 46.85 48.24 48.57 48.37 47.82 47.72 47.22 47.05 47.24 47.08 47.12 47.43 47.70
62.17 61.99 61.36 59.42 58.73 57.39 54.21 54.79 55.59 54.16 54.59 54.34 53.30 51.52 49.74 50.86 49.92 50.08 50.31 49.66 49.73 49.87 48.76 48.57 48.55 48.14 48.07 47.91 47.24 42.96 43.89 44.77 45.98 46.90 46.54 46.41 46.54 46.46 46.38 46.56 46.90 47.06 47.33
60.61 60.17 60.83 59.50 59.27 56.16 53.06 54.89 55.77 54.59 52.45 52.68 51.72 50.88 48.11 46.96 48.19 50.75 49.65 49.51 49.35 49.07 48.85 48.28 48.71 48.26 47.78 47.67 47.06 46.22 42.01 42.05 43.31 44.55 45.34 45.31 45.63 45.85 46.13 46.34 46.54 46.56 46.75
59.31 60.46 60.00 58.79 56.82 55.58 55.37 56.04 55.54 54.92 53.69 50.54 51.02 50.09 49.07 48.47 45.32 44.63 49.19 48.49 48.84 47.95 48.28 48.47 48.66 48.49 48.06 47.48 44.99 40.99 40.82 40.10 40.59 41.74 42.83 43.74 44.45 45.03 45.33 45.78 45.95 46.19 46.27
60.44 58.81 57.55 56.47 56.02 57.29 56.69 55.97 54.63 53.98 49.14 45.77 46.49 45.59 47.68 48.70 48.11 44.45 41.79 44.01 46.73 47.50 47.87 47.63 47.94 47.15 46.88 46.36 46.09 43.51 38.23 38.15 38.59 39.34 40.01 41.23 42.10 42.89 43.37 43.74 44.06 44.41 44.99
59.27 57.59 55.02 54.52 56.14 56.36 55.98 55.10 52.75 47.45 46.56 45.89 45.48 44.89 47.86 46.16 44.88 43.52 42.32 43.03 43.07 45.17 46.62 46.48 45.99 45.82 46.08 45.60 42.46 36.36 37.08 37.03 36.55 37.12 37.86 38.66 39.57 40.38 41.28 41.86 42.56 43.14 43.46
56.00 54.51 54.64 55.80 55.96 55.91 52.39 47.01 48.89 50.33 46.65 43.97 43.98 47.81 45.66 46.00 46.02 44.58 43.09 42.31 41.26 43.78 44.22 45.91 45.61 45.46 44.54 44.36 43.86 36.15 38.60 37.43 35.52 35.81 36.30 36.76 37.60 38.39 39.24 40.03 40.87 41.68 42.20
53.84 56.01 54.17 54.88 51.02 48.97 47.43 50.23 48.53 45.22 45.63 43.04 46.99 45.85 45.55 46.75 46.39 45.06 42.88 41.51 39.56 40.92 42.63 42.55 44.69 44.50 44.34 43.73 42.27 35.73 40.21 39.04 36.77 35.45 35.04 35.34 36.02 36.39 37.00 38.10 38.82 39.30 39.97
53.52 51.00 51.05 48.62 49.23 49.95 49.41 44.65 45.23 43.09 43.95 45.94 45.98 47.16 46.50 46.32 45.97 45.33 44.75 43.64 41.11 37.14 38.10 41.42 40.62 43.72 43.52 43.09 42.34 41.28 39.67 38.57 36.13 34.76 34.01 34.10 34.58 35.29 36.09 36.72 37.26 37.63 38.32
49.38 48.38 47.10 47.41 49.68 46.79 44.96 46.76 45.69 43.59 43.58 44.35 46.67 46.79 46.27 45.67 45.36 45.20 44.48 44.22 43.30 40.37 36.77 41.11 41.26 42.44 42.31 40.88 40.74 39.52 38.83 37.06 36.39 35.41 33.62 33.29 33.64 34.36 34.66 34.99 35.50 35.85 36.16
48.60 47.70 47.51 48.06 44.75 44.28 44.93 43.42 42.75 42.94 42.12 45.88 47.43 45.72 44.69 45.54 44.68 44.61 44.53 43.66 42.26 41.48 37.88 39.93 41.73 42.16 40.46 39.35 39.39 39.70 39.06 38.04 37.36 35.90 34.48 33.35 32.92 32.91 33.21 33.64 33.98 34.10 34.92
47.98 49.26 47.90 44.77 43.98 44.97 43.49 42.95 41.82 42.84 45.18 45.68 45.43 45.11 44.31 44.00 44.16 44.37 43.66 42.57 41.98 41.93 39.56 37.05 39.52 39.60 39.39 39.61 38.90 37.69 36.93 36.70 36.33 35.77 34.29 32.71 32.32 32.12 32.32 32.63 32.97 33.66 34.01
47.38 47.13 45.04 44.33 44.29 42.91 42.82 42.28 43.21 45.26 46.10 45.67 45.25 44.58 44.24 44.15 43.26 43.62 43.23 42.14 41.95 40.86 40.14 38.12 37.38 39.17 38.92 38.79 37.20 37.47 36.46 36.05 35.85 35.30 34.38 33.75 32.70 32.51 32.58 32.64 33.01 33.34 33.43
46.52 44.73 44.70 44.92 43.66 43.34 43.54 43.53 44.15 44.63 45.53 45.62 44.88 44.46 44.28 43.79 43.48 43.39 42.50 41.95 40.62 39.63 39.51 37.14 36.26 36.41 36.56 37.33 36.36 34.46 33.42 35.01 34.27 35.10 35.34 34.17 33.06 33.16 32.91 32.92 33.16 33.11 33.22
45.67 46.71 44.37 44.05 42.66 42.23 43.13 42.94 42.74 43.17 44.36 44.06 44.34 44.49 44.75 43.79 41.38 41.23 41.90 41.78 40.55 38.74 37.70 35.67 34.62 34.21 33.73 33.48 33.78 34.92 32.62 32.85 33.86 35.14 34.66 35.15 35.27 35.41 35.57 34.92 34.59 33.76 33.59
44.87 43.49 41.74 41.85 42.20 42.61 39.63 39.15 40.72 44.48 43.60 43.46 43.20 43.92 44.24 41.86 40.89 37.67 37.38 36.88 38.27 39.34 36.98 35.50 34.43 32.24 33.23 34.23 35.10 33.54 31.89 30.07 28.51 35.62 33.34 32.38 34.55 33.62 35.03 35.78 34.74 32.60 32.42
43.60 42.71 42.59 42.67 42.23 42.76 40.09 39.26 37.29 41.51 42.05 42.71 42.90 42.75 42.23 42.05 40.44 41.86 38.04 35.04 34.51 33.50 32.94 38.18 35.09 33.79 33.75 35.34 34.76 32.58 31.11 30.61 30.22 33.08 32.07 29.62 33.32 32.19 34.79 35.00 34.38 33.23 32.43
43.24 43.24 43.05 44.86 44.63 44.11 37.41 36.39 35.29 40.60 41.56 41.69 42.01 41.80 41.45 41.38 41.47 40.63 40.74 39.75 39.39 37.94 37.88 36.05 35.78 36.80 36.71 36.49 35.05 33.00 31.42 31.22 31.96 33.15 33.71 27.87 32.26 31.19 33.92 34.67 33.87 33.14 32.74
45.19 44.47 43.25 42.16 41.93 42.08 36.91 35.83 35.57 39.48 39.20 39.75 40.48 41.02 40.84 40.54 38.21 37.58 39.06 38.13 37.80 38.34 37.27 34.84 34.78 33.89 30.11 29.10 29.76 31.98 29.64 28.81 28.06 29.95 33.07 30.22 30.50 30.08 31.52 32.27 34.41 33.03 32.88
41.68 41.50 40.25 40.57 38.61 39.87 37.17 35.90 36.37 38.22 37.85 38.90 39.58 39.62 36.56 37.45 35.59 34.42 37.90 37.10 35.50 36.45 36.72 35.79 34.58 32.56 31.71 32.42 29.17 30.81 30.96 27.72 28.15 27.50 32.18 28.58 28.89 29.00 26.85 31.77 32.56 32.70 33.42

GFSMA_sfc_wetblb_057.txt.gz
Wetbulb
63.61 63.61 63.07 62.44 62.14 61.84 60.93 60.25 59.48 58.27 57.92 57.10 56.29 55.03 54.30 55.06 55.30 55.62 57.07 57.50 56.74 58.92 58.13 58.15 56.38 55.55 54.27 53.37 52.50 52.39 52.56 52.44 52.38 52.39 52.05 51.90 52.07 51.41 50.94 50.82 50.51 50.73 50.90
64.48 63.40 62.88 62.23 61.90 61.66 61.18 60.40 59.92 58.84 57.96 56.98 55.26 54.28 53.77 54.43 55.00 55.96 56.89 56.17 57.64 59.27 57.50 56.10 56.10 55.09 54.35 53.37 51.78 51.21 51.34 51.17 51.36 51.53 51.16 51.39 50.72 50.16 49.83 50.17 50.02 49.95 49.96
64.43 63.52 62.40 62.21 61.63 61.49 61.56 61.08 59.36 59.09 57.82 56.74 55.30 54.43 54.04 54.14 54.00 54.76 55.08 56.76 55.30 55.20 56.23 55.10 53.87 52.44 51.55 51.75 51.53 51.13 51.00 50.53 50.59 50.92 50.82 50.67 50.48 49.89 49.85 49.55 49.31 48.98 49.15
64.45 63.57 62.52 61.87 61.95 61.86 60.35 59.76 58.73 58.53 58.08 56.86 55.93 55.02 54.63 53.70 53.20 53.47 55.53 55.29 56.10 55.88 53.94 53.07 50.87 48.93 48.38 49.19 50.00 50.50 50.42 49.88 50.18 50.54 50.78 50.87 50.70 50.54 50.34 49.97 49.71 49.22 49.15
64.01 63.37 62.48 62.65 63.22 61.09 59.96 57.86 58.43 59.41 57.30 56.12 54.55 54.80 55.40 54.60 53.35 52.43 52.88 54.00 54.37 52.13 51.98 52.60 50.29 48.71 47.77 47.38 47.83 48.79 49.28 49.48 49.83 50.61 50.57 50.28 49.99 49.54 49.38 49.20 49.18 49.16 49.05
65.80 63.84 63.28 63.53 62.66 60.27 58.03 58.12 57.97 57.85 57.78 55.96 52.89 52.95 55.25 55.05 54.19 53.11 52.21 51.90 51.90 51.79 51.76 51.35 50.48 50.24 49.48 48.20 47.33 47.14 47.96 48.88 49.63 50.26 49.96 49.29 49.22 48.87 48.37 48.53 48.46 48.38 48.51
65.37 65.20 64.50 63.70 61.79 59.51 58.82 57.90 56.68 56.66 55.63 55.71 54.14 54.28 54.81 55.28 53.87 52.83 52.59 52.06 51.58 51.32 51.64 50.84 50.04 49.80 49.31 47.81 47.70 46.12 45.74 47.67 48.60 49.12 48.81 48.37 48.06 47.90 47.78 47.93 47.95 48.08 48.22
64.82 64.28 64.57 63.62 61.72 59.76 58.60 57.63 56.52 55.07 55.71 56.01 53.09 53.33 50.49 52.56 51.59 52.40 52.01 51.69 51.78 51.28 50.84 50.59 49.78 49.35 49.27 48.84 47.95 46.05 45.55 44.89 45.75 46.86 47.38 47.09 47.06 47.02 47.06 47.47 47.67 48.04 48.10
60.92 60.54 61.07 62.11 61.42 60.76 58.22 57.21 56.40 55.03 53.73 54.89 54.79 52.49 49.08 47.39 49.52 52.97 51.63 51.40 51.54 50.85 50.63 50.36 49.45 49.52 49.62 49.14 49.13 48.72 43.53 42.69 42.84 44.24 45.19 45.48 45.55 45.67 46.09 46.59 46.97 47.35 47.51
60.03 59.68 58.96 59.94 62.33 61.48 58.37 56.14 55.83 55.97 56.27 53.75 53.64 53.32 51.44 48.83 45.83 46.16 51.17 50.88 50.84 49.54 50.16 49.59 49.43 49.68 49.71 48.74 48.99 43.90 42.68 40.69 40.00 41.11 42.44 43.29 43.71 44.10 44.52 45.03 45.30 45.65 45.96
61.01 59.95 60.01 60.18 61.19 59.06 56.73 55.34 55.77 57.47 56.20 54.39 48.70 46.63 46.46 48.92 50.00 46.78 44.44 46.65 48.72 48.99 49.39 48.89 48.99 48.97 48.03 47.56 47.14 44.20 40.17 38.07 37.77 39.11 40.53 41.80 42.31 42.32 42.44 42.88 43.36 43.89 44.24
61.17 61.18 60.77 58.92 58.24 56.59 55.44 55.67 58.26 56.85 51.74 49.32 49.70 46.52 44.19 45.82 46.91 46.44 44.62 44.80 44.75 46.81 48.16 48.61 48.17 47.31 47.27 46.85 45.46 40.92 39.04 38.03 37.90 38.60 39.24 39.68 40.22 40.43 41.03 41.72 42.41 42.92 43.37
60.65 59.84 60.00 55.68 54.94 54.41 55.72 56.49 52.06 49.44 51.29 49.26 46.06 44.41 45.86 46.10 46.80 45.98 44.69 43.67 42.94 45.10 45.54 47.38 47.72 47.37 46.33 46.39 45.61 41.00 40.70 39.23 39.45 38.27 38.03 38.17 38.31 38.68 39.31 39.98 40.52 41.46 41.97
60.92 59.97 55.42 54.81 53.91 49.83 47.79 48.91 50.25 51.11 47.62 45.68 43.99 46.34 44.35 45.97 48.02 46.90 45.03 42.83 40.58 41.81 43.85 44.14 46.59 46.29 45.95 45.52 43.43 40.08 41.78 41.22 40.48 38.15 37.19 37.31 37.18 37.11 37.37 37.72 38.53 39.37 39.97
59.95 58.29 55.20 53.09 48.63 49.03 49.88 50.15 47.72 45.08 44.89 44.96 45.40 45.00 44.82 47.67 48.74 47.21 45.95 44.87 41.84 38.59 38.84 42.42 42.29 45.76 45.23 45.06 44.61 43.53 42.36 41.34 40.00 37.97 37.58 36.77 36.11 35.98 36.33 36.73 37.13 37.56 38.27
58.08 54.74 51.80 50.10 48.48 48.87 48.83 47.56 45.78 45.52 43.00 44.23 44.42 43.33 44.69 47.77 47.54 46.76 45.85 45.07 44.04 41.10 38.09 41.83 42.19 44.42 44.70 43.33 43.88 42.38 41.43 41.37 39.43 38.53 38.00 37.07 35.42 35.11 35.33 35.45 35.57 35.95 36.47
53.74 51.55 49.76 48.48 47.21 47.26 45.92 44.93 43.65 42.58 42.49 43.12 42.49 43.65 47.21 47.53 46.55 46.18 46.31 44.85 43.31 42.54 39.40 41.29 42.67 44.25 44.27 43.24 42.47 42.14 41.60 40.85 40.75 39.20 38.11 36.69 35.29 34.62 34.28 34.09 34.15 34.42 34.83
50.71 49.06 49.09 47.93 46.78 44.82 44.67 44.30 42.27 41.99 41.87 41.49 43.67 46.58 45.86 45.50 45.54 46.06 45.44 44.53 43.72 43.71 41.80 39.48 41.92 42.19 42.36 43.13 42.76 41.29 39.83 39.37 39.18 38.57 38.37 36.69 35.31 34.61 33.84 33.57 33.43 33.73 33.94
48.24 48.93 46.58 44.94 44.77 45.48 44.74 43.95 42.65 42.22 42.98 44.76 46.39 45.64 45.30 44.98 43.92 45.13 44.99 44.22 44.41 42.95 43.45 41.16 40.18 42.03 41.89 41.86 40.87 40.80 39.35 39.63 38.66 38.79 37.56 36.51 36.10 35.02 34.17 34.17 34.12 34.15 34.12
47.27 46.30 45.77 45.15 44.25 42.95 43.08 42.44 42.95 43.45 44.70 44.44 45.01 45.24 45.52 44.94 44.96 45.10 44.56 44.61 44.00 43.02 42.40 40.48 40.08 39.69 39.97 40.48 40.09 37.17 36.54 38.61 37.20 37.08 37.07 36.09 36.47 36.58 36.59 36.16 35.54 34.58 34.43
45.76 45.98 45.42 44.81 43.86 43.25 43.19 43.24 43.53 43.07 43.21 43.95 44.19 45.48 46.27 45.19 42.32 42.11 43.00 43.66 43.47 42.01 41.11 39.73 38.70 38.54 37.63 36.77 35.65 36.97 35.46 36.41 36.61 36.21 35.60 35.87 36.59 36.11 36.48 36.77 36.79 36.82 35.93
46.77 45.54 44.12 43.18 42.13 42.77 39.74 39.35 40.38 42.51 43.77 43.99 43.26 43.89 44.59 42.86 42.87 38.68 38.88 38.28 40.06 41.16 39.61 38.61 38.15 36.57 37.07 36.92 37.35 35.97 34.81 32.78 30.33 36.10 34.45 33.56 35.26 34.03 35.49 36.16 35.72 34.32 33.68
46.39 45.56 43.21 44.43 43.77 44.07 40.06 40.01 38.77 43.35 42.00 41.84 42.04 42.67 42.29 42.93 41.27 43.54 40.63 36.71 37.05 36.35 34.18 38.85 37.33 37.82 36.25 37.59 37.01 34.71 33.82 32.78 31.89 33.76 33.67 31.07 34.77 33.62 34.92 35.27 35.62 34.94 34.46
46.59 46.11 45.50 45.38 45.26 45.57 39.64 37.64 35.60 40.50 40.44 40.72 41.03 41.33 42.04 42.32 42.83 41.30 41.31 40.93 41.38 41.11 40.39 38.08 37.34 38.19 39.11 39.39 37.71 36.19 34.43 33.33 32.69 33.36 34.47 29.49 33.94 32.49 34.66 35.15 34.85 35.11 33.75
45.26 45.04 44.85 43.76 42.70 42.76 37.19 35.82 36.25 39.48 39.25 39.20 40.06 40.35 40.52 40.80 38.56 37.36 37.68 37.72 38.66 39.18 39.63 37.50 37.73 37.49 33.57 32.13 31.89 35.05 32.05 30.35 29.57 29.83 34.12 31.85 31.96 31.07 32.26 32.76 35.11 33.82 33.18
42.63 42.89 41.52 41.49 38.05 40.89 34.70 34.43 34.35 35.62 34.04 34.98 35.82 36.12 34.49 35.06 33.62 34.11 36.15 36.41 35.23 36.85 38.28 38.24 37.81 35.96 33.95 33.42 30.09 32.32 32.20 29.29 28.78 28.64 32.60 31.00 29.99 30.01 27.01 32.17 32.92 34.65 34.33

GFSMA_sfc_wetblb_060.txt.gz
Wetbulb
61.02 59.88 59.27 58.65 58.03 59.15 58.33 57.64 56.23 55.54 54.54 54.00 52.95 51.91 51.73 51.49 51.66 52.53 52.63 57.73 58.31 60.11 58.70 57.68 56.66 55.54 54.61 53.76 53.04 52.47 52.15 52.46 52.17 52.34 51.80 51.98 51.61 50.95 50.58 50.86 50.66 50.79 50.65
62.52 60.23 61.02 60.02 59.67 59.47 58.76 57.74 56.18 55.61 54.83 53.22 51.79 51.07 50.91 51.22 51.23 52.08 52.54 54.75 58.09 59.79 58.75 58.02 57.01 56.21 55.34 53.98 52.23 51.22 51.22 51.12 51.19 51.30 51.34 51.35 51.08 50.74 50.69 50.41 50.19 49.91 49.84
62.57 61.33 60.79 60.59 59.95 59.21 58.53 57.94 56.92 55.92 54.29 54.38 52.05 51.54 50.91 50.72 50.47 50.93 52.36 51.88 53.84 56.36 56.89 57.00 55.71 54.46 52.89 51.86 51.58 51.27 50.81 50.40 50.16 50.59 51.15 51.46 51.24 51.04 51.03 50.88 50.72 50.52 50.29
62.88 61.75 60.23 60.34 59.92 59.25 58.33 56.89 55.53 55.00 54.78 53.31 50.78 49.99 49.71 50.14 49.73 49.61 51.26 51.98 52.48 53.09 55.59 56.04 53.85 52.29 50.45 49.42 49.54 50.11 49.97 49.79 49.75 50.27 50.67 50.82 50.69 50.38 50.16 49.81 49.61 49.73 49.80
62.71 61.49 60.98 60.27 60.75 58.66 57.37 56.88 55.00 56.33 54.42 52.54 51.35 50.63 50.36 49.68 49.23 50.78 49.37 50.44 49.96 49.94 51.20 54.45 53.45 52.35 50.78 49.90 48.59 47.93 48.26 49.21 49.42 50.11 50.80 50.64 50.27 49.77 49.63 49.28 49.21 49.25 49.11
62.08 61.72 61.06 60.99 60.76 58.79 56.47 55.11 55.03 55.42 55.13 54.21 53.30 51.20 50.97 50.36 49.82 48.81 48.19 49.35 48.87 48.11 47.24 48.34 47.19 47.17 51.35 49.50 48.64 48.38 48.18 48.39 48.81 49.52 50.05 50.02 49.52 49.00 48.90 48.71 48.57 48.77 48.65
63.48 62.74 61.41 61.35 60.63 58.60 55.71 55.59 55.03 53.65 53.42 53.21 51.43 49.34 50.34 50.97 50.35 48.85 48.60 47.86 47.87 48.10 47.21 47.18 45.71 44.90 46.62 49.74 49.30 48.19 47.49 47.62 48.49 48.36 48.07 48.41 48.27 48.11 47.94 48.08 48.25 48.53 48.86
63.20 62.87 62.26 61.53 60.35 58.32 56.76 55.01 54.66 52.49 53.35 53.65 50.06 48.77 45.58 47.84 48.83 49.76 48.27 48.39 46.96 47.41 47.65 47.91 46.14 45.51 44.59 44.29 45.31 48.44 48.12 47.58 46.08 45.89 46.30 46.83 47.13 46.92 46.97 47.17 47.33 47.51 47.74
61.92 62.07 62.46 61.29 59.81 59.66 56.39 55.64 54.33 53.29 51.49 52.99 52.39 48.35 45.01 43.56 44.27 49.06 49.06 48.93 47.14 46.34 46.25 46.73 46.61 45.98 45.72 44.73 47.45 46.17 46.68 45.16 44.46 43.67 44.21 44.67 45.21 45.49 45.51 45.90 46.09 46.25 46.37
61.23 60.43 60.07 59.36 58.99 58.43 57.60 56.71 55.33 53.63 52.99 50.35 51.21 51.00 46.94 45.12 42.69 42.69 47.78 47.94 48.52 46.91 45.39 45.27 45.13 46.07 46.14 44.94 47.69 45.80 44.65 43.27 42.09 41.40 41.79 42.94 43.97 44.20 44.31 44.25 44.07 44.40 44.70
60.57 60.11 59.74 59.04 59.00 58.83 58.37 55.68 54.31 53.16 53.24 52.18 49.93 44.72 44.02 45.89 44.79 44.17 41.69 44.12 46.19 45.91 45.39 45.56 44.94 44.69 45.20 43.58 42.02 43.39 42.89 41.07 40.18 40.00 40.35 41.55 42.56 42.80 42.90 42.97 43.05 43.55 43.83
60.04 60.07 59.94 58.79 58.80 57.43 55.22 54.26 53.93 53.03 51.94 49.17 47.16 45.57 44.62 43.75 43.73 42.53 41.23 41.55 40.95 42.69 43.98 44.83 44.55 43.01 42.81 42.55 45.61 43.36 42.36 40.82 39.73 40.17 40.34 40.87 41.14 41.54 41.70 41.65 42.09 42.57 42.89
59.23 59.31 59.36 58.60 56.76 55.28 54.61 54.17 52.65 49.29 49.44 47.60 46.35 44.32 44.98 44.60 44.31 43.76 42.23 40.07 38.39 40.28 41.91 43.17 44.17 43.61 44.60 42.50 41.82 42.21 41.87 40.62 40.20 40.53 40.33 39.71 40.05 40.36 40.49 40.20 40.73 41.18 41.55
59.99 59.71 59.47 56.66 55.02 53.56 51.58 49.71 48.91 49.32 48.04 45.40 42.70 44.52 43.95 43.93 44.11 44.62 42.63 39.89 36.91 37.94 38.68 39.99 42.45 41.88 41.85 41.06 42.73 43.98 39.85 40.74 41.11 41.11 40.17 39.25 39.21 39.62 38.64 38.27 38.60 39.36 40.07
59.36 58.50 56.62 54.00 51.60 50.04 49.80 49.94 49.11 44.93 43.49 43.57 44.58 44.11 43.92 44.56 45.20 46.06 43.90 42.67 39.38 33.14 34.21 38.06 37.34 40.73 41.47 40.52 39.98 38.35 37.56 42.48 41.39 40.35 39.54 38.87 39.68 39.11 37.97 37.36 37.38 37.96 38.34
57.46 56.96 54.64 51.36 49.43 49.49 49.20 46.81 44.46 44.55 43.72 43.81 43.85 43.15 43.20 43.75 44.99 45.97 44.05 42.86 41.74 38.51 34.23 37.15 37.48 38.58 39.95 41.36 41.64 38.12 37.93 42.09 40.92 39.84 39.70 39.96 39.88 38.58 37.15 36.62 36.72 36.40 36.84
55.18 54.38 51.58 49.09 48.55 47.69 46.31 45.11 44.05 42.87 41.93 42.52 42.93 42.77 42.55 44.07 44.92 43.12 42.57 42.16 39.95 38.66 34.71 35.88 37.84 38.27 37.50 37.48 38.54 38.13 39.09 36.28 36.31 40.62 39.90 39.53 39.10 37.71 36.60 36.08 35.74 35.37 35.66
52.40 50.69 49.08 47.87 47.19 45.28 44.87 43.26 42.21 41.98 42.06 41.76 42.07 41.60 42.90 46.22 44.00 43.74 41.98 40.07 39.03 38.37 36.09 34.89 36.74 36.43 36.22 37.03 36.92 35.96 38.77 38.77 35.93 39.50 39.66 39.10 38.35 37.24 36.96 36.32 35.62 35.31 35.21
48.96 48.60 47.72 45.69 45.09 44.68 43.94 43.06 42.66 42.30 42.01 42.08 42.50 43.49 44.89 43.70 41.99 42.28 42.10 40.85 39.07 41.51 38.48 37.13 35.95 36.02 35.93 35.84 34.90 35.60 35.95 34.61 37.55 40.44 39.56 38.58 38.55 38.34 37.64 37.06 36.21 36.09 35.76
46.73 45.54 45.49 44.82 44.83 44.11 43.39 42.94 42.38 42.23 42.81 43.56 43.84 42.99 43.32 43.29 42.61 41.88 40.99 39.50 40.11 37.88 38.22 37.28 36.84 35.35 34.18 35.68 34.78 31.78 32.04 33.04 32.10 37.25 37.47 35.72 36.69 37.56 38.40 37.63 36.85 36.85 36.99
45.58 44.94 44.37 43.97 43.73 43.44 42.61 42.33 43.25 43.09 42.39 42.23 43.17 44.02 43.53 43.31 42.76 41.42 41.43 38.16 36.98 37.24 37.06 35.64 34.93 34.59 33.01 31.86 31.30 33.51 32.35 31.26 31.00 31.71 30.21 29.46 30.09 30.97 31.21 35.16 36.53 36.34 36.85
45.39 45.11 43.12 42.53 42.37 42.81 40.38 40.48 40.98 41.58 42.27 42.35 40.66 39.38 39.87 40.74 40.40 39.26 38.51 38.25 38.33 37.31 35.82 35.46 35.19 33.78 33.67 33.71 33.39 32.21 31.86 30.86 27.34 31.10 28.41 26.24 29.22 27.71 29.62 30.47 35.40 35.57 35.06
44.61 42.92 42.06 42.20 42.89 42.87 39.17 39.62 38.60 40.85 39.26 37.26 36.99 37.29 38.41 40.40 38.43 38.95 37.82 37.12 36.31 36.20 33.60 35.45 33.52 34.21 33.90 35.02 35.50 32.36 31.24 31.43 29.84 28.84 27.02 24.42 26.51 25.98 29.68 33.94 35.51 35.63 35.69
44.57 44.28 43.46 43.21 43.06 43.28 38.77 36.93 35.41 35.84 36.10 36.63 36.83 36.58 35.38 35.02 35.09 34.32 32.88 31.73 32.87 34.94 36.22 36.21 33.39 34.61 35.01 35.70 35.80 34.28 33.42 30.71 27.82 27.39 28.42 21.83 26.04 26.67 28.08 29.02 34.63 35.36 34.96
44.05 44.07 43.98 42.25 38.84 34.92 34.06 33.57 34.74 33.78 33.45 32.24 34.18 33.68 33.30 31.85 33.65 34.23 30.93 29.75 31.00 32.17 35.86 36.86 36.94 36.75 36.82 36.94 35.83 33.45 30.19 25.72 21.68 25.11 27.20 25.64 25.54 24.94 25.88 26.05 27.46 34.63 34.56
41.69 40.62 39.91 39.73 37.19 32.21 33.66 32.94 32.25 29.57 28.60 27.79 28.89 30.12 31.64 31.40 32.26 32.20 29.74 28.95 27.64 27.83 28.93 30.71 31.49 33.13 35.33 33.93 33.40 32.56 30.62 28.25 26.10 23.47 27.09 23.51 24.89 24.75 20.69 24.89 26.32 27.17 27.89

GFSMA_sfc_wetblb_063.txt.gz
Wetbulb
56.91 57.48 56.65 55.61 55.19 55.17 52.88 54.31 53.33 52.90 51.20 50.65 49.41 49.39 49.21 48.62 48.19 50.18 53.36 58.65 60.28 59.90 58.80 58.04 56.94 56.25 55.40 54.36 53.42 52.59 52.45 52.18 52.12 52.12 51.89 51.90 51.68 51.37 51.28 51.08 50.80 50.60 50.57
58.02 57.09 56.75 56.17 55.79 56.19 55.73 54.15 53.46 52.25 51.07 49.83 48.76 48.66 48.93 49.01 49.97 49.84 52.47 54.19 58.15 60.19 59.57 58.34 57.88 56.85 55.71 54.56 52.66 51.14 50.98 50.76 50.72 50.98 51.48 51.57 51.53 51.33 51.45 51.29 50.98 50.95 50.94
59.26 57.62 58.31 57.31 56.87 56.82 55.92 54.11 53.54 52.81 50.91 50.62 49.01 48.97 48.53 48.93 48.79 50.53 51.29 52.78 55.44 58.51 58.14 59.70 57.35 56.51 55.34 53.55 52.57 50.96 50.36 49.90 49.63 50.24 50.52 50.96 51.05 51.02 50.75 50.42 50.18 50.19 50.29
59.93 59.05 58.09 57.71 57.98 57.41 55.71 54.51 53.29 52.56 51.45 50.04 48.03 47.51 47.83 47.89 47.85 47.88 50.56 51.27 51.54 52.62 56.14 57.43 56.98 54.99 53.62 52.49 51.41 50.43 49.59 49.00 48.99 49.43 50.09 50.74 50.93 50.62 50.11 49.93 49.71 49.47 49.74
60.95 59.15 58.47 58.03 57.43 56.60 55.41 55.22 53.81 53.02 52.33 50.62 48.65 47.60 47.07 46.77 46.90 49.02 48.78 49.64 50.85 50.73 50.43 55.35 55.19 54.65 53.33 51.85 50.89 48.99 48.66 48.67 48.63 49.04 49.80 50.05 50.11 49.82 49.38 49.16 49.18 49.07 49.11
60.92 59.48 59.06 58.41 58.04 56.05 55.20 53.66 52.71 52.65 53.42 51.56 51.95 50.00 47.54 47.56 46.38 46.01 45.88 47.92 47.22 48.90 49.48 49.30 49.15 48.30 52.80 51.46 49.96 49.51 49.40 49.15 48.60 48.34 48.84 49.00 48.97 48.76 48.62 48.46 48.44 48.65 49.05
60.70 60.05 59.49 59.17 58.52 56.20 54.40 53.10 52.58 52.16 51.81 52.11 49.76 48.77 48.76 47.89 46.77 46.36 45.83 45.04 45.78 45.72 45.55 46.99 45.38 43.70 46.43 52.17 50.74 50.60 50.82 49.86 48.70 48.50 47.36 47.18 47.22 47.65 47.57 47.65 47.81 47.82 48.14
61.74 61.13 60.52 60.04 59.38 57.14 53.90 53.18 52.64 50.87 52.00 52.40 48.67 48.59 46.32 46.80 47.12 47.17 45.93 45.99 44.98 45.78 45.51 45.80 44.38 43.49 43.35 43.67 44.45 50.87 50.84 50.09 49.10 46.83 46.01 45.26 45.42 45.75 46.13 46.16 46.43 46.59 46.75
61.63 61.47 61.03 60.58 59.30 57.82 55.73 54.18 53.53 51.98 50.80 52.25 50.73 49.43 45.48 44.03 43.61 45.50 46.32 47.21 46.79 45.13 44.24 44.93 45.29 44.09 43.07 42.32 46.31 48.97 50.04 49.09 47.60 46.59 44.69 44.05 44.01 44.66 44.98 45.23 45.38 45.30 45.32
61.16 60.35 60.00 59.78 59.38 58.83 57.48 55.81 54.64 53.47 52.16 50.98 51.33 50.71 46.81 45.14 42.52 40.42 45.08 46.88 45.76 47.18 44.27 43.73 43.98 43.80 43.42 43.16 45.52 46.13 47.29 46.48 46.13 45.44 44.61 43.54 43.36 43.76 44.11 44.15 43.98 44.10 44.36
60.18 59.30 59.17 57.39 57.39 56.93 55.70 56.11 54.94 54.17 53.25 51.96 50.55 46.73 45.80 46.44 45.81 42.27 41.32 43.52 45.63 45.90 43.80 43.35 43.11 43.03 43.76 42.33 41.70 44.70 46.16 44.72 44.65 44.72 44.66 43.45 42.81 43.36 42.90 43.22 43.18 43.39 43.54
60.31 59.09 58.85 58.33 57.79 57.78 56.71 54.23 53.85 53.73 52.06 49.18 48.17 46.73 45.85 44.59 44.19 42.37 41.47 41.58 41.40 42.28 43.82 43.74 43.12 42.48 41.94 41.07 43.94 45.70 45.17 43.49 43.68 43.97 43.54 43.25 42.64 42.38 42.43 42.68 42.66 42.43 42.63
58.37 57.97 58.13 56.97 56.51 54.69 53.08 53.44 53.79 52.38 50.14 47.93 46.71 45.63 45.57 44.79 44.81 44.54 42.93 41.12 39.99 41.21 41.62 42.09 43.35 42.75 42.83 40.49 41.56 44.81 44.70 42.59 42.88 42.86 43.06 42.69 42.06 41.93 41.73 41.63 41.20 41.07 41.13
58.54 57.93 58.25 57.63 55.95 52.88 51.90 51.90 50.45 49.70 48.77 46.96 44.83 44.66 44.26 44.72 45.16 44.60 43.35 41.47 36.62 36.80 37.78 38.30 42.29 41.90 40.14 39.84 40.77 45.10 42.03 41.86 41.83 42.45 42.72 42.01 41.60 41.22 40.84 40.57 40.00 39.44 39.55
58.63 57.41 57.79 56.07 53.87 52.27 50.61 49.99 49.19 47.43 45.75 44.11 44.42 44.59 44.17 44.49 44.97 44.91 44.65 44.07 39.07 35.48 32.90 35.52 36.36 39.07 38.30 38.51 40.09 41.18 37.19 41.75 41.52 41.62 41.84 42.07 41.39 41.12 40.92 40.12 39.22 38.76 38.40
58.12 56.75 54.95 52.04 50.45 50.04 49.89 47.97 45.77 44.50 43.45 44.00 44.03 43.68 43.52 44.12 44.11 44.66 44.84 43.19 40.58 37.91 34.53 35.57 36.13 36.66 37.66 39.88 39.48 38.30 36.97 41.39 41.59 41.03 40.67 40.75 41.16 41.12 40.87 39.62 38.77 38.15 37.92
55.75 54.70 52.14 50.29 49.36 48.77 47.39 45.79 44.41 43.68 43.28 43.29 43.46 43.01 43.03 43.67 43.25 43.81 42.89 41.32 40.88 39.58 37.06 36.10 35.64 36.56 35.10 35.63 37.49 38.23 37.88 38.12 38.28 40.89 39.97 40.02 39.93 40.63 40.35 39.63 38.30 37.38 37.32
53.81 51.48 49.78 48.83 48.08 46.67 45.29 44.26 43.24 42.85 42.38 41.99 42.35 42.33 42.00 43.45 43.94 44.39 43.00 41.58 40.76 40.20 38.75 36.37 35.10 34.19 34.90 35.97 36.07 35.42 37.70 39.14 37.04 39.30 40.98 40.62 40.22 39.49 39.05 38.60 37.90 37.47 36.91
49.24 48.74 48.07 46.80 45.56 44.73 44.04 43.46 42.96 42.69 42.60 42.39 42.35 42.10 43.07 44.58 42.49 41.70 41.24 41.08 41.15 41.27 37.53 36.44 36.95 34.88 35.04 36.86 37.02 36.54 36.41 35.50 36.58 39.95 39.65 39.48 39.74 39.84 39.09 38.37 37.92 37.82 37.65
47.12 46.48 45.98 45.53 44.94 44.30 43.80 43.32 42.65 41.87 41.85 42.32 43.20 43.61 43.08 40.86 39.57 39.94 40.73 37.73 38.34 35.91 35.82 35.39 34.68 33.42 33.33 35.87 34.71 33.74 31.95 32.12 32.72 37.21 38.28 36.34 36.67 38.39 38.94 38.91 38.55 38.38 37.97
45.37 45.24 44.84 44.37 44.09 43.59 43.00 42.10 42.02 41.97 42.28 42.35 42.43 43.11 41.63 41.59 41.77 40.81 40.97 38.19 36.83 36.69 34.51 34.35 33.66 34.10 31.94 29.63 29.84 32.49 30.96 32.56 31.94 33.01 31.98 31.02 29.98 29.64 29.98 35.35 36.31 37.89 38.17
44.46 44.18 43.27 42.43 42.09 42.21 39.73 40.24 41.70 42.06 41.85 41.49 38.68 36.85 36.68 38.43 37.49 36.73 35.01 34.63 33.63 30.87 29.35 29.03 31.32 31.98 32.94 31.11 30.35 30.92 32.60 31.72 30.95 32.75 31.38 28.26 29.32 27.40 28.65 28.22 33.67 35.75 36.13
43.13 40.94 39.82 40.04 40.14 41.34 39.57 39.88 38.54 39.35 38.31 34.83 33.61 33.50 34.38 35.21 33.34 32.73 32.69 32.58 31.91 33.50 30.70 29.80 29.48 30.35 30.91 32.29 33.54 32.19 30.15 33.06 31.73 32.12 30.70 28.96 26.69 25.43 27.28 31.72 35.25 35.93 35.14
40.19 39.54 39.41 40.04 40.45 41.39 37.73 37.38 35.65 33.68 32.45 31.82 31.65 31.11 29.97 29.42 30.27 31.39 29.33 28.26 28.61 29.32 30.23 31.57 30.40 31.20 32.01 34.54 34.04 33.67 33.38 33.25 33.93 32.93 29.00 24.14 24.36 24.20 25.97 27.59 33.67 35.55 34.88
41.79 41.10 41.75 37.51 32.98 31.95 34.04 34.03 32.21 29.41 29.64 28.50 29.74 28.96 28.70 27.70 31.14 31.56 27.81 25.56 25.16 26.30 30.66 32.30 32.79 32.87 33.04 33.63 33.43 32.31 32.52 31.86 29.44 27.04 26.64 24.69 23.83 23.92 24.95 24.75 26.84 33.23 34.39
41.23 38.65 36.12 33.46 32.49 30.77 33.05 33.10 29.80 26.48 24.69 24.26 25.66 27.16 28.77 28.44 29.88 29.60 26.17 25.38 24.81 25.90 27.27 27.64 28.56 29.85 31.26 31.13 32.52 32.38 32.66 31.13 29.52 26.29 27.57 25.63 23.73 22.83 19.79 23.22 25.22 25.31 25.07

GFSMA_sfc_wetblb_066.txt.gz
Wetbulb
56.04 55.45 53.96 53.52 52.70 51.71 52.88 52.75 51.37 50.42 49.42 48.79 48.10 48.05 47.40 48.96 51.83 53.80 54.76 59.92 60.19 59.86 58.87 58.48 57.95 56.81 55.54 54.77 53.67 53.26 52.90 52.60 52.22 52.16 52.19 51.95 52.10 51.81 51.75 51.59 51.41 51.50 51.62
56.16 54.93 53.19 52.81 52.89 52.92 54.27 52.81 52.02 50.55 49.13 47.78 46.83 47.56 47.91 47.20 48.97 51.68 53.32 55.88 59.57 60.10 59.66 58.58 57.88 56.94 55.97 54.53 53.00 51.98 51.51 51.28 50.80 51.08 51.27 51.44 51.50 51.28 51.03 50.68 50.48 50.40 50.51
56.43 55.23 53.70 53.34 53.67 54.90 54.18 52.52 51.84 51.47 49.20 48.77 47.63 47.40 47.78 48.30 48.78 49.39 51.52 52.50 55.03 59.04 59.53 59.75 58.34 57.49 56.88 55.42 53.74 51.59 50.75 50.34 49.60 49.83 50.26 50.89 51.11 50.97 50.61 50.28 49.95 49.77 49.88
57.32 55.95 55.57 55.16 55.96 55.30 54.29 52.91 52.47 51.35 49.29 48.36 46.92 47.05 46.54 47.23 48.24 48.90 49.96 51.11 52.52 54.20 56.90 59.38 58.56 57.33 55.92 54.48 52.87 51.09 50.30 49.21 48.80 48.97 49.66 50.17 50.38 50.35 49.95 49.58 49.33 49.31 49.30
58.77 57.18 57.37 57.31 56.45 55.51 54.01 53.60 51.79 51.76 50.01 48.81 47.70 46.25 45.78 45.67 45.90 48.37 49.19 49.65 50.81 51.35 51.75 56.96 56.96 56.41 55.61 53.99 52.40 51.54 49.63 48.99 48.73 48.63 49.23 49.32 49.50 49.42 49.06 49.04 48.75 48.72 49.01
59.43 58.33 57.76 57.24 55.96 55.39 53.66 53.14 52.09 51.85 52.20 50.73 50.90 48.16 45.82 45.65 45.00 45.01 47.01 49.32 49.59 50.19 49.98 50.63 50.90 50.70 54.48 53.72 52.12 51.55 50.97 50.23 49.29 48.79 48.52 48.15 47.94 47.75 48.05 48.07 48.05 48.16 48.16
59.93 58.17 57.41 57.57 56.48 55.11 54.47 53.02 51.79 51.18 50.82 50.66 48.72 48.02 48.02 46.99 45.26 44.73 44.20 44.44 46.57 47.80 48.42 48.23 47.45 46.20 47.77 53.87 52.25 51.91 51.84 51.47 50.33 49.63 48.59 46.99 46.11 46.13 46.25 46.72 46.84 46.86 46.96
59.17 59.31 58.97 58.08 57.46 55.67 54.02 52.89 51.94 50.62 50.66 51.35 48.19 47.83 44.91 46.34 47.40 47.08 44.80 44.66 43.48 44.67 46.01 47.15 45.89 44.63 42.83 45.37 46.35 52.27 52.21 52.27 51.62 50.79 48.71 46.98 45.38 44.68 44.64 45.05 45.65 46.01 46.10
59.71 59.04 58.53 58.82 59.02 57.40 54.88 53.88 53.45 51.62 50.00 51.83 50.44 49.00 45.13 44.65 45.39 47.39 47.36 46.75 44.71 44.00 45.10 43.97 44.27 43.99 42.97 42.82 46.81 49.78 52.03 52.08 51.29 50.27 49.33 47.35 45.98 45.07 44.33 44.33 44.77 45.02 44.91
59.21 59.98 59.53 58.92 58.40 58.47 56.01 54.31 54.17 52.56 51.87 50.36 51.46 49.66 47.22 46.05 43.46 43.64 46.84 47.00 46.02 45.96 45.60 44.93 45.07 43.26 42.71 41.94 44.58 46.61 48.50 48.57 50.00 49.98 49.18 48.06 47.00 45.31 44.31 44.19 44.00 44.32 44.43
59.51 59.77 59.75 59.29 59.35 58.74 57.07 56.17 53.34 52.86 52.83 51.20 50.97 47.72 46.66 46.86 46.52 44.69 42.83 44.38 45.76 46.66 46.58 45.44 44.76 43.86 42.84 41.84 41.77 44.50 48.14 46.97 48.12 49.11 48.75 48.26 47.35 45.98 44.82 43.72 43.76 44.09 44.32
58.97 59.37 59.30 58.60 57.51 57.03 55.71 55.13 54.21 53.15 51.50 51.72 50.95 48.20 47.09 46.17 44.96 44.46 43.05 43.15 42.07 43.82 44.31 44.57 44.58 44.47 43.53 41.35 43.77 46.10 47.51 46.15 46.33 47.91 47.61 47.81 46.94 46.06 45.11 44.34 43.81 43.52 43.19
57.46 58.74 57.69 57.31 57.07 57.09 56.29 53.56 52.44 52.05 51.56 51.07 49.29 47.32 47.32 47.11 45.76 44.97 43.57 42.06 40.93 41.89 42.21 43.08 43.84 42.92 42.50 40.30 40.78 45.94 47.26 44.81 45.00 46.37 47.11 46.52 45.94 45.39 44.68 43.99 43.57 43.17 42.39
57.94 59.65 58.52 57.77 57.29 55.63 54.00 52.24 52.18 51.91 50.34 48.71 48.03 47.32 45.56 45.61 46.27 45.53 43.77 42.00 39.56 39.00 39.08 39.90 40.32 40.19 39.20 39.34 40.47 44.91 42.99 44.03 43.68 44.59 45.47 45.62 45.23 44.41 43.90 43.23 42.87 42.21 41.54
57.25 57.09 57.75 56.99 56.09 54.88 51.35 50.75 50.65 48.90 48.60 47.81 46.24 44.82 44.61 45.31 45.47 45.65 44.68 43.90 40.67 36.58 37.20 35.89 35.56 38.65 38.80 37.91 39.11 40.60 40.67 43.66 43.14 42.90 43.31 43.89 44.84 44.21 43.33 42.63 42.22 41.82 41.02
58.13 57.37 56.87 56.53 54.16 52.11 51.20 50.39 48.80 47.59 46.19 44.99 45.12 44.14 44.22 44.69 44.46 43.68 43.58 44.36 42.77 40.68 37.56 36.19 35.85 36.66 37.99 39.42 39.02 39.42 39.95 42.39 42.99 41.94 41.51 42.30 42.98 43.60 43.42 42.77 42.20 41.21 40.52
58.76 57.85 55.69 53.20 51.37 51.03 49.47 48.39 46.42 45.05 44.53 43.95 44.13 44.02 43.65 43.85 43.47 43.56 43.79 43.12 40.89 39.76 38.37 39.93 37.82 36.13 34.40 35.21 37.22 37.13 38.27 37.68 38.81 41.72 41.16 41.13 41.27 41.52 41.83 41.79 41.80 41.49 40.19
55.13 54.64 53.28 51.60 50.10 48.77 47.47 46.08 44.50 44.44 43.39 43.14 43.08 42.97 43.15 43.84 42.56 43.41 43.06 42.54 41.50 40.03 39.49 37.80 38.93 34.05 34.08 35.84 36.02 36.05 38.09 39.04 37.62 39.80 41.20 41.42 40.94 40.59 40.51 40.29 40.53 40.16 39.58
52.31 50.77 50.62 49.15 47.94 46.55 45.61 44.82 43.87 43.72 43.60 43.26 42.89 42.67 42.41 43.29 43.22 42.00 40.51 38.43 39.37 41.55 39.41 35.69 36.37 35.74 34.37 34.31 34.42 35.10 36.29 34.81 37.56 39.98 39.50 40.28 40.31 40.37 40.44 40.17 39.84 39.47 39.08
49.51 48.75 48.80 47.14 45.76 44.99 44.59 44.09 43.78 43.07 42.67 42.66 42.71 42.93 43.53 42.50 38.92 37.62 37.72 36.17 35.97 33.10 33.59 32.68 33.34 33.52 31.56 33.14 32.84 32.24 33.71 31.57 34.04 37.40 39.12 38.98 39.60 40.18 40.04 39.86 39.22 39.14 38.91
48.01 47.11 45.72 45.07 44.63 44.36 44.05 43.10 42.51 41.95 41.62 42.35 42.83 42.78 41.79 40.17 37.88 36.03 33.13 29.54 28.62 27.84 28.19 27.49 28.08 29.23 29.86 29.30 29.12 31.29 30.80 31.86 34.16 32.04 32.06 34.13 34.03 35.95 35.26 38.32 38.27 39.28 39.03
45.61 45.03 44.23 43.78 43.45 43.29 39.27 39.97 41.22 42.43 42.26 41.55 39.50 35.43 34.70 33.27 33.76 34.21 33.85 33.65 31.37 27.09 25.46 24.94 25.87 26.30 27.19 28.55 30.33 30.82 31.99 31.75 30.31 31.42 32.08 32.91 33.86 31.89 32.80 33.09 34.54 35.49 36.22
44.07 43.01 42.81 42.50 41.48 41.31 39.35 39.84 39.08 40.58 37.39 33.63 30.53 30.08 31.65 31.51 30.89 29.99 29.97 29.80 29.08 29.91 28.60 26.06 24.80 25.91 26.27 27.16 28.97 28.35 29.19 29.70 29.64 33.55 29.24 29.90 28.40 31.32 31.58 31.50 34.17 35.61 36.03
42.14 41.53 40.49 39.94 39.99 40.65 38.44 37.20 35.17 32.03 30.12 29.93 28.74 27.69 26.98 26.77 29.07 27.97 26.77 25.36 25.51 25.83 26.66 27.47 26.78 27.13 27.77 28.25 27.75 28.50 28.14 28.31 28.92 31.76 33.81 29.29 27.25 30.09 28.30 27.39 33.11 35.03 36.44
39.69 39.19 38.87 36.06 34.26 36.06 35.55 33.81 31.19 28.65 27.51 26.41 27.27 27.36 27.12 26.29 28.71 29.36 26.35 24.76 25.14 26.30 30.09 31.47 32.04 32.42 32.53 32.51 32.32 30.45 27.45 26.54 25.70 27.76 33.45 31.80 26.94 26.80 25.28 25.24 26.33 33.69 34.53
40.29 39.47 35.01 33.80 32.48 31.82 33.32 32.31 29.00 25.63 23.75 23.85 25.27 26.22 27.43 26.53 27.61 28.49 25.91 25.18 24.82 24.55 25.08 27.20 28.07 29.06 30.46 31.08 31.77 30.57 29.43 27.07 27.78 27.42 27.55 28.09 27.24 26.40 22.96 23.60 24.02 24.90 24.72

GFSMA_sfc_wetblb_069.txt.gz
Wetbulb
55.92 54.57 52.34 51.69 52.04 52.15 52.14 50.49 48.74 48.19 46.86 47.15 47.82 49.58 51.06 52.17 53.41 54.39 54.93 59.86 60.03 59.68 59.24 58.82 58.36 57.31 56.21 55.06 54.05 53.49 53.13 52.75 52.35 52.27 52.25 52.16 51.80 51.99 51.61 51.36 51.06 50.95 51.15
55.26 53.64 51.57 51.16 52.00 52.32 52.03 50.55 49.06 48.31 46.64 46.48 45.98 46.52 47.76 50.73 52.43 53.34 53.96 56.25 59.39 59.98 59.24 58.46 58.20 57.31 56.28 54.88 53.67 52.66 52.21 51.54 51.07 51.01 51.33 51.37 51.25 51.28 50.92 50.82 50.43 50.27 50.31
54.67 52.94 51.98 51.96 51.98 52.61 52.24 50.99 49.71 48.32 46.72 46.62 45.62 46.31 46.27 47.05 48.94 51.68 52.88 53.38 56.42 58.88 59.37 59.48 58.04 57.63 57.24 56.41 54.23 52.39 51.43 51.18 50.08 49.87 50.41 50.71 50.70 50.56 50.24 50.11 50.02 49.80 49.73
55.41 53.37 52.52 53.19 53.37 53.64 52.45 51.05 50.33 49.05 47.21 46.25 45.12 44.93 45.80 46.88 47.15 48.11 50.41 51.79 53.03 55.41 57.93 59.52 59.66 58.52 57.58 56.01 55.17 52.87 51.76 50.57 49.70 49.35 49.87 49.97 50.03 49.88 49.60 49.15 49.09 49.09 49.14
56.71 54.98 54.51 54.14 54.66 54.02 52.89 52.31 50.98 50.33 48.11 46.84 45.73 44.83 44.55 45.30 47.03 48.66 47.87 49.06 50.87 53.02 52.67 57.04 58.53 57.84 57.78 55.73 54.90 53.29 52.45 50.35 49.84 49.33 49.61 48.87 48.86 48.12 47.93 47.95 48.25 48.27 48.64
57.65 56.66 56.19 55.84 55.53 54.57 53.03 52.35 51.57 50.79 49.51 48.58 49.03 46.78 44.37 44.37 44.06 45.10 47.41 48.69 49.61 51.03 51.12 51.88 53.30 52.82 55.92 56.10 54.43 53.35 53.02 51.81 50.69 50.20 49.85 48.77 47.69 46.65 46.48 46.62 46.99 47.30 47.65
58.78 56.93 56.85 56.25 55.32 54.51 53.62 53.07 51.37 50.45 50.26 49.90 46.89 45.63 45.33 45.41 44.52 43.50 43.57 46.25 48.11 49.47 49.41 49.52 49.11 48.23 49.89 55.82 54.19 53.47 53.64 53.34 52.40 51.61 50.74 49.68 47.84 46.35 45.49 45.17 45.55 45.95 46.60
57.63 57.47 56.63 56.63 55.32 54.35 53.79 52.52 51.54 50.24 50.39 50.35 48.34 45.79 42.85 44.87 46.41 45.30 44.69 43.42 45.90 46.62 47.93 48.58 47.73 46.89 45.06 46.49 48.77 53.66 54.01 53.79 53.61 52.83 51.61 50.26 48.82 47.14 45.98 45.22 45.00 45.22 45.58
57.54 58.00 57.90 57.64 56.53 55.18 54.10 52.96 52.43 51.91 50.83 51.70 50.08 49.08 45.34 43.95 45.63 47.52 46.56 45.74 45.16 44.62 45.09 45.92 46.69 46.98 44.73 42.76 47.39 50.50 52.82 53.07 53.50 53.18 52.53 50.99 49.49 48.12 47.16 45.81 45.20 45.05 45.03
57.31 57.97 57.82 57.95 57.79 57.36 56.05 54.85 54.53 52.17 51.77 50.31 50.75 50.16 49.18 47.80 44.54 44.02 47.05 47.26 47.50 46.08 44.50 43.15 44.52 45.42 45.07 43.81 45.14 47.28 48.53 50.08 51.78 52.45 52.43 51.92 50.30 49.08 48.06 46.90 45.99 45.23 45.09
56.45 58.02 58.32 57.27 57.35 57.53 57.17 55.36 52.87 52.61 52.77 50.64 51.26 48.15 47.34 46.74 47.07 45.80 44.19 45.99 46.73 47.40 47.05 45.58 45.39 44.98 44.60 43.68 42.80 43.33 47.77 47.92 49.37 51.68 51.92 51.88 51.31 49.92 48.82 47.65 46.57 46.04 45.55
55.54 57.19 58.10 58.18 57.75 57.15 56.17 55.90 54.98 52.66 51.95 50.10 50.60 48.04 47.70 46.67 46.13 45.59 44.31 44.41 44.32 44.64 44.94 45.22 45.07 45.18 45.10 44.09 44.65 46.22 46.20 46.66 47.74 49.84 51.39 51.16 50.93 50.36 49.69 48.64 47.44 46.68 45.93
53.99 56.35 58.16 58.14 57.17 57.27 56.15 54.13 52.97 52.94 51.10 50.70 50.24 49.47 49.04 48.59 48.09 47.03 45.47 43.25 41.49 42.01 41.99 43.13 43.53 42.20 43.78 43.13 42.55 45.53 46.51 45.69 46.51 48.06 49.45 50.39 50.28 49.68 49.23 48.71 47.86 47.35 46.38
55.16 56.75 57.61 58.53 57.41 56.17 55.83 54.22 54.02 52.36 51.56 51.29 48.69 48.78 49.03 48.55 47.14 46.04 44.34 40.90 40.66 40.53 39.51 40.79 39.21 40.27 41.01 39.82 41.06 43.85 42.18 44.25 45.14 45.62 47.07 48.28 48.77 48.86 48.78 47.85 47.08 46.59 45.58
55.55 55.58 56.43 56.77 56.83 56.59 56.57 55.13 53.92 51.27 50.45 49.31 49.20 49.25 45.64 45.94 46.04 46.08 45.10 44.00 42.15 37.47 36.96 39.81 36.77 38.25 38.37 38.26 39.15 37.97 39.17 42.94 44.51 44.22 44.34 45.67 46.75 47.65 47.56 47.29 46.40 45.24 44.36
57.43 57.37 56.87 56.63 56.05 56.09 53.40 52.66 51.28 49.22 48.82 46.94 46.51 45.70 44.94 45.17 45.37 45.14 44.54 43.72 43.00 41.02 38.00 39.56 36.92 36.91 37.59 38.96 39.30 38.64 37.79 43.28 43.36 43.42 43.10 43.29 44.37 45.63 45.80 45.81 45.34 43.95 43.33
57.78 57.67 57.68 56.65 55.79 53.82 53.20 51.17 48.88 47.25 46.45 45.33 45.34 45.19 44.29 44.46 43.89 43.49 43.57 43.44 42.55 41.30 38.75 39.02 37.31 36.82 34.86 35.23 36.83 36.54 37.23 36.88 38.98 42.13 42.39 42.51 42.35 42.63 43.24 43.66 43.38 43.33 42.77
58.39 57.86 57.26 55.63 52.62 51.51 50.43 49.31 46.47 46.47 45.38 44.52 44.05 43.87 43.50 44.10 42.97 43.07 43.24 42.77 41.96 41.72 39.17 35.16 35.92 34.05 33.70 34.80 34.70 34.25 37.82 39.13 36.49 39.66 40.70 41.65 42.17 41.54 41.28 41.52 41.52 41.74 40.71
56.93 55.69 54.95 52.60 50.97 50.23 48.24 46.85 47.03 45.45 44.85 44.28 43.64 43.47 43.47 42.64 42.46 43.31 41.69 40.07 39.19 39.35 34.94 32.27 31.54 33.37 32.85 33.25 33.33 34.17 34.39 35.00 36.74 40.47 40.31 40.15 40.76 41.55 41.37 41.08 40.91 40.67 40.38
53.88 51.89 52.18 51.31 49.33 47.48 46.98 45.78 45.53 44.35 43.77 43.62 43.34 43.10 42.99 43.33 41.73 39.80 38.57 34.07 31.29 28.83 28.64 27.44 27.20 28.23 29.29 30.69 30.15 29.26 30.33 31.48 32.10 36.11 37.97 37.76 38.81 39.89 41.09 40.91 40.38 40.42 39.99
50.79 50.34 48.57 47.19 45.99 45.43 45.06 44.47 44.09 43.16 42.57 42.20 42.64 43.01 40.05 38.41 36.98 35.98 30.97 27.99 26.91 25.86 25.33 24.32 23.81 24.68 23.80 24.74 24.49 26.91 28.68 29.30 30.36 31.77 33.05 33.88 34.76 35.26 36.71 39.65 40.00 39.77 39.24
47.85 46.96 46.42 45.28 44.63 44.43 39.80 40.50 42.01 42.08 42.32 42.27 39.32 35.45 34.53 34.43 34.08 33.74 32.68 32.47 29.84 25.01 22.80 22.32 22.17 21.60 21.58 23.29 25.00 25.51 25.63 24.73 22.94 28.37 28.12 29.39 31.63 33.37 32.99 32.63 36.58 37.92 37.54
46.02 45.14 44.99 43.62 42.58 41.73 39.03 39.77 39.80 42.07 39.17 35.87 33.36 32.58 31.03 30.86 29.96 28.20 29.20 28.38 27.67 28.61 26.72 23.81 21.93 22.44 23.24 24.39 25.30 25.00 25.14 25.86 25.23 27.60 27.44 25.83 28.91 30.01 33.23 33.97 36.31 36.25 36.40
44.02 43.12 42.56 43.08 42.16 41.16 38.52 37.66 35.59 34.09 31.85 30.67 29.87 27.65 26.61 26.98 28.11 27.25 25.93 25.00 25.63 26.00 26.60 27.08 24.98 25.21 25.85 28.48 28.87 28.61 28.62 28.81 28.93 29.27 30.04 25.49 28.71 28.70 30.76 32.42 35.20 37.10 35.75
43.75 42.61 42.50 41.15 39.69 38.82 35.98 34.04 32.39 30.89 27.91 26.38 27.15 26.85 26.50 25.63 28.35 28.85 26.70 25.25 25.17 26.30 28.49 28.86 29.81 30.28 30.63 31.17 30.87 29.02 27.75 27.00 24.32 25.58 26.99 27.24 28.01 29.46 27.63 29.26 28.54 34.39 35.60
41.43 39.41 36.01 36.35 35.83 34.52 34.03 33.00 30.04 26.27 24.10 24.42 25.64 25.81 27.42 26.24 27.34 28.50 25.97 24.83 24.06 23.37 23.20 24.21 23.68 24.92 27.01 27.72 29.09 27.98 28.50 26.48 25.83 24.78 27.02 26.20 28.10 26.47 25.72 27.98 27.05 27.78 29.83

GFSMA_sfc_wetblb_072.txt.gz
Wetbulb
54.93 53.79 51.57 51.77 51.51 50.97 49.83 48.88 49.50 50.20 50.01 50.53 51.34 52.72 52.72 52.95 53.82 55.02 55.85 59.84 60.20 60.06 59.98 59.73 58.27 57.40 56.42 55.31 55.02 54.39 53.87 53.60 53.31 53.18 52.90 52.56 52.28 52.05 51.67 51.38 51.16 50.98 50.99
54.32 52.89 51.59 51.49 51.53 51.42 50.41 49.44 48.12 47.99 47.25 48.13 49.06 51.35 51.94 52.69 53.58 54.49 55.14 57.42 59.41 60.09 59.96 59.24 58.73 57.67 56.76 55.31 54.41 53.78 53.29 52.55 52.18 52.30 52.18 51.99 51.96 51.28 50.73 50.37 50.11 50.07 49.93
54.09 52.61 51.71 51.52 52.20 52.24 51.11 49.64 47.80 45.89 45.08 46.13 46.44 48.04 49.89 52.10 53.11 53.88 54.33 55.34 57.32 58.82 59.58 60.03 58.73 57.83 57.19 56.28 54.50 53.44 52.82 52.14 51.36 51.35 51.41 51.09 51.21 50.52 49.99 49.40 49.10 49.10 49.25
54.05 52.69 52.25 52.27 53.03 53.29 51.22 50.17 48.22 46.34 45.76 44.81 44.04 45.29 46.85 48.93 50.96 52.44 53.27 54.04 55.22 56.23 58.52 59.48 59.54 58.59 58.08 57.80 56.40 54.57 53.17 52.29 51.14 50.85 51.14 50.72 50.55 49.90 48.95 48.28 48.36 48.26 48.75
54.61 53.27 53.11 53.29 53.73 53.42 52.03 51.47 50.25 49.24 47.13 46.15 45.14 44.82 45.31 46.06 47.30 48.71 50.27 51.94 53.26 54.73 55.08 58.36 59.15 59.13 59.20 57.79 56.21 55.49 54.08 52.54 51.47 50.93 51.18 50.29 49.96 48.69 47.55 47.05 47.00 47.33 47.49
55.29 54.29 54.28 54.42 54.49 53.57 52.62 52.05 50.86 50.66 49.56 48.07 48.40 46.59 45.21 45.47 45.54 46.48 47.57 49.01 50.29 52.58 53.49 53.13 55.95 55.65 57.17 58.04 56.61 55.32 54.89 53.61 52.13 51.76 51.60 50.46 49.64 48.28 47.04 46.22 45.84 45.77 46.18
56.11 55.52 55.47 55.69 55.22 53.92 53.15 52.18 51.53 51.01 50.65 49.66 47.66 46.62 46.10 45.77 44.92 44.35 44.95 48.01 48.22 50.28 51.48 51.86 52.11 51.90 53.35 57.21 57.00 55.53 54.91 54.91 53.96 53.17 52.16 51.54 50.39 48.77 47.49 46.47 45.66 45.24 45.61
57.56 56.96 56.66 56.67 56.11 54.63 53.00 52.46 51.91 50.14 50.41 49.72 47.67 45.62 44.23 45.62 46.20 46.03 45.46 45.41 47.30 48.81 49.88 51.24 50.59 50.09 49.31 50.86 52.60 55.72 55.04 55.11 55.01 54.42 53.65 52.46 51.62 49.99 48.59 47.49 46.80 46.20 45.99
57.59 58.22 57.14 56.47 55.68 54.28 53.64 52.51 51.84 51.56 50.26 50.87 50.67 49.56 45.50 43.34 45.75 47.31 46.84 45.75 45.82 46.54 47.96 49.64 49.24 48.74 48.54 47.51 49.65 51.98 53.62 54.12 55.38 54.65 54.29 53.73 52.75 51.40 49.93 48.72 47.76 47.16 46.74
56.68 57.15 56.75 56.63 56.13 55.28 54.03 53.70 53.04 52.81 52.63 50.00 50.48 50.55 49.95 48.84 46.59 45.33 46.62 46.91 46.46 45.37 45.13 45.28 46.38 47.43 48.01 47.13 46.77 47.64 48.24 49.40 52.06 53.97 53.83 53.54 53.62 52.66 51.31 50.14 48.89 47.86 47.39
55.00 55.54 56.21 56.45 56.77 56.79 55.78 55.06 53.81 52.84 53.39 51.86 51.43 48.42 48.33 48.42 47.96 47.23 46.16 47.50 47.50 48.11 47.82 47.00 46.56 45.77 45.76 45.32 45.09 45.47 47.36 47.45 48.44 51.02 53.04 53.39 53.15 53.49 52.35 51.39 50.28 49.05 48.34
52.93 54.31 55.48 56.04 56.57 56.37 56.13 56.27 56.01 54.14 53.71 53.26 51.24 48.49 48.11 47.84 46.20 46.60 45.57 45.62 45.86 46.51 45.84 46.56 46.05 45.77 45.47 45.06 45.69 46.70 46.38 46.08 47.11 49.11 50.96 52.34 52.88 53.04 52.86 52.34 51.56 50.65 49.70
51.46 52.63 54.40 55.40 55.87 56.83 56.73 56.23 55.38 54.08 52.17 51.33 50.95 50.29 49.88 50.60 49.95 48.97 47.55 45.82 44.79 44.02 42.93 44.47 44.65 44.26 44.09 44.38 44.51 46.16 46.94 45.57 45.95 47.31 48.35 50.12 51.50 52.51 52.04 51.64 51.57 51.14 50.46
51.38 53.22 54.27 55.22 54.94 55.44 54.35 54.09 52.84 53.82 53.79 53.57 51.88 51.59 51.04 50.74 49.77 48.54 47.37 44.85 41.04 40.69 40.99 42.48 42.04 42.42 42.98 42.42 42.08 44.40 44.23 43.80 44.40 45.53 46.81 47.93 49.44 50.22 50.33 50.61 50.11 49.81 49.44
53.36 53.09 53.60 54.60 55.58 55.77 55.47 54.93 55.15 53.62 52.17 51.84 51.54 50.49 50.09 49.89 48.42 47.58 46.13 45.62 44.43 39.83 39.32 41.16 39.71 41.20 41.61 41.34 41.01 41.02 40.16 41.54 42.92 43.71 44.52 45.72 47.26 48.30 48.60 49.17 49.13 49.39 49.06
53.83 54.03 54.43 54.26 54.81 54.91 55.61 55.91 56.53 54.65 53.08 50.32 49.92 49.02 47.56 46.96 46.53 46.34 45.60 45.07 43.78 41.72 39.23 40.44 39.13 39.76 40.75 39.98 40.73 40.75 39.18 42.43 42.29 42.49 42.80 43.55 44.54 45.64 46.42 46.88 47.17 47.51 47.56
54.84 55.62 56.05 56.31 56.39 56.53 55.29 53.74 53.42 50.92 50.65 48.32 47.45 47.32 46.19 45.61 44.71 44.63 44.56 43.88 42.75 42.53 39.82 40.97 40.60 39.28 38.39 37.61 38.24 38.36 38.86 38.09 38.39 40.46 41.43 41.92 42.21 42.63 43.26 43.76 44.19 45.05 45.94
55.93 56.72 56.82 56.59 56.33 55.49 52.49 51.91 49.94 49.35 49.49 47.56 46.62 45.90 44.85 44.97 43.96 44.08 43.79 42.73 42.39 41.92 40.30 38.14 38.55 37.26 36.07 36.86 36.50 35.47 36.54 38.13 37.81 39.21 40.31 40.54 40.83 40.99 41.29 41.66 42.04 42.62 43.21
56.28 56.96 56.99 55.95 55.23 53.26 51.71 51.03 50.39 48.95 48.37 48.66 46.06 45.16 44.18 44.00 42.89 43.12 43.34 41.67 39.88 39.65 37.59 35.86 33.73 33.90 33.81 33.97 33.16 33.29 33.80 34.24 34.99 36.77 37.41 37.80 38.09 38.59 39.31 40.04 41.16 41.89 41.90
56.87 56.21 54.91 53.95 52.46 50.50 49.94 48.66 48.24 47.68 46.17 45.85 45.19 44.58 44.01 43.18 42.68 41.70 39.70 37.61 33.81 31.54 30.29 28.61 28.11 28.61 29.67 30.27 29.66 28.06 27.11 30.13 29.91 32.45 33.70 34.69 36.53 37.19 37.81 38.20 38.68 40.13 40.89
56.82 56.15 53.77 52.33 51.95 49.92 48.80 47.70 46.55 44.85 44.24 43.88 44.39 43.00 41.69 40.75 39.54 38.73 34.81 31.06 30.65 28.85 27.47 25.42 24.59 25.19 23.63 24.06 24.33 26.73 26.87 27.61 28.72 30.15 30.05 31.51 32.88 32.15 32.49 34.57 35.66 37.07 38.70
55.03 52.22 50.11 48.80 46.91 46.15 41.10 42.25 43.71 44.05 43.62 43.10 37.59 35.72 35.44 35.13 34.11 33.96 32.66 31.52 29.67 25.60 23.79 23.04 23.35 23.04 23.64 24.42 26.16 25.57 25.45 24.54 23.73 29.46 28.84 28.54 31.10 29.90 31.01 32.07 34.06 35.71 36.97
49.91 48.30 46.53 46.09 45.50 44.70 40.11 40.44 40.42 43.24 42.12 36.92 33.74 32.07 31.81 32.16 31.31 29.92 29.48 28.93 28.90 29.06 26.75 25.56 23.86 24.33 24.45 25.96 26.40 25.55 26.24 25.90 25.69 28.71 29.59 26.88 30.09 28.67 31.23 32.35 34.00 35.33 37.00
47.74 46.80 45.21 44.79 44.23 41.55 38.72 38.87 37.80 36.37 33.82 32.99 32.61 30.92 30.11 28.74 28.51 27.81 25.98 26.16 26.46 27.13 27.82 27.78 26.70 26.50 26.61 27.28 28.15 28.48 27.61 27.67 28.47 29.88 30.45 25.23 29.38 28.66 31.17 32.54 33.95 35.37 36.55
45.01 43.71 43.42 43.30 41.08 38.57 36.72 35.27 34.22 31.89 29.92 28.75 28.77 28.84 28.27 27.64 29.21 29.59 26.56 25.67 25.60 26.39 27.22 27.55 27.86 27.52 27.81 28.39 28.97 27.97 25.63 24.68 23.91 26.47 29.16 27.28 28.45 28.14 30.52 30.85 32.09 33.22 34.70
42.33 40.77 39.57 40.24 37.69 34.96 34.72 34.13 32.25 29.53 27.01 26.75 27.02 27.41 27.62 26.62 28.59 28.80 26.35 25.07 23.19 23.44 23.54 23.19 23.55 24.06 25.39 26.36 26.67 25.57 25.30 23.16 23.18 23.33 28.55 26.73 28.05 28.55 26.91 29.21 28.90 30.21 31.83

GFSMA_sfc_wetblb_075.txt.gz
Wetbulb
56.03 55.80 55.71 56.09 56.75 58.82 59.79 58.44 58.61 58.53 58.10 58.28 58.69 58.67 58.84 59.49 59.98 59.95 60.29 60.39 60.89 60.56 60.00 59.76 58.93 57.82 56.95 56.02 55.43 55.09 54.80 54.62 54.28 54.03 53.33 53.16 52.77 52.59 52.25 51.79 51.61 51.42 51.21
54.59 53.95 54.23 54.39 55.32 56.87 57.57 57.46 57.98 58.23 57.67 57.88 57.69 58.33 58.37 59.15 59.53 59.86 60.18 60.13 59.81 60.51 60.62 59.44 58.65 58.03 56.86 56.18 55.18 54.62 54.12 53.52 53.19 53.19 52.61 52.60 52.16 51.60 51.20 50.78 50.58 50.29 50.18
55.44 55.54 55.36 55.22 55.35 54.99 54.56 54.93 56.56 57.23 56.74 56.61 56.81 57.55 58.14 58.63 59.00 59.46 59.75 59.85 59.59 59.05 59.74 60.37 59.13 58.37 57.32 56.27 55.21 54.44 53.90 52.81 52.36 52.62 52.32 51.92 51.70 50.99 50.22 49.58 49.30 48.97 49.22
56.47 56.06 56.83 55.99 56.22 55.37 54.14 52.93 53.27 54.15 54.42 54.86 55.32 56.15 56.90 57.75 58.56 58.95 59.02 59.52 59.63 59.10 59.05 59.96 59.98 58.90 58.18 57.60 56.31 55.09 54.01 53.17 52.08 52.20 51.99 51.52 51.55 50.76 49.60 48.69 48.33 47.87 48.19
57.28 57.34 57.23 57.41 56.90 55.77 55.26 53.75 52.82 53.20 52.22 52.61 52.93 53.12 54.08 55.22 56.63 57.29 58.09 58.76 59.34 59.28 59.13 58.78 59.18 59.12 59.48 58.95 58.27 56.97 55.33 54.26 52.92 52.30 52.45 51.55 51.48 50.28 49.14 48.29 47.78 47.53 47.08
56.10 56.71 55.63 55.37 56.49 56.03 55.63 55.11 54.50 55.05 53.58 52.34 50.23 50.86 52.49 53.33 54.15 54.17 55.63 56.85 58.32 59.13 59.41 59.14 59.30 58.40 58.14 59.85 58.10 57.04 56.33 55.83 53.98 53.23 53.01 52.54 51.83 50.62 49.55 48.63 47.94 47.28 46.76
56.45 55.18 55.21 55.83 57.57 57.30 56.73 56.69 55.99 55.54 53.91 53.63 52.10 51.95 51.82 51.70 51.52 52.06 52.72 53.19 53.30 55.58 57.95 57.10 57.49 58.49 58.66 58.78 58.81 57.14 56.55 56.11 55.63 54.32 53.77 53.38 52.34 51.38 50.22 49.20 48.37 47.62 47.34
55.68 56.14 57.57 58.18 57.51 58.11 57.06 56.57 56.19 55.38 55.84 53.91 53.18 53.26 51.75 52.86 52.28 52.11 51.53 51.43 50.63 53.22 51.57 53.35 54.61 55.19 56.75 57.86 56.48 57.54 56.84 56.09 56.26 55.96 55.34 54.28 53.64 52.52 51.45 50.34 49.32 48.59 48.09
56.47 57.11 58.16 58.80 59.10 59.02 58.05 57.04 56.85 56.60 54.60 54.56 55.08 55.26 49.34 49.23 51.25 51.03 51.04 48.42 48.59 50.70 53.28 52.72 52.54 53.58 54.28 51.46 53.00 54.57 54.60 54.61 55.67 55.79 55.88 56.24 55.01 54.15 53.09 51.87 50.82 49.74 48.97
57.76 58.64 58.91 58.85 59.71 59.54 59.20 58.61 57.65 57.59 57.40 55.61 55.25 53.40 54.18 55.16 52.10 49.98 52.84 52.90 50.46 49.16 48.73 48.92 49.43 51.78 54.38 50.75 50.68 50.36 49.41 49.31 51.06 53.55 54.48 54.77 54.91 54.89 54.52 53.69 52.40 51.49 50.46
57.06 58.27 58.84 60.18 59.90 59.79 59.96 59.58 57.84 57.35 58.36 57.02 53.65 51.57 51.52 52.19 52.85 52.36 50.99 54.07 52.14 51.99 51.51 51.66 47.86 49.24 50.70 48.79 48.54 48.41 48.27 47.89 48.50 49.66 51.41 52.32 53.20 54.08 54.34 54.51 54.01 53.01 52.23
57.05 58.32 59.17 59.87 60.80 61.06 60.74 60.60 59.74 58.59 58.25 55.60 56.88 56.77 56.02 54.65 53.38 52.09 51.25 51.76 50.10 52.73 52.13 52.38 50.93 50.09 48.60 46.88 47.29 47.39 46.58 46.29 46.99 48.10 49.46 50.57 51.41 52.30 53.13 53.41 53.75 54.00 53.40
56.16 57.47 58.53 59.19 59.66 60.33 60.61 60.76 60.55 58.98 58.46 58.21 58.11 57.35 56.30 56.49 54.65 51.39 49.23 48.46 49.16 48.96 49.79 47.01 47.49 48.50 48.75 50.22 49.15 47.64 47.43 45.64 46.13 47.25 47.96 48.64 49.55 50.24 50.77 51.71 52.44 52.68 52.69
57.04 58.05 58.36 58.84 59.33 59.82 60.26 60.59 60.58 60.51 60.15 59.41 58.67 57.11 55.75 53.27 53.91 51.91 50.23 48.44 44.22 45.24 47.03 47.31 49.25 49.75 48.29 47.73 46.35 44.97 48.57 43.83 43.69 44.38 45.16 45.88 46.85 47.79 49.25 49.89 50.48 50.56 50.36
57.38 57.42 58.18 58.51 59.35 59.64 60.16 60.39 60.05 59.70 59.67 58.48 58.45 58.21 54.43 53.08 51.81 50.97 50.08 49.59 49.02 45.78 47.68 48.76 48.57 48.46 49.38 50.26 46.49 48.89 48.91 44.35 42.67 42.85 43.30 44.18 45.02 45.69 46.14 46.95 47.60 48.64 49.06
57.61 57.57 58.00 58.36 58.55 59.43 60.10 60.00 59.50 59.66 57.69 55.34 55.34 53.92 52.96 49.86 49.67 49.25 48.47 49.04 49.28 48.55 46.33 49.97 47.62 47.08 46.60 46.73 45.64 48.28 46.79 42.62 42.51 41.13 41.42 41.99 42.92 43.44 43.67 44.21 44.49 44.93 45.54
57.53 57.18 57.14 57.48 57.91 58.55 58.59 58.18 58.35 58.17 56.82 56.18 53.67 54.10 51.36 49.03 48.29 48.16 47.80 47.33 47.57 46.33 44.74 45.71 45.02 45.83 45.30 47.30 46.73 46.36 44.58 43.28 43.28 40.44 40.16 40.51 41.00 41.25 41.53 41.91 42.24 42.36 42.78
57.84 57.97 57.93 57.94 57.91 56.19 56.60 56.70 56.28 55.52 54.48 52.22 50.77 50.78 50.02 48.32 47.84 47.44 46.70 46.31 47.39 45.50 43.04 41.60 41.41 45.52 41.40 45.11 43.21 41.91 40.05 38.72 38.25 37.89 37.75 37.86 38.04 38.17 38.07 38.03 38.75 39.36 39.89
57.17 57.61 58.18 57.42 57.96 58.97 57.74 57.43 55.08 52.97 52.29 52.50 51.44 50.27 48.79 47.38 45.39 46.05 45.84 45.12 44.44 43.12 41.14 39.67 37.94 42.88 40.46 42.17 40.46 37.39 36.44 36.08 36.47 36.07 36.32 36.38 36.58 35.80 36.56 36.94 37.15 36.66 36.61
57.02 57.44 57.33 57.14 58.04 58.30 56.60 54.81 53.24 52.05 51.39 50.80 49.11 49.00 47.36 47.22 45.15 45.85 43.95 41.88 38.99 35.96 36.68 33.72 33.87 37.11 38.13 38.53 35.55 33.70 33.42 35.31 34.22 35.01 35.28 34.75 34.93 35.31 35.60 35.31 35.25 35.65 35.73
57.32 57.73 57.77 55.70 56.42 55.36 53.48 52.59 52.87 51.34 49.24 46.75 46.12 45.71 45.25 44.83 43.06 42.79 40.30 38.88 35.60 33.18 32.93 30.39 32.45 34.16 34.39 32.62 31.93 33.79 31.60 32.71 33.68 35.35 34.43 35.28 35.80 36.47 37.43 36.57 36.32 36.06 35.24
57.29 58.00 58.04 56.43 53.80 53.17 45.26 44.72 48.52 48.12 46.19 44.73 40.71 39.15 38.95 39.28 36.26 35.54 34.68 34.16 34.75 31.64 30.17 31.35 32.04 31.87 31.74 31.75 32.66 31.50 30.81 30.21 29.36 37.15 33.43 32.85 35.82 35.29 36.49 37.40 35.71 35.07 34.83
57.69 56.45 56.39 54.69 52.50 50.89 41.62 42.51 42.54 46.16 44.32 40.84 37.42 35.63 34.00 33.57 32.90 32.74 31.08 30.58 30.10 29.25 29.30 32.68 31.43 30.94 30.29 31.71 31.13 30.55 30.83 30.49 30.25 33.18 32.48 30.96 34.74 33.75 36.35 36.43 35.74 35.69 35.65
55.92 52.99 50.56 49.96 48.41 45.75 39.95 40.30 39.48 41.58 38.00 36.36 35.08 34.16 32.62 31.20 30.67 29.64 28.28 27.92 28.66 29.15 30.25 30.64 31.75 31.18 31.20 31.60 31.08 30.73 30.74 30.85 31.78 32.79 33.82 28.68 33.41 32.99 35.78 36.91 35.88 36.05 35.19
48.68 47.34 46.42 45.01 42.96 40.21 38.04 37.17 36.87 35.37 33.33 31.87 31.96 31.70 30.51 29.49 30.08 30.26 28.14 27.37 27.48 28.85 28.25 27.70 26.87 26.22 26.61 27.19 28.32 30.16 28.11 26.92 26.56 28.73 31.64 30.37 32.27 32.24 34.06 34.65 37.01 35.09 33.96
44.65 43.22 41.66 41.66 38.74 37.28 35.97 35.81 35.17 32.18 30.05 28.50 28.94 29.11 29.70 29.61 29.75 29.00 28.49 27.95 27.15 27.64 27.11 26.88 27.81 27.04 26.37 27.42 25.36 28.14 27.66 25.10 25.38 25.08 32.58 29.35 29.81 30.09 29.12 34.59 35.53 36.45 36.70

GFSMA_sfc_wetblb_078.txt.gz
Wetbulb
59.94 61.47 64.02 64.47 64.01 64.33 63.70 62.80 62.78 61.59 60.90 60.70 60.97 60.98 61.03 61.62 62.06 62.04 62.00 60.92 61.01 61.11 60.63 60.26 58.96 57.92 57.35 56.73 56.18 55.96 55.53 55.39 55.07 54.35 54.06 53.63 53.25 52.77 52.46 52.04 51.85 51.51 51.80
58.76 59.21 59.62 60.18 62.87 64.11 63.82 62.87 62.15 60.37 59.59 59.92 60.06 60.62 60.83 61.60 62.10 62.22 62.04 61.65 60.23 60.85 60.75 60.05 59.26 58.36 57.62 56.57 55.64 55.25 55.03 54.81 54.53 53.91 53.54 53.18 52.54 51.95 51.39 50.98 50.61 50.26 50.74
59.20 58.14 57.82 57.94 59.16 61.99 62.37 62.17 61.48 60.53 58.86 59.33 59.33 60.06 60.53 60.93 61.33 61.72 61.74 61.45 60.75 59.54 60.27 60.46 59.42 58.56 57.57 56.93 55.84 55.10 54.42 53.79 53.95 53.75 53.23 53.11 52.29 51.57 50.68 49.93 49.54 49.15 49.57
58.37 57.44 56.80 56.70 57.92 58.82 59.67 60.02 60.31 58.57 58.69 58.50 58.40 59.08 59.75 60.48 60.80 61.15 61.57 61.59 61.27 60.50 59.52 60.25 60.09 59.46 58.05 57.25 56.39 55.77 55.17 53.97 53.44 53.48 53.36 52.67 52.39 51.61 50.61 49.65 49.07 48.37 48.50
58.16 57.84 57.74 58.39 58.71 57.51 56.93 57.81 58.36 58.11 57.14 57.40 57.57 58.58 59.08 59.35 60.23 60.05 60.28 60.76 61.30 60.79 60.37 59.46 59.76 59.31 59.60 58.73 57.70 56.91 56.09 55.21 53.84 53.55 53.72 52.93 52.86 52.12 50.94 49.84 49.24 48.94 48.64
60.10 59.98 58.81 59.14 58.78 57.26 56.82 56.86 56.79 57.13 57.08 56.67 55.00 55.88 57.27 58.27 58.89 59.29 59.23 59.22 59.68 59.99 60.68 60.44 59.92 59.02 58.59 59.84 59.15 59.21 58.10 56.73 55.50 54.40 54.06 53.90 53.30 52.60 51.38 50.53 49.96 49.55 49.02
59.45 58.89 59.44 59.45 59.25 57.87 58.34 57.89 57.56 57.14 56.49 56.53 54.76 55.08 55.33 56.42 56.77 56.53 57.13 57.84 58.59 59.27 60.28 60.27 59.88 59.38 57.79 58.78 59.68 58.89 58.21 57.79 57.41 56.11 55.03 54.70 54.00 53.26 52.28 51.41 50.64 49.71 49.25
57.11 57.82 59.06 59.39 59.99 58.91 57.33 57.68 58.63 57.86 58.52 56.83 55.15 56.62 53.57 54.55 55.00 55.46 56.01 55.87 56.34 55.23 55.75 58.85 59.02 59.11 58.48 59.03 59.29 59.29 58.54 57.85 57.37 57.38 56.27 55.41 54.74 54.31 53.49 52.84 52.05 51.13 50.20
57.67 57.42 57.93 59.16 58.35 59.48 58.51 58.69 58.26 57.53 56.69 57.21 57.39 56.86 52.42 51.76 53.91 56.14 55.27 52.72 54.78 53.59 52.76 56.12 57.24 56.98 56.95 56.48 56.53 57.68 56.02 55.89 57.04 56.93 56.89 57.49 56.82 55.71 55.03 54.38 53.75 52.54 51.73
57.01 58.40 58.69 60.15 59.81 60.16 60.32 60.30 59.76 59.59 59.88 57.20 56.82 57.14 58.78 56.91 52.37 54.12 57.45 53.54 52.17 50.38 50.90 53.96 53.78 55.89 55.34 54.70 55.97 54.28 51.73 51.14 52.52 54.43 54.94 55.16 55.23 55.31 55.34 55.45 55.46 54.50 53.64
58.39 57.42 58.55 58.89 59.81 61.16 61.02 61.61 60.97 60.27 60.30 59.49 58.95 58.64 57.47 54.03 53.64 52.55 53.92 56.19 56.54 56.68 56.46 52.71 55.84 55.66 54.04 54.59 55.82 55.23 49.95 48.71 48.90 50.44 51.68 52.21 52.92 53.46 53.65 54.19 54.73 54.87 55.26
55.91 57.49 57.74 59.89 60.31 61.21 61.32 62.02 62.45 61.82 61.26 60.78 61.19 59.61 57.77 54.95 56.39 56.30 55.47 56.45 55.16 53.82 56.48 55.32 57.96 56.62 54.46 52.46 52.07 49.12 48.49 47.43 47.68 48.70 49.72 50.20 50.30 50.50 51.04 51.66 52.51 53.70 54.24
55.93 56.49 56.95 58.01 59.87 61.22 62.36 62.51 62.41 62.61 61.76 61.03 61.11 60.27 59.84 59.15 60.13 59.06 57.01 51.59 51.17 52.73 51.99 55.23 57.87 56.57 53.39 50.45 50.48 48.98 47.82 45.97 46.64 46.99 47.12 47.49 48.03 48.53 49.25 49.90 50.55 51.09 51.67
57.54 56.99 57.61 58.28 59.92 61.00 61.88 61.89 62.69 62.46 62.60 62.14 61.54 61.46 60.68 61.09 60.81 59.56 54.79 50.43 47.58 49.93 49.98 53.54 54.20 54.18 53.32 54.22 51.38 46.61 50.29 44.98 43.86 44.26 44.71 45.28 45.93 46.54 46.93 47.67 48.31 48.90 49.58
60.01 59.20 61.10 60.84 61.82 61.95 61.59 61.71 61.00 61.28 61.73 61.91 62.07 62.26 61.37 60.01 60.86 59.89 55.53 52.92 49.84 45.03 47.05 51.64 52.96 53.98 52.93 51.93 49.60 51.73 52.48 43.80 43.11 43.27 43.03 43.22 43.84 44.09 44.53 44.95 45.32 45.65 46.12
61.15 61.42 61.38 61.79 61.39 61.02 61.09 60.92 60.91 61.23 60.85 62.24 61.70 59.89 59.79 59.52 57.97 54.76 54.39 54.34 52.08 50.32 48.26 54.46 52.61 52.74 53.28 51.81 47.68 50.43 51.55 43.79 43.99 41.62 41.19 41.13 40.94 40.80 41.40 41.45 41.37 41.73 42.19
60.64 60.18 60.33 60.15 59.78 59.69 60.40 61.05 60.73 60.75 60.28 60.16 59.84 59.23 57.07 55.06 54.00 53.91 52.19 52.13 50.77 51.84 49.65 49.01 52.81 51.59 49.39 50.13 48.00 48.85 50.12 49.53 48.59 41.62 39.87 39.02 39.68 39.58 39.16 38.78 38.97 38.49 38.80
61.22 60.27 60.27 59.76 59.73 59.86 60.31 60.59 59.95 59.11 57.88 57.85 57.37 55.09 55.51 53.14 52.12 51.85 51.16 51.73 50.05 49.97 48.84 48.59 47.59 48.68 48.12 47.58 45.93 47.98 47.21 45.59 44.30 40.65 37.94 37.33 36.94 37.62 37.70 37.41 37.74 37.97 38.02
60.42 60.13 60.30 60.69 60.24 60.52 60.30 60.51 59.42 58.03 57.41 57.97 57.04 54.39 53.10 50.81 51.25 50.44 48.64 49.99 48.58 47.45 48.01 49.44 43.35 43.44 41.96 43.67 42.34 44.04 43.62 41.91 40.61 39.68 37.19 37.19 37.76 36.96 36.25 36.76 36.93 36.65 36.57
58.85 58.95 60.18 60.04 60.27 59.86 59.12 59.23 59.30 59.22 59.33 58.22 56.43 53.23 52.92 51.55 51.03 48.83 47.59 47.83 46.83 45.52 42.50 42.93 41.16 39.52 40.10 41.02 39.63 38.85 39.38 40.08 39.16 39.21 38.73 36.29 36.13 37.70 36.99 37.35 37.51 36.81 37.37
58.93 59.01 58.75 59.62 60.41 59.81 59.33 57.78 57.89 57.93 57.18 55.95 53.72 52.10 51.81 50.10 46.36 46.75 46.88 44.44 41.53 40.94 39.12 40.00 37.14 35.71 35.84 35.48 34.96 37.90 36.08 37.66 38.51 39.45 38.87 39.43 39.73 39.76 40.44 39.02 38.73 38.55 37.20
59.29 59.58 59.32 59.67 59.87 58.54 49.27 46.27 53.17 57.23 55.33 52.89 48.57 46.17 45.74 44.47 42.27 40.48 40.86 39.36 40.47 38.51 37.83 38.23 35.99 32.89 34.18 35.84 35.62 36.50 35.82 34.58 33.77 40.58 37.70 37.33 39.34 38.20 39.71 40.06 37.81 36.36 36.65
59.13 58.66 59.31 59.04 58.95 59.67 45.19 43.74 43.92 56.99 53.69 50.13 45.30 40.35 39.42 38.61 38.32 35.08 33.28 31.89 31.04 30.75 31.60 34.88 33.68 34.49 34.07 35.64 35.09 35.31 35.14 35.21 34.99 37.73 36.78 34.32 38.44 37.32 39.14 38.85 37.44 36.92 36.98
58.46 58.93 58.71 59.09 59.16 58.22 42.65 42.65 41.56 49.96 45.66 43.11 40.42 39.58 35.96 34.15 32.78 31.27 30.69 29.67 29.25 29.66 30.53 30.76 33.44 32.89 33.78 34.92 35.79 35.17 34.96 34.60 35.36 35.44 36.74 31.79 37.30 35.97 38.70 39.29 37.50 37.56 37.06
58.39 58.33 57.68 56.80 54.88 48.27 39.91 38.79 41.39 39.39 36.61 35.38 35.65 35.11 33.69 32.00 32.42 33.04 30.11 28.38 28.27 28.00 29.06 28.80 28.34 27.78 27.45 27.32 28.90 32.90 31.59 31.16 30.16 32.80 35.45 32.09 34.91 35.12 35.53 35.91 38.50 36.92 35.73
54.12 47.74 44.11 44.96 41.87 40.62 38.55 38.94 39.14 35.26 32.16 31.37 31.94 31.58 32.31 31.24 30.83 30.40 29.36 28.62 27.14 27.02 27.48 27.64 28.03 27.61 27.31 29.75 26.21 29.28 30.90 28.59 29.38 29.25 35.06 31.15 31.76 31.53 30.40 35.17 37.21 37.43 38.62

GFSMA_sfc_wetblb_081.txt.gz
Wetbulb
62.94 62.61 62.92 65.06 63.74 63.34 62.63 61.22 62.08 61.49 61.43 61.19 61.60 61.78 61.76 62.50 62.21 61.67 60.95 61.05 61.27 61.29 60.57 60.22 59.69 58.99 58.25 57.56 56.90 56.44 56.19 56.05 55.53 55.14 54.79 54.20 53.81 53.30 52.70 52.27 52.12 52.30 52.30
61.57 61.17 61.94 62.52 63.99 63.85 63.22 62.44 62.21 61.22 60.86 60.98 60.94 61.45 61.62 62.18 62.47 62.12 61.06 60.84 60.67 61.17 60.83 59.99 59.39 58.74 58.03 57.38 56.72 56.40 55.92 55.58 55.29 54.79 54.45 53.64 53.26 52.40 51.70 50.99 50.67 50.78 51.16
60.92 62.41 61.62 62.27 63.64 64.19 64.54 63.05 62.15 61.05 60.00 60.09 60.26 60.86 61.52 62.12 62.08 62.20 61.19 60.68 60.14 59.91 60.70 60.87 59.52 58.86 57.89 57.29 56.20 55.68 55.20 54.98 54.98 54.52 54.42 53.77 52.99 52.13 51.07 50.49 49.98 49.58 49.66
59.14 58.68 60.48 61.82 63.71 63.61 62.98 61.81 60.33 58.98 59.05 59.24 59.35 60.11 60.60 61.42 61.88 62.06 61.74 61.40 60.87 60.29 59.66 60.19 60.25 59.61 58.34 57.80 57.00 56.18 55.41 54.66 54.86 54.59 54.18 54.07 53.52 52.71 51.81 50.73 50.30 49.36 49.51
57.73 57.76 58.75 60.21 61.69 60.72 60.66 60.53 60.48 60.03 58.35 58.51 58.51 59.21 60.22 60.31 60.87 61.09 61.43 61.76 61.70 61.05 60.60 59.55 59.72 59.62 59.40 58.57 57.75 57.20 56.84 55.63 54.66 54.66 54.56 53.88 53.82 53.10 52.28 51.37 50.83 50.23 50.21
57.52 57.65 57.67 58.13 58.42 57.77 58.58 59.43 59.50 59.93 59.00 58.39 57.02 57.72 59.17 59.59 60.34 60.31 60.32 60.61 61.20 60.90 61.10 60.72 59.48 58.71 58.63 59.78 58.89 58.68 58.26 57.45 56.65 55.41 55.06 54.98 54.33 53.93 53.05 52.16 51.51 51.08 50.61
57.75 57.69 58.31 58.77 58.82 57.09 57.93 59.80 58.97 58.65 57.68 59.11 55.86 55.99 57.09 58.29 58.83 59.15 60.17 59.64 59.50 59.87 60.35 60.47 59.76 59.13 58.63 58.86 59.98 59.75 60.64 60.01 58.72 57.56 56.22 55.44 55.30 54.51 54.09 53.34 52.69 52.03 51.48
57.02 59.54 60.18 59.67 58.70 57.71 59.44 59.29 58.79 57.91 57.64 58.70 55.66 55.61 52.70 54.56 56.37 57.41 57.99 58.12 59.65 59.16 58.93 59.04 59.02 60.24 59.95 59.43 58.94 59.89 59.96 59.76 59.20 58.76 57.94 56.79 56.06 55.57 54.90 54.51 53.93 53.35 52.84
59.06 60.46 60.74 59.78 59.03 61.04 59.83 61.18 61.13 60.32 57.85 58.18 59.06 57.59 54.51 53.53 56.07 57.18 56.85 56.92 58.29 57.48 56.25 56.51 58.16 58.29 60.18 59.62 58.90 58.56 56.79 57.35 59.46 58.37 58.21 58.42 57.90 57.31 56.07 55.77 55.55 55.07 54.41
58.74 59.49 60.28 60.14 60.49 60.58 60.83 60.36 60.81 60.60 59.83 57.03 56.08 56.33 59.15 58.67 53.79 51.80 55.95 56.53 55.17 51.97 54.20 54.18 54.67 57.31 58.28 58.84 58.01 55.63 53.74 53.58 55.25 57.37 57.40 56.96 56.27 55.95 56.12 56.04 56.10 56.01 56.01
57.11 57.82 58.64 59.50 58.89 59.39 61.65 60.90 60.73 59.93 60.36 59.81 58.43 58.02 58.16 58.03 58.12 54.95 52.02 55.78 56.81 56.17 56.37 55.34 55.50 56.51 56.55 57.73 58.15 56.61 51.62 50.63 51.20 53.07 53.92 54.58 54.37 54.00 54.07 54.22 54.46 54.68 55.22
56.20 57.85 58.79 57.81 58.50 58.76 60.38 61.48 61.74 60.81 60.55 60.69 60.33 60.41 58.48 56.74 55.86 54.82 53.39 55.70 56.54 56.95 56.89 56.92 56.03 55.77 57.62 58.02 56.16 52.48 50.31 48.79 49.08 50.91 51.61 51.78 52.13 51.79 51.45 51.53 51.61 52.05 52.45
54.74 56.01 56.68 58.29 58.29 59.03 61.38 62.15 61.41 61.51 61.30 60.58 59.85 59.67 59.42 59.14 59.04 59.21 57.68 57.30 56.74 57.45 54.09 58.19 57.37 58.72 58.97 58.96 56.60 50.77 49.13 47.51 47.91 49.40 50.05 50.07 49.24 48.73 49.00 49.38 49.87 50.33 50.62
54.87 55.57 55.90 56.18 57.40 58.19 59.39 62.40 61.57 61.66 63.22 61.88 61.83 60.84 59.85 61.04 60.97 60.49 59.17 57.13 51.82 52.69 55.30 55.17 55.80 55.40 57.27 56.81 54.79 48.74 51.59 45.94 47.00 47.29 47.32 47.14 46.52 46.39 46.69 47.15 47.71 47.99 48.66
56.94 57.51 57.05 57.37 57.87 59.51 59.30 61.65 61.04 60.46 61.83 59.93 61.08 62.26 61.33 61.91 62.29 61.98 61.35 60.04 55.77 50.56 49.20 53.02 50.85 54.60 56.57 55.90 50.22 51.08 53.01 45.75 45.66 44.32 44.01 44.37 44.06 43.82 44.07 44.22 44.13 44.48 44.55
61.17 60.34 60.34 58.96 58.59 58.26 60.38 60.64 60.68 61.37 61.12 61.32 61.92 61.48 61.59 61.93 61.76 61.40 60.52 58.72 56.34 51.94 49.28 52.28 54.27 56.32 55.09 52.50 48.80 52.25 52.99 45.94 44.90 43.82 42.51 41.67 41.02 40.05 40.37 40.81 40.62 40.45 40.77
61.51 60.49 60.51 59.97 59.82 60.30 61.00 60.73 60.92 61.33 60.85 60.89 61.17 60.94 60.59 60.49 58.99 58.36 58.59 56.02 53.92 52.41 50.07 52.52 54.60 55.07 52.28 52.96 48.97 50.60 51.53 51.31 49.57 43.34 41.94 40.55 38.99 38.64 38.29 38.25 38.31 38.71 38.72
61.79 60.83 61.10 60.62 60.73 60.89 61.41 60.79 60.57 60.47 60.31 60.18 60.55 60.36 60.11 58.29 58.24 58.53 55.29 53.69 52.24 52.56 51.16 50.23 50.38 51.30 51.99 52.36 49.92 49.46 49.57 48.86 47.14 43.54 40.88 38.25 37.85 37.72 38.04 38.09 37.98 37.70 37.98
61.65 61.67 61.11 60.61 60.56 60.93 61.36 61.55 61.23 60.68 60.74 60.79 61.11 60.36 58.52 58.67 56.35 55.13 53.07 51.38 51.70 51.93 51.38 50.44 48.21 48.20 47.76 47.72 47.84 45.94 43.21 43.12 43.54 41.56 37.85 37.80 38.01 38.16 38.43 38.01 37.34 37.71 37.64
61.58 61.46 61.11 61.02 61.06 61.13 61.01 61.00 60.67 60.38 60.39 60.24 60.86 59.97 57.57 58.02 57.15 53.66 51.48 51.40 50.69 49.28 48.79 49.04 43.78 44.14 42.18 43.28 42.60 40.76 38.61 41.34 38.86 40.90 40.64 38.17 38.43 38.94 38.29 38.01 38.27 38.22 38.46
61.96 61.81 61.66 61.47 61.61 61.04 60.64 60.93 60.81 60.35 60.05 59.59 59.31 58.44 57.17 56.25 50.03 51.13 51.28 50.11 47.40 46.30 44.50 43.96 38.32 39.37 37.37 37.42 36.95 38.26 35.73 35.27 36.53 40.80 40.62 41.18 40.28 40.76 41.12 38.61 38.64 39.21 39.04
61.53 61.43 60.87 60.76 60.70 60.06 50.83 46.87 53.47 60.47 59.26 59.14 56.54 55.60 53.80 48.67 48.13 44.11 43.03 43.13 45.73 44.94 42.23 40.05 38.29 37.34 36.64 37.67 35.42 33.51 33.56 32.88 33.83 42.31 40.13 38.56 41.15 39.66 40.38 41.64 39.33 37.01 37.07
61.15 60.41 60.45 60.30 60.21 60.75 47.29 45.36 44.53 56.83 57.15 58.13 55.36 55.01 48.59 46.30 43.10 40.04 34.71 33.99 34.41 34.97 34.78 38.24 35.66 34.36 33.69 34.15 34.28 34.32 35.83 35.20 35.41 39.13 39.39 36.67 39.37 37.55 40.60 40.16 38.39 38.05 37.25
60.83 60.71 60.55 60.78 60.87 60.55 45.86 44.99 42.92 54.19 55.36 55.92 54.16 49.84 45.25 40.64 38.75 35.82 34.54 32.22 31.41 32.01 32.27 33.62 34.21 33.38 33.86 34.73 36.04 35.78 36.19 36.46 37.09 37.13 37.83 32.60 37.40 36.47 39.75 40.10 38.77 38.16 38.03
60.24 59.81 60.29 59.81 59.86 59.96 41.29 42.02 44.36 49.57 42.49 38.97 38.61 38.42 38.29 35.23 34.48 35.52 32.49 31.02 30.56 29.61 30.83 31.06 30.34 29.87 29.71 29.61 30.03 34.80 32.90 31.60 31.77 32.77 36.79 35.38 34.98 34.01 37.20 36.43 37.10 37.52 37.70
59.35 58.09 55.95 51.31 43.55 51.58 41.29 40.21 42.30 39.27 34.58 33.08 33.69 33.89 33.66 32.97 33.06 33.24 31.75 29.87 27.94 26.95 27.01 26.63 25.99 26.60 27.60 28.26 27.03 29.50 31.46 29.98 29.95 29.52 34.64 33.23 32.45 32.59 29.51 35.55 36.16 37.45 36.40

GFSMA_sfc_wetblb_084.txt.gz
Wetbulb
62.72 63.45 63.49 62.65 60.90 59.24 58.68 57.28 57.63 57.92 57.44 56.97 58.82 58.91 59.41 59.69 58.57 58.68 58.53 60.89 61.07 61.48 60.89 60.56 60.07 59.60 58.55 57.88 57.23 57.05 56.98 56.64 56.27 55.88 55.32 54.75 54.21 53.55 53.13 52.83 52.89 52.89 53.01
61.66 62.75 62.09 61.89 59.81 58.86 58.12 57.59 58.68 58.31 57.41 57.42 58.13 58.85 59.35 59.61 58.64 58.37 58.26 58.52 60.15 60.82 60.86 60.42 60.05 59.51 59.02 58.03 57.10 56.92 56.76 56.33 55.78 55.59 54.84 54.23 53.61 53.02 52.47 51.86 51.65 51.96 51.84
61.80 61.66 61.25 60.64 60.05 59.98 58.31 59.59 59.30 58.33 57.45 57.88 57.42 58.04 58.80 59.51 59.15 58.34 57.77 58.01 58.30 59.68 60.08 60.46 59.55 58.98 58.64 57.97 57.39 56.79 56.50 56.13 55.65 55.33 54.79 54.00 53.57 52.69 51.86 51.15 50.40 50.28 50.21
61.25 60.34 60.07 60.10 61.50 61.44 59.99 59.48 57.77 56.39 56.31 56.36 56.17 56.61 57.81 59.04 59.17 58.38 58.27 57.98 57.58 57.97 59.32 60.04 60.02 59.66 58.51 57.88 57.51 57.05 56.64 56.07 55.70 55.27 54.98 54.58 53.82 53.04 52.13 51.23 50.70 49.99 49.97
59.67 59.39 59.90 59.90 60.41 59.69 59.66 58.32 57.76 56.07 55.38 55.98 56.36 56.43 57.36 57.81 57.83 59.04 58.74 57.67 57.23 57.54 57.47 59.29 59.42 59.27 59.48 59.01 57.99 57.76 57.08 56.30 55.98 55.85 55.35 54.75 54.66 53.74 52.94 52.08 51.53 51.23 50.70
58.40 57.96 57.73 58.42 58.45 57.88 57.76 57.34 55.80 56.25 55.28 55.24 56.52 56.36 56.86 57.29 57.00 56.75 58.24 59.07 58.72 57.94 57.53 57.15 57.36 57.23 58.19 59.20 59.15 58.56 58.71 58.17 56.92 56.39 55.99 55.63 54.88 54.75 54.06 53.24 52.43 52.04 51.77
56.84 56.92 56.91 57.31 57.49 56.32 56.23 56.58 55.60 54.88 53.81 55.26 54.43 54.18 54.96 56.04 56.19 56.35 56.75 56.63 57.10 57.71 57.78 57.12 56.81 56.56 56.75 58.69 59.68 59.32 59.74 59.63 58.82 57.87 56.70 56.08 55.97 55.36 55.00 54.50 53.82 53.26 52.85
55.94 56.07 56.24 56.09 56.11 55.54 55.73 56.02 55.30 54.14 53.90 55.74 52.37 51.74 49.10 51.13 53.56 55.31 55.90 56.34 55.91 56.33 56.41 57.09 57.10 56.85 56.61 56.24 56.86 59.74 60.10 60.68 60.58 59.44 58.43 57.63 56.97 56.20 55.84 55.51 55.34 54.74 54.45
55.78 55.60 55.94 55.55 55.79 55.45 55.16 55.61 55.36 54.37 53.31 54.30 54.97 53.81 50.42 49.06 50.14 53.19 53.71 53.74 54.08 55.06 55.18 56.42 57.38 57.08 57.04 55.92 56.89 57.15 57.03 57.45 60.32 60.51 60.60 59.47 58.90 58.02 57.11 56.53 56.28 56.12 55.89
55.92 55.22 55.60 56.10 56.77 56.43 56.03 55.47 57.34 55.89 56.51 53.47 54.37 55.60 55.32 55.45 51.53 49.70 53.06 53.21 53.72 53.26 53.24 52.76 53.60 54.63 54.88 55.94 56.40 55.52 54.15 53.87 55.83 59.38 60.07 59.42 58.14 57.99 57.79 57.43 57.12 56.96 56.83
56.83 57.44 57.35 57.47 56.52 58.58 58.06 58.08 57.90 57.32 57.85 56.79 54.00 54.23 53.79 55.79 55.66 52.72 49.83 53.07 53.65 52.95 52.48 52.99 52.19 52.28 53.64 55.00 54.87 55.10 52.52 52.03 53.06 56.58 58.84 58.70 58.07 57.50 56.60 55.77 55.22 55.18 54.93
55.74 56.73 58.06 58.37 58.56 58.07 58.56 58.36 57.96 57.71 57.23 57.14 57.77 56.93 55.14 53.92 53.90 52.40 51.24 51.69 52.78 53.40 53.44 53.32 52.82 52.44 52.46 52.79 54.84 53.68 52.41 50.77 51.27 53.81 55.66 56.25 55.94 55.70 55.15 54.32 53.72 53.35 52.92
53.74 55.27 56.95 57.51 57.61 57.61 59.00 58.66 58.14 58.28 58.21 57.14 56.34 56.34 57.63 56.47 56.41 55.34 52.98 52.00 52.13 53.59 53.01 54.55 53.16 52.77 53.40 53.55 54.69 52.60 51.31 49.12 49.34 51.01 52.23 53.01 53.21 52.95 52.09 51.06 50.96 51.10 51.06
53.67 55.45 56.50 56.79 56.67 57.55 57.87 58.28 57.49 57.41 57.78 57.62 56.95 57.22 56.71 56.99 57.04 56.28 54.95 53.15 50.55 50.59 51.89 52.26 55.18 56.14 56.30 55.99 54.60 50.35 49.50 47.24 47.24 48.76 49.70 50.39 50.21 49.61 48.93 48.45 48.33 48.48 48.66
54.76 54.72 55.96 56.21 56.24 56.87 57.08 57.13 57.74 56.72 57.41 58.00 56.96 57.14 56.81 57.10 56.97 58.05 56.67 55.69 53.21 49.78 48.43 51.62 52.96 53.85 55.65 53.14 52.60 49.41 48.60 46.37 45.68 46.79 47.52 47.05 47.33 47.28 46.53 45.80 45.56 45.46 45.53
55.22 55.06 55.19 55.35 55.75 56.09 56.41 56.48 56.79 57.64 57.15 57.63 57.95 57.11 57.26 57.85 58.17 57.73 57.22 56.78 56.41 53.73 51.58 52.48 52.16 52.01 53.25 54.12 48.50 48.29 48.86 46.33 45.03 44.14 44.80 44.12 44.18 43.93 42.67 42.26 42.16 41.85 41.56
55.68 55.32 55.01 55.26 55.55 55.41 55.87 55.95 55.97 56.02 56.92 56.44 56.88 56.98 57.03 57.67 57.34 57.45 57.98 56.98 56.41 54.66 52.68 53.57 52.17 52.73 52.93 50.35 45.82 47.00 47.13 45.47 44.08 43.62 43.23 42.41 41.22 40.54 39.92 39.29 39.05 39.04 39.23
56.53 56.28 56.08 55.47 55.67 55.81 56.05 55.37 55.24 55.51 55.40 55.73 56.44 56.81 56.90 57.27 57.38 57.53 56.27 55.92 55.36 55.62 52.87 50.83 51.51 50.70 49.43 50.44 46.95 45.98 48.16 48.64 46.69 43.84 43.00 41.78 40.39 39.00 38.11 37.98 38.31 38.01 38.01
58.14 57.91 57.44 57.08 56.58 56.49 56.03 56.10 55.89 56.18 56.11 56.12 56.43 56.57 56.61 56.34 56.22 56.94 57.32 55.48 54.42 53.23 52.96 51.79 50.54 47.49 48.55 48.19 46.45 46.22 45.95 43.41 42.97 44.52 41.74 39.68 38.94 38.89 38.86 38.07 38.37 38.10 38.19
59.60 59.36 58.87 58.03 57.68 57.65 57.43 56.93 57.29 56.94 56.93 57.03 57.10 57.21 57.00 56.52 56.39 56.56 55.54 54.34 52.92 51.61 51.05 50.24 49.42 45.15 43.33 43.44 44.88 41.75 39.86 41.07 39.61 41.44 40.27 38.81 38.17 39.20 39.11 38.50 38.37 38.61 38.86
60.12 59.88 58.99 58.33 58.24 58.06 58.00 57.50 57.44 57.08 56.83 57.08 57.40 57.00 56.79 55.47 51.28 53.84 55.02 53.99 52.06 50.42 49.68 48.23 43.49 40.48 38.82 38.69 40.99 40.47 40.27 37.36 37.22 38.19 37.07 36.26 36.95 36.46 36.60 38.75 38.28 39.08 38.98
59.44 59.17 58.67 58.49 57.93 58.08 50.70 46.97 52.96 57.01 56.91 56.30 55.93 56.06 56.30 49.70 49.50 45.77 45.68 45.74 49.54 49.75 48.02 46.97 46.86 43.21 42.50 40.39 38.13 36.30 33.47 31.59 30.77 37.47 35.89 34.42 35.70 34.19 36.56 36.51 38.96 38.85 39.12
59.29 58.44 58.03 58.10 57.75 58.18 47.65 46.06 45.13 56.41 56.64 56.31 55.58 55.27 52.69 49.64 46.79 47.66 39.00 38.22 36.47 36.19 35.93 46.35 44.67 38.51 34.59 34.90 34.82 32.99 32.51 32.06 32.00 35.78 35.27 30.77 34.08 32.34 35.72 38.13 38.60 38.54 38.08
58.25 58.27 58.36 58.42 58.01 58.24 46.73 44.72 43.20 52.84 55.33 55.14 52.88 51.89 51.41 45.40 44.53 40.49 37.21 35.73 34.98 33.20 33.92 35.41 35.16 33.71 34.31 36.07 35.28 34.27 33.21 33.47 34.35 35.06 34.85 27.40 30.36 29.54 33.29 34.70 37.32 38.66 38.17
57.93 57.72 57.78 57.36 56.90 56.85 45.24 43.44 43.85 51.73 53.41 44.58 40.35 40.28 41.89 38.60 37.40 38.87 34.61 31.99 30.88 29.90 32.77 33.30 33.03 32.72 32.19 32.03 32.09 33.03 30.08 29.64 29.46 29.06 32.61 30.45 29.51 28.95 29.50 30.59 32.54 36.16 36.88
58.26 58.05 56.60 50.85 43.11 53.18 39.94 39.94 43.22 44.42 36.74 33.78 33.48 33.29 33.93 34.08 34.10 34.95 33.68 31.84 28.09 26.90 27.55 27.53 27.60 28.62 30.01 29.66 28.42 29.36 29.07 28.67 28.62 27.04 29.29 29.47 28.81 27.60 24.62 27.78 29.22 30.34 30.64

GFSMA_sfc_wetblb_087.txt.gz
Wetbulb
62.63 62.30 63.00 62.20 60.85 59.61 58.39 56.28 55.50 55.04 54.94 56.34 56.92 57.63 57.86 57.62 57.81 58.27 58.43 60.78 61.17 61.98 61.69 61.20 60.63 59.95 59.13 58.66 58.25 58.17 57.52 57.28 57.02 56.38 55.82 55.29 54.62 54.40 54.23 54.03 53.86 53.88 53.83
62.37 61.91 62.75 61.11 59.28 58.71 56.98 55.93 55.35 55.20 54.61 55.51 55.89 58.07 57.66 57.48 57.68 57.80 57.85 58.60 60.32 60.93 61.17 61.06 60.61 59.91 59.39 58.53 57.94 57.82 57.51 56.96 56.76 56.04 55.55 54.74 54.00 53.56 52.95 52.92 53.20 53.04 52.10
62.28 62.15 62.07 60.17 58.35 58.10 56.31 55.83 55.68 55.67 54.67 56.89 56.06 57.09 57.76 57.31 57.50 57.08 56.96 56.90 58.06 59.37 60.39 60.85 60.36 59.86 59.37 58.69 58.04 57.64 57.26 56.62 56.53 55.82 55.33 54.66 53.89 53.17 52.68 52.18 51.95 51.77 51.13
62.06 62.22 61.32 59.75 57.99 58.07 55.54 56.55 57.10 55.98 54.95 54.87 54.63 55.74 57.70 57.08 56.93 56.81 56.97 56.77 55.97 57.08 58.77 60.26 60.24 60.00 59.22 58.77 58.31 57.96 57.38 56.90 56.56 56.24 55.60 54.78 53.98 53.23 52.62 52.07 51.44 51.08 50.99
61.67 61.74 60.88 59.86 58.71 58.10 56.74 57.28 55.01 55.62 54.66 54.70 54.74 54.75 55.93 57.40 56.45 57.20 56.60 56.48 56.16 55.95 55.81 59.18 59.37 59.29 59.54 59.17 58.59 58.39 58.09 57.49 57.15 56.59 55.99 55.54 54.91 53.95 53.28 52.50 52.09 51.53 51.18
61.71 61.32 60.02 59.49 59.35 58.69 57.25 56.78 54.91 54.84 55.34 55.31 56.43 55.53 54.60 56.87 57.28 56.22 56.22 57.00 56.66 56.51 56.34 56.32 56.87 56.74 58.22 59.44 59.26 58.52 58.74 58.30 57.65 57.41 56.76 56.02 55.77 55.32 54.64 53.86 53.29 52.92 52.48
59.32 59.07 58.44 57.88 57.61 57.59 55.93 55.14 54.47 53.97 53.39 53.81 53.22 52.77 53.89 55.53 55.44 55.70 57.21 56.28 55.84 56.22 56.17 56.23 56.03 55.57 56.28 58.96 59.78 59.37 60.03 59.82 58.89 57.79 57.46 56.95 56.29 55.76 55.62 55.15 54.54 54.04 53.63
58.53 58.44 57.70 57.42 57.06 55.91 54.97 53.53 53.06 52.53 52.23 53.60 52.54 51.26 48.31 49.98 52.70 54.51 55.38 55.97 56.16 56.76 55.93 55.74 55.42 55.40 55.30 55.76 56.33 59.63 60.08 60.53 60.38 59.74 58.50 58.07 57.97 57.35 56.27 56.11 55.84 55.48 54.99
58.48 57.49 57.04 57.16 56.20 55.39 54.23 52.83 52.86 52.78 52.05 52.97 53.03 50.60 47.60 46.44 49.09 51.47 52.53 53.90 54.14 54.05 55.55 56.13 55.63 55.57 55.48 55.43 56.38 56.94 56.78 57.51 60.47 61.58 61.14 59.90 59.07 58.50 57.84 56.99 56.78 56.51 56.45
56.65 56.57 56.07 56.05 55.58 55.60 54.09 53.86 54.31 53.47 53.43 51.52 53.09 55.43 54.60 53.48 48.18 47.33 51.52 51.51 51.91 52.61 52.65 53.52 55.82 56.40 56.41 55.72 55.69 54.75 53.84 53.80 56.12 59.83 61.14 60.84 60.47 59.72 59.18 58.56 58.07 57.42 57.44
54.24 54.39 55.25 54.67 54.88 55.12 55.02 54.69 54.57 54.66 54.81 53.17 51.75 52.00 52.15 54.19 53.90 50.37 47.67 51.50 52.73 52.01 52.21 53.57 54.08 55.11 55.81 55.74 55.80 54.96 52.68 52.25 53.49 56.65 58.94 60.48 60.34 59.81 59.48 58.95 58.25 57.82 57.25
53.85 53.83 54.39 54.19 55.43 55.95 55.81 55.02 55.17 55.12 55.96 55.63 54.66 54.44 52.49 52.02 52.39 52.93 51.19 50.83 50.33 51.33 52.75 51.80 51.46 52.49 53.02 53.41 54.16 53.63 52.01 51.17 51.79 54.34 56.47 57.96 59.42 59.47 59.23 58.33 57.38 56.48 55.74
52.64 53.25 54.69 54.11 55.18 56.25 57.18 56.77 56.29 56.28 56.18 56.42 56.14 55.64 56.06 55.07 55.33 53.95 51.72 50.54 50.00 51.87 52.18 52.52 52.34 52.92 52.74 51.59 52.06 51.96 52.06 49.64 50.18 52.14 54.15 55.63 57.02 57.41 57.13 56.64 55.87 55.13 53.99
53.32 53.41 55.34 56.18 55.99 56.28 56.84 57.22 57.34 56.48 57.00 56.30 55.93 55.87 55.76 56.24 56.37 55.56 53.73 52.16 50.32 50.30 50.81 51.45 53.21 52.71 52.19 51.75 51.99 50.52 52.25 48.38 48.63 49.53 51.31 52.67 53.27 53.06 53.13 53.52 53.04 52.11 51.49
53.94 53.69 54.95 56.20 55.91 56.57 56.48 57.04 56.34 55.91 56.35 55.98 56.01 56.09 55.95 55.60 56.39 56.18 55.42 55.15 53.17 49.20 46.76 50.28 52.47 54.12 54.91 54.82 53.63 53.74 53.06 49.25 47.60 47.45 48.27 49.25 50.17 50.74 50.34 50.16 49.96 49.57 49.01
53.91 53.91 54.10 55.59 55.92 56.10 56.22 56.42 56.55 56.15 55.90 55.93 56.40 55.77 55.66 55.23 56.37 56.74 56.45 56.12 55.01 53.64 50.67 50.85 52.41 53.28 53.65 55.50 55.01 53.87 51.40 47.98 46.21 45.36 45.50 46.33 47.18 48.09 47.86 47.68 47.43 46.89 46.21
53.53 53.61 53.51 54.66 55.15 55.16 55.54 55.35 55.33 55.82 55.80 55.61 55.79 55.99 55.51 55.13 55.09 56.08 56.69 56.41 55.80 55.35 52.84 53.65 51.38 51.25 51.80 51.67 51.41 50.23 50.16 48.38 46.73 44.44 44.14 44.25 43.95 44.41 44.27 44.12 43.70 43.69 42.86
53.81 53.54 53.52 53.92 54.71 55.00 55.27 54.87 54.64 54.95 54.81 55.16 55.74 55.78 55.62 55.87 55.29 55.31 55.40 55.05 55.46 56.12 54.25 52.38 52.83 50.07 51.39 52.31 51.45 47.79 48.35 49.01 46.49 44.49 43.61 43.07 42.64 42.23 41.38 40.88 40.13 39.64 39.38
54.07 53.85 53.68 53.23 53.19 53.69 54.00 54.27 54.41 54.09 53.96 54.25 54.56 54.52 55.09 55.09 54.92 55.64 55.27 55.13 55.33 55.27 54.87 53.91 52.92 51.20 51.64 49.24 46.37 45.70 46.17 46.42 45.83 45.31 42.56 41.88 41.79 41.27 40.35 39.48 39.27 39.12 39.01
55.65 54.20 54.05 53.80 53.35 53.13 53.54 54.20 54.28 53.83 53.79 53.87 54.01 54.07 54.93 55.12 55.24 55.48 55.17 55.49 55.59 54.53 53.58 52.74 52.12 51.73 46.40 46.47 48.13 46.14 43.23 42.51 43.08 44.90 43.41 42.35 40.74 40.53 40.13 39.59 38.73 38.78 39.06
57.30 56.00 54.82 54.34 54.16 53.68 53.40 53.60 54.16 54.07 53.87 53.61 54.06 54.67 54.98 54.41 51.05 53.06 55.18 55.21 55.09 53.99 52.81 51.54 50.72 48.51 44.81 40.31 44.17 45.83 45.40 43.79 39.25 39.53 38.51 38.54 37.69 37.57 38.12 39.37 38.69 39.37 39.48
58.53 57.84 56.84 55.79 54.94 55.02 49.20 46.05 51.10 54.41 54.35 54.10 54.07 54.77 55.39 49.70 49.52 45.96 46.55 47.90 52.68 54.10 52.43 50.74 50.26 48.18 45.93 46.60 48.08 44.68 41.66 34.36 35.31 38.90 37.03 36.40 38.15 36.03 36.38 36.67 38.36 38.14 38.87
57.40 57.88 58.01 57.94 57.19 56.85 47.47 45.53 44.61 55.11 55.50 55.33 54.82 54.79 54.62 54.69 48.38 52.27 44.02 41.86 38.55 37.53 36.04 49.77 49.74 49.29 47.32 42.42 37.07 34.17 33.32 32.89 32.33 36.07 35.56 32.18 35.62 34.91 37.03 38.18 38.07 38.64 38.82
57.38 56.95 57.30 57.67 57.29 57.50 46.44 45.03 42.74 52.44 55.16 55.08 54.79 54.37 53.77 51.85 49.00 48.82 43.35 37.55 33.59 33.55 34.00 35.41 35.07 34.23 35.48 36.39 36.32 35.36 34.16 32.90 33.04 34.26 35.09 30.34 32.80 32.03 33.65 35.13 37.54 38.01 38.19
57.09 57.22 57.41 57.53 57.01 57.01 45.59 44.80 44.18 51.96 53.23 53.59 46.10 42.05 49.04 47.55 40.75 41.81 37.45 33.10 31.28 30.39 34.00 34.73 34.40 34.39 34.24 34.65 34.94 33.95 31.44 30.95 29.36 30.25 32.92 30.85 30.89 30.47 30.95 31.24 33.22 36.33 36.32
56.97 57.32 56.91 56.98 53.05 56.83 44.22 43.98 44.67 53.25 50.85 36.70 34.30 34.47 35.55 37.17 35.77 35.87 35.19 32.08 28.79 28.33 29.41 29.09 28.47 29.74 30.91 31.14 31.33 32.06 31.36 29.44 29.09 27.62 28.58 27.99 27.92 27.76 26.24 28.73 28.94 29.19 29.33

GFSMA_sfc_wetblb_090.txt.gz
Wetbulb
62.90 63.41 62.83 62.55 61.60 60.19 58.48 55.84 54.46 54.34 53.72 55.23 56.90 57.40 57.08 56.93 57.10 57.99 58.42 60.44 61.45 62.24 62.15 61.94 61.46 60.93 60.42 59.57 59.09 58.69 58.44 57.86 57.67 57.34 56.67 56.19 55.85 55.67 55.23 55.02 54.99 54.78 53.86
63.07 62.71 62.21 61.49 60.49 59.90 58.33 56.17 53.91 52.72 53.05 54.65 55.95 57.41 57.00 57.16 57.27 57.01 57.65 58.73 60.43 61.21 61.85 61.44 61.06 60.58 60.13 59.39 58.88 58.20 57.84 57.68 57.02 56.50 55.91 55.18 54.69 54.46 54.30 54.05 53.88 53.40 52.72
62.70 62.67 61.72 59.89 59.19 58.39 57.29 55.63 53.51 52.62 52.81 54.65 56.40 57.00 57.02 56.84 56.96 56.92 56.69 57.18 58.15 59.58 60.60 61.03 60.73 59.97 59.60 59.03 58.57 58.13 57.57 57.20 56.81 56.31 55.50 54.81 54.31 53.54 53.05 53.20 53.22 52.49 51.66
62.01 62.37 61.42 59.06 58.19 57.21 56.26 55.55 54.10 53.18 52.31 54.04 55.21 56.32 56.41 56.72 56.52 56.28 56.21 55.99 55.69 57.11 59.00 60.30 60.56 60.15 59.57 58.98 58.58 58.47 57.90 57.15 56.97 56.39 55.74 54.95 54.21 53.56 52.99 52.45 52.34 52.19 51.58
61.94 62.26 61.39 59.02 57.10 55.79 54.73 55.55 53.50 54.07 53.22 53.35 55.35 56.09 55.96 55.83 56.18 56.72 55.66 55.38 55.19 55.25 55.49 59.50 59.58 59.59 59.82 59.38 59.00 58.92 58.85 58.08 57.48 57.38 56.60 55.68 55.03 54.25 53.49 53.00 52.40 51.93 51.82
62.27 61.82 61.52 58.98 57.32 54.56 54.80 56.20 54.66 54.01 53.98 54.27 55.85 55.21 55.73 55.66 55.57 55.72 55.39 56.56 56.19 55.74 55.16 55.95 56.74 56.64 58.42 59.76 59.18 59.43 59.61 59.21 58.53 58.06 57.57 56.90 56.17 55.30 54.62 53.91 53.64 53.16 52.75
61.53 61.43 60.01 59.03 57.60 54.05 55.61 56.24 55.38 54.55 53.74 53.40 53.44 52.82 54.18 55.46 55.01 55.11 55.46 55.65 55.75 55.96 55.81 55.70 55.59 54.85 56.03 58.89 59.67 59.40 60.13 60.11 59.59 58.96 58.11 57.51 57.05 56.52 55.84 55.27 54.75 54.43 54.12
61.53 61.14 59.95 58.68 58.28 55.28 55.96 55.53 54.80 52.85 53.13 54.22 52.86 51.03 49.89 50.82 52.31 54.81 55.33 55.32 55.19 55.72 55.44 55.47 55.27 55.10 55.06 55.57 56.26 59.54 59.92 60.42 60.55 59.56 58.70 58.81 58.39 57.56 56.67 56.38 56.11 55.78 55.44
59.68 59.85 59.21 58.13 57.48 56.37 55.21 54.99 54.79 54.17 53.24 51.93 53.48 50.77 46.85 46.39 48.70 50.65 53.18 55.03 54.60 54.90 55.42 55.44 55.34 55.36 54.95 54.77 55.98 56.95 56.93 57.47 60.37 61.66 61.01 59.78 59.24 58.95 58.59 57.16 56.91 56.83 56.76
58.58 58.63 58.43 57.92 57.01 55.69 54.32 54.36 54.97 54.41 54.45 52.10 51.65 53.83 52.83 50.90 48.39 46.62 50.85 52.60 53.85 54.44 54.81 54.75 54.97 54.93 55.22 54.83 55.29 54.66 53.38 53.42 55.63 59.76 61.35 61.15 60.66 59.74 59.46 59.06 58.74 57.71 57.74
57.37 57.78 57.61 57.19 56.44 56.35 54.95 54.24 53.12 53.59 54.05 52.02 51.32 51.79 51.68 52.64 51.50 48.16 45.93 49.60 50.94 52.22 53.68 54.53 54.94 54.95 55.30 55.31 54.83 54.40 52.37 51.76 53.12 56.43 58.96 60.58 61.25 60.78 60.37 59.74 59.57 59.38 59.08
54.06 55.46 55.92 56.54 56.50 55.70 55.00 54.83 54.41 54.03 53.79 53.18 52.69 53.16 52.38 52.18 52.12 51.52 49.59 49.14 49.77 51.11 51.70 52.10 52.57 53.70 55.33 55.64 56.06 53.98 52.22 50.93 51.76 54.22 56.34 58.11 59.41 60.56 60.56 60.30 60.19 59.44 58.86
52.58 53.01 54.36 53.80 55.24 55.67 55.80 55.08 55.11 54.28 54.89 54.41 53.28 53.45 53.59 53.49 54.71 53.40 51.72 50.50 50.40 51.80 51.80 51.88 52.23 52.47 52.99 52.96 53.99 52.72 52.24 49.61 50.36 52.24 53.91 55.62 56.81 57.76 58.85 59.50 59.72 59.21 58.92
53.71 53.80 53.45 52.79 53.24 55.27 55.52 55.59 54.95 55.06 54.28 55.46 55.34 54.91 55.12 54.99 54.89 54.87 53.06 51.31 47.86 48.99 50.00 51.73 52.67 52.08 52.49 52.68 52.01 50.21 51.62 48.17 48.92 49.91 51.51 53.04 54.24 55.22 55.97 57.11 57.67 57.67 57.68
53.92 53.70 53.65 53.45 53.38 54.51 56.14 55.95 54.99 53.36 53.81 54.13 54.06 54.68 55.59 55.53 56.01 55.84 55.30 54.25 51.58 46.67 46.89 50.53 52.57 54.08 54.40 53.84 52.78 52.51 51.58 50.22 47.76 47.65 48.79 50.49 52.25 53.43 54.08 54.51 54.16 54.42 54.42
54.05 53.69 53.79 54.99 55.31 54.90 55.39 55.58 55.68 55.28 54.87 54.98 55.77 54.82 55.42 55.16 55.55 55.68 55.65 55.45 54.97 53.06 49.95 50.89 52.13 54.28 54.65 55.28 54.02 52.76 52.54 50.51 48.13 46.32 46.50 47.45 49.20 51.12 51.46 51.11 50.99 50.96 51.07
52.31 52.55 54.06 54.60 55.70 55.57 55.28 55.19 55.45 55.24 54.77 54.85 55.00 54.49 55.13 55.52 55.09 55.51 55.87 55.48 54.73 54.47 51.85 53.46 54.82 55.11 52.35 53.40 54.37 52.41 53.91 53.17 52.93 46.05 45.57 46.17 46.96 47.79 47.60 47.40 47.39 47.71 47.95
52.09 52.66 52.81 53.46 54.14 54.73 55.60 54.76 54.08 54.62 54.26 54.00 53.89 53.81 54.75 55.10 54.06 54.43 54.77 54.59 54.67 55.00 53.69 51.54 53.17 53.43 51.18 52.20 52.79 50.47 50.39 50.54 50.48 47.08 45.29 45.26 45.60 45.17 45.03 44.45 44.26 44.25 44.33
52.18 52.29 52.48 52.07 52.77 53.60 53.82 53.82 54.42 53.88 53.92 54.97 55.14 54.66 54.42 54.72 54.16 54.47 54.22 53.83 54.18 53.94 54.35 53.49 53.05 54.77 53.53 49.59 49.87 49.23 47.89 48.99 49.67 48.62 44.19 43.82 44.12 44.40 44.01 43.01 42.65 41.89 40.93
52.94 52.43 52.55 52.52 52.58 52.76 53.29 53.45 53.59 53.38 53.42 53.54 54.04 54.89 55.13 54.83 54.55 54.24 53.59 53.67 53.77 53.38 53.44 53.13 53.23 53.43 51.88 49.42 48.94 48.07 44.13 46.14 47.48 46.68 44.68 43.38 42.75 42.75 41.96 40.84 40.03 39.49 39.41
54.19 53.81 52.78 52.70 52.74 52.76 52.72 52.84 53.04 52.74 52.60 52.63 53.09 53.17 53.14 52.92 49.98 51.93 53.84 53.65 53.71 52.89 53.11 53.03 52.64 52.50 50.14 42.08 46.81 48.30 48.69 48.57 40.97 40.80 41.71 40.90 40.59 40.73 40.51 39.86 39.23 39.25 38.96
56.31 55.14 53.76 52.93 52.35 52.74 47.53 44.44 49.02 51.95 52.05 51.83 51.56 52.30 52.95 47.89 48.27 45.29 45.79 46.26 51.32 53.35 52.79 53.06 52.55 51.32 51.20 50.70 50.13 48.14 46.67 38.07 38.53 39.48 38.24 37.07 39.08 37.52 39.00 39.01 39.10 38.34 38.71
56.80 56.39 55.27 54.11 53.01 53.40 45.69 44.24 42.91 51.25 51.37 51.59 51.98 52.34 52.06 52.68 47.89 52.26 45.50 42.41 39.88 37.15 37.44 52.27 53.06 52.88 51.92 51.73 49.60 39.37 36.27 35.80 33.92 36.34 35.66 32.63 35.56 34.85 37.99 39.11 38.48 38.21 38.34
56.06 56.17 56.66 56.58 55.68 55.30 45.84 44.36 41.84 49.73 51.33 51.68 52.12 52.46 52.67 52.20 52.24 51.36 51.16 44.37 39.02 35.65 36.34 37.99 40.75 39.99 36.90 37.95 39.96 38.42 35.71 33.10 33.06 33.28 34.92 31.24 31.97 31.94 34.25 35.53 37.00 37.79 38.15
56.57 56.35 56.67 56.86 57.08 57.01 46.05 45.06 44.08 50.94 52.05 52.63 53.69 53.82 53.92 52.46 48.77 44.25 44.99 37.59 32.47 31.70 34.77 35.40 35.25 34.92 35.12 35.43 36.36 35.63 32.57 33.24 29.80 29.62 30.72 31.34 30.84 30.98 31.56 31.59 34.03 35.75 35.26
57.26 57.40 56.82 56.80 53.37 56.73 48.10 44.39 45.52 54.51 52.54 51.98 52.97 41.26 36.83 45.65 43.78 39.98 48.15 38.81 32.83 30.24 30.22 30.29 30.35 30.15 30.88 30.89 31.17 32.54 32.40 29.78 28.78 26.53 27.83 28.41 28.23 27.86 26.54 29.61 30.00 29.93 29.51

GFSMA_sfc_wetblb_093.txt.gz
Wetbulb
61.69 63.24 62.93 63.01 62.40 60.83 59.98 57.83 55.43 55.86 55.90 56.41 56.41 56.16 55.76 56.00 56.66 57.93 58.52 61.06 61.83 62.59 62.11 62.23 61.92 61.18 60.70 60.02 59.83 59.05 59.01 58.81 58.51 57.95 57.62 57.20 57.10 56.51 56.26 56.03 55.57 54.91 54.78
62.63 62.44 62.89 62.33 61.11 60.05 59.15 58.01 54.96 54.21 54.73 55.95 55.45 55.85 55.93 56.18 56.95 56.88 57.50 58.06 60.67 61.77 61.95 61.67 61.50 61.26 60.83 60.05 59.31 58.95 58.48 58.20 57.93 57.59 56.74 56.32 55.95 55.51 55.14 55.07 54.78 53.78 53.81
62.56 62.46 62.27 61.77 60.73 59.79 57.84 56.20 53.15 53.57 54.14 55.56 55.35 55.65 56.11 56.40 56.73 56.73 56.29 56.41 58.43 59.69 60.79 61.59 61.19 60.41 60.29 59.87 58.91 58.71 58.54 57.80 57.46 57.00 56.11 55.52 55.05 54.70 54.58 54.41 53.95 52.89 52.63
62.84 62.45 61.76 60.54 59.32 58.05 56.58 55.14 53.58 52.57 52.84 54.89 54.46 55.14 55.47 56.48 56.36 56.09 55.88 55.69 55.71 57.10 59.31 60.43 60.54 60.44 59.82 59.62 59.46 58.70 58.49 57.80 57.27 56.74 55.99 55.46 54.80 54.25 53.87 53.81 53.62 52.94 51.97
62.73 62.41 61.25 59.79 58.14 57.18 56.12 55.02 51.84 52.97 52.79 54.37 54.68 54.34 54.64 55.62 55.85 56.66 55.66 55.31 55.19 55.49 55.94 59.39 59.52 59.38 59.78 59.38 59.21 59.38 58.94 58.32 57.88 57.45 56.64 55.81 55.25 54.59 53.96 53.48 53.31 53.05 52.70
62.44 62.43 61.16 58.47 56.99 55.57 53.88 54.44 53.15 52.71 52.53 54.68 55.57 54.38 54.38 54.28 55.67 55.53 55.58 56.11 55.38 55.26 55.40 56.64 57.36 57.14 58.55 59.72 59.49 59.73 59.86 59.36 58.75 58.44 57.56 56.77 55.89 55.27 54.49 54.11 53.70 53.38 53.05
61.86 62.13 60.78 58.04 56.97 54.17 54.51 54.93 53.31 53.46 52.90 53.95 53.92 52.82 53.18 53.15 53.54 54.69 55.18 55.26 55.19 55.39 55.34 55.98 56.08 54.92 56.63 59.37 59.96 59.80 60.54 60.71 60.09 59.43 58.68 58.10 56.95 56.31 55.60 55.27 54.78 54.61 54.40
61.96 61.48 61.02 58.33 56.72 53.73 54.29 55.29 53.88 52.30 52.34 55.01 52.92 52.30 50.19 51.34 53.23 53.70 53.66 54.03 53.86 55.29 55.06 55.22 55.18 54.36 54.30 55.72 56.83 59.87 60.40 61.01 60.76 60.12 59.26 58.98 58.53 57.65 56.97 56.57 56.13 55.88 55.48
61.39 61.13 60.58 58.68 57.35 53.81 54.86 55.24 54.15 53.68 52.26 51.08 55.11 52.02 48.40 48.65 49.58 50.90 52.43 53.10 53.20 53.65 54.55 54.88 54.92 55.03 54.83 54.67 55.82 56.66 56.77 57.51 60.51 61.28 61.04 60.28 59.73 59.35 58.84 57.65 57.40 57.12 56.83
60.54 60.68 60.21 58.73 57.48 54.56 55.57 55.43 55.19 54.70 54.21 51.83 51.67 52.96 52.32 51.18 48.70 45.58 50.24 52.46 53.04 53.31 53.99 54.40 54.94 54.95 55.19 54.66 55.08 54.59 53.50 53.52 55.67 59.91 61.35 61.69 60.52 60.19 59.89 59.44 59.10 58.54 57.78
58.71 59.51 59.40 58.93 57.54 55.34 55.55 54.95 54.05 54.52 54.69 53.56 53.67 51.76 51.51 51.74 50.51 47.94 46.16 49.34 51.83 53.89 54.44 54.56 54.75 54.89 55.10 55.08 54.66 54.12 52.50 51.83 53.07 56.60 59.06 60.73 61.59 61.21 60.60 60.11 59.91 59.78 59.27
55.92 57.61 58.22 57.48 56.34 55.19 54.99 54.51 53.62 54.72 54.29 54.03 53.46 52.43 52.05 50.86 50.99 50.17 48.18 48.39 50.12 50.92 53.55 53.90 53.70 54.40 54.96 54.78 55.26 53.72 52.03 50.64 51.60 54.07 56.25 57.90 59.35 60.67 61.23 61.14 60.67 60.41 60.26
54.10 55.20 57.14 55.95 55.27 54.73 55.77 55.29 54.52 54.25 53.95 53.85 53.31 53.36 53.66 53.66 54.25 53.00 51.15 49.43 48.60 50.68 50.70 51.15 52.87 53.83 54.52 54.97 55.31 53.41 52.72 49.62 50.15 52.15 53.76 55.29 56.62 57.64 58.68 59.78 60.62 60.77 60.62
54.42 54.36 55.05 56.30 55.93 56.28 56.02 55.23 54.84 54.37 54.56 53.67 53.00 53.29 54.01 54.25 54.76 53.70 52.43 50.77 47.46 48.50 49.62 50.98 52.82 52.83 53.23 53.69 53.47 51.45 54.26 49.22 49.08 49.84 51.24 52.78 54.09 54.93 55.56 56.83 57.97 58.94 59.60
54.30 53.60 53.89 53.72 55.27 55.42 55.70 55.51 54.52 53.93 53.93 54.14 53.89 53.36 53.04 53.23 54.04 54.86 54.62 53.71 51.28 47.53 47.56 50.46 51.58 53.41 53.19 52.90 51.92 52.20 52.38 50.99 47.92 48.10 48.49 49.77 51.62 52.87 53.56 54.42 55.32 56.13 57.41
52.90 52.49 52.72 52.52 52.88 54.22 55.11 55.45 55.41 54.59 53.99 54.05 54.50 54.72 54.58 54.68 55.15 55.29 54.97 54.27 53.72 51.76 49.38 51.17 51.98 53.74 54.50 54.87 54.40 53.50 53.39 50.38 47.81 46.53 46.07 47.06 48.30 50.19 51.45 52.18 53.08 53.97 54.81
52.39 52.44 52.87 52.86 52.57 52.54 53.68 54.09 54.30 54.65 53.89 53.52 53.83 53.03 53.89 55.02 54.70 54.92 55.27 54.86 54.22 53.60 51.39 53.05 53.12 53.75 52.95 54.44 55.00 54.97 54.89 53.60 53.12 47.17 45.86 45.81 46.07 46.87 48.06 49.46 50.44 51.51 52.10
51.79 52.21 52.69 52.88 53.19 53.54 53.31 53.17 53.38 54.27 53.44 52.84 52.79 52.88 53.30 54.03 53.41 54.26 54.82 54.38 54.13 54.33 53.06 51.47 53.41 52.45 51.40 53.52 53.93 54.03 53.44 53.91 54.50 51.28 47.39 46.40 45.82 45.69 45.78 46.64 47.59 48.22 48.28
50.64 51.79 51.92 52.27 52.85 53.46 53.84 53.72 53.56 53.54 53.52 53.93 53.70 53.02 53.49 53.48 52.85 53.62 53.16 53.68 53.91 54.21 54.19 53.22 52.46 53.92 53.76 50.57 51.46 51.31 52.66 51.72 50.70 50.00 46.41 45.03 44.92 45.37 45.49 45.63 45.99 45.47 45.05
50.66 50.75 51.54 51.81 52.19 52.94 53.29 53.76 53.66 53.15 52.86 53.06 53.68 53.76 53.58 53.37 53.19 53.33 52.90 52.70 52.90 52.99 52.95 52.47 52.41 52.41 52.08 50.92 47.57 49.36 47.99 45.13 49.77 50.50 47.65 45.52 44.71 44.41 44.47 44.09 43.19 43.11 42.40
52.25 51.50 51.02 51.31 51.56 51.67 52.27 52.57 52.89 52.36 52.19 52.17 52.38 52.88 53.46 52.90 49.68 51.36 53.76 53.78 53.39 52.47 52.20 51.39 51.03 51.43 51.50 50.49 47.62 51.95 50.47 51.29 49.25 47.59 44.81 42.50 42.83 42.14 42.73 42.19 42.45 41.42 39.56
53.52 52.75 51.93 51.32 50.96 51.45 46.56 44.01 48.71 51.92 51.85 51.29 51.00 51.75 52.32 48.13 48.34 44.90 44.99 46.27 50.94 51.88 51.39 51.33 51.28 50.55 51.22 52.21 52.92 50.56 50.39 49.23 45.48 40.89 40.65 38.97 39.52 38.98 40.26 39.95 39.36 39.16 38.91
55.33 53.81 53.05 52.55 51.95 52.04 44.67 43.89 42.73 50.92 51.27 51.20 51.20 51.25 51.21 51.83 47.10 51.15 45.14 42.43 42.94 42.64 43.84 52.15 51.19 51.17 51.23 52.80 53.21 51.68 50.20 49.35 48.32 38.09 37.24 33.10 35.74 35.41 38.63 39.09 38.72 38.16 37.74
56.62 56.00 55.92 55.31 54.19 53.62 44.49 43.04 41.78 48.83 50.78 51.31 50.93 50.91 50.70 50.60 50.30 49.55 49.40 48.89 46.55 48.46 46.44 45.11 48.66 51.16 52.73 45.57 44.02 47.03 50.30 38.58 33.33 33.52 35.52 31.59 32.36 32.03 34.90 36.22 37.75 37.38 37.01
56.04 56.28 56.87 56.74 56.08 55.23 46.32 43.42 42.97 49.37 50.07 50.50 51.44 51.02 50.66 49.87 47.67 44.15 48.13 48.00 47.80 35.72 35.43 36.24 35.76 35.01 34.82 35.93 37.47 38.29 34.37 34.95 31.67 30.44 30.21 31.78 30.54 30.86 31.47 31.85 33.49 34.74 35.34
54.77 56.49 56.11 55.86 48.80 47.84 35.55 36.96 42.32 52.09 49.89 49.68 50.15 49.79 43.28 47.58 44.80 41.52 47.45 48.93 47.23 36.24 31.84 29.49 29.25 30.10 30.82 30.98 30.62 31.32 33.25 33.28 29.53 26.60 27.39 28.54 27.68 28.61 27.21 29.43 30.23 29.78 29.12

GFSMA_sfc_wetblb_096.txt.gz
Wetbulb
60.91 61.70 61.85 62.86 62.91 63.99 62.89 58.42 57.60 57.36 57.09 56.62 56.65 56.56 56.25 56.46 57.20 58.19 58.71 61.33 62.39 63.23 62.61 63.43 63.14 62.49 61.69 60.94 60.44 59.75 59.65 59.65 59.48 59.19 58.71 58.38 57.96 57.75 57.46 56.64 56.42 56.17 55.44
62.03 61.83 62.15 62.41 61.66 62.19 60.89 57.87 56.86 56.43 56.35 56.50 56.13 56.36 55.81 56.56 57.04 57.31 57.90 60.04 60.97 62.15 62.76 62.78 62.64 62.41 61.54 60.71 59.44 59.48 59.33 59.24 58.80 58.53 58.15 57.80 57.23 56.79 56.63 56.29 55.29 55.33 54.47
61.72 61.78 61.62 61.39 60.99 60.71 59.96 57.21 55.62 55.52 54.91 55.80 55.41 55.97 56.33 56.08 56.30 56.86 56.47 57.89 59.89 60.25 61.38 62.28 61.99 61.46 60.92 60.31 59.19 59.06 58.85 58.54 58.22 57.85 57.39 57.13 56.61 55.98 55.75 55.63 54.61 54.41 53.77
61.99 62.14 61.70 61.03 60.61 59.28 57.61 55.42 54.88 54.71 54.83 54.82 54.22 54.69 55.53 56.25 56.38 56.47 56.70 57.37 57.19 58.41 59.95 60.82 61.27 61.39 60.48 60.04 59.71 59.59 58.85 58.42 58.15 57.47 56.82 56.39 55.91 55.58 55.31 55.04 54.47 53.63 53.24
61.91 61.58 61.88 60.81 59.30 58.21 56.73 55.41 52.99 54.43 54.13 54.16 54.12 53.91 54.91 55.20 55.92 56.50 56.26 56.45 56.79 56.88 57.14 59.59 59.83 59.93 60.25 60.39 59.87 59.58 59.74 58.81 58.09 57.62 56.81 56.19 55.73 55.21 54.93 54.83 54.70 54.06 53.20
62.57 62.06 61.64 59.58 59.28 57.24 55.67 55.02 52.90 53.92 54.75 54.61 55.04 53.69 53.91 54.35 55.01 55.01 55.42 56.62 56.45 56.53 56.76 57.48 58.12 57.83 58.66 60.06 59.81 59.93 60.01 59.53 59.03 58.43 57.55 56.89 56.23 55.61 55.05 54.63 54.54 54.25 54.10
62.33 62.27 60.88 58.30 58.46 57.22 55.72 54.79 53.03 53.09 53.97 55.45 53.34 52.99 52.61 53.25 54.10 54.34 55.03 55.30 55.33 55.75 56.17 57.02 57.02 56.74 57.76 59.40 60.17 60.09 60.83 60.67 59.96 59.41 58.61 57.90 57.03 56.20 55.70 55.32 55.07 54.65 54.41
62.13 62.04 60.40 58.37 57.49 56.12 55.08 53.48 53.70 52.84 53.24 55.44 52.99 52.46 50.22 51.79 53.28 54.01 54.20 54.71 54.69 55.38 55.38 55.92 56.41 55.96 56.26 57.35 57.75 60.26 60.61 61.13 60.94 60.18 59.65 59.35 58.83 57.47 56.78 56.42 56.16 55.76 55.59
60.41 61.88 60.09 58.68 57.35 55.88 54.75 54.20 53.86 53.84 52.84 53.95 55.08 51.96 49.46 48.41 50.32 52.42 53.01 53.73 53.53 54.00 54.84 54.94 55.23 55.63 55.30 55.75 56.86 57.59 57.23 57.80 60.92 61.86 61.42 60.72 60.08 59.72 59.10 57.99 57.50 57.03 56.86
59.56 60.60 60.37 58.68 57.83 56.10 55.40 55.16 54.32 54.08 54.19 52.90 54.47 53.17 52.93 52.12 49.41 47.07 51.10 53.03 53.33 53.26 53.73 54.26 54.78 55.10 55.25 55.10 55.42 54.78 53.65 53.75 55.76 59.62 61.55 61.80 61.11 60.66 60.21 59.95 59.44 59.10 58.39
57.90 60.71 60.04 58.86 57.47 55.03 55.61 55.67 54.08 54.00 54.78 54.25 53.94 51.65 51.65 51.59 50.79 48.85 47.07 49.77 52.33 53.71 54.52 54.61 54.82 55.06 55.31 55.45 55.27 54.60 52.55 51.93 52.87 56.39 58.91 60.60 61.72 61.44 60.90 60.69 60.39 60.04 59.80
58.12 59.45 59.68 58.95 57.95 55.15 55.05 55.38 54.84 54.50 54.74 54.19 53.87 53.48 52.14 50.94 50.51 49.55 48.22 49.68 50.84 52.77 54.37 54.98 54.45 54.82 55.22 55.41 55.59 53.58 52.03 50.79 51.75 54.12 56.19 57.81 59.37 60.67 61.38 61.53 61.21 60.95 60.73
55.37 57.32 58.52 58.04 57.38 55.62 55.78 55.36 54.75 54.71 54.33 54.22 53.97 53.20 53.75 53.09 53.69 52.49 50.65 49.42 49.52 51.41 51.28 53.83 54.57 55.20 55.23 55.29 55.35 53.20 52.52 50.52 50.26 51.97 53.85 55.36 56.63 57.76 58.68 59.84 60.97 61.44 61.44
55.18 56.88 57.20 56.40 56.02 55.38 55.84 55.44 54.46 54.77 54.74 54.39 53.95 53.25 53.11 54.00 54.46 53.76 51.51 50.55 48.26 49.39 50.32 51.18 53.05 53.96 54.99 55.63 55.01 51.89 54.25 49.07 49.01 49.80 51.15 52.62 53.87 54.79 55.62 56.63 57.69 58.67 59.69
55.30 54.43 55.96 55.19 54.16 54.71 55.34 55.21 54.71 54.06 54.81 54.49 53.89 53.89 53.46 53.90 55.21 54.56 54.24 53.17 50.46 47.36 47.99 51.09 51.65 53.69 53.49 54.14 53.59 54.06 54.39 51.95 49.00 48.27 48.50 49.69 51.48 52.71 53.36 54.20 55.04 55.84 56.97
54.63 54.30 54.00 54.30 54.71 54.04 55.50 55.13 54.49 54.55 53.71 54.03 54.12 53.13 53.52 54.23 54.45 54.39 54.40 54.34 53.45 51.48 48.72 51.56 52.37 53.91 54.11 53.92 53.21 52.76 52.83 50.53 48.38 46.91 46.36 47.39 48.64 50.33 51.18 51.85 52.46 53.22 54.10
52.05 53.47 53.71 53.58 54.06 54.48 55.30 55.13 54.81 54.49 53.29 53.40 53.77 54.03 53.73 54.09 54.03 54.06 53.58 53.61 53.54 53.37 51.23 52.64 53.46 53.74 53.56 54.44 55.13 54.77 54.47 54.57 54.57 47.64 47.65 46.22 46.04 46.73 47.55 48.39 48.92 50.01 51.11
51.41 51.78 52.36 52.72 52.76 53.11 54.10 54.79 54.69 55.24 54.53 53.46 52.81 53.06 53.07 53.65 53.91 54.12 53.90 54.06 54.10 54.57 53.09 51.43 53.64 52.70 52.49 53.65 54.55 54.81 54.66 54.89 55.46 52.00 48.40 46.81 46.33 45.83 45.60 45.40 45.95 46.63 47.81
50.67 51.08 51.51 51.86 52.51 53.17 52.68 52.60 53.01 52.92 52.77 53.81 54.48 53.34 52.97 52.83 52.52 52.46 52.80 53.23 53.61 53.91 53.76 53.20 52.72 53.56 53.88 53.46 52.90 53.54 53.79 54.28 53.31 51.84 48.16 46.89 46.32 46.34 45.73 45.14 45.39 45.66 46.37
49.77 50.29 50.70 51.50 52.08 52.36 53.09 52.83 52.27 52.04 52.43 53.00 53.07 53.01 53.30 52.72 52.10 52.04 51.98 52.49 52.92 52.88 52.91 52.52 52.50 52.70 53.46 53.14 51.13 51.69 51.27 49.58 51.55 52.03 49.78 48.38 47.57 45.67 45.35 45.14 44.36 44.61 45.31
50.22 50.17 50.49 50.79 51.23 51.87 52.43 52.52 52.90 52.57 52.24 52.02 52.24 52.77 53.14 52.15 48.89 50.77 53.05 52.95 52.76 52.14 52.07 51.80 51.43 52.01 51.89 51.21 49.16 52.08 50.64 52.09 52.41 52.36 52.13 50.97 48.81 47.91 47.27 43.69 44.85 44.24 44.26
50.97 50.31 49.58 49.97 49.94 50.87 46.06 44.49 49.20 52.34 52.47 52.01 51.65 51.82 52.44 48.39 48.22 44.58 44.53 45.55 50.17 51.81 51.35 51.39 51.17 50.69 51.00 51.71 52.59 51.87 50.91 49.56 48.45 49.03 49.55 50.14 44.16 44.82 44.67 44.42 42.41 41.32 41.09
52.36 51.64 51.01 50.74 50.25 50.69 43.82 43.50 42.66 51.15 51.51 51.41 51.24 51.51 51.28 51.68 47.30 51.48 45.49 42.33 42.69 42.61 44.80 52.09 50.96 51.31 51.18 52.20 52.45 51.30 50.97 50.62 50.61 50.87 43.69 42.69 37.52 37.12 39.90 40.34 39.64 39.56 39.12
54.77 54.09 53.34 53.27 52.87 52.88 44.22 42.84 41.86 48.47 50.43 50.90 50.92 51.07 50.76 50.92 50.79 49.92 49.87 49.65 47.50 48.47 46.95 47.02 50.59 52.24 52.85 51.45 48.79 48.45 47.87 44.62 34.59 33.82 35.88 33.64 33.01 32.33 34.30 36.31 38.60 38.45 37.78
53.02 55.66 56.16 55.44 54.72 52.34 36.32 38.59 41.46 48.98 49.97 50.37 51.29 51.30 51.15 50.83 47.88 44.13 48.32 48.20 47.69 45.96 35.78 37.14 34.62 33.95 33.82 33.66 35.34 40.99 40.87 38.97 32.95 29.82 29.12 32.06 30.42 30.74 31.19 30.87 32.44 34.19 33.84
44.14 45.06 39.59 35.15 34.91 35.79 35.24 36.11 37.88 45.50 48.62 48.88 49.30 48.99 37.78 36.25 37.25 38.75 44.67 47.27 46.27 45.59 31.86 29.76 29.67 29.43 30.08 30.20 30.16 30.52 33.39 37.93 29.67 26.31 27.38 28.34 27.68 29.05 26.22 28.82 27.98 27.96 28.81

GFSMA_sfc_wetblb_099.txt.gz
Wetbulb
64.61 65.50 64.83 64.28 64.04 64.89 62.71 61.58 61.35 61.65 62.64 63.17 63.25 62.69 62.51 63.06 63.51 63.76 63.79 62.27 62.87 64.19 63.46 63.74 63.81 63.36 62.60 62.29 61.53 61.10 60.65 60.07 59.88 59.80 59.47 59.04 58.74 58.71 58.18 57.79 57.50 56.60 56.37
63.34 62.72 63.57 62.48 63.52 64.16 62.07 60.37 60.40 61.56 62.07 62.89 62.16 62.36 62.19 62.47 63.00 63.05 63.10 63.41 61.64 62.64 63.51 63.33 63.20 62.62 62.40 61.92 61.02 60.28 60.42 59.94 59.58 59.53 59.13 58.61 58.46 58.07 57.37 56.99 56.91 56.01 55.63
64.11 63.33 62.12 61.74 62.59 63.13 59.83 59.80 59.37 59.41 61.48 61.86 61.38 61.45 61.67 62.03 61.93 61.95 62.21 61.75 61.48 60.46 61.94 62.99 62.80 62.34 61.82 61.64 60.75 60.12 59.73 59.42 59.40 59.03 58.82 58.38 57.86 57.65 57.17 56.43 56.10 55.48 55.00
64.39 63.43 61.85 61.92 61.89 60.47 58.58 58.07 57.97 57.17 58.94 60.06 60.06 60.55 60.65 60.94 61.03 60.56 61.73 61.72 61.30 61.10 61.01 61.87 62.26 62.31 61.74 60.74 60.11 59.95 59.76 59.48 58.97 58.57 58.27 57.90 57.32 57.00 56.71 56.24 55.35 55.11 54.44
64.87 63.69 63.13 61.69 60.83 58.70 57.75 57.16 57.04 57.36 57.10 59.18 59.47 59.86 60.18 60.05 60.72 60.54 60.98 61.50 62.00 61.36 61.61 60.62 60.57 60.42 61.00 60.68 60.26 60.31 60.24 59.60 59.08 58.68 58.04 57.48 57.08 56.66 56.22 55.93 55.33 54.71 54.50
63.98 63.39 62.25 61.35 60.17 58.20 56.30 56.52 56.10 57.09 57.35 59.02 58.45 58.48 59.49 60.07 60.49 60.37 60.47 60.79 61.52 61.44 61.64 61.12 60.68 59.56 58.97 60.62 60.62 60.33 60.78 60.21 59.61 59.07 58.09 57.35 56.93 56.32 56.20 55.97 55.85 55.35 54.61
62.77 62.45 61.18 60.37 60.61 58.22 56.75 55.98 56.24 55.94 57.16 58.66 57.10 56.12 56.86 58.72 59.17 59.50 60.23 60.24 60.38 60.82 61.19 60.95 60.40 60.51 59.86 59.75 60.57 60.65 61.07 61.02 60.26 59.60 58.84 58.04 57.40 56.83 56.28 56.03 55.86 55.67 55.44
63.16 62.16 60.62 59.81 59.42 59.08 57.26 55.69 56.04 55.81 57.14 57.38 56.05 55.31 51.64 53.65 56.49 58.32 59.31 58.96 60.08 60.07 59.21 59.65 59.92 60.03 60.04 59.26 59.69 60.51 61.04 61.49 60.93 60.40 59.84 59.47 58.85 58.24 57.11 56.62 56.30 56.07 55.73
61.44 62.91 60.92 60.31 59.30 58.26 56.82 56.48 56.38 56.81 55.10 57.43 58.45 56.46 51.56 50.70 53.26 56.74 57.64 58.66 59.04 59.30 59.91 60.05 60.06 59.84 59.78 59.77 59.15 58.92 57.44 58.05 61.15 61.70 61.39 60.93 60.42 59.78 59.03 57.92 57.41 57.00 56.75
61.63 61.14 61.35 59.99 58.82 58.30 56.67 56.20 56.66 57.27 56.79 55.80 56.76 56.05 59.04 57.21 53.19 51.98 55.91 56.36 58.32 57.66 58.87 58.93 58.87 59.18 59.54 58.98 58.20 56.37 54.28 53.93 56.10 59.98 61.87 62.21 61.37 61.03 60.55 60.10 59.74 59.42 58.45
60.27 61.68 60.90 59.88 58.23 57.81 57.17 55.88 55.25 57.29 57.16 56.84 54.92 54.41 54.22 56.58 57.33 54.57 51.55 52.54 55.58 57.40 58.42 58.53 58.43 58.46 58.81 58.42 58.55 57.27 53.00 52.17 53.43 56.81 59.33 60.85 61.88 61.96 61.53 61.18 60.84 60.51 60.29
59.02 60.70 61.20 60.81 58.35 58.05 57.83 56.65 56.56 55.31 55.64 56.39 56.52 54.45 53.88 53.82 53.19 53.12 52.30 53.34 54.15 56.04 57.02 57.44 57.90 57.94 58.56 58.55 57.87 54.70 52.47 50.91 51.58 54.24 56.41 58.00 59.32 60.60 61.55 61.88 61.70 61.55 61.22
57.45 59.36 60.04 60.03 58.46 59.05 58.25 56.98 55.48 55.07 55.71 56.69 55.51 54.73 55.08 55.60 56.70 56.35 54.57 53.81 54.52 55.99 56.35 58.09 58.33 58.08 58.15 58.90 58.67 53.98 52.73 50.00 50.16 52.08 53.95 55.33 56.54 57.58 58.54 59.67 60.96 61.74 61.79
56.43 58.78 60.24 58.99 58.34 57.85 57.81 56.28 55.76 55.56 55.65 55.73 55.24 55.13 54.92 55.56 57.39 57.10 55.50 52.66 51.63 54.20 55.57 56.05 57.03 57.73 58.88 58.98 58.44 52.38 57.35 48.93 48.98 49.88 51.14 52.61 53.77 54.63 55.47 56.48 57.51 58.52 59.51
57.08 58.03 57.89 57.73 57.41 56.76 56.41 56.11 55.09 54.55 55.16 55.30 54.39 55.07 55.35 55.55 55.75 56.84 57.85 57.28 53.04 50.39 51.97 55.36 55.35 56.95 58.16 59.41 57.64 59.12 57.21 53.28 48.91 48.63 48.57 49.90 51.38 52.67 53.08 53.85 54.63 55.53 56.61
56.63 56.68 57.29 55.93 55.38 55.72 55.88 55.66 54.89 54.41 53.85 54.97 55.28 55.38 55.31 55.01 56.30 57.09 57.70 56.99 54.32 53.06 51.03 54.06 55.80 57.77 55.40 56.49 56.81 57.62 58.42 52.97 49.35 47.68 47.34 47.86 48.75 50.33 51.14 51.75 52.25 52.96 53.91
56.20 55.79 55.85 56.41 55.27 55.29 56.17 55.40 54.67 55.12 54.39 54.15 55.81 56.76 55.81 55.31 54.87 56.80 57.81 57.37 56.13 56.80 53.99 56.00 57.32 58.80 56.27 55.43 55.26 56.72 54.87 54.52 54.56 47.43 46.70 46.59 46.82 47.32 47.89 48.66 49.33 50.20 50.93
55.46 56.74 55.97 55.28 55.49 55.23 56.28 56.19 54.99 54.88 54.64 54.03 54.12 54.00 53.42 53.58 53.83 55.00 55.65 55.02 55.99 56.19 54.58 54.69 57.35 57.83 57.24 57.40 58.75 56.14 55.64 55.85 56.13 52.14 47.99 46.81 46.43 46.29 45.78 45.88 46.09 46.82 47.57
56.87 56.64 56.64 54.55 54.06 54.89 55.43 55.75 55.53 55.59 54.63 54.20 54.02 53.59 53.63 54.02 53.14 53.63 53.84 53.75 54.86 55.08 55.79 55.93 55.96 57.58 57.52 56.92 56.22 55.12 55.57 55.18 55.23 52.97 49.06 47.18 47.21 47.44 46.68 45.75 45.67 45.61 45.77
55.91 56.07 56.45 56.73 56.85 55.69 54.42 54.51 54.93 54.92 55.45 56.12 57.12 56.74 54.77 53.54 53.34 53.36 54.28 53.59 53.48 53.73 54.92 56.08 55.97 56.09 57.39 58.92 58.03 56.55 56.82 57.68 56.79 56.80 52.73 50.17 49.58 48.42 46.66 46.45 45.95 45.75 45.61
55.11 55.83 55.67 55.80 56.33 56.38 56.24 56.01 54.53 53.79 53.87 54.66 56.90 57.03 57.82 56.20 50.22 52.30 53.72 53.26 53.28 53.21 54.39 54.68 54.79 55.69 56.00 56.71 56.02 56.93 56.06 57.39 58.05 57.79 55.74 57.30 58.23 56.92 55.07 46.75 47.29 45.35 44.90
55.01 54.74 54.39 54.85 55.05 54.58 46.61 45.11 51.93 55.76 54.99 55.34 55.43 56.13 56.45 50.11 50.06 44.82 44.78 45.62 51.73 54.37 54.82 53.61 53.17 52.41 53.39 54.78 55.88 54.65 54.42 53.11 51.39 58.84 57.05 56.45 58.61 56.76 55.85 54.41 43.07 42.29 42.57
55.43 54.72 54.49 54.57 54.69 55.23 43.54 43.80 43.31 55.54 55.75 55.93 55.84 55.67 55.60 55.46 50.62 55.67 46.54 42.55 42.91 42.69 43.91 54.32 53.04 52.92 52.77 54.14 55.90 53.87 53.81 53.59 53.26 55.61 54.69 53.04 42.90 41.12 39.74 40.97 40.07 39.69 39.53
54.51 54.33 54.14 53.93 54.02 45.85 37.36 40.41 41.14 50.25 52.32 53.05 53.47 54.04 54.55 55.42 55.54 54.20 54.06 54.07 52.91 51.08 48.25 47.28 49.81 52.18 50.95 41.09 42.78 47.62 49.26 51.23 46.56 37.13 38.86 42.02 35.39 32.12 33.65 33.80 35.79 36.47 36.30
44.81 40.25 39.64 41.57 43.91 36.80 35.62 35.86 39.20 47.13 49.12 50.46 51.57 51.05 44.33 46.64 42.17 39.51 47.36 48.48 48.23 47.40 35.42 36.53 33.80 32.70 32.67 32.47 33.27 38.44 41.37 42.64 41.64 32.35 29.33 33.13 31.78 29.50 28.55 27.99 31.60 33.06 32.87
38.37 37.06 34.72 34.12 33.48 34.22 34.62 35.95 37.21 43.75 46.37 45.34 35.40 34.24 33.46 34.70 35.01 36.01 41.04 42.24 43.67 42.70 32.49 31.50 29.97 29.23 29.31 28.88 28.49 29.26 30.94 34.06 35.48 30.29 27.78 28.82 28.35 29.83 25.13 27.40 27.80 28.90 29.27

GFSMA_sfc_wetblb_102.txt.gz
Wetbulb
66.35 65.27 65.68 66.27 67.57 68.01 65.48 64.54 64.48 64.04 66.99 66.41 66.30 66.27 65.76 65.56 65.57 64.86 64.07 63.06 63.68 64.76 64.51 64.66 64.48 63.97 63.38 63.00 62.29 61.52 60.74 60.75 60.24 60.19 60.07 59.85 59.78 59.30 58.98 58.94 58.31 57.62 57.36
66.33 65.99 65.98 66.09 67.04 67.92 66.40 64.31 63.53 63.74 66.50 66.56 65.76 65.77 65.61 65.60 65.21 64.88 63.57 64.46 62.23 63.26 64.23 64.39 64.20 63.80 63.22 62.53 62.11 61.24 60.60 60.21 60.41 60.05 59.83 59.64 59.35 58.85 58.36 58.10 57.34 56.80 56.81
66.47 65.63 65.19 65.30 66.84 66.50 62.62 62.44 61.87 62.36 62.47 65.18 64.91 65.01 65.07 65.03 64.30 63.61 64.54 63.27 63.26 60.95 62.25 63.55 63.92 63.20 62.85 62.43 61.57 61.07 60.53 60.27 60.05 59.92 59.57 59.20 59.04 58.50 57.74 57.70 57.03 56.46 56.22
66.64 66.21 65.26 64.77 65.37 64.01 62.01 60.68 60.38 60.65 61.68 63.43 63.48 64.16 64.42 64.28 64.00 63.43 63.09 63.72 63.20 63.49 61.35 62.03 62.67 63.05 62.69 62.01 61.36 60.93 60.75 60.25 59.80 59.71 59.27 59.00 58.73 58.23 57.68 57.08 56.83 56.07 55.70
66.60 66.03 64.91 63.56 63.60 60.41 60.76 60.21 59.66 59.82 60.46 62.61 62.66 62.86 63.48 63.08 63.07 62.57 62.00 62.72 62.33 63.31 62.44 61.29 61.12 61.01 61.75 61.93 61.09 61.18 61.06 60.33 59.76 59.70 59.07 58.81 58.31 57.89 57.64 57.09 56.22 56.09 55.44
66.26 65.96 65.32 61.46 60.16 58.82 58.00 58.94 58.34 58.99 59.61 62.23 61.36 61.60 62.28 62.43 62.45 62.49 60.88 62.03 62.21 61.85 62.22 63.48 61.89 60.90 59.99 61.12 61.03 60.90 61.36 60.73 60.29 59.84 59.14 58.63 58.29 57.70 57.20 57.07 56.44 55.86 55.76
65.30 64.72 63.76 61.37 59.71 58.10 57.60 57.67 57.54 57.33 57.90 60.09 58.82 58.40 59.62 61.07 60.65 60.62 60.89 61.49 61.82 60.85 61.73 62.00 61.34 62.08 60.68 60.02 61.05 60.82 61.41 61.30 60.77 60.29 59.50 58.82 58.07 57.66 57.33 57.01 56.80 56.65 56.15
64.92 64.28 62.47 61.87 60.17 58.72 57.98 57.37 57.24 56.46 57.29 59.21 56.78 56.70 52.99 55.13 58.52 59.41 60.30 60.81 61.14 61.59 61.41 62.16 61.94 61.75 61.95 61.19 60.32 60.85 61.12 61.78 61.48 60.67 59.94 59.57 59.13 58.75 57.69 57.01 56.86 56.86 56.82
64.40 63.02 62.63 61.26 59.97 59.21 58.11 58.52 58.58 58.52 56.65 57.98 59.76 57.47 52.57 51.77 54.42 58.20 59.29 59.42 60.67 60.74 61.17 61.65 61.83 61.00 60.88 61.75 60.26 59.50 57.78 58.26 61.44 61.85 61.38 60.89 60.27 59.74 59.18 58.13 57.71 57.30 57.00
63.60 63.07 62.32 61.75 60.24 58.89 57.63 58.96 59.60 58.55 58.63 56.52 59.27 60.04 60.41 58.92 53.67 53.27 57.48 58.89 59.63 59.70 60.69 60.88 60.94 61.38 61.35 61.23 59.75 56.78 54.52 54.30 56.12 60.35 62.04 61.71 61.52 60.79 60.43 59.98 59.61 59.27 58.99
63.98 63.02 61.42 61.98 61.18 59.52 58.73 57.90 59.47 59.44 58.92 58.45 58.61 59.36 59.78 59.27 59.47 56.31 54.05 55.48 57.60 59.62 60.35 59.93 59.95 60.65 61.23 60.70 60.90 58.62 53.42 52.65 53.77 56.85 59.36 61.31 62.21 61.96 61.42 61.16 60.75 60.45 60.19
62.00 62.35 63.25 61.09 60.23 60.16 59.15 58.13 57.05 59.01 59.09 59.81 61.18 61.23 58.54 56.87 56.93 56.10 55.66 56.00 56.18 58.25 58.91 59.44 60.16 60.33 60.82 60.48 59.22 55.08 53.11 51.61 52.11 54.59 56.82 58.29 59.78 61.12 61.94 62.16 62.01 61.84 61.47
59.79 61.31 62.10 61.96 59.89 59.31 59.32 57.49 56.51 56.82 57.60 57.30 59.05 59.07 58.10 56.53 55.65 56.61 55.75 55.42 56.02 57.60 57.90 59.98 60.40 60.14 59.89 60.92 60.54 54.76 53.34 50.14 50.57 52.37 54.10 55.49 56.69 57.72 58.78 59.80 61.03 61.92 62.27
60.43 60.79 61.15 61.73 61.13 60.03 58.65 57.93 56.38 56.57 57.15 57.04 58.23 56.92 56.22 58.59 56.62 55.85 54.28 53.22 52.64 54.33 56.53 57.53 59.66 60.11 60.55 60.95 60.31 52.78 58.99 49.37 48.95 49.72 51.33 52.99 53.93 54.66 55.32 56.34 57.47 58.26 59.39
59.03 59.06 60.24 59.43 59.40 59.63 60.01 59.08 58.88 57.12 56.33 56.63 57.34 57.43 56.72 56.46 57.14 57.20 55.94 54.74 52.48 51.44 51.90 55.67 57.27 60.75 61.52 61.81 59.62 61.09 60.61 54.57 48.89 48.55 49.01 50.02 51.47 52.65 53.22 54.02 54.61 55.53 56.50
59.67 59.50 58.41 59.62 58.41 58.05 57.95 58.07 56.83 56.00 55.46 55.64 55.96 55.97 55.81 55.95 55.88 56.07 55.57 56.29 55.84 53.45 51.16 55.57 57.45 59.80 60.97 60.30 59.45 60.92 61.12 54.20 49.66 47.39 47.02 47.75 48.84 50.27 51.05 51.55 52.20 52.82 53.69
59.10 58.90 58.61 59.39 57.16 56.31 56.22 55.82 55.34 55.10 54.51 54.79 54.45 53.86 53.81 54.45 54.61 55.87 55.82 56.07 54.53 54.57 51.38 54.25 56.53 58.42 60.28 60.66 59.31 60.35 59.50 58.71 59.55 48.72 47.34 46.93 46.91 47.48 48.21 48.69 49.22 50.13 51.10
59.28 58.41 58.23 58.99 57.46 57.81 57.76 57.13 55.91 55.65 54.55 54.00 54.63 54.35 54.14 56.06 55.83 57.33 56.34 55.22 55.21 57.85 55.95 54.05 54.32 56.40 59.75 60.52 60.89 60.72 59.28 57.97 57.57 51.84 47.65 46.87 46.82 46.52 46.37 46.52 46.77 47.37 47.67
58.56 58.38 58.66 58.13 56.89 57.61 57.98 57.56 57.00 57.03 56.41 55.81 55.70 55.42 56.27 56.72 55.24 55.42 54.77 54.50 55.17 56.80 57.04 54.05 55.21 58.73 58.79 59.19 59.54 60.45 60.30 60.72 57.86 53.38 48.07 46.87 46.87 47.01 46.87 46.36 46.41 46.36 46.22
58.00 58.06 58.05 58.72 58.44 58.37 57.91 57.91 57.74 56.70 57.77 57.70 57.61 57.07 55.53 54.77 54.76 54.36 54.84 55.11 53.47 53.48 54.00 54.26 53.74 54.87 55.94 58.56 59.61 58.44 57.90 60.57 59.00 59.64 55.58 52.59 51.66 50.01 46.84 46.75 46.21 46.03 45.84
58.28 58.51 58.28 58.76 58.62 58.35 57.96 57.90 57.24 56.89 56.91 56.70 57.22 56.99 57.27 55.47 50.33 53.16 56.67 56.52 54.16 53.23 53.48 54.29 53.18 52.39 52.73 54.11 56.20 58.58 58.12 59.27 60.28 61.14 61.03 61.40 60.97 60.64 58.93 48.61 49.86 46.12 45.54
58.03 57.96 57.52 57.97 58.08 57.75 48.38 46.21 53.14 57.93 57.33 57.08 57.65 57.52 57.43 51.61 51.92 45.07 45.66 46.43 53.86 56.11 55.03 54.04 52.14 52.14 54.33 56.49 58.69 58.19 58.06 57.19 55.27 60.92 59.92 59.25 60.73 59.08 50.00 44.59 40.68 40.84 41.81
57.78 56.89 57.32 57.59 57.01 53.74 37.62 41.20 43.47 57.98 58.10 57.90 57.88 57.84 57.18 57.67 53.23 58.29 47.51 42.51 43.40 42.87 44.03 56.66 56.66 56.66 56.17 56.43 54.57 56.36 56.61 55.99 55.03 55.19 49.90 54.29 46.82 34.01 34.83 36.68 38.18 38.57 38.67
47.81 50.36 48.44 53.92 44.11 37.98 36.18 36.53 37.81 47.92 52.03 54.39 56.20 52.85 51.64 53.49 49.25 47.81 54.38 54.68 53.38 52.45 49.27 49.73 50.33 48.92 40.32 36.54 38.36 42.42 43.17 43.69 44.81 34.86 36.51 36.16 33.21 28.97 30.63 32.37 34.49 34.66 34.39
39.70 37.93 37.84 38.88 37.81 36.05 35.10 35.79 38.48 47.19 48.76 50.18 39.07 35.54 37.54 39.85 35.98 36.91 44.38 47.48 46.64 36.73 35.22 34.63 33.76 32.33 31.20 30.56 31.32 37.97 40.03 39.54 40.85 33.11 30.47 34.01 31.93 28.03 28.09 28.13 30.38 32.28 32.34
35.85 35.00 32.93 33.52 33.26 33.04 33.77 35.22 39.93 44.62 44.55 35.50 32.62 32.21 32.52 33.57 33.41 33.83 39.72 40.80 40.31 35.76 31.60 30.23 28.47 27.56 27.13 27.18 27.04 27.88 29.11 33.61 34.72 31.93 26.44 29.70 30.22 30.02 25.92 29.34 29.86 31.32 31.20

GFSMA_sfc_wetblb_105.txt.gz
Wetbulb
69.16 69.44 68.91 68.40 68.01 68.89 68.01 66.72 66.12 63.31 63.17 63.09 64.49 66.31 65.93 66.13 64.70 64.75 64.47 63.43 64.13 65.35 64.74 64.40 64.40 64.46 64.14 63.47 63.21 62.78 62.32 61.44 60.77 60.46 60.56 60.68 60.01 60.11 60.03 59.53 58.84 58.58 58.07
69.38 68.53 67.60 66.97 66.44 68.37 67.65 67.59 65.37 63.54 63.04 62.89 65.21 66.49 64.41 64.94 64.97 65.47 64.48 64.37 62.56 63.63 64.29 64.78 64.71 64.45 63.80 63.54 62.40 61.67 61.06 60.68 60.39 60.44 60.16 60.30 59.87 59.36 59.39 58.90 58.04 57.67 57.32
68.84 67.84 66.52 65.85 66.41 68.59 67.26 66.61 65.42 63.42 63.34 64.39 65.10 65.07 63.88 64.59 64.37 64.03 64.03 64.12 63.26 61.46 63.01 64.41 64.69 64.15 63.52 63.10 62.22 61.46 61.24 61.14 60.96 60.60 60.08 59.86 59.71 59.01 58.86 58.40 57.58 57.17 57.11
68.52 68.01 67.01 66.82 67.38 66.96 65.71 64.69 63.24 61.86 62.18 62.59 62.36 64.16 63.47 63.39 63.56 64.34 63.59 64.05 63.75 63.09 62.01 62.66 63.55 63.93 63.72 62.78 62.42 61.77 61.25 60.64 60.99 60.82 59.79 59.83 59.50 58.96 58.38 58.00 57.53 56.81 56.76
68.08 67.31 66.65 66.80 67.54 66.12 63.63 62.64 61.88 61.39 61.18 61.22 62.07 63.69 62.02 62.50 62.90 62.00 63.38 63.64 63.61 62.31 61.96 61.58 61.62 61.81 62.51 62.86 61.95 61.54 61.63 61.01 60.50 60.36 60.18 59.38 59.31 59.04 58.41 57.75 57.41 56.83 56.39
67.92 67.29 66.43 66.22 66.05 64.02 62.42 61.07 60.43 61.31 61.16 61.06 61.69 61.24 62.01 63.03 62.57 62.35 61.97 63.23 62.61 61.99 62.76 62.46 62.43 61.27 60.43 61.86 62.20 61.51 61.74 61.46 60.90 60.59 60.22 59.67 59.11 58.74 58.47 57.97 57.37 56.98 56.51
67.26 66.60 66.01 63.24 61.97 60.19 59.81 59.81 59.77 59.30 59.80 60.84 59.31 59.09 61.50 61.55 60.93 60.94 61.52 61.40 61.23 61.96 62.14 62.50 62.64 61.91 61.05 60.62 61.70 61.50 62.10 62.10 61.37 60.85 60.20 59.62 59.16 59.27 58.86 57.84 57.71 57.22 56.62
66.78 66.39 64.93 62.42 60.34 58.64 58.15 58.63 58.37 58.37 58.46 60.43 57.46 57.77 54.08 55.90 59.66 60.06 61.24 61.08 62.70 61.45 60.92 61.78 61.47 62.41 62.02 61.19 60.32 61.27 61.37 61.87 61.73 61.14 60.78 60.41 59.99 59.57 59.25 57.92 57.84 57.48 57.39
66.35 66.20 65.22 62.69 60.58 59.25 57.76 57.77 58.25 58.21 56.81 58.42 58.93 57.91 52.50 51.85 56.15 59.53 59.99 60.38 61.85 61.60 61.51 61.24 61.62 61.72 62.40 62.04 60.30 59.48 57.71 58.32 61.39 62.15 61.82 61.12 60.45 59.89 59.36 58.09 57.82 57.77 57.75
65.17 65.47 64.44 61.79 61.11 59.05 57.98 58.37 59.14 58.69 58.06 56.39 58.14 59.78 58.13 57.33 53.83 53.07 58.33 58.56 59.91 60.41 62.09 61.95 61.66 61.88 61.62 61.16 60.17 57.54 54.81 54.58 56.63 60.15 62.03 61.73 61.40 60.82 60.43 59.74 59.36 58.97 58.50
64.66 64.49 63.61 63.61 61.08 60.46 59.23 59.49 59.68 60.27 59.43 57.51 57.64 57.82 58.39 58.25 59.05 55.93 52.98 55.46 58.46 58.84 60.26 61.11 61.42 61.89 61.60 61.44 61.42 59.23 53.35 52.83 53.76 57.11 59.63 61.20 62.01 61.73 61.36 61.01 60.65 60.36 60.26
63.46 64.54 63.65 62.29 61.75 60.74 60.09 59.45 60.18 60.24 59.89 59.35 58.38 58.78 57.76 56.83 56.47 55.93 55.98 56.53 56.17 58.03 59.67 61.25 61.24 61.65 62.16 62.13 60.15 55.43 52.44 51.08 52.32 54.72 56.95 58.60 60.11 61.48 62.08 62.10 61.84 61.79 61.42
61.92 63.50 64.03 63.12 60.95 60.34 60.90 59.12 59.29 58.89 59.27 58.29 58.73 59.17 59.94 59.77 60.16 58.90 57.87 55.77 54.26 56.39 58.49 60.96 61.14 61.53 60.94 62.19 61.28 55.08 52.79 50.12 50.84 52.86 54.49 56.02 57.19 58.14 59.34 60.39 61.33 62.18 62.16
61.47 62.29 62.50 63.20 62.51 61.52 59.92 59.16 58.86 58.46 59.01 58.77 58.96 58.97 58.75 59.46 58.26 57.54 55.34 53.57 51.67 52.77 56.20 56.83 60.90 61.16 61.39 61.06 59.55 53.16 59.14 49.75 49.46 50.28 51.97 53.39 54.33 55.01 55.55 56.50 57.52 58.39 59.37
61.53 61.86 62.41 62.36 61.26 61.28 60.18 58.42 57.46 56.43 57.07 57.59 57.96 59.99 56.78 56.89 56.97 57.15 56.47 55.51 52.27 48.79 49.82 55.24 57.32 61.31 61.23 61.71 59.52 60.88 60.81 54.41 49.07 48.74 49.03 50.12 51.93 52.98 53.39 53.96 54.57 55.42 56.29
60.82 61.10 61.08 61.22 61.85 60.95 60.04 58.96 57.64 57.29 57.28 57.41 57.41 57.61 57.34 57.32 57.00 56.67 56.03 55.24 54.19 52.12 49.68 54.19 54.61 57.48 61.00 60.84 60.40 62.05 62.42 54.77 50.06 47.64 47.57 48.12 49.28 50.81 51.30 51.53 51.98 52.72 53.68
60.55 60.22 60.72 59.57 58.28 57.88 58.32 58.84 58.74 57.98 56.78 56.19 56.13 56.05 55.93 56.19 55.55 55.67 55.99 55.36 54.56 54.11 51.42 53.28 55.09 55.90 58.01 58.96 59.67 61.79 61.23 61.82 61.19 47.94 46.86 47.20 47.31 47.84 48.48 48.94 49.34 50.17 51.17
60.08 60.01 60.55 58.79 59.14 58.32 57.79 57.04 55.53 55.55 55.13 54.49 55.00 54.98 54.80 54.93 54.83 55.17 54.95 54.42 54.21 53.93 52.34 50.80 53.64 54.13 55.65 59.65 57.97 58.41 60.05 60.16 61.52 53.53 48.25 46.99 46.90 46.74 46.86 46.77 47.20 47.63 48.12
59.23 59.81 60.09 59.09 58.48 58.67 58.05 57.28 56.61 56.11 56.07 56.21 56.23 55.08 54.63 53.88 53.68 55.05 55.88 56.03 55.93 55.17 56.36 53.63 53.74 56.76 57.58 59.15 58.04 58.39 59.05 58.36 59.73 54.86 47.85 46.24 46.20 46.49 46.72 46.31 46.52 46.82 46.77
58.67 58.51 58.87 59.09 58.00 57.80 58.16 58.13 57.99 57.73 57.48 57.80 57.93 57.30 56.48 56.18 55.77 56.78 57.31 57.27 56.93 56.45 54.33 53.37 53.72 55.86 57.03 58.87 57.79 56.51 57.41 59.86 59.51 60.79 56.03 53.23 51.19 48.58 47.35 47.19 46.42 46.11 46.04
58.31 58.31 58.35 58.67 58.65 57.96 57.86 58.39 58.07 57.21 57.40 57.46 57.44 57.34 57.56 55.84 50.38 53.48 57.52 57.44 57.39 56.33 54.44 54.63 53.76 52.63 52.81 54.06 55.86 56.85 54.06 56.55 58.75 60.22 59.74 60.25 60.11 59.35 45.03 41.53 41.80 41.99 41.95
58.19 57.99 57.93 58.35 58.97 58.28 38.79 44.02 52.12 58.18 57.80 57.73 57.22 57.68 58.56 50.87 50.32 44.46 44.88 44.69 50.66 57.44 55.93 53.98 53.61 53.23 54.24 55.57 57.39 56.16 55.69 55.28 53.98 59.56 51.71 56.08 46.49 37.37 37.24 38.01 38.14 38.31 38.28
58.18 57.61 57.48 57.59 50.04 42.06 36.94 38.11 39.65 56.47 57.62 57.93 57.39 56.47 57.33 58.02 51.28 56.72 47.24 42.62 43.70 43.35 41.47 54.69 54.21 53.69 53.67 50.37 45.36 48.43 49.85 49.36 48.87 43.98 45.92 46.26 35.61 31.75 33.78 34.76 35.84 35.88 35.79
44.37 44.76 44.15 43.78 41.04 36.93 35.47 36.36 36.32 51.95 53.53 51.53 42.30 41.79 44.15 44.86 37.68 41.13 46.81 50.05 46.27 39.44 39.21 44.40 43.24 37.29 34.42 34.13 37.34 41.26 42.14 42.76 43.57 35.46 35.85 36.83 32.68 29.25 30.97 32.13 33.84 34.40 34.29
36.87 36.35 36.56 36.56 36.01 34.55 34.70 35.77 39.02 47.20 46.86 37.60 34.90 34.46 36.91 35.81 34.12 36.05 43.12 44.65 35.79 32.11 33.07 32.69 31.90 31.41 31.24 31.08 31.43 37.70 34.58 34.79 36.29 32.68 28.44 32.65 31.67 28.64 28.80 29.21 31.14 32.32 32.74
33.84 33.56 32.37 32.96 32.91 32.08 33.82 35.24 41.49 45.21 35.26 32.09 31.47 31.43 32.00 32.41 32.21 33.57 38.34 39.58 38.04 31.28 29.49 28.77 27.98 27.69 27.77 28.22 28.05 27.69 29.13 33.18 32.62 31.65 27.62 28.70 30.72 29.68 26.28 29.67 31.07 32.21 32.23

GFSMA_sfc_wetblb_108.txt.gz
Wetbulb
67.39 67.61 66.98 67.20 66.57 66.86 65.72 64.65 64.06 63.38 62.59 62.68 63.02 63.55 63.33 63.37 63.02 62.55 63.61 63.51 64.30 65.73 65.55 65.39 64.98 64.66 64.63 64.05 64.01 63.62 62.99 61.75 61.10 61.21 61.15 61.24 60.33 61.04 60.84 59.88 59.47 58.89 58.65
67.68 66.97 66.41 66.12 65.91 66.50 65.94 65.29 64.13 62.99 62.32 62.57 62.07 62.96 63.40 63.77 62.66 63.04 62.80 62.90 63.03 64.01 64.64 64.90 64.93 64.78 64.41 64.19 63.98 63.55 62.34 61.49 61.11 61.01 61.00 61.27 60.03 60.65 60.44 59.40 58.75 58.42 57.92
67.55 66.40 66.08 65.63 65.56 66.07 65.67 64.59 63.94 63.58 62.38 62.67 61.87 62.27 63.05 62.57 63.34 62.97 62.14 62.32 62.11 61.89 63.05 64.29 64.81 64.87 64.17 63.87 63.02 62.30 61.37 61.81 61.44 60.94 60.17 60.44 59.97 59.65 59.73 59.11 58.14 57.89 57.67
67.65 66.69 65.83 65.37 64.99 65.40 64.27 64.20 63.52 62.95 62.05 61.62 60.62 61.36 62.93 62.13 62.62 62.01 61.77 61.99 61.52 61.72 61.66 63.01 63.67 64.13 64.13 63.41 62.74 62.12 61.21 61.23 61.26 60.81 60.51 59.93 60.06 59.34 59.08 58.81 58.03 57.58 57.53
67.25 66.32 65.39 65.25 65.21 64.53 64.08 63.61 63.28 62.51 61.25 61.14 61.96 61.79 62.38 61.12 61.36 62.01 61.29 61.36 61.15 60.88 61.06 61.79 62.00 62.15 62.79 63.37 62.91 62.11 61.31 61.15 61.34 60.83 59.82 60.07 60.08 59.60 58.91 58.64 58.30 57.59 57.20
66.60 66.41 65.34 64.79 64.86 64.08 63.01 62.66 61.75 62.27 61.17 61.05 61.83 61.79 60.97 60.08 60.16 60.56 61.12 61.78 61.19 60.54 60.28 60.46 60.33 60.25 60.64 62.55 62.89 62.28 61.87 61.45 61.17 60.72 60.25 59.87 59.83 59.68 59.15 58.49 58.28 57.85 57.18
66.29 66.01 64.99 64.24 63.77 62.84 62.55 61.24 61.27 60.69 60.41 61.31 59.99 58.83 58.49 59.13 59.03 60.23 60.45 60.82 59.65 59.92 60.31 60.87 60.12 59.69 59.90 61.29 62.46 62.44 61.90 62.79 61.82 61.21 60.80 60.41 60.28 60.05 59.75 59.07 58.43 57.91 57.57
65.92 65.45 64.08 62.50 61.15 60.33 60.25 60.23 59.82 59.10 58.93 60.80 57.91 56.51 52.80 54.71 57.55 58.15 57.47 58.94 59.54 58.96 60.03 60.31 59.93 59.35 58.92 59.21 59.31 61.93 61.75 62.42 62.31 61.07 61.50 61.02 60.56 60.27 59.84 58.73 58.60 58.32 58.19
64.78 64.97 63.90 61.57 60.20 59.41 58.55 59.02 58.95 58.54 56.93 59.55 59.10 55.72 52.33 51.15 54.26 57.30 57.25 57.08 58.49 58.36 57.81 58.81 59.82 59.57 59.20 58.68 58.89 59.04 58.24 58.53 61.53 62.65 62.05 61.26 60.74 60.44 59.97 59.02 58.75 58.51 58.32
64.24 64.52 63.77 61.54 59.62 59.18 58.39 58.49 59.02 58.68 58.26 56.61 57.80 59.08 57.39 56.18 52.35 51.43 56.33 56.51 57.58 58.59 56.95 58.09 59.05 59.20 58.80 59.42 58.76 56.84 54.74 54.27 56.86 60.78 62.22 62.11 61.41 61.07 60.77 60.12 59.65 59.41 58.81
63.95 64.45 63.58 61.86 59.50 58.90 58.46 58.40 58.37 58.38 58.68 57.61 56.61 56.27 55.79 56.09 55.41 53.39 51.58 53.99 56.33 57.18 57.88 58.49 57.88 58.76 58.56 58.17 58.42 57.03 53.86 52.69 53.75 57.47 60.05 61.37 62.10 61.72 61.29 61.07 60.64 60.40 60.23
62.98 63.34 63.25 61.74 60.14 58.90 58.32 58.46 58.84 58.88 58.26 58.22 57.77 57.15 55.62 53.48 53.13 52.97 52.50 53.81 53.71 55.45 56.66 57.08 56.71 58.46 58.50 57.78 58.29 55.44 52.91 51.52 52.19 55.02 57.52 59.15 60.58 61.78 61.87 61.85 61.68 61.50 61.29
61.18 62.09 62.72 62.10 61.21 59.54 58.99 59.32 59.25 59.13 58.79 58.17 57.57 57.42 57.51 56.46 56.56 56.09 54.19 53.53 52.89 55.18 55.80 56.55 57.32 56.82 58.44 57.96 57.91 53.96 52.02 49.85 50.81 52.87 54.70 56.35 57.69 58.96 59.94 61.16 62.02 62.26 62.20
60.81 61.55 62.61 61.90 61.26 60.55 59.42 59.28 58.83 58.77 58.84 58.56 57.55 57.19 57.34 57.12 57.74 57.21 55.65 54.20 51.51 52.48 54.31 54.71 57.81 58.39 57.30 57.05 56.87 52.37 54.66 48.65 49.13 50.21 51.85 53.49 54.61 55.56 56.21 57.59 58.82 59.76 60.68
60.87 60.57 61.42 62.02 60.90 60.70 59.88 59.25 58.30 58.25 58.75 58.32 58.11 57.68 57.55 57.07 56.39 56.44 55.26 55.34 52.58 49.05 50.65 53.76 54.59 57.71 57.95 58.18 56.75 56.99 56.64 52.00 48.81 48.43 49.02 50.40 52.35 53.37 53.68 54.31 55.02 55.90 56.90
60.48 59.88 59.81 60.59 61.27 60.39 59.47 58.68 57.83 57.81 57.25 57.36 58.03 57.56 57.49 57.29 56.23 56.21 55.60 54.65 53.46 51.22 48.62 53.11 54.44 56.38 58.33 59.09 57.81 57.43 57.81 53.86 50.03 47.84 47.52 48.22 49.30 51.04 51.90 52.35 52.65 53.07 54.08
59.41 58.97 59.38 59.59 59.87 59.58 59.16 57.87 57.31 56.79 56.35 56.43 56.91 57.45 56.99 56.79 56.35 55.97 56.03 55.46 54.14 53.27 50.68 51.77 53.78 53.97 55.05 56.74 58.19 57.83 58.41 58.94 57.90 48.45 47.19 46.94 47.02 48.04 48.61 49.18 49.76 50.92 51.51
59.32 59.35 59.27 58.91 58.80 58.82 58.92 57.89 57.07 56.83 55.97 55.87 56.29 56.27 56.23 56.49 55.77 55.91 55.46 54.98 54.82 54.52 52.91 51.25 52.94 52.98 52.49 54.35 56.30 56.90 57.43 58.02 58.68 53.75 48.49 47.68 46.93 46.46 46.61 46.66 46.71 47.48 47.82
58.68 58.98 59.04 58.62 58.31 58.22 57.58 57.13 56.91 56.47 56.43 55.78 55.52 55.12 55.26 55.36 54.73 55.05 55.20 54.76 54.54 54.53 53.80 52.39 51.83 53.07 53.94 54.68 54.76 55.91 55.09 55.69 57.54 54.15 50.10 48.00 47.12 47.09 46.78 46.43 46.64 46.36 45.80
58.02 58.03 58.25 58.44 58.21 57.95 57.71 57.44 56.66 55.72 55.52 55.77 55.83 55.69 55.42 54.68 54.35 54.14 54.24 54.33 54.25 53.67 53.68 52.71 52.62 52.66 53.04 54.19 55.03 54.03 52.97 54.42 55.74 58.36 54.77 52.26 48.70 46.57 43.37 43.20 42.26 42.35 42.66
57.87 57.70 57.77 57.42 57.45 57.10 54.39 56.85 57.12 56.42 56.12 55.82 56.29 56.57 56.14 54.31 49.92 52.01 54.96 54.63 54.98 54.12 53.55 52.77 51.91 51.12 51.22 51.74 51.73 53.32 53.01 54.25 54.58 54.93 55.50 54.73 44.61 42.02 39.58 39.40 39.80 40.06 39.93
57.28 57.13 56.94 57.35 56.44 45.35 37.96 39.41 49.10 56.22 55.97 55.92 55.12 55.50 55.97 49.89 49.90 44.83 45.48 46.00 52.75 54.94 53.75 52.88 51.33 50.79 51.27 52.79 52.83 52.16 52.26 52.37 48.49 45.67 49.19 46.82 40.44 35.90 36.16 37.07 37.25 37.57 37.89
56.53 54.79 54.65 46.39 41.87 39.58 36.74 38.30 38.41 55.06 54.60 51.72 49.05 50.00 53.31 47.52 45.32 52.11 44.46 41.87 41.75 38.33 37.13 48.76 50.53 51.38 49.63 44.39 44.98 46.61 47.90 47.63 46.60 41.38 43.44 43.18 35.56 31.60 33.49 34.58 35.75 35.88 35.53
42.05 42.05 42.18 41.54 38.69 36.26 35.81 36.81 37.08 51.81 43.51 39.98 38.88 41.34 42.99 40.08 36.93 40.66 47.18 41.10 36.03 34.43 36.46 38.07 36.78 33.09 32.60 33.12 36.29 40.24 41.35 40.79 39.79 33.39 33.84 34.93 32.36 30.06 30.95 31.92 34.03 34.57 34.32
34.68 34.13 34.58 34.40 34.32 34.03 35.20 36.43 42.24 43.60 37.32 34.41 33.61 34.29 35.28 34.25 33.96 36.74 43.77 37.67 32.06 30.33 32.60 32.67 32.18 31.64 31.29 31.00 31.66 37.83 33.76 34.37 34.04 31.09 28.34 31.82 31.05 28.55 29.05 29.31 31.39 32.79 32.03
33.67 33.18 31.91 32.36 32.51 32.15 34.41 35.81 39.35 36.70 32.25 30.85 30.90 31.41 32.21 32.33 32.67 34.15 38.56 36.28 30.66 29.47 29.26 28.61 27.59 28.05 28.56 28.33 28.64 28.55 29.83 32.53 31.58 28.37 27.76 29.18 30.35 29.23 26.15 29.55 30.38 31.01 30.96

GFSMA_sfc_wetblb_111.txt.gz
Wetbulb
64.42 64.89 64.87 64.35 64.28 64.23 64.11 62.88 62.39 61.76 60.52 60.92 61.58 62.29 62.80 63.31 63.19 63.33 64.11 63.57 64.72 66.44 66.61 66.18 65.75 65.12 64.54 64.61 64.68 63.65 63.10 62.44 61.95 61.40 61.19 61.78 61.98 61.62 61.14 60.30 59.82 59.43 59.32
64.80 64.42 63.92 64.26 63.63 64.24 63.52 63.26 62.49 61.32 60.28 60.66 60.95 62.54 62.94 63.59 63.26 62.81 63.39 63.29 62.93 64.45 65.48 65.81 65.08 64.88 64.80 64.66 64.25 63.92 63.39 62.62 61.56 61.32 61.08 61.65 61.45 61.28 60.79 59.92 59.27 59.01 58.72
64.94 64.20 63.58 63.22 63.47 63.94 62.78 62.72 61.63 60.61 60.29 61.10 61.47 62.08 62.52 63.18 63.12 62.37 62.44 62.28 62.28 61.97 63.20 64.67 64.91 65.02 64.65 64.58 64.08 63.75 63.10 62.45 61.24 61.13 61.09 60.67 60.45 60.33 59.92 59.60 58.81 58.50 58.28
65.34 63.84 63.54 63.14 63.08 63.19 63.58 62.59 62.17 61.52 60.91 61.04 61.11 61.34 61.76 62.94 63.05 62.26 62.11 62.13 61.53 61.62 61.73 63.07 64.05 64.37 64.62 64.18 63.57 62.69 62.07 61.55 61.36 61.08 60.65 60.90 59.84 59.83 59.50 59.07 58.51 58.08 57.92
65.74 64.64 63.86 63.45 64.48 63.04 61.77 61.73 61.65 62.13 60.66 61.07 61.00 60.44 61.24 62.17 62.33 62.44 61.18 60.92 60.20 59.89 60.26 61.76 62.10 62.32 63.27 63.70 63.08 62.62 61.90 61.35 61.17 61.21 60.30 59.52 59.87 59.64 59.35 59.05 58.36 57.82 57.61
65.12 64.07 63.48 62.81 63.03 62.48 62.70 61.87 61.66 61.29 61.50 61.25 61.24 60.45 60.43 61.73 61.91 61.05 60.40 60.87 59.90 59.63 59.49 60.74 61.21 60.86 61.04 62.68 63.15 62.43 62.18 61.64 61.49 60.99 60.39 59.76 60.25 59.82 59.37 58.92 58.58 58.02 57.61
64.78 63.62 63.39 62.68 62.90 62.33 62.85 62.73 61.48 61.09 60.31 60.52 59.90 59.62 59.90 60.11 60.07 60.28 60.37 59.81 59.38 59.45 59.17 59.84 59.89 59.66 60.37 61.37 62.74 62.85 62.13 62.37 61.48 61.71 60.67 60.27 60.62 60.42 60.01 58.98 58.60 58.41 58.15
64.09 63.75 62.75 61.68 62.51 61.70 61.29 61.18 60.84 59.34 59.85 60.91 58.23 57.97 53.53 55.34 57.85 59.36 59.66 59.23 58.62 58.74 58.96 59.45 59.35 58.96 59.13 59.37 59.54 62.27 62.66 62.49 62.09 61.55 61.55 61.29 60.23 60.51 60.31 59.37 59.03 58.66 58.38
63.74 64.04 62.01 60.97 61.00 60.40 60.03 60.46 59.89 58.71 57.57 59.84 60.07 56.11 52.00 51.02 54.53 56.59 57.20 58.19 57.15 56.93 58.46 59.51 59.18 58.61 58.44 58.75 59.13 59.56 58.30 58.90 62.27 63.10 61.92 61.66 61.35 61.00 60.42 59.32 59.17 58.96 58.83
62.77 62.70 61.29 59.93 58.71 58.31 58.62 59.22 59.77 59.54 58.73 57.89 58.18 58.16 57.10 55.99 52.35 51.30 55.97 55.49 57.40 57.41 57.38 57.92 58.19 58.38 58.40 58.03 58.07 56.99 55.10 54.58 57.20 61.72 62.39 62.02 61.85 61.41 60.96 60.46 60.08 59.63 59.15
61.69 62.36 60.66 58.93 58.67 57.87 58.10 58.04 58.28 58.93 59.09 57.83 56.97 56.13 55.51 55.65 55.39 53.34 51.34 53.65 55.86 56.73 57.32 57.02 58.20 58.64 58.80 58.36 57.74 56.77 53.98 53.03 53.86 57.95 60.74 61.96 62.15 61.81 61.35 61.18 61.00 60.61 60.31
61.38 62.01 60.91 59.50 59.02 57.98 58.01 57.90 58.53 58.59 58.28 58.50 57.33 56.75 55.57 54.37 53.02 52.98 52.26 53.55 53.37 54.68 56.03 56.64 56.35 57.79 58.32 57.43 58.47 55.78 53.13 51.84 52.33 54.93 57.74 59.73 61.21 61.87 61.87 61.65 61.65 61.37 61.20
61.14 60.94 60.81 59.33 59.02 58.48 58.13 57.75 57.78 58.17 58.17 57.89 57.25 56.55 56.29 55.75 55.63 54.21 52.43 52.99 52.67 54.35 54.31 55.66 56.78 57.24 58.41 57.79 57.39 54.71 52.86 50.24 50.93 52.73 54.81 56.48 57.90 59.24 60.61 61.52 61.72 61.89 61.91
59.44 60.62 60.96 60.26 59.35 58.76 58.25 57.93 58.05 58.45 57.87 57.97 57.45 57.33 56.85 56.51 56.86 55.81 53.98 53.36 50.36 51.31 53.42 54.17 56.31 56.41 56.03 57.52 56.76 51.87 54.27 49.47 49.49 50.41 51.91 53.35 54.76 55.82 56.86 58.21 59.36 60.37 61.15
59.47 59.93 60.44 60.30 60.33 58.89 58.70 58.58 58.28 58.09 57.79 57.05 57.11 57.49 57.36 57.28 57.03 57.09 56.05 55.27 51.90 48.42 50.92 53.72 54.41 57.13 58.00 56.90 56.15 56.75 55.46 50.12 48.53 48.65 49.15 50.64 52.27 53.53 53.92 54.82 55.67 56.59 57.78
59.86 58.59 60.18 59.80 59.41 59.31 59.07 58.32 57.58 58.27 57.95 57.71 57.59 56.95 56.62 56.65 56.49 55.77 54.62 54.58 53.78 52.83 50.80 54.12 55.18 55.70 57.44 57.95 56.38 56.89 56.50 51.63 47.74 47.08 47.12 47.83 49.21 50.92 51.55 52.18 52.71 53.52 54.56
58.32 58.14 58.23 59.62 59.42 59.49 59.16 58.45 57.89 57.86 57.25 57.43 57.67 57.57 57.06 57.29 56.95 56.41 55.65 54.87 53.88 52.83 49.88 51.31 53.73 55.59 54.69 56.18 57.45 57.36 56.90 56.67 56.48 47.52 46.57 46.73 46.65 47.35 48.36 48.88 49.49 50.36 51.21
58.02 57.21 57.27 57.92 59.32 59.33 58.79 58.03 56.97 56.91 56.75 55.99 56.51 56.55 56.91 57.07 56.51 56.65 56.29 55.71 55.69 55.21 53.55 52.20 52.72 53.20 53.37 54.04 55.20 55.60 56.96 58.15 57.89 53.06 48.68 47.86 47.49 46.74 46.28 46.57 46.85 46.60 46.90
57.62 57.24 57.69 58.14 58.53 59.04 58.47 57.95 57.39 56.49 56.43 56.13 56.35 56.15 56.45 55.97 55.59 55.73 55.79 55.51 55.61 55.37 54.65 54.16 53.09 53.84 53.73 53.15 52.95 53.90 54.46 55.75 56.46 53.53 48.54 47.21 47.62 46.90 44.77 44.95 45.21 45.04 44.86
57.75 57.52 58.54 58.28 57.99 57.66 57.73 57.75 57.35 56.85 56.65 56.55 56.59 56.39 56.17 55.73 55.61 55.13 55.21 55.07 54.97 54.24 53.68 53.27 52.86 52.36 52.37 53.67 54.33 53.08 51.84 54.12 54.31 56.61 53.17 44.94 42.70 41.57 41.47 41.07 41.44 41.92 41.82
57.98 57.56 57.87 57.45 57.85 57.47 54.53 56.91 56.51 55.75 55.61 55.39 55.57 56.01 55.93 54.27 50.17 52.29 55.00 54.55 54.17 53.34 52.98 52.28 51.83 51.97 52.09 51.15 50.12 51.46 51.85 52.52 52.92 51.34 51.85 44.70 41.95 40.04 39.33 39.32 39.65 39.89 39.81
57.12 56.82 56.51 56.09 47.78 44.53 38.18 39.65 52.18 55.81 55.75 55.30 54.73 55.31 55.89 49.57 48.60 44.89 45.38 47.14 51.73 53.78 52.92 52.43 52.04 51.26 51.21 51.64 52.54 51.92 51.51 50.08 48.59 43.04 47.98 40.73 39.83 35.52 35.95 36.63 37.29 37.35 37.27
53.19 52.04 48.70 45.79 41.61 39.55 36.80 38.88 39.55 55.95 54.40 50.43 50.00 52.67 52.47 46.37 46.81 52.40 43.85 38.73 36.64 36.84 36.19 50.26 51.61 49.66 48.74 41.65 44.61 47.80 48.27 48.33 46.68 37.73 42.03 38.18 34.46 31.39 33.42 35.31 36.10 36.19 35.68
39.89 39.55 38.97 38.45 37.11 36.57 35.93 37.39 40.31 45.05 40.88 39.02 39.01 41.03 42.06 40.23 37.16 43.34 43.54 37.74 34.53 33.96 35.40 36.80 36.16 33.21 32.97 33.63 37.11 40.43 41.52 41.15 35.28 32.48 32.90 33.74 31.98 29.53 31.33 32.81 34.96 34.20 33.60
33.78 33.77 34.36 34.39 34.39 34.34 35.78 37.76 41.14 38.45 34.70 33.36 33.65 34.51 35.19 35.39 34.61 38.54 38.39 33.35 30.75 30.31 32.95 33.08 32.64 32.37 32.16 32.09 33.42 38.02 34.31 35.22 32.91 28.84 29.31 32.59 30.47 28.05 29.28 29.52 32.07 32.94 32.26
31.98 32.44 31.83 32.55 33.05 32.85 35.19 36.19 36.75 34.95 31.54 30.81 31.34 31.85 32.84 32.84 33.93 35.80 37.38 33.44 29.49 28.89 28.74 28.28 27.95 28.40 29.01 29.45 29.27 29.39 30.66 33.08 32.32 27.73 28.40 30.21 30.13 28.63 25.65 29.51 29.24 26.88 24.71

GFSMA_sfc_wetblb_114.txt.gz
Wetbulb
65.54 64.89 63.83 63.80 63.60 63.64 63.59 63.05 61.37 61.20 60.45 60.97 61.67 61.72 61.61 62.69 63.17 63.47 63.98 63.43 64.57 66.75 67.41 66.55 65.71 65.25 64.58 64.33 65.07 64.45 63.29 62.90 62.45 61.83 61.60 61.93 61.99 61.74 61.58 61.36 60.82 60.09 59.91
64.98 64.53 64.07 63.62 63.28 63.67 63.15 62.44 61.74 60.82 59.99 59.79 59.99 60.58 61.17 62.41 62.76 62.84 63.85 64.01 62.93 64.48 65.93 66.69 65.88 65.40 64.65 64.25 65.00 64.13 63.62 62.97 61.74 61.81 61.50 61.50 61.63 61.33 61.09 60.40 59.66 59.44 59.28
64.32 63.96 63.92 63.55 63.85 63.64 62.32 61.76 60.54 59.32 58.77 59.43 59.02 60.07 61.53 61.99 62.37 62.82 63.40 63.52 63.29 62.18 63.73 65.27 65.61 65.48 64.69 64.68 64.12 63.84 63.48 62.65 61.34 61.50 61.35 60.86 61.10 60.66 60.10 59.78 59.19 59.02 58.75
64.89 63.77 63.43 63.20 62.74 63.17 62.82 61.64 61.62 60.78 59.83 60.41 58.55 59.16 60.34 62.10 62.60 62.54 62.99 63.06 62.87 63.09 62.22 63.27 64.16 64.60 64.59 65.02 64.05 63.63 62.93 62.25 61.57 61.53 61.49 60.67 60.56 60.51 59.73 59.20 58.92 58.47 58.27
65.22 64.20 63.47 62.64 62.75 62.31 62.40 62.12 61.82 61.62 60.42 60.03 60.30 59.89 60.96 61.29 62.31 63.06 62.29 62.13 61.33 60.67 61.17 61.95 62.29 62.50 63.55 64.17 64.27 63.69 63.09 61.71 61.58 61.40 61.36 60.32 60.34 60.38 59.82 59.15 58.64 58.21 57.91
65.22 63.82 63.00 62.57 63.50 63.45 62.08 61.81 61.63 61.71 61.20 60.17 60.40 60.53 60.53 61.39 62.00 62.17 61.75 61.87 60.73 59.19 59.63 61.03 61.57 61.07 61.23 63.09 63.69 63.29 63.22 62.32 61.80 61.87 61.05 60.38 59.27 60.12 59.78 59.28 58.79 58.11 57.85
65.02 63.87 63.05 62.35 62.25 62.95 62.72 62.42 61.85 61.00 60.22 61.11 59.88 59.72 59.13 60.21 60.98 61.36 61.17 60.87 59.31 59.20 58.94 59.84 60.52 60.11 60.87 61.67 62.87 63.66 63.11 62.54 61.77 61.50 60.96 60.58 60.57 60.87 60.27 59.37 59.07 58.62 58.02
63.50 63.35 62.83 62.18 61.88 62.00 61.70 62.41 61.47 60.26 60.38 61.04 57.91 57.57 53.82 56.22 59.46 60.12 60.09 59.85 58.79 59.12 58.88 59.78 59.89 59.45 59.71 60.30 60.14 62.60 63.02 62.02 61.84 61.57 62.07 60.83 61.00 61.00 60.57 59.80 59.24 58.88 58.66
63.46 63.63 62.71 62.14 61.29 61.74 61.62 61.30 61.32 60.37 58.63 59.88 59.49 56.76 52.38 51.59 55.58 58.45 58.83 58.98 58.06 57.75 58.30 59.11 59.21 59.75 59.24 59.15 59.34 59.86 58.37 59.01 61.88 62.61 62.15 61.65 61.06 60.70 60.81 59.99 59.75 59.50 58.94
63.01 63.02 62.43 61.42 61.34 61.54 61.13 60.51 60.91 60.09 58.72 57.26 59.17 59.19 57.22 55.90 53.09 51.65 56.78 57.82 57.90 57.16 57.09 57.92 58.51 58.65 58.49 58.59 58.29 56.97 55.31 54.50 57.40 61.52 62.24 62.11 61.67 61.48 61.26 60.77 60.21 59.48 59.35
62.48 62.68 61.58 60.35 59.17 58.29 57.84 58.79 59.32 59.06 59.03 57.91 58.03 56.14 56.80 55.60 55.21 54.34 52.41 53.91 55.75 57.12 57.73 57.99 58.07 57.87 57.96 57.97 57.86 57.01 54.28 53.24 53.70 58.12 61.39 62.13 62.06 62.02 61.65 61.31 61.00 60.42 60.21
60.58 61.72 61.18 59.92 58.84 57.36 56.56 57.24 58.64 58.85 58.56 58.74 58.62 57.26 55.75 54.58 53.86 54.36 53.68 53.56 54.19 55.37 56.56 57.50 57.62 57.92 58.01 57.92 57.84 55.45 53.33 52.13 52.73 55.05 58.03 60.54 61.61 61.96 61.96 61.74 61.68 60.96 61.03
60.23 60.97 60.76 59.69 57.85 57.70 57.60 57.54 57.64 58.12 58.54 58.38 57.56 56.94 57.04 56.24 55.59 54.33 54.30 53.15 52.99 53.98 54.95 55.78 57.20 57.96 58.53 57.93 57.72 54.36 53.14 50.53 51.14 53.08 54.78 56.66 58.61 60.09 60.89 61.34 61.67 61.85 61.87
60.55 60.75 60.95 59.97 58.04 57.44 58.15 57.30 56.94 57.84 58.46 58.36 57.28 56.88 56.44 56.36 56.40 55.76 53.85 53.37 50.73 52.15 53.56 53.54 56.35 57.04 57.49 58.05 56.86 52.76 56.64 49.48 49.63 50.48 52.00 53.44 54.82 56.16 57.20 58.68 59.80 60.55 61.13
60.88 60.58 61.28 59.58 57.76 57.46 57.95 57.36 56.70 57.04 57.66 57.98 57.30 56.94 56.64 56.80 56.82 56.30 55.53 55.01 52.46 49.23 50.81 53.34 53.80 56.73 57.06 57.39 56.11 56.24 56.88 51.52 48.92 48.67 49.22 50.47 52.24 53.60 54.11 55.21 56.08 57.24 58.53
59.84 59.94 60.42 59.78 59.16 58.45 58.09 57.66 56.80 57.53 57.28 57.08 57.54 56.86 56.84 56.82 56.74 56.82 55.98 55.33 54.63 52.32 49.90 53.54 54.17 55.45 57.57 57.16 55.37 56.93 56.20 52.32 48.26 47.48 47.21 48.03 49.30 50.88 51.54 52.29 52.90 53.65 54.84
59.50 59.55 59.78 60.08 59.36 58.21 58.23 57.70 57.47 57.31 57.50 57.14 57.30 56.96 56.80 57.18 56.52 56.38 56.32 55.75 54.38 52.48 52.10 52.59 54.57 55.80 55.22 56.25 56.99 55.91 56.47 55.77 54.59 46.55 46.20 46.57 46.80 47.71 48.44 48.90 49.39 50.37 51.12
59.77 59.33 59.39 59.43 59.41 58.85 58.44 57.50 57.14 57.30 56.98 56.94 57.06 56.86 56.50 56.74 56.54 56.48 55.98 54.93 54.10 53.64 52.40 51.37 52.29 53.63 54.57 54.84 55.47 56.34 56.91 57.62 57.25 51.31 46.59 47.21 46.50 46.98 46.34 45.61 45.60 46.01 46.69
59.02 58.13 58.26 58.62 58.81 59.05 58.35 58.25 57.90 57.22 57.24 57.16 57.14 56.88 57.04 56.90 56.14 56.58 56.66 56.30 56.12 55.78 54.74 53.52 53.20 53.65 54.39 54.16 54.35 54.26 54.29 56.04 56.43 53.44 48.71 45.15 46.16 44.76 44.06 43.95 43.58 43.49 43.82
57.99 57.50 57.49 57.62 58.80 59.00 58.96 58.42 57.68 56.94 56.80 56.84 56.84 56.90 56.78 56.54 56.16 55.98 55.80 55.86 55.62 55.30 55.18 54.46 54.55 53.09 53.40 54.35 54.09 52.84 52.61 53.64 53.38 51.73 43.33 41.97 41.52 41.47 41.42 41.42 41.65 41.77 41.72
57.97 58.07 57.81 57.04 57.42 57.88 56.02 57.69 57.54 56.82 56.28 56.04 56.36 56.44 56.56 54.95 50.60 52.90 55.64 55.04 54.61 54.01 53.51 53.07 52.08 51.84 51.74 51.33 51.41 53.10 52.67 52.19 50.21 50.65 45.39 43.21 41.61 39.87 39.49 39.79 40.07 39.83 39.44
57.31 57.31 57.12 56.42 51.80 46.23 38.33 39.89 51.73 56.24 56.12 55.62 54.84 55.48 55.82 49.31 48.92 44.66 45.74 45.93 49.95 53.81 53.01 52.43 52.02 51.19 51.80 52.03 50.93 51.06 51.59 49.41 47.94 42.20 44.84 38.09 38.35 35.53 36.22 37.15 37.77 37.61 37.36
49.84 47.97 47.52 46.46 42.54 39.79 37.24 39.12 39.10 55.86 55.30 54.52 53.66 54.42 53.84 48.94 48.55 52.44 38.86 37.36 36.77 36.18 35.40 51.10 52.43 52.13 51.33 49.08 48.26 49.71 49.22 48.11 46.42 37.44 42.63 33.87 33.73 31.35 33.91 35.61 36.25 35.97 35.44
36.43 37.28 36.96 37.59 37.52 37.37 36.43 37.93 39.56 45.54 41.97 39.76 39.53 41.08 44.43 42.34 39.22 45.95 44.88 38.16 34.59 34.20 35.28 37.07 37.25 35.09 34.47 35.59 39.71 42.38 43.48 36.97 34.58 32.40 34.02 31.61 31.53 29.47 31.88 33.52 34.56 33.84 33.20
32.89 31.91 33.01 33.25 33.73 34.54 36.18 37.90 40.20 37.99 34.79 33.46 33.85 34.69 35.53 36.69 35.25 39.61 39.30 33.76 31.12 30.65 33.43 33.67 33.22 32.81 32.67 33.06 34.86 38.73 35.76 36.26 32.30 29.50 30.08 32.15 29.33 27.96 29.08 30.05 32.15 32.99 32.10
32.59 32.29 31.53 31.85 32.59 32.40 35.02 35.56 35.85 34.71 32.04 31.15 31.48 31.87 33.16 33.87 35.06 36.45 36.22 33.85 29.84 28.46 28.77 28.85 28.76 29.03 29.64 30.07 29.80 30.38 32.62 33.77 30.71 28.64 29.49 30.26 28.68 27.74 24.93 29.15 29.68 30.06 28.52

GFSMA_sfc_wetblb_117.txt.gz
Wetbulb
66.06 63.97 63.36 63.50 62.58 62.50 65.30 64.22 63.63 61.15 60.18 60.35 60.89 61.20 61.06 61.27 61.56 62.76 63.62 63.71 64.51 66.81 67.75 67.31 66.40 65.29 64.45 64.48 64.62 64.73 63.53 63.18 62.76 62.45 62.03 62.39 62.00 61.87 61.16 61.51 61.30 60.62 60.25
65.63 64.43 63.32 63.10 62.37 62.65 62.36 63.20 61.49 60.61 59.98 59.88 60.26 61.56 60.53 61.02 61.23 61.55 62.51 63.80 62.95 65.07 66.39 67.46 66.42 65.55 64.74 64.21 65.00 64.66 63.88 63.82 62.81 61.63 61.65 62.40 62.05 61.38 61.26 60.42 60.05 59.74 59.73
64.66 64.27 63.62 62.89 62.79 62.53 61.27 60.51 59.42 58.84 58.32 58.94 59.07 60.55 60.05 60.42 60.67 61.19 62.07 62.97 63.32 62.18 63.50 65.32 65.87 65.75 65.00 64.33 64.50 64.45 63.99 63.07 61.84 61.70 61.75 61.78 61.89 61.17 60.70 59.99 59.52 59.47 59.12
64.47 63.75 63.78 63.21 62.87 62.23 61.81 60.81 61.31 60.45 57.82 58.08 57.19 57.87 59.30 60.24 60.63 60.88 61.93 62.99 63.55 63.70 62.67 63.22 64.44 64.91 64.74 64.94 64.48 63.55 63.12 62.93 62.18 61.98 61.42 61.65 61.64 60.74 60.25 59.63 59.32 59.07 58.87
64.50 63.58 63.49 62.87 62.35 62.71 62.15 61.79 61.79 61.43 60.16 59.68 59.39 57.25 58.88 59.56 60.30 62.07 62.03 62.89 63.07 63.26 63.13 62.28 62.45 62.63 63.40 64.49 64.71 63.94 63.64 62.60 61.99 62.01 61.61 60.99 60.84 60.61 60.05 59.45 59.22 58.77 58.40
64.83 63.72 62.99 61.93 62.45 62.55 62.71 62.21 61.44 61.51 60.79 60.32 59.91 59.89 60.10 61.20 61.52 62.07 62.18 62.73 62.46 61.77 61.01 61.55 61.68 61.15 61.26 63.40 64.03 64.13 63.77 62.77 61.87 62.03 61.95 61.01 60.97 60.63 60.25 59.54 59.11 58.71 58.28
64.76 63.58 62.79 61.88 62.38 63.07 62.66 62.25 61.70 60.70 60.29 60.74 59.20 59.08 59.18 60.22 60.81 61.61 61.96 61.92 61.48 60.13 60.00 60.17 60.30 59.36 60.62 62.01 63.35 64.04 63.89 63.28 62.69 62.09 61.37 61.15 60.84 59.38 60.53 59.73 59.24 58.66 58.22
64.38 63.79 62.93 61.82 62.68 63.37 62.41 62.09 61.52 60.33 60.45 60.44 58.26 56.79 54.25 56.65 59.26 60.62 60.91 60.89 60.41 60.02 59.40 59.39 59.53 59.11 59.21 61.36 61.20 62.98 63.69 63.41 62.79 61.85 61.90 61.41 60.21 60.11 60.44 59.92 59.54 59.13 58.75
63.55 63.72 62.86 62.31 62.18 62.49 62.01 62.24 61.99 60.71 59.30 60.11 59.73 56.79 52.44 52.13 55.61 58.83 59.30 60.20 59.84 59.14 59.20 59.16 59.07 59.42 59.28 59.91 60.37 60.23 58.93 59.41 62.14 62.32 62.33 61.53 61.03 60.69 60.72 60.38 59.88 59.45 59.13
62.58 62.98 62.57 61.73 61.51 62.10 61.49 61.94 61.88 61.18 60.30 58.38 59.40 58.71 57.10 55.83 53.92 52.06 57.73 58.38 59.03 58.68 57.88 58.25 58.73 59.04 59.80 59.27 58.91 57.20 55.79 54.70 57.42 61.41 62.29 62.27 61.46 61.01 60.91 60.77 60.29 60.03 59.73
62.77 62.71 62.43 61.45 61.02 61.87 62.44 61.45 60.38 60.41 59.74 58.82 58.11 57.29 57.75 56.41 55.73 53.79 52.67 54.44 57.09 57.95 57.91 57.87 58.49 58.56 58.91 58.67 58.37 57.39 54.48 53.67 53.88 58.62 61.22 61.71 61.87 61.42 61.26 61.26 61.20 60.81 60.51
61.59 62.00 62.02 61.45 61.35 61.10 59.78 59.56 59.61 59.89 59.31 58.51 58.43 56.83 56.15 54.35 54.95 54.51 53.59 54.41 54.32 55.89 57.05 57.92 57.54 57.88 58.03 57.96 58.13 55.75 53.42 52.22 52.85 55.20 58.00 60.37 61.44 61.74 61.70 61.78 61.78 61.11 60.87
60.95 61.24 61.73 61.42 60.81 59.75 57.97 57.75 58.87 58.75 58.59 58.39 58.01 57.51 57.21 57.04 57.28 56.59 55.47 54.50 53.84 54.60 55.16 56.53 57.72 57.89 57.92 57.81 57.59 54.66 53.27 50.81 51.44 53.16 54.92 56.83 58.84 60.15 60.94 61.43 61.78 61.91 61.74
61.32 61.60 61.81 61.26 60.58 58.61 58.46 58.60 58.33 57.61 57.75 57.83 57.07 56.93 57.17 57.24 56.43 56.36 55.57 53.95 52.15 52.26 53.35 53.94 56.71 57.17 57.85 57.86 56.98 52.61 56.17 49.79 50.04 50.95 52.19 53.68 54.90 56.42 57.63 58.93 59.90 60.42 60.87
61.21 60.23 61.41 60.67 59.59 58.59 58.96 58.00 56.93 56.67 57.31 57.61 57.81 57.67 56.29 56.63 56.55 56.21 56.59 56.56 54.12 49.85 51.90 53.41 54.22 56.82 57.20 57.78 56.54 56.40 56.32 51.78 49.35 48.77 49.40 50.79 52.63 53.82 54.60 55.73 56.76 57.72 58.90
60.66 59.82 61.02 60.44 58.71 58.13 58.24 57.46 56.55 56.51 56.63 57.43 57.89 56.79 56.47 56.33 56.47 56.37 55.79 55.61 54.52 52.78 50.45 54.41 54.86 55.45 56.87 57.01 55.60 56.26 56.15 52.98 48.62 47.41 47.23 48.03 49.33 51.19 52.00 52.61 53.26 54.19 55.42
59.76 59.46 60.54 59.84 58.73 57.99 57.45 56.93 56.47 56.61 56.25 56.67 57.23 56.71 56.21 56.57 56.27 56.31 55.89 55.27 54.62 53.39 51.46 52.08 53.94 54.99 55.00 55.94 55.60 56.80 56.26 56.11 56.48 48.27 46.46 46.47 46.89 47.76 48.64 49.24 49.65 50.46 51.18
59.54 59.66 60.31 59.81 59.42 58.64 57.75 56.87 56.27 56.49 56.21 55.87 56.45 56.59 56.15 56.53 56.01 56.37 56.07 55.31 54.66 54.55 53.31 51.22 51.98 52.99 53.53 55.73 56.32 55.59 56.07 56.60 56.06 50.73 47.19 45.83 45.74 45.95 46.00 45.48 45.95 46.46 46.76
59.06 59.35 59.87 59.33 58.89 58.72 57.80 57.34 57.18 56.75 56.51 56.92 56.97 56.59 56.63 56.37 55.93 56.11 55.89 55.43 55.33 54.86 54.06 53.45 52.62 53.25 54.21 54.37 53.88 54.55 55.07 55.81 56.37 52.23 45.72 45.60 45.62 45.80 45.93 45.66 45.30 45.03 44.94
58.83 58.73 59.39 59.47 58.97 58.52 58.15 57.60 57.56 57.25 57.11 57.22 57.62 57.42 57.12 56.75 56.35 56.27 56.01 55.87 55.71 54.97 54.51 53.57 53.37 52.73 53.20 54.04 54.47 53.76 53.00 54.19 53.05 46.91 42.89 41.94 41.80 42.16 42.18 42.02 42.08 42.18 41.88
58.23 58.11 58.47 58.62 58.53 58.32 58.47 57.97 57.91 57.29 56.95 56.81 56.97 57.09 57.37 55.61 51.14 53.34 56.23 55.95 55.65 54.92 54.74 54.18 53.42 51.68 52.15 51.17 52.60 53.35 53.23 53.53 51.30 45.86 42.61 42.36 41.07 39.67 39.75 40.23 40.64 40.27 40.09
52.52 57.51 57.41 57.33 56.41 47.46 38.94 44.54 54.03 57.19 56.67 56.07 55.41 55.91 56.49 49.74 49.36 45.09 45.99 46.36 52.25 54.56 53.28 52.49 52.39 51.58 51.81 52.25 52.44 52.48 52.10 50.07 47.03 46.14 41.76 36.94 38.14 35.99 37.14 37.76 38.29 38.07 37.98
37.04 38.53 42.00 44.73 40.89 38.76 37.41 38.65 42.55 56.83 56.15 55.93 55.23 55.08 54.96 53.21 49.76 51.85 38.20 37.54 36.77 36.36 36.75 52.46 52.55 52.28 51.54 51.36 50.66 49.44 49.73 48.81 46.30 39.70 39.76 32.50 33.69 31.96 35.18 36.39 36.67 36.23 35.70
34.16 33.68 34.64 36.40 37.18 36.29 37.59 38.51 37.62 49.76 44.49 41.34 41.22 43.19 49.60 46.59 41.80 47.17 44.64 39.75 35.51 34.73 35.65 38.18 39.45 36.50 36.05 37.58 42.33 45.73 46.29 37.63 34.63 33.26 36.39 30.02 31.18 30.09 32.46 33.54 34.93 34.36 33.61
33.60 32.64 33.09 33.23 33.95 34.46 35.52 36.31 39.44 38.52 35.55 33.84 34.32 35.34 37.54 39.32 36.10 39.91 41.75 35.02 31.59 30.92 33.60 33.81 33.47 33.29 33.15 33.89 35.91 40.55 36.19 37.23 32.55 31.45 31.96 31.19 29.02 28.42 29.52 30.47 32.14 33.08 32.42
32.03 32.75 32.17 32.23 32.50 32.04 35.04 35.04 34.75 33.50 31.83 31.70 31.79 32.22 33.42 34.87 35.52 36.97 38.47 35.33 30.85 28.88 29.07 29.37 29.11 29.27 29.85 30.17 30.22 31.27 33.67 34.56 31.77 30.62 30.41 30.07 28.18 28.03 25.47 29.17 30.65 29.32 28.36